﻿<?xml version="1.0" encoding="utf-8"?><gpx creator="Garmin Desktop App" version="1.1" xsi:schemaLocation="http://www.topografix.com/GPX/1/1 http://www.topografix.com/GPX/1/1/gpx.xsd http://www.garmin.com/xmlschemas/WaypointExtension/v1 http://www8.garmin.com/xmlschemas/WaypointExtensionv1.xsd http://www.garmin.com/xmlschemas/TrackPointExtension/v1 http://www.garmin.com/xmlschemas/TrackPointExtensionv1.xsd http://www.garmin.com/xmlschemas/GpxExtensions/v3 http://www8.garmin.com/xmlschemas/GpxExtensionsv3.xsd http://www.garmin.com/xmlschemas/ActivityExtension/v1 http://www8.garmin.com/xmlschemas/ActivityExtensionv1.xsd http://www.garmin.com/xmlschemas/AdventuresExtensions/v1 http://www8.garmin.com/xmlschemas/AdventuresExtensionv1.xsd http://www.garmin.com/xmlschemas/PressureExtension/v1 http://www.garmin.com/xmlschemas/PressureExtensionv1.xsd http://www.garmin.com/xmlschemas/TripExtensions/v1 http://www.garmin.com/xmlschemas/TripExtensionsv1.xsd http://www.garmin.com/xmlschemas/TripMetaDataExtensions/v1 http://www.garmin.com/xmlschemas/TripMetaDataExtensionsv1.xsd http://www.garmin.com/xmlschemas/ViaPointTransportationModeExtensions/v1 http://www.garmin.com/xmlschemas/ViaPointTransportationModeExtensionsv1.xsd http://www.garmin.com/xmlschemas/CreationTimeExtension/v1 http://www.garmin.com/xmlschemas/CreationTimeExtensionsv1.xsd http://www.garmin.com/xmlschemas/AccelerationExtension/v1 http://www.garmin.com/xmlschemas/AccelerationExtensionv1.xsd http://www.garmin.com/xmlschemas/PowerExtension/v1 http://www.garmin.com/xmlschemas/PowerExtensionv1.xsd http://www.garmin.com/xmlschemas/VideoExtension/v1 http://www.garmin.com/xmlschemas/VideoExtensionv1.xsd" xmlns="http://www.topografix.com/GPX/1/1" xmlns:xsi="http://www.w3.org/2001/XMLSchema-instance" xmlns:wptx1="http://www.garmin.com/xmlschemas/WaypointExtension/v1" xmlns:gpxtrx="http://www.garmin.com/xmlschemas/GpxExtensions/v3" xmlns:gpxtpx="http://www.garmin.com/xmlschemas/TrackPointExtension/v1" xmlns:gpxx="http://www.garmin.com/xmlschemas/GpxExtensions/v3" xmlns:trp="http://www.garmin.com/xmlschemas/TripExtensions/v1" xmlns:adv="http://www.garmin.com/xmlschemas/AdventuresExtensions/v1" xmlns:prs="http://www.garmin.com/xmlschemas/PressureExtension/v1" xmlns:tmd="http://www.garmin.com/xmlschemas/TripMetaDataExtensions/v1" xmlns:vptm="http://www.garmin.com/xmlschemas/ViaPointTransportationModeExtensions/v1" xmlns:ctx="http://www.garmin.com/xmlschemas/CreationTimeExtension/v1" xmlns:gpxacc="http://www.garmin.com/xmlschemas/AccelerationExtension/v1" xmlns:gpxpx="http://www.garmin.com/xmlschemas/PowerExtension/v1" xmlns:vidx1="http://www.garmin.com/xmlschemas/VideoExtension/v1">

  <metadata>
    <link href="http://www.garmin.com">
      <text>Garmin International</text>
    </link>
    <time>2022-01-31T17:30:20Z</time>
    <bounds maxlat="46.316280076280236" maxlon="8.261093460023403" minlat="46.284673260524869" minlon="8.212634744122624" />
  </metadata>

  <trk>
    <name>Alpe Devero-Punta D'Orogna2022-01-30</name>
    <extensions>
      <gpxx:TrackExtension>
        <gpxx:DisplayColor>Yellow</gpxx:DisplayColor>
      </gpxx:TrackExtension>
    </extensions>
    <trkseg>
      <trkpt lat="46.314413929358125" lon="8.260822724550962">
        <ele>1628.3499999999999</ele>
        <time>2022-01-30T07:39:21Z</time>
      </trkpt>
      <trkpt lat="46.314418874680996" lon="8.260831860825419">
        <ele>1628.3699999999999</ele>
        <time>2022-01-30T07:39:22Z</time>
      </trkpt>
      <trkpt lat="46.314455755054951" lon="8.260893132537603">
        <ele>1630.29</ele>
        <time>2022-01-30T07:39:29Z</time>
      </trkpt>
      <trkpt lat="46.31446304731071" lon="8.260901933535934">
        <ele>1631.3199999999999</ele>
        <time>2022-01-30T07:39:30Z</time>
      </trkpt>
      <trkpt lat="46.314520295709372" lon="8.260921882465482">
        <ele>1634.51</ele>
        <time>2022-01-30T07:39:38Z</time>
      </trkpt>
      <trkpt lat="46.314552566036582" lon="8.260875446721911">
        <ele>1634.8900000000001</ele>
        <time>2022-01-30T07:39:42Z</time>
      </trkpt>
      <trkpt lat="46.314588775858283" lon="8.26086513698101">
        <ele>1634.98</ele>
        <time>2022-01-30T07:39:46Z</time>
      </trkpt>
      <trkpt lat="46.314597325399518" lon="8.260860191658139">
        <ele>1635.0799999999999</ele>
        <time>2022-01-30T07:39:47Z</time>
      </trkpt>
      <trkpt lat="46.314606377854943" lon="8.260853653773665">
        <ele>1635.1300000000001</ele>
        <time>2022-01-30T07:39:48Z</time>
      </trkpt>
      <trkpt lat="46.314702183008194" lon="8.260803194716573">
        <ele>1635.5599999999999</ele>
        <time>2022-01-30T07:39:57Z</time>
      </trkpt>
      <trkpt lat="46.314807627350092" lon="8.26079573482275">
        <ele>1636.4400000000001</ele>
        <time>2022-01-30T07:40:08Z</time>
      </trkpt>
      <trkpt lat="46.314940229058266" lon="8.260827250778675">
        <ele>1637.3399999999999</ele>
        <time>2022-01-30T07:40:20Z</time>
      </trkpt>
      <trkpt lat="46.315060677006841" lon="8.26081576757133">
        <ele>1638.2</ele>
        <time>2022-01-30T07:40:30Z</time>
      </trkpt>
      <trkpt lat="46.315096216276288" lon="8.260809229686856">
        <ele>1638.3699999999999</ele>
        <time>2022-01-30T07:40:33Z</time>
      </trkpt>
      <trkpt lat="46.315107950940728" lon="8.260807888582349">
        <ele>1638.46</ele>
        <time>2022-01-30T07:40:34Z</time>
      </trkpt>
      <trkpt lat="46.315119853243232" lon="8.260805374011397">
        <ele>1638.54</ele>
        <time>2022-01-30T07:40:35Z</time>
      </trkpt>
      <trkpt lat="46.315145837143064" lon="8.260793974623084">
        <ele>1638.7</ele>
        <time>2022-01-30T07:40:37Z</time>
      </trkpt>
      <trkpt lat="46.315157152712345" lon="8.260784083977342">
        <ele>1638.75</ele>
        <time>2022-01-30T07:40:38Z</time>
      </trkpt>
      <trkpt lat="46.315198056399822" lon="8.26069749891758">
        <ele>1639.1199999999999</ele>
        <time>2022-01-30T07:40:46Z</time>
      </trkpt>
      <trkpt lat="46.315201241523027" lon="8.260682746767998">
        <ele>1639.1600000000001</ele>
        <time>2022-01-30T07:40:47Z</time>
      </trkpt>
      <trkpt lat="46.315203839913011" lon="8.260667324066162">
        <ele>1639.2</ele>
        <time>2022-01-30T07:40:48Z</time>
      </trkpt>
      <trkpt lat="46.315200738608837" lon="8.260516952723265">
        <ele>1639.5</ele>
        <time>2022-01-30T07:40:58Z</time>
      </trkpt>
      <trkpt lat="46.315184226259589" lon="8.260349733754993">
        <ele>1639.5799999999999</ele>
        <time>2022-01-30T07:41:09Z</time>
      </trkpt>
      <trkpt lat="46.315167294815183" lon="8.260189723223448">
        <ele>1639.3</ele>
        <time>2022-01-30T07:41:20Z</time>
      </trkpt>
      <trkpt lat="46.315149692818522" lon="8.260035077109933">
        <ele>1639.6300000000001</ele>
        <time>2022-01-30T07:41:32Z</time>
      </trkpt>
      <trkpt lat="46.315110633149743" lon="8.25988344848156">
        <ele>1640.26</ele>
        <time>2022-01-30T07:41:44Z</time>
      </trkpt>
      <trkpt lat="46.315062940120697" lon="8.259719330817461">
        <ele>1640.3800000000001</ele>
        <time>2022-01-30T07:41:56Z</time>
      </trkpt>
      <trkpt lat="46.315036453306675" lon="8.25955999083817">
        <ele>1640.1900000000001</ele>
        <time>2022-01-30T07:42:08Z</time>
      </trkpt>
      <trkpt lat="46.315049864351749" lon="8.25946569442749">
        <ele>1640.46</ele>
        <time>2022-01-30T07:42:18Z</time>
      </trkpt>
      <trkpt lat="46.315075596794486" lon="8.259299481287599">
        <ele>1640.1300000000001</ele>
        <time>2022-01-30T07:42:30Z</time>
      </trkpt>
      <trkpt lat="46.315087750554085" lon="8.25912706553936">
        <ele>1639.99</ele>
        <time>2022-01-30T07:42:42Z</time>
      </trkpt>
      <trkpt lat="46.315103340893984" lon="8.258952889591456">
        <ele>1639.3699999999999</ele>
        <time>2022-01-30T07:42:53Z</time>
      </trkpt>
      <trkpt lat="46.315084146335721" lon="8.25874887406826">
        <ele>1639.22</ele>
        <time>2022-01-30T07:43:06Z</time>
      </trkpt>
      <trkpt lat="46.315052378922701" lon="8.258632197976112">
        <ele>1639.5799999999999</ele>
        <time>2022-01-30T07:43:14Z</time>
      </trkpt>
      <trkpt lat="46.315019018948078" lon="8.258512755855918">
        <ele>1639.75</ele>
        <time>2022-01-30T07:43:23Z</time>
      </trkpt>
      <trkpt lat="46.314992196857929" lon="8.258422231301665">
        <ele>1639.6800000000001</ele>
        <time>2022-01-30T07:43:30Z</time>
      </trkpt>
      <trkpt lat="46.314992364495993" lon="8.258411418646574">
        <ele>1639.9300000000001</ele>
        <time>2022-01-30T07:43:36Z</time>
      </trkpt>
      <trkpt lat="46.315007451921701" lon="8.258355595171452">
        <ele>1641.5599999999999</ele>
        <time>2022-01-30T07:43:46Z</time>
      </trkpt>
      <trkpt lat="46.315053217113018" lon="8.258320391178131">
        <ele>1642.1500000000001</ele>
        <time>2022-01-30T07:43:54Z</time>
      </trkpt>
      <trkpt lat="46.315123541280627" lon="8.258278984576464">
        <ele>1641.8299999999999</ele>
        <time>2022-01-30T07:44:05Z</time>
      </trkpt>
      <trkpt lat="46.315176766365767" lon="8.258256437256932">
        <ele>1642.97</ele>
        <time>2022-01-30T07:44:16Z</time>
      </trkpt>
      <trkpt lat="46.315208785235882" lon="8.258219975978136">
        <ele>1642.01</ele>
        <time>2022-01-30T07:44:24Z</time>
      </trkpt>
      <trkpt lat="46.315264943987131" lon="8.258136995136738">
        <ele>1641.9300000000001</ele>
        <time>2022-01-30T07:44:34Z</time>
      </trkpt>
      <trkpt lat="46.315268548205495" lon="8.258122662082315">
        <ele>1642.7</ele>
        <time>2022-01-30T07:44:46Z</time>
      </trkpt>
      <trkpt lat="46.315307691693306" lon="8.258130373433232">
        <ele>1640.8800000000001</ele>
        <time>2022-01-30T07:44:59Z</time>
      </trkpt>
      <trkpt lat="46.315316157415509" lon="8.258119057863951">
        <ele>1641.6600000000001</ele>
        <time>2022-01-30T07:45:29Z</time>
      </trkpt>
      <trkpt lat="46.31531766615808" lon="8.258110340684652">
        <ele>1641.6900000000001</ele>
        <time>2022-01-30T07:46:02Z</time>
      </trkpt>
      <trkpt lat="46.315317582339048" lon="8.25812098570168">
        <ele>1640.0799999999999</ele>
        <time>2022-01-30T07:46:35Z</time>
      </trkpt>
      <trkpt lat="46.315318252891302" lon="8.258120734244585">
        <ele>1640.1700000000001</ele>
        <time>2022-01-30T07:46:56Z</time>
      </trkpt>
      <trkpt lat="46.315315738320351" lon="8.258125595748425">
        <ele>1639.78</ele>
        <time>2022-01-30T07:47:13Z</time>
      </trkpt>
      <trkpt lat="46.315311882644892" lon="8.258125176653266">
        <ele>1639.1700000000001</ele>
        <time>2022-01-30T07:47:25Z</time>
      </trkpt>
      <trkpt lat="46.315312469378114" lon="8.258124254643917">
        <ele>1639.2</ele>
        <time>2022-01-30T07:47:46Z</time>
      </trkpt>
      <trkpt lat="46.315311128273606" lon="8.258123835548759">
        <ele>1639.8599999999999</ele>
        <time>2022-01-30T07:48:27Z</time>
      </trkpt>
      <trkpt lat="46.315306099131703" lon="8.258121991530061">
        <ele>1640.0699999999999</ele>
        <time>2022-01-30T07:48:48Z</time>
      </trkpt>
      <trkpt lat="46.315303668379784" lon="8.258125344291329">
        <ele>1639.3699999999999</ele>
        <time>2022-01-30T07:49:07Z</time>
      </trkpt>
      <trkpt lat="46.315305177122355" lon="8.258125092834234">
        <ele>1638.6600000000001</ele>
        <time>2022-01-30T07:49:24Z</time>
      </trkpt>
      <trkpt lat="46.315304255113006" lon="8.258126433938742">
        <ele>1639.53</ele>
        <time>2022-01-30T07:49:43Z</time>
      </trkpt>
      <trkpt lat="46.315303249284625" lon="8.258126769214869">
        <ele>1639.45</ele>
        <time>2022-01-30T07:50:01Z</time>
      </trkpt>
      <trkpt lat="46.315304758027196" lon="8.258122829720378">
        <ele>1639.9200000000001</ele>
        <time>2022-01-30T07:50:14Z</time>
      </trkpt>
      <trkpt lat="46.315306266769767" lon="8.258131630718708">
        <ele>1640.1400000000001</ele>
        <time>2022-01-30T07:50:22Z</time>
      </trkpt>
      <trkpt lat="46.315304255113006" lon="8.258134061470628">
        <ele>1640.22</ele>
        <time>2022-01-30T07:50:32Z</time>
      </trkpt>
      <trkpt lat="46.315301153808832" lon="8.258124170824885">
        <ele>1640.3800000000001</ele>
        <time>2022-01-30T07:50:36Z</time>
      </trkpt>
      <trkpt lat="46.315316827967763" lon="8.258106652647257">
        <ele>1640.8</ele>
        <time>2022-01-30T07:50:44Z</time>
      </trkpt>
      <trkpt lat="46.315295537933707" lon="8.258140683174133">
        <ele>1641.01</ele>
        <time>2022-01-30T07:50:50Z</time>
      </trkpt>
      <trkpt lat="46.315271398052573" lon="8.258176641538739">
        <ele>1641.8199999999999</ele>
        <time>2022-01-30T07:51:31Z</time>
      </trkpt>
      <trkpt lat="46.315297381952405" lon="8.258137833327055">
        <ele>1638.9000000000001</ele>
        <time>2022-01-30T07:52:40Z</time>
      </trkpt>
      <trkpt lat="46.315313223749399" lon="8.258111765608192">
        <ele>1639.02</ele>
        <time>2022-01-30T07:52:50Z</time>
      </trkpt>
      <trkpt lat="46.315330741927028" lon="8.258061641827226">
        <ele>1639.5699999999999</ele>
        <time>2022-01-30T07:52:57Z</time>
      </trkpt>
      <trkpt lat="46.315356642007828" lon="8.257984025403857">
        <ele>1639.77</ele>
        <time>2022-01-30T07:53:05Z</time>
      </trkpt>
      <trkpt lat="46.315359994769096" lon="8.257979582995176">
        <ele>1638.71</ele>
        <time>2022-01-30T07:53:24Z</time>
      </trkpt>
      <trkpt lat="46.31535722874105" lon="8.25797924771905">
        <ele>1638.49</ele>
        <time>2022-01-30T07:53:39Z</time>
      </trkpt>
      <trkpt lat="46.315358066931367" lon="8.257977152243257">
        <ele>1638.97</ele>
        <time>2022-01-30T07:54:10Z</time>
      </trkpt>
      <trkpt lat="46.315361335873604" lon="8.25797195546329">
        <ele>1638.98</ele>
        <time>2022-01-30T07:54:34Z</time>
      </trkpt>
      <trkpt lat="46.31536116823554" lon="8.257967261597514">
        <ele>1638.98</ele>
        <time>2022-01-30T07:54:48Z</time>
      </trkpt>
      <trkpt lat="46.31536552682519" lon="8.257933147251606">
        <ele>1638.98</ele>
        <time>2022-01-30T07:54:51Z</time>
      </trkpt>
      <trkpt lat="46.315368125215173" lon="8.257919065654278">
        <ele>1639.2</ele>
        <time>2022-01-30T07:54:52Z</time>
      </trkpt>
      <trkpt lat="46.315380278974771" lon="8.257876066491008">
        <ele>1640.78</ele>
        <time>2022-01-30T07:54:55Z</time>
      </trkpt>
      <trkpt lat="46.315396791324019" lon="8.257727287709713">
        <ele>1640.6800000000001</ele>
        <time>2022-01-30T07:55:04Z</time>
      </trkpt>
      <trkpt lat="46.315411878749728" lon="8.257609270513058">
        <ele>1640.48</ele>
        <time>2022-01-30T07:55:12Z</time>
      </trkpt>
      <trkpt lat="46.315421937033534" lon="8.257514722645283">
        <ele>1640.0799999999999</ele>
        <time>2022-01-30T07:55:19Z</time>
      </trkpt>
      <trkpt lat="46.315414477139711" lon="8.257307019084692">
        <ele>1639.97</ele>
        <time>2022-01-30T07:55:31Z</time>
      </trkpt>
      <trkpt lat="46.315405759960413" lon="8.257200568914414">
        <ele>1640.1199999999999</ele>
        <time>2022-01-30T07:55:37Z</time>
      </trkpt>
      <trkpt lat="46.315401820465922" lon="8.257182547822595">
        <ele>1640.1500000000001</ele>
        <time>2022-01-30T07:55:38Z</time>
      </trkpt>
      <trkpt lat="46.315393941476941" lon="8.257138878107071">
        <ele>1640.3599999999999</ele>
        <time>2022-01-30T07:55:42Z</time>
      </trkpt>
      <trkpt lat="46.315391175448895" lon="8.257126389071345">
        <ele>1640.4400000000001</ele>
        <time>2022-01-30T07:55:43Z</time>
      </trkpt>
      <trkpt lat="46.315387152135372" lon="8.257094537839294">
        <ele>1640.55</ele>
        <time>2022-01-30T07:55:45Z</time>
      </trkpt>
      <trkpt lat="46.315364940091968" lon="8.256865795701742">
        <ele>1641.27</ele>
        <time>2022-01-30T07:55:58Z</time>
      </trkpt>
      <trkpt lat="46.315345242619514" lon="8.256699750199914">
        <ele>1641.24</ele>
        <time>2022-01-30T07:56:09Z</time>
      </trkpt>
      <trkpt lat="46.315310876816511" lon="8.256524652242661">
        <ele>1641.1800000000001</ele>
        <time>2022-01-30T07:56:22Z</time>
      </trkpt>
      <trkpt lat="46.315292688086629" lon="8.256456591188908">
        <ele>1641.29</ele>
        <time>2022-01-30T07:56:31Z</time>
      </trkpt>
      <trkpt lat="46.315294867381454" lon="8.256442174315453">
        <ele>1641.29</ele>
        <time>2022-01-30T07:56:32Z</time>
      </trkpt>
      <trkpt lat="46.315296879038215" lon="8.256399342790246">
        <ele>1641.23</ele>
        <time>2022-01-30T07:56:35Z</time>
      </trkpt>
      <trkpt lat="46.315280199050903" lon="8.256202284246683">
        <ele>1642</ele>
        <time>2022-01-30T07:56:48Z</time>
      </trkpt>
      <trkpt lat="46.315272822976112" lon="8.256028862670064">
        <ele>1642.1500000000001</ele>
        <time>2022-01-30T07:56:59Z</time>
      </trkpt>
      <trkpt lat="46.315258657559752" lon="8.255856949836016">
        <ele>1642.1600000000001</ele>
        <time>2022-01-30T07:57:10Z</time>
      </trkpt>
      <trkpt lat="46.315258825197816" lon="8.255736585706472">
        <ele>1642.5799999999999</ele>
        <time>2022-01-30T07:57:18Z</time>
      </trkpt>
      <trkpt lat="46.315267542377114" lon="8.255536928772926">
        <ele>1643.5599999999999</ele>
        <time>2022-01-30T07:57:30Z</time>
      </trkpt>
      <trkpt lat="46.315272487699986" lon="8.255368452519178">
        <ele>1644.22</ele>
        <time>2022-01-30T07:57:41Z</time>
      </trkpt>
      <trkpt lat="46.315269386395812" lon="8.25517893768847">
        <ele>1644.9400000000001</ele>
        <time>2022-01-30T07:57:54Z</time>
      </trkpt>
      <trkpt lat="46.315263519063592" lon="8.25500107370317">
        <ele>1645.54</ele>
        <time>2022-01-30T07:58:05Z</time>
      </trkpt>
      <trkpt lat="46.315260669216514" lon="8.254825137555599">
        <ele>1645.77</ele>
        <time>2022-01-30T07:58:16Z</time>
      </trkpt>
      <trkpt lat="46.315232841297984" lon="8.254609974101186">
        <ele>1645.8699999999999</ele>
        <time>2022-01-30T07:58:29Z</time>
      </trkpt>
      <trkpt lat="46.315198056399822" lon="8.254422973841429">
        <ele>1646.55</ele>
        <time>2022-01-30T07:58:40Z</time>
      </trkpt>
      <trkpt lat="46.315173916518688" lon="8.254247540608048">
        <ele>1647.01</ele>
        <time>2022-01-30T07:58:51Z</time>
      </trkpt>
      <trkpt lat="46.315142065286636" lon="8.254083590582013">
        <ele>1646.9400000000001</ele>
        <time>2022-01-30T07:59:01Z</time>
      </trkpt>
      <trkpt lat="46.315102083608508" lon="8.253924921154976">
        <ele>1646.8199999999999</ele>
        <time>2022-01-30T07:59:12Z</time>
      </trkpt>
      <trkpt lat="46.315061850473285" lon="8.253846047446132">
        <ele>1647.3599999999999</ele>
        <time>2022-01-30T07:59:23Z</time>
      </trkpt>
      <trkpt lat="46.315044583752751" lon="8.253830038011074">
        <ele>1647.6700000000001</ele>
        <time>2022-01-30T07:59:33Z</time>
      </trkpt>
      <trkpt lat="46.315045673400164" lon="8.253808664157987">
        <ele>1647.6800000000001</ele>
        <time>2022-01-30T07:59:37Z</time>
      </trkpt>
      <trkpt lat="46.315024551004171" lon="8.253766167908907">
        <ele>1647.7</ele>
        <time>2022-01-30T07:59:41Z</time>
      </trkpt>
      <trkpt lat="46.315009379759431" lon="8.253745632246137">
        <ele>1647.8</ele>
        <time>2022-01-30T07:59:43Z</time>
      </trkpt>
      <trkpt lat="46.314939977601171" lon="8.253594674170017">
        <ele>1647.9200000000001</ele>
        <time>2022-01-30T07:59:53Z</time>
      </trkpt>
      <trkpt lat="46.314903767779469" lon="8.253493253141642">
        <ele>1648.21</ele>
        <time>2022-01-30T08:00:00Z</time>
      </trkpt>
      <trkpt lat="46.314858170226216" lon="8.253321843221784">
        <ele>1648.8399999999999</ele>
        <time>2022-01-30T08:00:11Z</time>
      </trkpt>
      <trkpt lat="46.314843753352761" lon="8.253216566517949">
        <ele>1649.5699999999999</ele>
        <time>2022-01-30T08:00:18Z</time>
      </trkpt>
      <trkpt lat="46.314828582108021" lon="8.253100644797087">
        <ele>1650.5599999999999</ele>
        <time>2022-01-30T08:00:25Z</time>
      </trkpt>
      <trkpt lat="46.314805280417204" lon="8.252954045310617">
        <ele>1651.53</ele>
        <time>2022-01-30T08:00:34Z</time>
      </trkpt>
      <trkpt lat="46.314803436398506" lon="8.252827981486917">
        <ele>1652.1800000000001</ele>
        <time>2022-01-30T08:00:42Z</time>
      </trkpt>
      <trkpt lat="46.314814165234566" lon="8.252646680921316">
        <ele>1652.9200000000001</ele>
        <time>2022-01-30T08:00:53Z</time>
      </trkpt>
      <trkpt lat="46.314806453883648" lon="8.252637460827828">
        <ele>1652.95</ele>
        <time>2022-01-30T08:00:54Z</time>
      </trkpt>
      <trkpt lat="46.314796144142747" lon="8.25263075530529">
        <ele>1652.96</ele>
        <time>2022-01-30T08:00:55Z</time>
      </trkpt>
      <trkpt lat="46.314785163849592" lon="8.25262438505888">
        <ele>1652.98</ele>
        <time>2022-01-30T08:00:56Z</time>
      </trkpt>
      <trkpt lat="46.31477477028966" lon="8.252619188278914">
        <ele>1653.02</ele>
        <time>2022-01-30T08:00:57Z</time>
      </trkpt>
      <trkpt lat="46.314763035625219" lon="8.252614326775074">
        <ele>1653.0899999999999</ele>
        <time>2022-01-30T08:00:58Z</time>
      </trkpt>
      <trkpt lat="46.314682820811868" lon="8.252557748928666">
        <ele>1653.1300000000001</ele>
        <time>2022-01-30T08:01:16Z</time>
      </trkpt>
      <trkpt lat="46.314675947651267" lon="8.252550791949034">
        <ele>1652.3800000000001</ele>
        <time>2022-01-30T08:04:12Z</time>
      </trkpt>
      <trkpt lat="46.314678378403187" lon="8.252553641796112">
        <ele>1652.3800000000001</ele>
        <time>2022-01-30T08:04:18Z</time>
      </trkpt>
      <trkpt lat="46.314679970964789" lon="8.252545678988099">
        <ele>1652.3800000000001</ele>
        <time>2022-01-30T08:04:40Z</time>
      </trkpt>
      <trkpt lat="46.314672762528062" lon="8.252530256286264">
        <ele>1652.3800000000001</ele>
        <time>2022-01-30T08:04:52Z</time>
      </trkpt>
      <trkpt lat="46.314674858003855" lon="8.2525300886482">
        <ele>1652.3800000000001</ele>
        <time>2022-01-30T08:05:14Z</time>
      </trkpt>
      <trkpt lat="46.314671840518713" lon="8.252531765028834">
        <ele>1652.3900000000001</ele>
        <time>2022-01-30T08:05:55Z</time>
      </trkpt>
      <trkpt lat="46.314660189673305" lon="8.252507038414478">
        <ele>1652.3900000000001</ele>
        <time>2022-01-30T08:06:07Z</time>
      </trkpt>
      <trkpt lat="46.314616436138749" lon="8.252446772530675">
        <ele>1652.3900000000001</ele>
        <time>2022-01-30T08:06:14Z</time>
      </trkpt>
      <trkpt lat="46.314602857455611" lon="8.252393463626504">
        <ele>1652.3900000000001</ele>
        <time>2022-01-30T08:06:22Z</time>
      </trkpt>
      <trkpt lat="46.314583998173475" lon="8.252316098660231">
        <ele>1652.3900000000001</ele>
        <time>2022-01-30T08:06:30Z</time>
      </trkpt>
      <trkpt lat="46.314562037587166" lon="8.252264633774757">
        <ele>1655.6500000000001</ele>
        <time>2022-01-30T08:06:34Z</time>
      </trkpt>
      <trkpt lat="46.314559523016214" lon="8.252204032614827">
        <ele>1657.1400000000001</ele>
        <time>2022-01-30T08:06:39Z</time>
      </trkpt>
      <trkpt lat="46.314564552158117" lon="8.252132534980774">
        <ele>1658.0999999999999</ele>
        <time>2022-01-30T08:06:44Z</time>
      </trkpt>
      <trkpt lat="46.314562372863293" lon="8.252081573009491">
        <ele>1659.22</ele>
        <time>2022-01-30T08:06:48Z</time>
      </trkpt>
      <trkpt lat="46.314570419490337" lon="8.252016864717007">
        <ele>1660.5999999999999</ele>
        <time>2022-01-30T08:06:54Z</time>
      </trkpt>
      <trkpt lat="46.31456614471972" lon="8.251939583569765">
        <ele>1661.79</ele>
        <time>2022-01-30T08:07:00Z</time>
      </trkpt>
      <trkpt lat="46.314562289044261" lon="8.251915695145726">
        <ele>1662.0999999999999</ele>
        <time>2022-01-30T08:07:02Z</time>
      </trkpt>
      <trkpt lat="46.314558433368802" lon="8.251902367919684">
        <ele>1662.1900000000001</ele>
        <time>2022-01-30T08:07:03Z</time>
      </trkpt>
      <trkpt lat="46.314540999010205" lon="8.251862050965428">
        <ele>1662.5899999999999</ele>
        <time>2022-01-30T08:07:06Z</time>
      </trkpt>
      <trkpt lat="46.314549967646599" lon="8.251777645200491">
        <ele>1664.1500000000001</ele>
        <time>2022-01-30T08:07:13Z</time>
      </trkpt>
      <trkpt lat="46.314547872170806" lon="8.251714864745736">
        <ele>1665.0799999999999</ele>
        <time>2022-01-30T08:07:19Z</time>
      </trkpt>
      <trkpt lat="46.31455977447331" lon="8.251651497557759">
        <ele>1665.99</ele>
        <time>2022-01-30T08:07:25Z</time>
      </trkpt>
      <trkpt lat="46.314556756988168" lon="8.251579077914357">
        <ele>1667.0599999999999</ele>
        <time>2022-01-30T08:07:31Z</time>
      </trkpt>
      <trkpt lat="46.31456078030169" lon="8.251551166176796">
        <ele>1667.71</ele>
        <time>2022-01-30T08:07:34Z</time>
      </trkpt>
      <trkpt lat="46.314571257680655" lon="8.251475980505347">
        <ele>1669.29</ele>
        <time>2022-01-30T08:07:41Z</time>
      </trkpt>
      <trkpt lat="46.314578130841255" lon="8.251456534489989">
        <ele>1669.6900000000001</ele>
        <time>2022-01-30T08:07:43Z</time>
      </trkpt>
      <trkpt lat="46.314626662060618" lon="8.251423593610525">
        <ele>1671.3599999999999</ele>
        <time>2022-01-30T08:07:50Z</time>
      </trkpt>
      <trkpt lat="46.314690867438912" lon="8.251385288313031">
        <ele>1673.3099999999999</ele>
        <time>2022-01-30T08:07:59Z</time>
      </trkpt>
      <trkpt lat="46.314726322889328" lon="8.251311779022217">
        <ele>1674.0599999999999</ele>
        <time>2022-01-30T08:08:07Z</time>
      </trkpt>
      <trkpt lat="46.314742164686322" lon="8.251229552552104">
        <ele>1674.76</ele>
        <time>2022-01-30T08:08:14Z</time>
      </trkpt>
      <trkpt lat="46.314744763076305" lon="8.251213543117046">
        <ele>1674.8199999999999</ele>
        <time>2022-01-30T08:08:15Z</time>
      </trkpt>
      <trkpt lat="46.314773429185152" lon="8.251142548397183">
        <ele>1675.0799999999999</ele>
        <time>2022-01-30T08:08:20Z</time>
      </trkpt>
      <trkpt lat="46.314821373671293" lon="8.251093598082662">
        <ele>1675.8099999999999</ele>
        <time>2022-01-30T08:08:27Z</time>
      </trkpt>
      <trkpt lat="46.314831683412194" lon="8.251075074076653">
        <ele>1676</ele>
        <time>2022-01-30T08:08:29Z</time>
      </trkpt>
      <trkpt lat="46.314845094457269" lon="8.251057891175151">
        <ele>1676.1099999999999</ele>
        <time>2022-01-30T08:08:31Z</time>
      </trkpt>
      <trkpt lat="46.31489303894341" lon="8.251000475138426">
        <ele>1675.97</ele>
        <time>2022-01-30T08:08:38Z</time>
      </trkpt>
      <trkpt lat="46.314936373382807" lon="8.250984633341432">
        <ele>1675.96</ele>
        <time>2022-01-30T08:08:42Z</time>
      </trkpt>
      <trkpt lat="46.314949532970786" lon="8.250980190932751">
        <ele>1675.96</ele>
        <time>2022-01-30T08:08:43Z</time>
      </trkpt>
      <trkpt lat="46.315008122473955" lon="8.250942472368479">
        <ele>1676.22</ele>
        <time>2022-01-30T08:08:50Z</time>
      </trkpt>
      <trkpt lat="46.315048355609179" lon="8.250883547589183">
        <ele>1676.8499999999999</ele>
        <time>2022-01-30T08:08:57Z</time>
      </trkpt>
      <trkpt lat="46.315093534067273" lon="8.250830238685012">
        <ele>1677.77</ele>
        <time>2022-01-30T08:09:06Z</time>
      </trkpt>
      <trkpt lat="46.315109375864267" lon="8.250800399109721">
        <ele>1678.1900000000001</ele>
        <time>2022-01-30T08:09:09Z</time>
      </trkpt>
      <trkpt lat="46.315146591514349" lon="8.250732757151127">
        <ele>1679.1800000000001</ele>
        <time>2022-01-30T08:09:17Z</time>
      </trkpt>
      <trkpt lat="46.31516913883388" lon="8.250649273395538">
        <ele>1680.53</ele>
        <time>2022-01-30T08:09:25Z</time>
      </trkpt>
      <trkpt lat="46.315190847963095" lon="8.250572578981519">
        <ele>1681.6700000000001</ele>
        <time>2022-01-30T08:09:33Z</time>
      </trkpt>
      <trkpt lat="46.315228147432208" lon="8.250499237328768">
        <ele>1683.0999999999999</ele>
        <time>2022-01-30T08:09:41Z</time>
      </trkpt>
      <trkpt lat="46.315282797440886" lon="8.250458249822259">
        <ele>1684.25</ele>
        <time>2022-01-30T08:09:48Z</time>
      </trkpt>
      <trkpt lat="46.315289419144392" lon="8.250385243445635">
        <ele>1685.1900000000001</ele>
        <time>2022-01-30T08:09:55Z</time>
      </trkpt>
      <trkpt lat="46.315333172678947" lon="8.250375352799892">
        <ele>1686.02</ele>
        <time>2022-01-30T08:10:01Z</time>
      </trkpt>
      <trkpt lat="46.315373238176107" lon="8.250334952026606">
        <ele>1686.5799999999999</ele>
        <time>2022-01-30T08:10:06Z</time>
      </trkpt>
      <trkpt lat="46.315410453826189" lon="8.250252725556493">
        <ele>1687.48</ele>
        <time>2022-01-30T08:10:13Z</time>
      </trkpt>
      <trkpt lat="46.315450184047222" lon="8.250121548771858">
        <ele>1688.5</ele>
        <time>2022-01-30T08:10:23Z</time>
      </trkpt>
      <trkpt lat="46.315498044714332" lon="8.250101767480373">
        <ele>1688.4000000000001</ele>
        <time>2022-01-30T08:10:30Z</time>
      </trkpt>
      <trkpt lat="46.315552946180105" lon="8.250077040866017">
        <ele>1687.9400000000001</ele>
        <time>2022-01-30T08:10:36Z</time>
      </trkpt>
      <trkpt lat="46.315607344731688" lon="8.25004929676652">
        <ele>1688.9200000000001</ele>
        <time>2022-01-30T08:10:43Z</time>
      </trkpt>
      <trkpt lat="46.315671885386109" lon="8.250001184642315">
        <ele>1689.5999999999999</ele>
        <time>2022-01-30T08:10:50Z</time>
      </trkpt>
      <trkpt lat="46.315720835700631" lon="8.249970758333802">
        <ele>1690.49</ele>
        <time>2022-01-30T08:10:58Z</time>
      </trkpt>
      <trkpt lat="46.315778670832515" lon="8.249953826889396">
        <ele>1691.0699999999999</ele>
        <time>2022-01-30T08:11:05Z</time>
      </trkpt>
      <trkpt lat="46.315840948373079" lon="8.249909821897745">
        <ele>1692.1400000000001</ele>
        <time>2022-01-30T08:11:14Z</time>
      </trkpt>
      <trkpt lat="46.315874643623829" lon="8.249878138303757">
        <ele>1692.9100000000001</ele>
        <time>2022-01-30T08:11:20Z</time>
      </trkpt>
      <trkpt lat="46.315871877595782" lon="8.249835055321455">
        <ele>1693.9200000000001</ele>
        <time>2022-01-30T08:11:27Z</time>
      </trkpt>
      <trkpt lat="46.315821083262563" lon="8.249827343970537">
        <ele>1695.47</ele>
        <time>2022-01-30T08:11:35Z</time>
      </trkpt>
      <trkpt lat="46.315772384405136" lon="8.249823739752173">
        <ele>1696.49</ele>
        <time>2022-01-30T08:11:41Z</time>
      </trkpt>
      <trkpt lat="46.315755117684603" lon="8.249819045886397">
        <ele>1697.52</ele>
        <time>2022-01-30T08:11:45Z</time>
      </trkpt>
      <trkpt lat="46.315740197896957" lon="8.249783841893077">
        <ele>1699.1500000000001</ele>
        <time>2022-01-30T08:11:52Z</time>
      </trkpt>
      <trkpt lat="46.315774228423834" lon="8.249757019802928">
        <ele>1700.4300000000001</ele>
        <time>2022-01-30T08:11:59Z</time>
      </trkpt>
      <trkpt lat="46.315810019150376" lon="8.249709159135819">
        <ele>1701.53</ele>
        <time>2022-01-30T08:12:05Z</time>
      </trkpt>
      <trkpt lat="46.31585125811398" lon="8.24962324462831">
        <ele>1702.6400000000001</ele>
        <time>2022-01-30T08:12:14Z</time>
      </trkpt>
      <trkpt lat="46.315877661108971" lon="8.249586196616292">
        <ele>1703.3</ele>
        <time>2022-01-30T08:12:21Z</time>
      </trkpt>
      <trkpt lat="46.315914373844862" lon="8.249548645690084">
        <ele>1704.26</ele>
        <time>2022-01-30T08:12:28Z</time>
      </trkpt>
      <trkpt lat="46.315929042175412" lon="8.249471532180905">
        <ele>1705.03</ele>
        <time>2022-01-30T08:12:36Z</time>
      </trkpt>
      <trkpt lat="46.315951086580753" lon="8.249412355944514">
        <ele>1706.3299999999999</ele>
        <time>2022-01-30T08:12:45Z</time>
      </trkpt>
      <trkpt lat="46.315983692184091" lon="8.249381929636002">
        <ele>1707.21</ele>
        <time>2022-01-30T08:12:51Z</time>
      </trkpt>
      <trkpt lat="46.316001797094941" lon="8.249334236606956">
        <ele>1708.6900000000001</ele>
        <time>2022-01-30T08:12:58Z</time>
      </trkpt>
      <trkpt lat="46.316048819571733" lon="8.24931101873517">
        <ele>1710.1600000000001</ele>
        <time>2022-01-30T08:13:06Z</time>
      </trkpt>
      <trkpt lat="46.316077737137675" lon="8.249316969886422">
        <ele>1711.53</ele>
        <time>2022-01-30T08:13:18Z</time>
      </trkpt>
      <trkpt lat="46.316085532307625" lon="8.249302888289094">
        <ele>1711.3399999999999</ele>
        <time>2022-01-30T08:13:38Z</time>
      </trkpt>
      <trkpt lat="46.316108582541347" lon="8.249254357069731">
        <ele>1711.75</ele>
        <time>2022-01-30T08:13:45Z</time>
      </trkpt>
      <trkpt lat="46.316130962222815" lon="8.249251088127494">
        <ele>1712.0799999999999</ele>
        <time>2022-01-30T08:13:48Z</time>
      </trkpt>
      <trkpt lat="46.316181924194098" lon="8.249234827235341">
        <ele>1713.3399999999999</ele>
        <time>2022-01-30T08:13:55Z</time>
      </trkpt>
      <trkpt lat="46.316195754334331" lon="8.249171376228333">
        <ele>1715.1099999999999</ele>
        <time>2022-01-30T08:14:04Z</time>
      </trkpt>
      <trkpt lat="46.316177817061543" lon="8.24909258633852">
        <ele>1716.0699999999999</ele>
        <time>2022-01-30T08:14:11Z</time>
      </trkpt>
      <trkpt lat="46.316169518977404" lon="8.249044390395284">
        <ele>1717.1800000000001</ele>
        <time>2022-01-30T08:14:16Z</time>
      </trkpt>
      <trkpt lat="46.316160131245852" lon="8.248981442302465">
        <ele>1718.45</ele>
        <time>2022-01-30T08:14:22Z</time>
      </trkpt>
      <trkpt lat="46.316145798191428" lon="8.248933916911483">
        <ele>1718.9000000000001</ele>
        <time>2022-01-30T08:14:25Z</time>
      </trkpt>
      <trkpt lat="46.316109085455537" lon="8.248873399570584">
        <ele>1719.96</ele>
        <time>2022-01-30T08:14:31Z</time>
      </trkpt>
      <trkpt lat="46.31606332026422" lon="8.248831238597632">
        <ele>1720.99</ele>
        <time>2022-01-30T08:14:39Z</time>
      </trkpt>
      <trkpt lat="46.316027361899614" lon="8.24879209510982">
        <ele>1722.1600000000001</ele>
        <time>2022-01-30T08:14:46Z</time>
      </trkpt>
      <trkpt lat="46.316007999703288" lon="8.24875052087009">
        <ele>1723.5799999999999</ele>
        <time>2022-01-30T08:14:53Z</time>
      </trkpt>
      <trkpt lat="46.315965922549367" lon="8.248692937195301">
        <ele>1724.46</ele>
        <time>2022-01-30T08:14:59Z</time>
      </trkpt>
      <trkpt lat="46.315949494019151" lon="8.248679023236036">
        <ele>1725.0699999999999</ele>
        <time>2022-01-30T08:15:02Z</time>
      </trkpt>
      <trkpt lat="46.315904818475246" lon="8.248655973002315">
        <ele>1725.9400000000001</ele>
        <time>2022-01-30T08:15:08Z</time>
      </trkpt>
      <trkpt lat="46.315862070769072" lon="8.248626468703151">
        <ele>1727.54</ele>
        <time>2022-01-30T08:15:17Z</time>
      </trkpt>
      <trkpt lat="46.315820831805468" lon="8.248579865321517">
        <ele>1729.55</ele>
        <time>2022-01-30T08:15:26Z</time>
      </trkpt>
      <trkpt lat="46.315799793228507" lon="8.248646669089794">
        <ele>1731.48</ele>
        <time>2022-01-30T08:15:36Z</time>
      </trkpt>
      <trkpt lat="46.31581999361515" lon="8.248741719871759">
        <ele>1732.4200000000001</ele>
        <time>2022-01-30T08:15:43Z</time>
      </trkpt>
      <trkpt lat="46.315818317234516" lon="8.248802572488785">
        <ele>1733.3499999999999</ele>
        <time>2022-01-30T08:15:50Z</time>
      </trkpt>
      <trkpt lat="46.315808761864901" lon="8.24884582310915">
        <ele>1734.3399999999999</ele>
        <time>2022-01-30T08:15:55Z</time>
      </trkpt>
      <trkpt lat="46.315784454345703" lon="8.248861497268081">
        <ele>1735.9300000000001</ele>
        <time>2022-01-30T08:16:03Z</time>
      </trkpt>
      <trkpt lat="46.315783783793449" lon="8.248830316588283">
        <ele>1737.1800000000001</ele>
        <time>2022-01-30T08:16:11Z</time>
      </trkpt>
      <trkpt lat="46.315756374970078" lon="8.248808439821005">
        <ele>1737.8800000000001</ele>
        <time>2022-01-30T08:16:20Z</time>
      </trkpt>
      <trkpt lat="46.315719075500965" lon="8.248835764825344">
        <ele>1738.6900000000001</ele>
        <time>2022-01-30T08:16:26Z</time>
      </trkpt>
      <trkpt lat="46.315676579251885" lon="8.248797124251723">
        <ele>1740.1400000000001</ele>
        <time>2022-01-30T08:16:34Z</time>
      </trkpt>
      <trkpt lat="46.315656127408147" lon="8.248749347403646">
        <ele>1741.3</ele>
        <time>2022-01-30T08:16:42Z</time>
      </trkpt>
      <trkpt lat="46.315630143508315" lon="8.24872612953186">
        <ele>1742.27</ele>
        <time>2022-01-30T08:16:49Z</time>
      </trkpt>
      <trkpt lat="46.315600220113993" lon="8.24868162162602">
        <ele>1743</ele>
        <time>2022-01-30T08:16:55Z</time>
      </trkpt>
      <trkpt lat="46.315551521256566" lon="8.248648932203651">
        <ele>1743.9200000000001</ele>
        <time>2022-01-30T08:17:02Z</time>
      </trkpt>
      <trkpt lat="46.315533081069589" lon="8.248644741252065">
        <ele>1744.3900000000001</ele>
        <time>2022-01-30T08:17:06Z</time>
      </trkpt>
      <trkpt lat="46.315502487123013" lon="8.248615236952901">
        <ele>1745.48</ele>
        <time>2022-01-30T08:17:12Z</time>
      </trkpt>
      <trkpt lat="46.31547843106091" lon="8.248590594157577">
        <ele>1746.26</ele>
        <time>2022-01-30T08:17:17Z</time>
      </trkpt>
      <trkpt lat="46.315470216795802" lon="8.24858196079731">
        <ele>1746.3699999999999</ele>
        <time>2022-01-30T08:17:18Z</time>
      </trkpt>
      <trkpt lat="46.315440963953733" lon="8.248543487861753">
        <ele>1747.51</ele>
        <time>2022-01-30T08:17:25Z</time>
      </trkpt>
      <trkpt lat="46.31539192982018" lon="8.248508619144559">
        <ele>1749.1099999999999</ele>
        <time>2022-01-30T08:17:35Z</time>
      </trkpt>
      <trkpt lat="46.31534113548696" lon="8.248443156480789">
        <ele>1750.2</ele>
        <time>2022-01-30T08:17:43Z</time>
      </trkpt>
      <trkpt lat="46.315298471599817" lon="8.248380292207003">
        <ele>1750.4300000000001</ele>
        <time>2022-01-30T08:17:50Z</time>
      </trkpt>
      <trkpt lat="46.315253796055913" lon="8.24835573323071">
        <ele>1750.9100000000001</ele>
        <time>2022-01-30T08:17:58Z</time>
      </trkpt>
      <trkpt lat="46.315216161310673" lon="8.248340729624033">
        <ele>1751.4000000000001</ele>
        <time>2022-01-30T08:18:03Z</time>
      </trkpt>
      <trkpt lat="46.31516913883388" lon="8.248254982754588">
        <ele>1751.6400000000001</ele>
        <time>2022-01-30T08:18:11Z</time>
      </trkpt>
      <trkpt lat="46.315143657848239" lon="8.24820963665843">
        <ele>1751.5599999999999</ele>
        <time>2022-01-30T08:18:16Z</time>
      </trkpt>
      <trkpt lat="46.315084984526038" lon="8.248141491785646">
        <ele>1752.2</ele>
        <time>2022-01-30T08:18:24Z</time>
      </trkpt>
      <trkpt lat="46.315020443871617" lon="8.248096564784646">
        <ele>1753.4000000000001</ele>
        <time>2022-01-30T08:18:34Z</time>
      </trkpt>
      <trkpt lat="46.314987083896995" lon="8.248031856492162">
        <ele>1754.1700000000001</ele>
        <time>2022-01-30T08:18:41Z</time>
      </trkpt>
      <trkpt lat="46.314966799691319" lon="8.247992377728224">
        <ele>1754.98</ele>
        <time>2022-01-30T08:18:47Z</time>
      </trkpt>
      <trkpt lat="46.314955232664943" lon="8.247929848730564">
        <ele>1756.3599999999999</ele>
        <time>2022-01-30T08:18:54Z</time>
      </trkpt>
      <trkpt lat="46.314932098612189" lon="8.247874863445759">
        <ele>1757.3599999999999</ele>
        <time>2022-01-30T08:19:00Z</time>
      </trkpt>
      <trkpt lat="46.314901253208518" lon="8.247864134609699">
        <ele>1758.8599999999999</ele>
        <time>2022-01-30T08:19:06Z</time>
      </trkpt>
      <trkpt lat="46.314888345077634" lon="8.247855920344591">
        <ele>1759.1099999999999</ele>
        <time>2022-01-30T08:19:08Z</time>
      </trkpt>
      <trkpt lat="46.314870994538069" lon="8.247869247570634">
        <ele>1759.3299999999999</ele>
        <time>2022-01-30T08:19:11Z</time>
      </trkpt>
      <trkpt lat="46.314835287630558" lon="8.247851142659783">
        <ele>1760.21</ele>
        <time>2022-01-30T08:19:18Z</time>
      </trkpt>
      <trkpt lat="46.314797988161445" lon="8.24785684235394">
        <ele>1761.4200000000001</ele>
        <time>2022-01-30T08:19:25Z</time>
      </trkpt>
      <trkpt lat="46.314773848280311" lon="8.24783873744309">
        <ele>1762.27</ele>
        <time>2022-01-30T08:19:31Z</time>
      </trkpt>
      <trkpt lat="46.314731268212199" lon="8.247799593955278">
        <ele>1763.2</ele>
        <time>2022-01-30T08:19:37Z</time>
      </trkpt>
      <trkpt lat="46.314702685922384" lon="8.247742597013712">
        <ele>1764.21</ele>
        <time>2022-01-30T08:19:45Z</time>
      </trkpt>
      <trkpt lat="46.31466094404459" lon="8.247693562880158">
        <ele>1764.3900000000001</ele>
        <time>2022-01-30T08:19:51Z</time>
      </trkpt>
      <trkpt lat="46.314615430310369" lon="8.247660873457789">
        <ele>1764.4200000000001</ele>
        <time>2022-01-30T08:19:58Z</time>
      </trkpt>
      <trkpt lat="46.314578047022223" lon="8.247649054974318">
        <ele>1764.95</ele>
        <time>2022-01-30T08:20:03Z</time>
      </trkpt>
      <trkpt lat="46.314526498317719" lon="8.247639667242765">
        <ele>1765.6500000000001</ele>
        <time>2022-01-30T08:20:10Z</time>
      </trkpt>
      <trkpt lat="46.314519122242928" lon="8.247558195143938">
        <ele>1766.46</ele>
        <time>2022-01-30T08:20:16Z</time>
      </trkpt>
      <trkpt lat="46.314499592408538" lon="8.247459623962641">
        <ele>1767.1300000000001</ele>
        <time>2022-01-30T08:20:24Z</time>
      </trkpt>
      <trkpt lat="46.31448651663959" lon="8.247416289523244">
        <ele>1767.23</ele>
        <time>2022-01-30T08:20:29Z</time>
      </trkpt>
      <trkpt lat="46.31448064930737" lon="8.247359041124582">
        <ele>1767.3</ele>
        <time>2022-01-30T08:20:34Z</time>
      </trkpt>
      <trkpt lat="46.314464053139091" lon="8.247292991727591">
        <ele>1767.97</ele>
        <time>2022-01-30T08:20:42Z</time>
      </trkpt>
      <trkpt lat="46.314453324303031" lon="8.247278239578009">
        <ele>1768.3</ele>
        <time>2022-01-30T08:20:45Z</time>
      </trkpt>
      <trkpt lat="46.314421892166138" lon="8.247286537662149">
        <ele>1769.25</ele>
        <time>2022-01-30T08:20:50Z</time>
      </trkpt>
      <trkpt lat="46.314389621838927" lon="8.247325764968991">
        <ele>1770.73</ele>
        <time>2022-01-30T08:20:57Z</time>
      </trkpt>
      <trkpt lat="46.314377970993519" lon="8.24734864756465">
        <ele>1772.54</ele>
        <time>2022-01-30T08:21:05Z</time>
      </trkpt>
      <trkpt lat="46.314364727586508" lon="8.24740924872458">
        <ele>1773.29</ele>
        <time>2022-01-30T08:21:12Z</time>
      </trkpt>
      <trkpt lat="46.314348382875323" lon="8.247446632012725">
        <ele>1773.9000000000001</ele>
        <time>2022-01-30T08:21:17Z</time>
      </trkpt>
      <trkpt lat="46.314309239387512" lon="8.247400866821408">
        <ele>1774.8</ele>
        <time>2022-01-30T08:21:23Z</time>
      </trkpt>
      <trkpt lat="46.314280740916729" lon="8.247372871264815">
        <ele>1775.97</ele>
        <time>2022-01-30T08:21:29Z</time>
      </trkpt>
      <trkpt lat="46.314263725653291" lon="8.247434142976999">
        <ele>1777.0599999999999</ele>
        <time>2022-01-30T08:21:36Z</time>
      </trkpt>
      <trkpt lat="46.31423338316381" lon="8.247491894289851">
        <ele>1778.8399999999999</ele>
        <time>2022-01-30T08:21:43Z</time>
      </trkpt>
      <trkpt lat="46.314195832237601" lon="8.247512597590685">
        <ele>1780.03</ele>
        <time>2022-01-30T08:21:50Z</time>
      </trkpt>
      <trkpt lat="46.314191892743111" lon="8.247508155182004">
        <ele>1780.1500000000001</ele>
        <time>2022-01-30T08:21:51Z</time>
      </trkpt>
      <trkpt lat="46.314170183613896" lon="8.247493486851454">
        <ele>1780.9000000000001</ele>
        <time>2022-01-30T08:21:56Z</time>
      </trkpt>
      <trkpt lat="46.314168842509389" lon="8.247450822964311">
        <ele>1781.8099999999999</ele>
        <time>2022-01-30T08:22:03Z</time>
      </trkpt>
      <trkpt lat="46.31416155025363" lon="8.247397849336267">
        <ele>1782.78</ele>
        <time>2022-01-30T08:22:10Z</time>
      </trkpt>
      <trkpt lat="46.314156772568822" lon="8.247333392500877">
        <ele>1783.6700000000001</ele>
        <time>2022-01-30T08:22:17Z</time>
      </trkpt>
      <trkpt lat="46.314112935215235" lon="8.247301373630762">
        <ele>1784.8099999999999</ele>
        <time>2022-01-30T08:22:27Z</time>
      </trkpt>
      <trkpt lat="46.314079826697707" lon="8.247267175465822">
        <ele>1785.73</ele>
        <time>2022-01-30T08:22:34Z</time>
      </trkpt>
      <trkpt lat="46.314047891646624" lon="8.24722652323544">
        <ele>1786.76</ele>
        <time>2022-01-30T08:22:40Z</time>
      </trkpt>
      <trkpt lat="46.314006485044956" lon="8.247229875996709">
        <ele>1788.3699999999999</ele>
        <time>2022-01-30T08:22:49Z</time>
      </trkpt>
      <trkpt lat="46.313963569700718" lon="8.247181344777346">
        <ele>1789.8099999999999</ele>
        <time>2022-01-30T08:22:57Z</time>
      </trkpt>
      <trkpt lat="46.31392065435648" lon="8.247156450524926">
        <ele>1790.78</ele>
        <time>2022-01-30T08:23:04Z</time>
      </trkpt>
      <trkpt lat="46.313899364322424" lon="8.247126527130604">
        <ele>1792.03</ele>
        <time>2022-01-30T08:23:12Z</time>
      </trkpt>
      <trkpt lat="46.31388058885932" lon="8.247088054195046">
        <ele>1792.99</ele>
        <time>2022-01-30T08:23:18Z</time>
      </trkpt>
      <trkpt lat="46.313852677121758" lon="8.247040864080191">
        <ele>1793.45</ele>
        <time>2022-01-30T08:23:24Z</time>
      </trkpt>
      <trkpt lat="46.313806073740125" lon="8.247028877958655">
        <ele>1794.1600000000001</ele>
        <time>2022-01-30T08:23:31Z</time>
      </trkpt>
      <trkpt lat="46.313799368217587" lon="8.247072547674179">
        <ele>1794.8499999999999</ele>
        <time>2022-01-30T08:23:36Z</time>
      </trkpt>
      <trkpt lat="46.313807079568505" lon="8.247135495766997">
        <ele>1795.53</ele>
        <time>2022-01-30T08:23:42Z</time>
      </trkpt>
      <trkpt lat="46.313784532248974" lon="8.247158797457814">
        <ele>1796.76</ele>
        <time>2022-01-30T08:23:50Z</time>
      </trkpt>
      <trkpt lat="46.313769025728106" lon="8.24715661816299">
        <ele>1798.52</ele>
        <time>2022-01-30T08:23:57Z</time>
      </trkpt>
      <trkpt lat="46.313747065141797" lon="8.247222332283855">
        <ele>1799.8299999999999</ele>
        <time>2022-01-30T08:24:04Z</time>
      </trkpt>
      <trkpt lat="46.313731223344803" lon="8.247202299535275">
        <ele>1801.01</ele>
        <time>2022-01-30T08:24:12Z</time>
      </trkpt>
      <trkpt lat="46.313690487295389" lon="8.247204059734941">
        <ele>1802.1600000000001</ele>
        <time>2022-01-30T08:24:19Z</time>
      </trkpt>
      <trkpt lat="46.3136484939605" lon="8.247246975079179">
        <ele>1803.0599999999999</ele>
        <time>2022-01-30T08:24:26Z</time>
      </trkpt>
      <trkpt lat="46.313620330765843" lon="8.247217470780015">
        <ele>1804.1600000000001</ele>
        <time>2022-01-30T08:24:33Z</time>
      </trkpt>
      <trkpt lat="46.313583198934793" lon="8.247154522687197">
        <ele>1805.3399999999999</ele>
        <time>2022-01-30T08:24:40Z</time>
      </trkpt>
      <trkpt lat="46.313554029911757" lon="8.247180925682187">
        <ele>1806.6099999999999</ele>
        <time>2022-01-30T08:24:47Z</time>
      </trkpt>
      <trkpt lat="46.313550677150488" lon="8.247186960652471">
        <ele>1806.8199999999999</ele>
        <time>2022-01-30T08:24:48Z</time>
      </trkpt>
      <trkpt lat="46.313545983284712" lon="8.247218560427427">
        <ele>1807.6300000000001</ele>
        <time>2022-01-30T08:24:53Z</time>
      </trkpt>
      <trkpt lat="46.313513461500406" lon="8.247241443023086">
        <ele>1808.53</ele>
        <time>2022-01-30T08:24:59Z</time>
      </trkpt>
      <trkpt lat="46.313475575298071" lon="8.247178662568331">
        <ele>1809.8399999999999</ele>
        <time>2022-01-30T08:25:07Z</time>
      </trkpt>
      <trkpt lat="46.313438024371862" lon="8.247135244309902">
        <ele>1811</ele>
        <time>2022-01-30T08:25:15Z</time>
      </trkpt>
      <trkpt lat="46.313399048522115" lon="8.247144045308232">
        <ele>1811.9000000000001</ele>
        <time>2022-01-30T08:25:22Z</time>
      </trkpt>
      <trkpt lat="46.31334263831377" lon="8.24714345857501">
        <ele>1813.0799999999999</ele>
        <time>2022-01-30T08:25:30Z</time>
      </trkpt>
      <trkpt lat="46.313303662464023" lon="8.247139770537615">
        <ele>1814.04</ele>
        <time>2022-01-30T08:25:38Z</time>
      </trkpt>
      <trkpt lat="46.313261752948165" lon="8.247045138850808">
        <ele>1815.0799999999999</ele>
        <time>2022-01-30T08:25:47Z</time>
      </trkpt>
      <trkpt lat="46.313238032162189" lon="8.24699928984046">
        <ele>1815.5699999999999</ele>
        <time>2022-01-30T08:25:54Z</time>
      </trkpt>
      <trkpt lat="46.313229650259018" lon="8.246923433616757">
        <ele>1815.8</ele>
        <time>2022-01-30T08:26:01Z</time>
      </trkpt>
      <trkpt lat="46.313206935301423" lon="8.246845649555326">
        <ele>1816.0799999999999</ele>
        <time>2022-01-30T08:26:08Z</time>
      </trkpt>
      <trkpt lat="46.313179275020957" lon="8.24681606143713">
        <ele>1816.8499999999999</ele>
        <time>2022-01-30T08:26:15Z</time>
      </trkpt>
      <trkpt lat="46.31315597333014" lon="8.246810864657164">
        <ele>1817.1099999999999</ele>
        <time>2022-01-30T08:26:18Z</time>
      </trkpt>
      <trkpt lat="46.313113728538156" lon="8.246774822473526">
        <ele>1817.51</ele>
        <time>2022-01-30T08:26:24Z</time>
      </trkpt>
      <trkpt lat="46.313075087964535" lon="8.24671933427453">
        <ele>1818.05</ele>
        <time>2022-01-30T08:26:33Z</time>
      </trkpt>
      <trkpt lat="46.313039883971214" lon="8.246673988178372">
        <ele>1818.7</ele>
        <time>2022-01-30T08:26:39Z</time>
      </trkpt>
      <trkpt lat="46.31299864500761" lon="8.246657224372029">
        <ele>1819.6300000000001</ele>
        <time>2022-01-30T08:26:46Z</time>
      </trkpt>
      <trkpt lat="46.312967967242002" lon="8.246633419767022">
        <ele>1820.5999999999999</ele>
        <time>2022-01-30T08:26:52Z</time>
      </trkpt>
      <trkpt lat="46.312945922836661" lon="8.246622188016772">
        <ele>1821.22</ele>
        <time>2022-01-30T08:26:56Z</time>
      </trkpt>
      <trkpt lat="46.31291264668107" lon="8.246622942388058">
        <ele>1822.1600000000001</ele>
        <time>2022-01-30T08:27:02Z</time>
      </trkpt>
      <trkpt lat="46.312906024977565" lon="8.246594443917275">
        <ele>1822.5799999999999</ele>
        <time>2022-01-30T08:27:10Z</time>
      </trkpt>
      <trkpt lat="46.312859170138836" lon="8.246535854414105">
        <ele>1822.9000000000001</ele>
        <time>2022-01-30T08:27:18Z</time>
      </trkpt>
      <trkpt lat="46.312848860397935" lon="8.246491346508265">
        <ele>1822.6300000000001</ele>
        <time>2022-01-30T08:27:22Z</time>
      </trkpt>
      <trkpt lat="46.312840981408954" lon="8.246475923806429">
        <ele>1824.7</ele>
        <time>2022-01-30T08:31:07Z</time>
      </trkpt>
      <trkpt lat="46.312835365533829" lon="8.246467793360353">
        <ele>1824.71</ele>
        <time>2022-01-30T08:31:43Z</time>
      </trkpt>
      <trkpt lat="46.312798820436001" lon="8.246448682621121">
        <ele>1824.71</ele>
        <time>2022-01-30T08:31:56Z</time>
      </trkpt>
      <trkpt lat="46.312725394964218" lon="8.246431164443493">
        <ele>1824.71</ele>
        <time>2022-01-30T08:32:03Z</time>
      </trkpt>
      <trkpt lat="46.312658255919814" lon="8.246389757841826">
        <ele>1824.71</ele>
        <time>2022-01-30T08:32:10Z</time>
      </trkpt>
      <trkpt lat="46.312611317262053" lon="8.246360840275884">
        <ele>1824.71</ele>
        <time>2022-01-30T08:32:17Z</time>
      </trkpt>
      <trkpt lat="46.312582651153207" lon="8.246269393712282">
        <ele>1824.71</ele>
        <time>2022-01-30T08:32:26Z</time>
      </trkpt>
      <trkpt lat="46.312518948689103" lon="8.246226059272885">
        <ele>1824.71</ele>
        <time>2022-01-30T08:32:34Z</time>
      </trkpt>
      <trkpt lat="46.31248751655221" lon="8.246173085644841">
        <ele>1824.71</ele>
        <time>2022-01-30T08:32:41Z</time>
      </trkpt>
      <trkpt lat="46.312481230124831" lon="8.246160680428147">
        <ele>1824.71</ele>
        <time>2022-01-30T08:32:43Z</time>
      </trkpt>
      <trkpt lat="46.312440326437354" lon="8.246084237471223">
        <ele>1824.71</ele>
        <time>2022-01-30T08:32:50Z</time>
      </trkpt>
      <trkpt lat="46.312418365851045" lon="8.246027324348688">
        <ele>1824.71</ele>
        <time>2022-01-30T08:32:56Z</time>
      </trkpt>
      <trkpt lat="46.31239271722734" lon="8.245998490601778">
        <ele>1824.71</ele>
        <time>2022-01-30T08:33:04Z</time>
      </trkpt>
      <trkpt lat="46.312354579567909" lon="8.246004860848188">
        <ele>1824.71</ele>
        <time>2022-01-30T08:33:09Z</time>
      </trkpt>
      <trkpt lat="46.312345191836357" lon="8.246007794514298">
        <ele>1833.8399999999999</ele>
        <time>2022-01-30T08:33:10Z</time>
      </trkpt>
      <trkpt lat="46.312337396666408" lon="8.246010560542345">
        <ele>1833.79</ele>
        <time>2022-01-30T08:33:11Z</time>
      </trkpt>
      <trkpt lat="46.312298672273755" lon="8.246000083163381">
        <ele>1834.3099999999999</ele>
        <time>2022-01-30T08:33:18Z</time>
      </trkpt>
      <trkpt lat="46.312251482158899" lon="8.245993796736002">
        <ele>1835.3599999999999</ele>
        <time>2022-01-30T08:33:26Z</time>
      </trkpt>
      <trkpt lat="46.312217870727181" lon="8.245932860299945">
        <ele>1836.9300000000001</ele>
        <time>2022-01-30T08:33:35Z</time>
      </trkpt>
      <trkpt lat="46.312183169648051" lon="8.245896147564054">
        <ele>1838.0699999999999</ele>
        <time>2022-01-30T08:33:43Z</time>
      </trkpt>
      <trkpt lat="46.312148468568921" lon="8.24585834518075">
        <ele>1839.0599999999999</ele>
        <time>2022-01-30T08:33:49Z</time>
      </trkpt>
      <trkpt lat="46.312103038653731" lon="8.245825069025159">
        <ele>1839.8900000000001</ele>
        <time>2022-01-30T08:33:56Z</time>
      </trkpt>
      <trkpt lat="46.312086693942547" lon="8.245769245550036">
        <ele>1840.8399999999999</ele>
        <time>2022-01-30T08:34:02Z</time>
      </trkpt>
      <trkpt lat="46.312076132744551" lon="8.245728090405464">
        <ele>1841.79</ele>
        <time>2022-01-30T08:34:09Z</time>
      </trkpt>
      <trkpt lat="46.312040677294135" lon="8.245640499517322">
        <ele>1843.03</ele>
        <time>2022-01-30T08:34:17Z</time>
      </trkpt>
      <trkpt lat="46.312026176601648" lon="8.245573863387108">
        <ele>1844.5999999999999</ele>
        <time>2022-01-30T08:34:26Z</time>
      </trkpt>
      <trkpt lat="46.312009999528527" lon="8.245515441522002">
        <ele>1846.73</ele>
        <time>2022-01-30T08:34:35Z</time>
      </trkpt>
      <trkpt lat="46.311995079740882" lon="8.245455846190453">
        <ele>1848.4300000000001</ele>
        <time>2022-01-30T08:34:42Z</time>
      </trkpt>
      <trkpt lat="46.312003964558244" lon="8.245385270565748">
        <ele>1849.8099999999999</ele>
        <time>2022-01-30T08:34:49Z</time>
      </trkpt>
      <trkpt lat="46.311991475522518" lon="8.245326345786452">
        <ele>1852.26</ele>
        <time>2022-01-30T08:34:58Z</time>
      </trkpt>
      <trkpt lat="46.311975046992302" lon="8.245283178985119">
        <ele>1853.8099999999999</ele>
        <time>2022-01-30T08:35:04Z</time>
      </trkpt>
      <trkpt lat="46.311945961788297" lon="8.245184188708663">
        <ele>1855.01</ele>
        <time>2022-01-30T08:35:11Z</time>
      </trkpt>
      <trkpt lat="46.311931880190969" lon="8.245123587548733">
        <ele>1855.75</ele>
        <time>2022-01-30T08:35:19Z</time>
      </trkpt>
      <trkpt lat="46.311902543529868" lon="8.24507363140583">
        <ele>1856.5999999999999</ele>
        <time>2022-01-30T08:35:28Z</time>
      </trkpt>
      <trkpt lat="46.311893658712506" lon="8.24506969191134">
        <ele>1856.97</ele>
        <time>2022-01-30T08:35:38Z</time>
      </trkpt>
      <trkpt lat="46.311871195212007" lon="8.245022585615516">
        <ele>1857.0599999999999</ele>
        <time>2022-01-30T08:35:50Z</time>
      </trkpt>
      <trkpt lat="46.3118542637676" lon="8.244945388287306">
        <ele>1858.0799999999999</ele>
        <time>2022-01-30T08:35:59Z</time>
      </trkpt>
      <trkpt lat="46.311825262382627" lon="8.244917392730713">
        <ele>1859.4400000000001</ele>
        <time>2022-01-30T08:36:06Z</time>
      </trkpt>
      <trkpt lat="46.311789974570274" lon="8.244939269497991">
        <ele>1861.04</ele>
        <time>2022-01-30T08:36:14Z</time>
      </trkpt>
      <trkpt lat="46.311749154701829" lon="8.244966762140393">
        <ele>1862.5799999999999</ele>
        <time>2022-01-30T08:36:21Z</time>
      </trkpt>
      <trkpt lat="46.311704898253083" lon="8.244979921728373">
        <ele>1863.8</ele>
        <time>2022-01-30T08:36:28Z</time>
      </trkpt>
      <trkpt lat="46.311674891039729" lon="8.244976736605167">
        <ele>1864.6600000000001</ele>
        <time>2022-01-30T08:36:34Z</time>
      </trkpt>
      <trkpt lat="46.311666173860431" lon="8.244973467662931">
        <ele>1864.8599999999999</ele>
        <time>2022-01-30T08:36:38Z</time>
      </trkpt>
      <trkpt lat="46.311642033979297" lon="8.244926696643233">
        <ele>1865.22</ele>
        <time>2022-01-30T08:36:45Z</time>
      </trkpt>
      <trkpt lat="46.31160993129015" lon="8.244848661124706">
        <ele>1866</ele>
        <time>2022-01-30T08:36:53Z</time>
      </trkpt>
      <trkpt lat="46.311569446697831" lon="8.244818234816194">
        <ele>1867.1199999999999</ele>
        <time>2022-01-30T08:37:01Z</time>
      </trkpt>
      <trkpt lat="46.311566261574626" lon="8.244812870398164">
        <ele>1867.23</ele>
        <time>2022-01-30T08:37:02Z</time>
      </trkpt>
      <trkpt lat="46.311521837487817" lon="8.244775654748082">
        <ele>1867.8699999999999</ele>
        <time>2022-01-30T08:37:08Z</time>
      </trkpt>
      <trkpt lat="46.311492919921875" lon="8.244760483503342">
        <ele>1868.76</ele>
        <time>2022-01-30T08:37:14Z</time>
      </trkpt>
      <trkpt lat="46.311445478349924" lon="8.244737768545747">
        <ele>1869.6900000000001</ele>
        <time>2022-01-30T08:37:21Z</time>
      </trkpt>
      <trkpt lat="46.311392085626721" lon="8.244730224832892">
        <ele>1871.3599999999999</ele>
        <time>2022-01-30T08:37:29Z</time>
      </trkpt>
      <trkpt lat="46.311361826956272" lon="8.244700971990824">
        <ele>1872.4000000000001</ele>
        <time>2022-01-30T08:37:35Z</time>
      </trkpt>
      <trkpt lat="46.311316480860114" lon="8.244675155729055">
        <ele>1873.6800000000001</ele>
        <time>2022-01-30T08:37:42Z</time>
      </trkpt>
      <trkpt lat="46.311267530545592" lon="8.24465193785727">
        <ele>1874.8800000000001</ele>
        <time>2022-01-30T08:37:49Z</time>
      </trkpt>
      <trkpt lat="46.311200223863125" lon="8.244628384709358">
        <ele>1875.6500000000001</ele>
        <time>2022-01-30T08:37:58Z</time>
      </trkpt>
      <trkpt lat="46.311154374852777" lon="8.244610279798508">
        <ele>1876.1099999999999</ele>
        <time>2022-01-30T08:38:04Z</time>
      </trkpt>
      <trkpt lat="46.311131492257118" lon="8.244599550962448">
        <ele>1876.29</ele>
        <time>2022-01-30T08:38:07Z</time>
      </trkpt>
      <trkpt lat="46.311101820319891" lon="8.244566777721047">
        <ele>1876.7</ele>
        <time>2022-01-30T08:38:12Z</time>
      </trkpt>
      <trkpt lat="46.311083883047104" lon="8.244523024186492">
        <ele>1877.23</ele>
        <time>2022-01-30T08:38:17Z</time>
      </trkpt>
      <trkpt lat="46.311057647690177" lon="8.244496369734407">
        <ele>1878.0699999999999</ele>
        <time>2022-01-30T08:38:23Z</time>
      </trkpt>
      <trkpt lat="46.311007188633084" lon="8.244425542652607">
        <ele>1879.1500000000001</ele>
        <time>2022-01-30T08:38:32Z</time>
      </trkpt>
      <trkpt lat="46.310955388471484" lon="8.244385560974479">
        <ele>1880.3299999999999</ele>
        <time>2022-01-30T08:38:40Z</time>
      </trkpt>
      <trkpt lat="46.31091607734561" lon="8.244337448850274">
        <ele>1881.8299999999999</ele>
        <time>2022-01-30T08:38:49Z</time>
      </trkpt>
      <trkpt lat="46.310880370438099" lon="8.24428204447031">
        <ele>1882.8</ele>
        <time>2022-01-30T08:38:56Z</time>
      </trkpt>
      <trkpt lat="46.310852793976665" lon="8.244255557656288">
        <ele>1883.54</ele>
        <time>2022-01-30T08:39:01Z</time>
      </trkpt>
      <trkpt lat="46.310811555013061" lon="8.244202584028244">
        <ele>1884.5599999999999</ele>
        <time>2022-01-30T08:39:08Z</time>
      </trkpt>
      <trkpt lat="46.310768974944949" lon="8.244148939847946">
        <ele>1885.5799999999999</ele>
        <time>2022-01-30T08:39:16Z</time>
      </trkpt>
      <trkpt lat="46.310722958296537" lon="8.244067216292024">
        <ele>1886.4400000000001</ele>
        <time>2022-01-30T08:39:25Z</time>
      </trkpt>
      <trkpt lat="46.310697644948959" lon="8.244038634002209">
        <ele>1886.6700000000001</ele>
        <time>2022-01-30T08:39:31Z</time>
      </trkpt>
      <trkpt lat="46.310691358521581" lon="8.244034359231591">
        <ele>1886.7</ele>
        <time>2022-01-30T08:39:32Z</time>
      </trkpt>
      <trkpt lat="46.310674929991364" lon="8.244021032005549">
        <ele>1887.28</ele>
        <time>2022-01-30T08:39:34Z</time>
      </trkpt>
      <trkpt lat="46.310625728219748" lon="8.243959927931428">
        <ele>1887.8499999999999</ele>
        <time>2022-01-30T08:39:42Z</time>
      </trkpt>
      <trkpt lat="46.31057015620172" lon="8.24389454908669">
        <ele>1888.74</ele>
        <time>2022-01-30T08:39:51Z</time>
      </trkpt>
      <trkpt lat="46.310511818155646" lon="8.243814837187529">
        <ele>1889.54</ele>
        <time>2022-01-30T08:40:02Z</time>
      </trkpt>
      <trkpt lat="46.310478458181024" lon="8.243773598223925">
        <ele>1890.4300000000001</ele>
        <time>2022-01-30T08:40:09Z</time>
      </trkpt>
      <trkpt lat="46.310465298593044" lon="8.243747279047966">
        <ele>1890.75</ele>
        <time>2022-01-30T08:40:12Z</time>
      </trkpt>
      <trkpt lat="46.310438141226768" lon="8.24367368593812">
        <ele>1891.4200000000001</ele>
        <time>2022-01-30T08:40:18Z</time>
      </trkpt>
      <trkpt lat="46.310418276116252" lon="8.243596656247973">
        <ele>1892.3800000000001</ele>
        <time>2022-01-30T08:40:26Z</time>
      </trkpt>
      <trkpt lat="46.310393465682864" lon="8.243548460304737">
        <ele>1893.6500000000001</ele>
        <time>2022-01-30T08:40:34Z</time>
      </trkpt>
      <trkpt lat="46.310344263911247" lon="8.243517363443971">
        <ele>1894.95</ele>
        <time>2022-01-30T08:40:42Z</time>
      </trkpt>
      <trkpt lat="46.310306126251817" lon="8.243480985984206">
        <ele>1896.4400000000001</ele>
        <time>2022-01-30T08:40:50Z</time>
      </trkpt>
      <trkpt lat="46.310266982764006" lon="8.243464473634958">
        <ele>1897.6300000000001</ele>
        <time>2022-01-30T08:40:57Z</time>
      </trkpt>
      <trkpt lat="46.310235885903239" lon="8.243446871638298">
        <ele>1898.75</ele>
        <time>2022-01-30T08:41:04Z</time>
      </trkpt>
      <trkpt lat="46.310226833447814" lon="8.243439579382539">
        <ele>1899.24</ele>
        <time>2022-01-30T08:41:06Z</time>
      </trkpt>
      <trkpt lat="46.310181487351656" lon="8.243415271863341">
        <ele>1900.1600000000001</ele>
        <time>2022-01-30T08:41:12Z</time>
      </trkpt>
      <trkpt lat="46.310143265873194" lon="8.243431616574526">
        <ele>1901.8800000000001</ele>
        <time>2022-01-30T08:41:20Z</time>
      </trkpt>
      <trkpt lat="46.310104625299573" lon="8.243429521098733">
        <ele>1903.04</ele>
        <time>2022-01-30T08:41:27Z</time>
      </trkpt>
      <trkpt lat="46.31004586815834" lon="8.243424072861671">
        <ele>1904.0599999999999</ele>
        <time>2022-01-30T08:41:37Z</time>
      </trkpt>
      <trkpt lat="46.310037234798074" lon="8.243427090346813">
        <ele>1903.75</ele>
        <time>2022-01-30T08:41:48Z</time>
      </trkpt>
      <trkpt lat="46.310025416314602" lon="8.243428263813257">
        <ele>1904.2</ele>
        <time>2022-01-30T08:41:57Z</time>
      </trkpt>
      <trkpt lat="46.31001653149724" lon="8.243416780605912">
        <ele>1905.8299999999999</ele>
        <time>2022-01-30T08:44:44Z</time>
      </trkpt>
      <trkpt lat="46.310021225363016" lon="8.24340932071209">
        <ele>1904.75</ele>
        <time>2022-01-30T08:45:07Z</time>
      </trkpt>
      <trkpt lat="46.310032624751329" lon="8.243396077305079">
        <ele>1904.74</ele>
        <time>2022-01-30T08:45:09Z</time>
      </trkpt>
      <trkpt lat="46.310042096301913" lon="8.243379816412926">
        <ele>1904.73</ele>
        <time>2022-01-30T08:45:10Z</time>
      </trkpt>
      <trkpt lat="46.310043018311262" lon="8.243314856663346">
        <ele>1905.1199999999999</ele>
        <time>2022-01-30T08:45:16Z</time>
      </trkpt>
      <trkpt lat="46.310029271990061" lon="8.243331955745816">
        <ele>1907.0699999999999</ele>
        <time>2022-01-30T08:45:27Z</time>
      </trkpt>
      <trkpt lat="46.309992978349328" lon="8.243372943252325">
        <ele>1906.45</ele>
        <time>2022-01-30T08:45:36Z</time>
      </trkpt>
      <trkpt lat="46.309964396059513" lon="8.243382247164846">
        <ele>1906.5799999999999</ele>
        <time>2022-01-30T08:45:39Z</time>
      </trkpt>
      <trkpt lat="46.309882756322622" lon="8.243381576612592">
        <ele>1906.22</ele>
        <time>2022-01-30T08:45:48Z</time>
      </trkpt>
      <trkpt lat="46.309860125184059" lon="8.243373278528452">
        <ele>1906.6500000000001</ele>
        <time>2022-01-30T08:45:55Z</time>
      </trkpt>
      <trkpt lat="46.30983523093164" lon="8.243366573005915">
        <ele>1907.3399999999999</ele>
        <time>2022-01-30T08:46:03Z</time>
      </trkpt>
      <trkpt lat="46.309820981696248" lon="8.243371266871691">
        <ele>1907.55</ele>
        <time>2022-01-30T08:46:16Z</time>
      </trkpt>
      <trkpt lat="46.309774545952678" lon="8.243320723995566">
        <ele>1907.5799999999999</ele>
        <time>2022-01-30T08:46:24Z</time>
      </trkpt>
      <trkpt lat="46.309731379151344" lon="8.243322316557169">
        <ele>1908.3499999999999</ele>
        <time>2022-01-30T08:46:31Z</time>
      </trkpt>
      <trkpt lat="46.30968083627522" lon="8.243300188332796">
        <ele>1909.3599999999999</ele>
        <time>2022-01-30T08:46:38Z</time>
      </trkpt>
      <trkpt lat="46.30962903611362" lon="8.243273952975869">
        <ele>1910.5699999999999</ele>
        <time>2022-01-30T08:46:45Z</time>
      </trkpt>
      <trkpt lat="46.309568770229816" lon="8.243261044844985">
        <ele>1911.99</ele>
        <time>2022-01-30T08:46:53Z</time>
      </trkpt>
      <trkpt lat="46.309533147141337" lon="8.243287280201912">
        <ele>1913.2</ele>
        <time>2022-01-30T08:46:59Z</time>
      </trkpt>
      <trkpt lat="46.309512360021472" lon="8.243302283808589">
        <ele>1913.7</ele>
        <time>2022-01-30T08:47:02Z</time>
      </trkpt>
      <trkpt lat="46.309477658942342" lon="8.243287447839975">
        <ele>1914.8599999999999</ele>
        <time>2022-01-30T08:47:08Z</time>
      </trkpt>
      <trkpt lat="46.309446226805449" lon="8.24330672621727">
        <ele>1915.6800000000001</ele>
        <time>2022-01-30T08:47:13Z</time>
      </trkpt>
      <trkpt lat="46.309394845739007" lon="8.24330136179924">
        <ele>1916.71</ele>
        <time>2022-01-30T08:47:22Z</time>
      </trkpt>
      <trkpt lat="46.30935737863183" lon="8.2432602904737">
        <ele>1917.8099999999999</ele>
        <time>2022-01-30T08:47:30Z</time>
      </trkpt>
      <trkpt lat="46.309318821877241" lon="8.243234725669026">
        <ele>1919.3599999999999</ele>
        <time>2022-01-30T08:47:37Z</time>
      </trkpt>
      <trkpt lat="46.309275068342686" lon="8.24323195964098">
        <ele>1921.1300000000001</ele>
        <time>2022-01-30T08:47:45Z</time>
      </trkpt>
      <trkpt lat="46.309269620105624" lon="8.243233384564519">
        <ele>1921.3</ele>
        <time>2022-01-30T08:47:46Z</time>
      </trkpt>
      <trkpt lat="46.309233997017145" lon="8.243210585787892">
        <ele>1922.5899999999999</ele>
        <time>2022-01-30T08:47:53Z</time>
      </trkpt>
      <trkpt lat="46.309194853529334" lon="8.243162473663688">
        <ele>1924.1700000000001</ele>
        <time>2022-01-30T08:48:01Z</time>
      </trkpt>
      <trkpt lat="46.309183789417148" lon="8.243142357096076">
        <ele>1924.6600000000001</ele>
        <time>2022-01-30T08:48:04Z</time>
      </trkpt>
      <trkpt lat="46.309162164106965" lon="8.243080582469702">
        <ele>1925.76</ele>
        <time>2022-01-30T08:48:11Z</time>
      </trkpt>
      <trkpt lat="46.309146154671907" lon="8.243022998794913">
        <ele>1926.28</ele>
        <time>2022-01-30T08:48:18Z</time>
      </trkpt>
      <trkpt lat="46.309115560725331" lon="8.242988716810942">
        <ele>1927.27</ele>
        <time>2022-01-30T08:48:26Z</time>
      </trkpt>
      <trkpt lat="46.309100557118654" lon="8.242954183369875">
        <ele>1928.4300000000001</ele>
        <time>2022-01-30T08:48:33Z</time>
      </trkpt>
      <trkpt lat="46.309093181043863" lon="8.24288452975452">
        <ele>1930.24</ele>
        <time>2022-01-30T08:48:42Z</time>
      </trkpt>
      <trkpt lat="46.309118662029505" lon="8.242849074304104">
        <ele>1931.6199999999999</ele>
        <time>2022-01-30T08:48:48Z</time>
      </trkpt>
      <trkpt lat="46.309132324531674" lon="8.242813535034657">
        <ele>1932.73</ele>
        <time>2022-01-30T08:48:54Z</time>
      </trkpt>
      <trkpt lat="46.309156296774745" lon="8.242775648832321">
        <ele>1933.52</ele>
        <time>2022-01-30T08:49:00Z</time>
      </trkpt>
      <trkpt lat="46.309174988418818" lon="8.242738852277398">
        <ele>1934.5599999999999</ele>
        <time>2022-01-30T08:49:06Z</time>
      </trkpt>
      <trkpt lat="46.309157470241189" lon="8.242716388776898">
        <ele>1936.6500000000001</ele>
        <time>2022-01-30T08:49:15Z</time>
      </trkpt>
      <trkpt lat="46.30913064815104" lon="8.242690488696098">
        <ele>1939</ele>
        <time>2022-01-30T08:49:22Z</time>
      </trkpt>
      <trkpt lat="46.309088068082929" lon="8.242684872820973">
        <ele>1940.6800000000001</ele>
        <time>2022-01-30T08:49:30Z</time>
      </trkpt>
      <trkpt lat="46.309041883796453" lon="8.242682777345181">
        <ele>1942.0999999999999</ele>
        <time>2022-01-30T08:49:40Z</time>
      </trkpt>
      <trkpt lat="46.308986144140363" lon="8.242680681869388">
        <ele>1943.6099999999999</ele>
        <time>2022-01-30T08:49:49Z</time>
      </trkpt>
      <trkpt lat="46.308961249887943" lon="8.242632653564215">
        <ele>1943.74</ele>
        <time>2022-01-30T08:49:58Z</time>
      </trkpt>
      <trkpt lat="46.308954628184438" lon="8.242580853402615">
        <ele>1944.0999999999999</ele>
        <time>2022-01-30T08:50:06Z</time>
      </trkpt>
      <trkpt lat="46.308927219361067" lon="8.242581188678742">
        <ele>1945.1500000000001</ele>
        <time>2022-01-30T08:50:13Z</time>
      </trkpt>
      <trkpt lat="46.308870976790786" lon="8.242571046575904">
        <ele>1945.6500000000001</ele>
        <time>2022-01-30T08:50:22Z</time>
      </trkpt>
      <trkpt lat="46.308837532997131" lon="8.242571717128158">
        <ele>1947.1199999999999</ele>
        <time>2022-01-30T08:50:29Z</time>
      </trkpt>
      <trkpt lat="46.308818757534027" lon="8.242563335224986">
        <ele>1948.4000000000001</ele>
        <time>2022-01-30T08:50:36Z</time>
      </trkpt>
      <trkpt lat="46.308787493035197" lon="8.242590660229325">
        <ele>1949.3699999999999</ele>
        <time>2022-01-30T08:50:42Z</time>
      </trkpt>
      <trkpt lat="46.308756479993463" lon="8.242598874494433">
        <ele>1950.3099999999999</ele>
        <time>2022-01-30T08:50:48Z</time>
      </trkpt>
      <trkpt lat="46.30870652385056" lon="8.242584289982915">
        <ele>1951.8599999999999</ele>
        <time>2022-01-30T08:50:58Z</time>
      </trkpt>
      <trkpt lat="46.308674672618508" lon="8.242566520348191">
        <ele>1952.96</ele>
        <time>2022-01-30T08:51:05Z</time>
      </trkpt>
      <trkpt lat="46.308633517473936" lon="8.242561323568225">
        <ele>1953.8499999999999</ele>
        <time>2022-01-30T08:51:12Z</time>
      </trkpt>
      <trkpt lat="46.308590350672603" lon="8.24255813844502">
        <ele>1955.75</ele>
        <time>2022-01-30T08:51:21Z</time>
      </trkpt>
      <trkpt lat="46.308558834716678" lon="8.242562832310796">
        <ele>1957.52</ele>
        <time>2022-01-30T08:51:28Z</time>
      </trkpt>
      <trkpt lat="46.308511728420854" lon="8.242551432922483">
        <ele>1959.0599999999999</ele>
        <time>2022-01-30T08:51:35Z</time>
      </trkpt>
      <trkpt lat="46.308480883017182" lon="8.242561658844352">
        <ele>1959.99</ele>
        <time>2022-01-30T08:51:43Z</time>
      </trkpt>
      <trkpt lat="46.308421287685633" lon="8.242543889209628">
        <ele>1960.8099999999999</ele>
        <time>2022-01-30T08:51:53Z</time>
      </trkpt>
      <trkpt lat="46.308380719274282" lon="8.24254154227674">
        <ele>1961.5599999999999</ele>
        <time>2022-01-30T08:52:00Z</time>
      </trkpt>
      <trkpt lat="46.308354483917356" lon="8.242539027705789">
        <ele>1962.0899999999999</ele>
        <time>2022-01-30T08:52:06Z</time>
      </trkpt>
      <trkpt lat="46.308327578008175" lon="8.242521677166224">
        <ele>1962.6300000000001</ele>
        <time>2022-01-30T08:52:12Z</time>
      </trkpt>
      <trkpt lat="46.308297654613853" lon="8.242492089048028">
        <ele>1964.97</ele>
        <time>2022-01-30T08:52:19Z</time>
      </trkpt>
      <trkpt lat="46.308292457833886" lon="8.242488233372569">
        <ele>1965.23</ele>
        <time>2022-01-30T08:52:20Z</time>
      </trkpt>
      <trkpt lat="46.308253733441234" lon="8.242462584748864">
        <ele>1966.47</ele>
        <time>2022-01-30T08:52:28Z</time>
      </trkpt>
      <trkpt lat="46.308216350153089" lon="8.242439366877079">
        <ele>1967.8099999999999</ele>
        <time>2022-01-30T08:52:36Z</time>
      </trkpt>
      <trkpt lat="46.308182571083307" lon="8.242418579757214">
        <ele>1968.74</ele>
        <time>2022-01-30T08:52:45Z</time>
      </trkpt>
      <trkpt lat="46.308167399838567" lon="8.242360660806298">
        <ele>1969.1700000000001</ele>
        <time>2022-01-30T08:52:53Z</time>
      </trkpt>
      <trkpt lat="46.308161281049252" lon="8.242311961948872">
        <ele>1969.3499999999999</ele>
        <time>2022-01-30T08:52:59Z</time>
      </trkpt>
      <trkpt lat="46.308119287714362" lon="8.242346327751875">
        <ele>1970.1700000000001</ele>
        <time>2022-01-30T08:53:09Z</time>
      </trkpt>
      <trkpt lat="46.308094393461943" lon="8.242347249761224">
        <ele>1970.3699999999999</ele>
        <time>2022-01-30T08:53:14Z</time>
      </trkpt>
      <trkpt lat="46.308070924133062" lon="8.242362840101123">
        <ele>1971.01</ele>
        <time>2022-01-30T08:53:20Z</time>
      </trkpt>
      <trkpt lat="46.308045443147421" lon="8.242371892556548">
        <ele>1971.98</ele>
        <time>2022-01-30T08:53:26Z</time>
      </trkpt>
      <trkpt lat="46.308021135628223" lon="8.242319924756885">
        <ele>1973</ele>
        <time>2022-01-30T08:53:34Z</time>
      </trkpt>
      <trkpt lat="46.308027673512697" lon="8.242280781269074">
        <ele>1973.78</ele>
        <time>2022-01-30T08:53:52Z</time>
      </trkpt>
      <trkpt lat="46.308013843372464" lon="8.242226550355554">
        <ele>1975.01</ele>
        <time>2022-01-30T08:54:00Z</time>
      </trkpt>
      <trkpt lat="46.307971095666289" lon="8.242246247828007">
        <ele>1976.25</ele>
        <time>2022-01-30T08:54:08Z</time>
      </trkpt>
      <trkpt lat="46.307937819510698" lon="8.242261754348874">
        <ele>1977.5</ele>
        <time>2022-01-30T08:54:14Z</time>
      </trkpt>
      <trkpt lat="46.307914350181818" lon="8.242248091846705">
        <ele>1979.6600000000001</ele>
        <time>2022-01-30T08:54:24Z</time>
      </trkpt>
      <trkpt lat="46.307883588597178" lon="8.242199057713151">
        <ele>1982.3499999999999</ele>
        <time>2022-01-30T08:54:35Z</time>
      </trkpt>
      <trkpt lat="46.307865986600518" lon="8.242168631404638">
        <ele>1984.6800000000001</ele>
        <time>2022-01-30T08:54:44Z</time>
      </trkpt>
      <trkpt lat="46.307843020185828" lon="8.242125464603305">
        <ele>1986.3</ele>
        <time>2022-01-30T08:54:54Z</time>
      </trkpt>
      <trkpt lat="46.307834554463625" lon="8.242093864828348">
        <ele>1987.46</ele>
        <time>2022-01-30T08:55:01Z</time>
      </trkpt>
      <trkpt lat="46.307827681303024" lon="8.242045333608985">
        <ele>1988.48</ele>
        <time>2022-01-30T08:55:09Z</time>
      </trkpt>
      <trkpt lat="46.3078323751688" lon="8.242026725783944">
        <ele>1989.71</ele>
        <time>2022-01-30T08:55:16Z</time>
      </trkpt>
      <trkpt lat="46.307811923325062" lon="8.241995796561241">
        <ele>1990.9100000000001</ele>
        <time>2022-01-30T08:55:23Z</time>
      </trkpt>
      <trkpt lat="46.307815695181489" lon="8.241941649466753">
        <ele>1992.0999999999999</ele>
        <time>2022-01-30T08:55:29Z</time>
      </trkpt>
      <trkpt lat="46.307842684909701" lon="8.24186135083437">
        <ele>1993.23</ele>
        <time>2022-01-30T08:55:39Z</time>
      </trkpt>
      <trkpt lat="46.30784603767097" lon="8.241784069687128">
        <ele>1993.4400000000001</ele>
        <time>2022-01-30T08:55:47Z</time>
      </trkpt>
      <trkpt lat="46.307841762900352" lon="8.241729252040386">
        <ele>1994.53</ele>
        <time>2022-01-30T08:55:57Z</time>
      </trkpt>
      <trkpt lat="46.307838158681989" lon="8.241737969219685">
        <ele>1995.02</ele>
        <time>2022-01-30T08:56:14Z</time>
      </trkpt>
      <trkpt lat="46.307844445109367" lon="8.241733694449067">
        <ele>1995.8</ele>
        <time>2022-01-30T08:56:38Z</time>
      </trkpt>
      <trkpt lat="46.307842265814543" lon="8.241701256483793">
        <ele>1995.9200000000001</ele>
        <time>2022-01-30T08:56:47Z</time>
      </trkpt>
      <trkpt lat="46.307837069034576" lon="8.241641828790307">
        <ele>1996.3099999999999</ele>
        <time>2022-01-30T08:56:58Z</time>
      </trkpt>
      <trkpt lat="46.307845786213875" lon="8.241547532379627">
        <ele>1996.1700000000001</ele>
        <time>2022-01-30T08:57:07Z</time>
      </trkpt>
      <trkpt lat="46.307849055156112" lon="8.241467988118529">
        <ele>1996.46</ele>
        <time>2022-01-30T08:57:16Z</time>
      </trkpt>
      <trkpt lat="46.30784553475678" lon="8.241391628980637">
        <ele>1996.9100000000001</ele>
        <time>2022-01-30T08:57:24Z</time>
      </trkpt>
      <trkpt lat="46.30785676650703" lon="8.241302696987987">
        <ele>1997.9000000000001</ele>
        <time>2022-01-30T08:57:34Z</time>
      </trkpt>
      <trkpt lat="46.307899849489331" lon="8.241232959553599">
        <ele>1999.25</ele>
        <time>2022-01-30T08:57:44Z</time>
      </trkpt>
      <trkpt lat="46.307911332696676" lon="8.241216782480478">
        <ele>1999.8099999999999</ele>
        <time>2022-01-30T08:57:55Z</time>
      </trkpt>
      <trkpt lat="46.307934885844588" lon="8.241145452484489">
        <ele>2000.27</ele>
        <time>2022-01-30T08:58:05Z</time>
      </trkpt>
      <trkpt lat="46.307939998805523" lon="8.241127347573638">
        <ele>1999.75</ele>
        <time>2022-01-30T08:58:07Z</time>
      </trkpt>
      <trkpt lat="46.307947291061282" lon="8.24111569672823">
        <ele>1999.4000000000001</ele>
        <time>2022-01-30T08:58:08Z</time>
      </trkpt>
      <trkpt lat="46.30798333324492" lon="8.241061130538583">
        <ele>1997.6500000000001</ele>
        <time>2022-01-30T08:58:16Z</time>
      </trkpt>
      <trkpt lat="46.308013340458274" lon="8.241029866039753">
        <ele>1997.1400000000001</ele>
        <time>2022-01-30T08:58:25Z</time>
      </trkpt>
      <trkpt lat="46.30803756415844" lon="8.241015616804361">
        <ele>1997.1400000000001</ele>
        <time>2022-01-30T08:58:36Z</time>
      </trkpt>
      <trkpt lat="46.308031361550093" lon="8.241010839119554">
        <ele>1997.1400000000001</ele>
        <time>2022-01-30T08:58:56Z</time>
      </trkpt>
      <trkpt lat="46.308059021830559" lon="8.240990471094847">
        <ele>1997.1400000000001</ele>
        <time>2022-01-30T08:59:23Z</time>
      </trkpt>
      <trkpt lat="46.308106295764446" lon="8.240948645398021">
        <ele>1997.1400000000001</ele>
        <time>2022-01-30T08:59:31Z</time>
      </trkpt>
      <trkpt lat="46.308067990466952" lon="8.240898186340928">
        <ele>1997.1400000000001</ele>
        <time>2022-01-30T08:59:39Z</time>
      </trkpt>
      <trkpt lat="46.308048544451594" lon="8.240852253511548">
        <ele>1997.1400000000001</ele>
        <time>2022-01-30T08:59:47Z</time>
      </trkpt>
      <trkpt lat="46.30803563632071" lon="8.240759633481503">
        <ele>1997.1400000000001</ele>
        <time>2022-01-30T08:59:55Z</time>
      </trkpt>
      <trkpt lat="46.307989368215203" lon="8.240636251866818">
        <ele>1995.75</ele>
        <time>2022-01-30T09:00:06Z</time>
      </trkpt>
      <trkpt lat="46.30794326774776" lon="8.24052644893527">
        <ele>1995.8599999999999</ele>
        <time>2022-01-30T09:00:15Z</time>
      </trkpt>
      <trkpt lat="46.307890377938747" lon="8.240411030128598">
        <ele>1995.46</ele>
        <time>2022-01-30T09:00:26Z</time>
      </trkpt>
      <trkpt lat="46.307863472029567" lon="8.240281362086535">
        <ele>1995.52</ele>
        <time>2022-01-30T09:00:36Z</time>
      </trkpt>
      <trkpt lat="46.307800021022558" lon="8.240140965208411">
        <ele>1995.52</ele>
        <time>2022-01-30T09:00:49Z</time>
      </trkpt>
      <trkpt lat="46.307774875313044" lon="8.240071227774024">
        <ele>1995.5799999999999</ele>
        <time>2022-01-30T09:00:56Z</time>
      </trkpt>
      <trkpt lat="46.307721734046936" lon="8.240005848929286">
        <ele>1995.4200000000001</ele>
        <time>2022-01-30T09:01:04Z</time>
      </trkpt>
      <trkpt lat="46.307698432356119" lon="8.23995765298605">
        <ele>1995.25</ele>
        <time>2022-01-30T09:01:10Z</time>
      </trkpt>
      <trkpt lat="46.30766867659986" lon="8.239940972998738">
        <ele>1995.6500000000001</ele>
        <time>2022-01-30T09:01:16Z</time>
      </trkpt>
      <trkpt lat="46.307658283039927" lon="8.239921191707254">
        <ele>1995.3800000000001</ele>
        <time>2022-01-30T09:01:19Z</time>
      </trkpt>
      <trkpt lat="46.307629281654954" lon="8.239866625517607">
        <ele>1994.3</ele>
        <time>2022-01-30T09:01:26Z</time>
      </trkpt>
      <trkpt lat="46.307590221986175" lon="8.2398169208318">
        <ele>1994.52</ele>
        <time>2022-01-30T09:01:34Z</time>
      </trkpt>
      <trkpt lat="46.307577732950449" lon="8.239789847284555">
        <ele>1995.8499999999999</ele>
        <time>2022-01-30T09:01:42Z</time>
      </trkpt>
      <trkpt lat="46.307548983022571" lon="8.239709381014109">
        <ele>1996.46</ele>
        <time>2022-01-30T09:01:50Z</time>
      </trkpt>
      <trkpt lat="46.307524172589183" lon="8.239649618044496">
        <ele>1996.2</ele>
        <time>2022-01-30T09:01:57Z</time>
      </trkpt>
      <trkpt lat="46.307476731017232" lon="8.239569738507271">
        <ele>1993.46</ele>
        <time>2022-01-30T09:02:06Z</time>
      </trkpt>
      <trkpt lat="46.307455189526081" lon="8.239528248086572">
        <ele>1989.9200000000001</ele>
        <time>2022-01-30T09:02:12Z</time>
      </trkpt>
      <trkpt lat="46.307441694661975" lon="8.239512490108609">
        <ele>1986.6900000000001</ele>
        <time>2022-01-30T09:02:15Z</time>
      </trkpt>
      <trkpt lat="46.307427445426583" lon="8.239486925303936">
        <ele>1983.6300000000001</ele>
        <time>2022-01-30T09:02:18Z</time>
      </trkpt>
      <trkpt lat="46.307406071573496" lon="8.239410733804107">
        <ele>1984.99</ele>
        <time>2022-01-30T09:02:25Z</time>
      </trkpt>
      <trkpt lat="46.30739944986999" lon="8.239391958341003">
        <ele>1985.95</ele>
        <time>2022-01-30T09:02:27Z</time>
      </trkpt>
      <trkpt lat="46.307384362444282" lon="8.239355077967048">
        <ele>1988.99</ele>
        <time>2022-01-30T09:02:30Z</time>
      </trkpt>
      <trkpt lat="46.30736231803894" lon="8.239317191764712">
        <ele>1992.3099999999999</ele>
        <time>2022-01-30T09:02:35Z</time>
      </trkpt>
      <trkpt lat="46.307328790426254" lon="8.239271426573396">
        <ele>1995.3499999999999</ele>
        <time>2022-01-30T09:02:42Z</time>
      </trkpt>
      <trkpt lat="46.30730171687901" lon="8.239196324720979">
        <ele>1996.95</ele>
        <time>2022-01-30T09:02:52Z</time>
      </trkpt>
      <trkpt lat="46.307277157902718" lon="8.23915533721447">
        <ele>1997.95</ele>
        <time>2022-01-30T09:02:59Z</time>
      </trkpt>
      <trkpt lat="46.307244217023253" lon="8.239068333059549">
        <ele>1999.8399999999999</ele>
        <time>2022-01-30T09:03:08Z</time>
      </trkpt>
      <trkpt lat="46.307204319164157" lon="8.238990381360054">
        <ele>2000.3199999999999</ele>
        <time>2022-01-30T09:03:17Z</time>
      </trkpt>
      <trkpt lat="46.307182023301721" lon="8.238955596461892">
        <ele>2000.6600000000001</ele>
        <time>2022-01-30T09:03:22Z</time>
      </trkpt>
      <trkpt lat="46.307142963632941" lon="8.23889097198844">
        <ele>2001.6600000000001</ele>
        <time>2022-01-30T09:03:29Z</time>
      </trkpt>
      <trkpt lat="46.307119326665998" lon="8.238849733024836">
        <ele>2002.3199999999999</ele>
        <time>2022-01-30T09:03:38Z</time>
      </trkpt>
      <trkpt lat="46.307124439626932" lon="8.238858869299293">
        <ele>2002.0899999999999</ele>
        <time>2022-01-30T09:03:52Z</time>
      </trkpt>
      <trkpt lat="46.307121757417917" lon="8.238860545679927">
        <ele>2002.3299999999999</ele>
        <time>2022-01-30T09:04:07Z</time>
      </trkpt>
      <trkpt lat="46.3071209192276" lon="8.238864568993449">
        <ele>2003.48</ele>
        <time>2022-01-30T09:04:20Z</time>
      </trkpt>
      <trkpt lat="46.307121589779854" lon="8.238846464082599">
        <ele>2003.46</ele>
        <time>2022-01-30T09:04:35Z</time>
      </trkpt>
      <trkpt lat="46.307133240625262" lon="8.23884068056941">
        <ele>2002.1400000000001</ele>
        <time>2022-01-30T09:04:44Z</time>
      </trkpt>
      <trkpt lat="46.307123936712742" lon="8.238855181261897">
        <ele>2000.0599999999999</ele>
        <time>2022-01-30T09:05:48Z</time>
      </trkpt>
      <trkpt lat="46.3071209192276" lon="8.238850152119994">
        <ele>2003.51</ele>
        <time>2022-01-30T09:05:56Z</time>
      </trkpt>
      <trkpt lat="46.307120751589537" lon="8.238848559558392">
        <ele>2004.29</ele>
        <time>2022-01-30T09:05:58Z</time>
      </trkpt>
      <trkpt lat="46.307119829580188" lon="8.238844452425838">
        <ele>2006.4000000000001</ele>
        <time>2022-01-30T09:06:05Z</time>
      </trkpt>
      <trkpt lat="46.307123685255647" lon="8.238841183483601">
        <ele>2005.55</ele>
        <time>2022-01-30T09:06:46Z</time>
      </trkpt>
      <trkpt lat="46.307125529274344" lon="8.238841183483601">
        <ele>2003.8</ele>
        <time>2022-01-30T09:07:35Z</time>
      </trkpt>
      <trkpt lat="46.307114632800221" lon="8.238852247595787">
        <ele>2005.46</ele>
        <time>2022-01-30T09:08:20Z</time>
      </trkpt>
      <trkpt lat="46.307128462940454" lon="8.238861216232181">
        <ele>2004.2</ele>
        <time>2022-01-30T09:08:33Z</time>
      </trkpt>
      <trkpt lat="46.30713458172977" lon="8.238841770216823">
        <ele>2000.9200000000001</ele>
        <time>2022-01-30T09:08:50Z</time>
      </trkpt>
      <trkpt lat="46.307139275595546" lon="8.238838752731681">
        <ele>2002.05</ele>
        <time>2022-01-30T09:08:55Z</time>
      </trkpt>
      <trkpt lat="46.307157631963491" lon="8.238837327808142">
        <ele>2001.74</ele>
        <time>2022-01-30T09:09:03Z</time>
      </trkpt>
      <trkpt lat="46.307152854278684" lon="8.238830957561731">
        <ele>2001.6600000000001</ele>
        <time>2022-01-30T09:09:26Z</time>
      </trkpt>
      <trkpt lat="46.307142963632941" lon="8.238844955340028">
        <ele>2002.72</ele>
        <time>2022-01-30T09:09:41Z</time>
      </trkpt>
      <trkpt lat="46.307139778509736" lon="8.238844536244869">
        <ele>1999.7</ele>
        <time>2022-01-30T09:10:03Z</time>
      </trkpt>
      <trkpt lat="46.307129887863994" lon="8.238845374435186">
        <ele>2002.76</ele>
        <time>2022-01-30T09:10:11Z</time>
      </trkpt>
      <trkpt lat="46.307131564244628" lon="8.238844955340028">
        <ele>2003.01</ele>
        <time>2022-01-30T09:10:12Z</time>
      </trkpt>
      <trkpt lat="46.307133492082357" lon="8.238839255645871">
        <ele>2001.6800000000001</ele>
        <time>2022-01-30T09:10:36Z</time>
      </trkpt>
      <trkpt lat="46.307121589779854" lon="8.238833975046873">
        <ele>2003.24</ele>
        <time>2022-01-30T09:11:49Z</time>
      </trkpt>
      <trkpt lat="46.307129384949803" lon="8.238836489617825">
        <ele>2003.6900000000001</ele>
        <time>2022-01-30T09:12:15Z</time>
      </trkpt>
      <trkpt lat="46.307132486253977" lon="8.238853085786104">
        <ele>2001.55</ele>
        <time>2022-01-30T09:12:26Z</time>
      </trkpt>
      <trkpt lat="46.307114129886031" lon="8.238822156563401">
        <ele>2001.3299999999999</ele>
        <time>2022-01-30T09:12:37Z</time>
      </trkpt>
      <trkpt lat="46.307066436856985" lon="8.238769769668579">
        <ele>2001.3900000000001</ele>
        <time>2022-01-30T09:12:45Z</time>
      </trkpt>
      <trkpt lat="46.30705545656383" lon="8.238749150186777">
        <ele>2001.4100000000001</ele>
        <time>2022-01-30T09:12:47Z</time>
      </trkpt>
      <trkpt lat="46.307048164308071" lon="8.238737331703305">
        <ele>2001.46</ele>
        <time>2022-01-30T09:12:48Z</time>
      </trkpt>
      <trkpt lat="46.307031232863665" lon="8.238712521269918">
        <ele>2001.6400000000001</ele>
        <time>2022-01-30T09:12:50Z</time>
      </trkpt>
      <trkpt lat="46.306988820433617" lon="8.238645046949387">
        <ele>2001.8900000000001</ele>
        <time>2022-01-30T09:12:55Z</time>
      </trkpt>
      <trkpt lat="46.306946659460664" lon="8.238561227917671">
        <ele>2002.1500000000001</ele>
        <time>2022-01-30T09:13:01Z</time>
      </trkpt>
      <trkpt lat="46.306916484609246" lon="8.238536920398474">
        <ele>2002.1600000000001</ele>
        <time>2022-01-30T09:13:04Z</time>
      </trkpt>
      <trkpt lat="46.306909024715424" lon="8.238524599000812">
        <ele>2002.1600000000001</ele>
        <time>2022-01-30T09:13:05Z</time>
      </trkpt>
      <trkpt lat="46.306871138513088" lon="8.238438097760081">
        <ele>2002.22</ele>
        <time>2022-01-30T09:13:12Z</time>
      </trkpt>
      <trkpt lat="46.306860661134124" lon="8.238416472449899">
        <ele>2002.1099999999999</ele>
        <time>2022-01-30T09:13:14Z</time>
      </trkpt>
      <trkpt lat="46.306809782981873" lon="8.238361487165093">
        <ele>2002.3800000000001</ele>
        <time>2022-01-30T09:13:21Z</time>
      </trkpt>
      <trkpt lat="46.306787822395563" lon="8.238317063078284">
        <ele>2002.5</ele>
        <time>2022-01-30T09:13:26Z</time>
      </trkpt>
      <trkpt lat="46.30673686042428" lon="8.238240452483296">
        <ele>2002.1199999999999</ele>
        <time>2022-01-30T09:13:33Z</time>
      </trkpt>
      <trkpt lat="46.306730573996902" lon="8.238229723647237">
        <ele>2002.1300000000001</ele>
        <time>2022-01-30T09:13:34Z</time>
      </trkpt>
      <trkpt lat="46.306701824069023" lon="8.238186053931713">
        <ele>2002.28</ele>
        <time>2022-01-30T09:13:38Z</time>
      </trkpt>
      <trkpt lat="46.306673074141145" lon="8.23813701979816">
        <ele>2002.54</ele>
        <time>2022-01-30T09:13:43Z</time>
      </trkpt>
      <trkpt lat="46.306633679196239" lon="8.23811162263155">
        <ele>2002.3699999999999</ele>
        <time>2022-01-30T09:13:47Z</time>
      </trkpt>
      <trkpt lat="46.306550530716777" lon="8.238019337877631">
        <ele>2002.29</ele>
        <time>2022-01-30T09:13:57Z</time>
      </trkpt>
      <trkpt lat="46.306521696969867" lon="8.237993773072958">
        <ele>2002.3299999999999</ele>
        <time>2022-01-30T09:14:00Z</time>
      </trkpt>
      <trkpt lat="46.30651499144733" lon="8.237983295693994">
        <ele>2002.3299999999999</ele>
        <time>2022-01-30T09:14:01Z</time>
      </trkpt>
      <trkpt lat="46.306446762755513" lon="8.237920263782144">
        <ele>2002.27</ele>
        <time>2022-01-30T09:14:09Z</time>
      </trkpt>
      <trkpt lat="46.306399321183562" lon="8.237863937392831">
        <ele>2001.8399999999999</ele>
        <time>2022-01-30T09:14:15Z</time>
      </trkpt>
      <trkpt lat="46.306342324241996" lon="8.237808281555772">
        <ele>2001.9100000000001</ele>
        <time>2022-01-30T09:14:22Z</time>
      </trkpt>
      <trkpt lat="46.306287925690413" lon="8.237741896882653">
        <ele>2002.5899999999999</ele>
        <time>2022-01-30T09:14:29Z</time>
      </trkpt>
      <trkpt lat="46.306227827444673" lon="8.237686324864626">
        <ele>2002.73</ele>
        <time>2022-01-30T09:14:36Z</time>
      </trkpt>
      <trkpt lat="46.306197233498096" lon="8.237618766725063">
        <ele>2002.28</ele>
        <time>2022-01-30T09:14:42Z</time>
      </trkpt>
      <trkpt lat="46.306185331195593" lon="8.237601667642593">
        <ele>2002.23</ele>
        <time>2022-01-30T09:14:44Z</time>
      </trkpt>
      <trkpt lat="46.306138895452023" lon="8.2375184353441">
        <ele>2002.3599999999999</ele>
        <time>2022-01-30T09:14:51Z</time>
      </trkpt>
      <trkpt lat="46.30608256906271" lon="8.237447524443269">
        <ele>2002.3099999999999</ele>
        <time>2022-01-30T09:14:58Z</time>
      </trkpt>
      <trkpt lat="46.306027919054031" lon="8.237389354035258">
        <ele>2002.3399999999999</ele>
        <time>2022-01-30T09:15:04Z</time>
      </trkpt>
      <trkpt lat="46.305988524109125" lon="8.237337218597531">
        <ele>2002.28</ele>
        <time>2022-01-30T09:15:09Z</time>
      </trkpt>
      <trkpt lat="46.305938651785254" lon="8.237296817824245">
        <ele>2002.3399999999999</ele>
        <time>2022-01-30T09:15:15Z</time>
      </trkpt>
      <trkpt lat="46.305864723399282" lon="8.237224817276001">
        <ele>2002.1400000000001</ele>
        <time>2022-01-30T09:15:23Z</time>
      </trkpt>
      <trkpt lat="46.305843433365226" lon="8.237180728465319">
        <ele>2001.95</ele>
        <time>2022-01-30T09:15:27Z</time>
      </trkpt>
      <trkpt lat="46.305835638195276" lon="8.237165389582515">
        <ele>2001.8900000000001</ele>
        <time>2022-01-30T09:15:28Z</time>
      </trkpt>
      <trkpt lat="46.305805295705795" lon="8.237102525308728">
        <ele>2001.6600000000001</ele>
        <time>2022-01-30T09:15:32Z</time>
      </trkpt>
      <trkpt lat="46.305803284049034" lon="8.237085929140449">
        <ele>2001.6199999999999</ele>
        <time>2022-01-30T09:15:33Z</time>
      </trkpt>
      <trkpt lat="46.305758021771908" lon="8.236967492848635">
        <ele>2002.0599999999999</ele>
        <time>2022-01-30T09:15:42Z</time>
      </trkpt>
      <trkpt lat="46.305752238258719" lon="8.236956344917417">
        <ele>2002.0999999999999</ele>
        <time>2022-01-30T09:15:43Z</time>
      </trkpt>
      <trkpt lat="46.30574544891715" lon="8.236944023519754">
        <ele>2002.1400000000001</ele>
        <time>2022-01-30T09:15:44Z</time>
      </trkpt>
      <trkpt lat="46.305737486109138" lon="8.236930444836617">
        <ele>2002.1500000000001</ele>
        <time>2022-01-30T09:15:45Z</time>
      </trkpt>
      <trkpt lat="46.305711418390274" lon="8.236886858940125">
        <ele>2002.22</ele>
        <time>2022-01-30T09:15:49Z</time>
      </trkpt>
      <trkpt lat="46.305701276287436" lon="8.236861294135451">
        <ele>2002.28</ele>
        <time>2022-01-30T09:15:51Z</time>
      </trkpt>
      <trkpt lat="46.305672191083431" lon="8.236810751259327">
        <ele>2002.4100000000001</ele>
        <time>2022-01-30T09:15:55Z</time>
      </trkpt>
      <trkpt lat="46.305663557723165" lon="8.236788539215922">
        <ele>2002.45</ele>
        <time>2022-01-30T09:15:57Z</time>
      </trkpt>
      <trkpt lat="46.30564914084971" lon="8.236747467890382">
        <ele>2002.75</ele>
        <time>2022-01-30T09:16:01Z</time>
      </trkpt>
      <trkpt lat="46.305641932412982" lon="8.236707653850317">
        <ele>2002.8299999999999</ele>
        <time>2022-01-30T09:16:03Z</time>
      </trkpt>
      <trkpt lat="46.305639334022999" lon="8.236687537282705">
        <ele>2002.8800000000001</ele>
        <time>2022-01-30T09:16:04Z</time>
      </trkpt>
      <trkpt lat="46.30563547834754" lon="8.236671024933457">
        <ele>2002.98</ele>
        <time>2022-01-30T09:16:05Z</time>
      </trkpt>
      <trkpt lat="46.305588874965906" lon="8.236554767936468">
        <ele>2003.55</ele>
        <time>2022-01-30T09:16:14Z</time>
      </trkpt>
      <trkpt lat="46.305583259090781" lon="8.236540099605918">
        <ele>2003.52</ele>
        <time>2022-01-30T09:16:15Z</time>
      </trkpt>
      <trkpt lat="46.305571775883436" lon="8.23649282567203">
        <ele>2003.3199999999999</ele>
        <time>2022-01-30T09:16:18Z</time>
      </trkpt>
      <trkpt lat="46.30556171759963" lon="8.23646835051477">
        <ele>2003.27</ele>
        <time>2022-01-30T09:16:20Z</time>
      </trkpt>
      <trkpt lat="46.305554425343871" lon="8.236419148743153">
        <ele>2003.3199999999999</ele>
        <time>2022-01-30T09:16:24Z</time>
      </trkpt>
      <trkpt lat="46.305516539141536" lon="8.23632619343698">
        <ele>2003.9000000000001</ele>
        <time>2022-01-30T09:16:31Z</time>
      </trkpt>
      <trkpt lat="46.305510923266411" lon="8.23631638661027">
        <ele>2003.97</ele>
        <time>2022-01-30T09:16:32Z</time>
      </trkpt>
      <trkpt lat="46.305466331541538" lon="8.236233489587903">
        <ele>2004.3</ele>
        <time>2022-01-30T09:16:39Z</time>
      </trkpt>
      <trkpt lat="46.305452585220337" lon="8.236188143491745">
        <ele>2004.6600000000001</ele>
        <time>2022-01-30T09:16:42Z</time>
      </trkpt>
      <trkpt lat="46.305419728159904" lon="8.236088734120131">
        <ele>2004.8499999999999</ele>
        <time>2022-01-30T09:16:49Z</time>
      </trkpt>
      <trkpt lat="46.305409166961908" lon="8.236064678058028">
        <ele>2004.8699999999999</ele>
        <time>2022-01-30T09:16:51Z</time>
      </trkpt>
      <trkpt lat="46.305365664884448" lon="8.235978092998266">
        <ele>2005.1600000000001</ele>
        <time>2022-01-30T09:16:58Z</time>
      </trkpt>
      <trkpt lat="46.305329455062747" lon="8.235911121591926">
        <ele>2005.3499999999999</ele>
        <time>2022-01-30T09:17:04Z</time>
      </trkpt>
      <trkpt lat="46.305324425920844" lon="8.23590349406004">
        <ele>2005.3800000000001</ele>
        <time>2022-01-30T09:17:05Z</time>
      </trkpt>
      <trkpt lat="46.305279666557908" lon="8.235840881243348">
        <ele>2006.4100000000001</ele>
        <time>2022-01-30T09:17:11Z</time>
      </trkpt>
      <trkpt lat="46.30524798296392" lon="8.235810622572899">
        <ele>2007.5699999999999</ele>
        <time>2022-01-30T09:17:16Z</time>
      </trkpt>
      <trkpt lat="46.305224597454071" lon="8.235802492126823">
        <ele>2008.3699999999999</ele>
        <time>2022-01-30T09:17:19Z</time>
      </trkpt>
      <trkpt lat="46.30520012229681" lon="8.235797295346856">
        <ele>2009.0599999999999</ele>
        <time>2022-01-30T09:17:22Z</time>
      </trkpt>
      <trkpt lat="46.305152932181954" lon="8.235777597874403">
        <ele>2009.96</ele>
        <time>2022-01-30T09:17:27Z</time>
      </trkpt>
      <trkpt lat="46.305107418447733" lon="8.235756726935506">
        <ele>2010.8900000000001</ele>
        <time>2022-01-30T09:17:32Z</time>
      </trkpt>
      <trkpt lat="46.305077243596315" lon="8.235693359747529">
        <ele>2011.6500000000001</ele>
        <time>2022-01-30T09:17:40Z</time>
      </trkpt>
      <trkpt lat="46.305072465911508" lon="8.235673159360886">
        <ele>2012.54</ele>
        <time>2022-01-30T09:17:49Z</time>
      </trkpt>
      <trkpt lat="46.305051427334547" lon="8.235620269551873">
        <ele>2013.21</ele>
        <time>2022-01-30T09:17:55Z</time>
      </trkpt>
      <trkpt lat="46.305034579709172" lon="8.23555463925004">
        <ele>2013.71</ele>
        <time>2022-01-30T09:18:02Z</time>
      </trkpt>
      <trkpt lat="46.305025024339557" lon="8.235532091930509">
        <ele>2014.3599999999999</ele>
        <time>2022-01-30T09:18:05Z</time>
      </trkpt>
      <trkpt lat="46.304997950792313" lon="8.235477777197957">
        <ele>2015.5899999999999</ele>
        <time>2022-01-30T09:18:11Z</time>
      </trkpt>
      <trkpt lat="46.304971296340227" lon="8.235412649810314">
        <ele>2016.9300000000001</ele>
        <time>2022-01-30T09:18:19Z</time>
      </trkpt>
      <trkpt lat="46.30495386198163" lon="8.235388258472085">
        <ele>2017.6099999999999</ele>
        <time>2022-01-30T09:18:25Z</time>
      </trkpt>
      <trkpt lat="46.304947072640061" lon="8.235370321199298">
        <ele>2018.01</ele>
        <time>2022-01-30T09:18:28Z</time>
      </trkpt>
      <trkpt lat="46.304928716272116" lon="8.235345259308815">
        <ele>2018.8800000000001</ele>
        <time>2022-01-30T09:18:34Z</time>
      </trkpt>
      <trkpt lat="46.304907258599997" lon="8.235313156619668">
        <ele>2019.8099999999999</ele>
        <time>2022-01-30T09:18:39Z</time>
      </trkpt>
      <trkpt lat="46.304873144254088" lon="8.235278036445379">
        <ele>2021.45</ele>
        <time>2022-01-30T09:18:47Z</time>
      </trkpt>
      <trkpt lat="46.3048414606601" lon="8.235257584601641">
        <ele>2022.9100000000001</ele>
        <time>2022-01-30T09:18:54Z</time>
      </trkpt>
      <trkpt lat="46.304811118170619" lon="8.235215423628688">
        <ele>2023.8499999999999</ele>
        <time>2022-01-30T09:19:01Z</time>
      </trkpt>
      <trkpt lat="46.304797120392323" lon="8.235182734206319">
        <ele>2024.46</ele>
        <time>2022-01-30T09:19:05Z</time>
      </trkpt>
      <trkpt lat="46.304787816479802" lon="8.235180554911494">
        <ele>2024.52</ele>
        <time>2022-01-30T09:19:06Z</time>
      </trkpt>
      <trkpt lat="46.30477256141603" lon="8.235148955136538">
        <ele>2024.8</ele>
        <time>2022-01-30T09:19:10Z</time>
      </trkpt>
      <trkpt lat="46.304763928055763" lon="8.235091874375939">
        <ele>2025.0899999999999</ele>
        <time>2022-01-30T09:19:17Z</time>
      </trkpt>
      <trkpt lat="46.304739620536566" lon="8.235004534944892">
        <ele>2025.45</ele>
        <time>2022-01-30T09:19:26Z</time>
      </trkpt>
      <trkpt lat="46.304742386564612" lon="8.235000176355243">
        <ele>2026.78</ele>
        <time>2022-01-30T09:19:37Z</time>
      </trkpt>
      <trkpt lat="46.304733166471124" lon="8.235006295144558">
        <ele>2027.25</ele>
        <time>2022-01-30T09:19:58Z</time>
      </trkpt>
      <trkpt lat="46.304754037410021" lon="8.234994728118181">
        <ele>2025.74</ele>
        <time>2022-01-30T09:20:30Z</time>
      </trkpt>
      <trkpt lat="46.304768370464444" lon="8.23501517996192">
        <ele>2026.0999999999999</ele>
        <time>2022-01-30T09:20:52Z</time>
      </trkpt>
      <trkpt lat="46.304740626364946" lon="8.234943263232708">
        <ele>2025.5599999999999</ele>
        <time>2022-01-30T09:21:00Z</time>
      </trkpt>
      <trkpt lat="46.304716989398003" lon="8.234879393130541">
        <ele>2026.1600000000001</ele>
        <time>2022-01-30T09:21:06Z</time>
      </trkpt>
      <trkpt lat="46.30470952950418" lon="8.234870256856084">
        <ele>2026.25</ele>
        <time>2022-01-30T09:21:07Z</time>
      </trkpt>
      <trkpt lat="46.304660830646753" lon="8.234805464744568">
        <ele>2026.27</ele>
        <time>2022-01-30T09:21:14Z</time>
      </trkpt>
      <trkpt lat="46.304692262783647" lon="8.234692728146911">
        <ele>2026.29</ele>
        <time>2022-01-30T09:21:23Z</time>
      </trkpt>
      <trkpt lat="46.304728640243411" lon="8.234620057046413">
        <ele>2027.8</ele>
        <time>2022-01-30T09:21:32Z</time>
      </trkpt>
      <trkpt lat="46.30474909208715" lon="8.234583847224712">
        <ele>2029.1900000000001</ele>
        <time>2022-01-30T09:21:36Z</time>
      </trkpt>
      <trkpt lat="46.304761748760939" lon="8.234519390389323">
        <ele>2030.4300000000001</ele>
        <time>2022-01-30T09:21:43Z</time>
      </trkpt>
      <trkpt lat="46.304750181734562" lon="8.234475050121546">
        <ele>2031.25</ele>
        <time>2022-01-30T09:21:50Z</time>
      </trkpt>
      <trkpt lat="46.304712630808353" lon="8.234436744824052">
        <ele>2032.24</ele>
        <time>2022-01-30T09:21:58Z</time>
      </trkpt>
      <trkpt lat="46.304655130952597" lon="8.234389638528228">
        <ele>2033.0999999999999</ele>
        <time>2022-01-30T09:22:08Z</time>
      </trkpt>
      <trkpt lat="46.304606851190329" lon="8.234366253018379">
        <ele>2033.8199999999999</ele>
        <time>2022-01-30T09:22:16Z</time>
      </trkpt>
      <trkpt lat="46.30457709543407" lon="8.234359882771969">
        <ele>2035</ele>
        <time>2022-01-30T09:22:24Z</time>
      </trkpt>
      <trkpt lat="46.304551446810365" lon="8.234351333230734">
        <ele>2035.8099999999999</ele>
        <time>2022-01-30T09:22:28Z</time>
      </trkpt>
      <trkpt lat="46.304516829550266" lon="8.234354183077812">
        <ele>2036.6099999999999</ele>
        <time>2022-01-30T09:22:34Z</time>
      </trkpt>
      <trkpt lat="46.304489336907864" lon="8.234343957155943">
        <ele>2037.25</ele>
        <time>2022-01-30T09:22:39Z</time>
      </trkpt>
      <trkpt lat="46.304445834830403" lon="8.234328534454107">
        <ele>2038.1099999999999</ele>
        <time>2022-01-30T09:22:46Z</time>
      </trkpt>
      <trkpt lat="46.304413229227066" lon="8.234300371259451">
        <ele>2038.78</ele>
        <time>2022-01-30T09:22:52Z</time>
      </trkpt>
      <trkpt lat="46.3043855689466" lon="8.234281595796347">
        <ele>2039.79</ele>
        <time>2022-01-30T09:22:58Z</time>
      </trkpt>
      <trkpt lat="46.304360758513212" lon="8.234261479228735">
        <ele>2040.8199999999999</ele>
        <time>2022-01-30T09:23:04Z</time>
      </trkpt>
      <trkpt lat="46.304325051605701" lon="8.234271286055446">
        <ele>2041.8299999999999</ele>
        <time>2022-01-30T09:23:12Z</time>
      </trkpt>
      <trkpt lat="46.304296385496855" lon="8.234293330460787">
        <ele>2042.5599999999999</ele>
        <time>2022-01-30T09:23:19Z</time>
      </trkpt>
      <trkpt lat="46.304251290857792" lon="8.234298191964626">
        <ele>2043.46</ele>
        <time>2022-01-30T09:23:28Z</time>
      </trkpt>
      <trkpt lat="46.304228072986007" lon="8.234261563047767">
        <ele>2044.26</ele>
        <time>2022-01-30T09:23:34Z</time>
      </trkpt>
      <trkpt lat="46.304211644455791" lon="8.234216133132577">
        <ele>2045.6199999999999</ele>
        <time>2022-01-30T09:23:41Z</time>
      </trkpt>
      <trkpt lat="46.304185995832086" lon="8.23417623527348">
        <ele>2046.51</ele>
        <time>2022-01-30T09:23:48Z</time>
      </trkpt>
      <trkpt lat="46.304142326116562" lon="8.23414396494627">
        <ele>2047.3800000000001</ele>
        <time>2022-01-30T09:23:56Z</time>
      </trkpt>
      <trkpt lat="46.304127993062139" lon="8.234114041551948">
        <ele>2047.6199999999999</ele>
        <time>2022-01-30T09:24:02Z</time>
      </trkpt>
      <trkpt lat="46.304121958091855" lon="8.234112951904535">
        <ele>2051.0700000000002</ele>
        <time>2022-01-30T09:29:53Z</time>
      </trkpt>
      <trkpt lat="46.304091280326247" lon="8.234085291624069">
        <ele>2051.0700000000002</ele>
        <time>2022-01-30T09:30:04Z</time>
      </trkpt>
      <trkpt lat="46.304070660844445" lon="8.234056793153286">
        <ele>2051.0700000000002</ele>
        <time>2022-01-30T09:30:12Z</time>
      </trkpt>
      <trkpt lat="46.304048867896199" lon="8.234080094844103">
        <ele>2051.0700000000002</ele>
        <time>2022-01-30T09:30:25Z</time>
      </trkpt>
      <trkpt lat="46.304043168202043" lon="8.234065845608711">
        <ele>2051.0700000000002</ele>
        <time>2022-01-30T09:30:38Z</time>
      </trkpt>
      <trkpt lat="46.303992960602045" lon="8.234035084024072">
        <ele>2051.0700000000002</ele>
        <time>2022-01-30T09:30:44Z</time>
      </trkpt>
      <trkpt lat="46.30398977547884" lon="8.234021421521902">
        <ele>2052.8299999999999</ele>
        <time>2022-01-30T09:30:51Z</time>
      </trkpt>
      <trkpt lat="46.303975945338607" lon="8.234006837010384">
        <ele>2052.52</ele>
        <time>2022-01-30T09:31:07Z</time>
      </trkpt>
      <trkpt lat="46.303950464352965" lon="8.233985966071487">
        <ele>2052.4699999999998</ele>
        <time>2022-01-30T09:31:15Z</time>
      </trkpt>
      <trkpt lat="46.303914254531264" lon="8.233974734321237">
        <ele>2053.8099999999999</ele>
        <time>2022-01-30T09:31:24Z</time>
      </trkpt>
      <trkpt lat="46.303879469633102" lon="8.233973979949951">
        <ele>2054.6500000000001</ele>
        <time>2022-01-30T09:31:34Z</time>
      </trkpt>
      <trkpt lat="46.303864885121584" lon="8.233974231407046">
        <ele>2054.8800000000001</ele>
        <time>2022-01-30T09:31:46Z</time>
      </trkpt>
      <trkpt lat="46.303827334195375" lon="8.233950091525912">
        <ele>2055.2399999999998</ele>
        <time>2022-01-30T09:31:53Z</time>
      </trkpt>
      <trkpt lat="46.3038070499897" lon="8.233909523114562">
        <ele>2056.1199999999999</ele>
        <time>2022-01-30T09:31:58Z</time>
      </trkpt>
      <trkpt lat="46.303753238171339" lon="8.233928298577666">
        <ele>2058.1599999999999</ele>
        <time>2022-01-30T09:32:08Z</time>
      </trkpt>
      <trkpt lat="46.303688026964664" lon="8.233914636075497">
        <ele>2059.23</ele>
        <time>2022-01-30T09:32:19Z</time>
      </trkpt>
      <trkpt lat="46.303632622584701" lon="8.233922179788351">
        <ele>2060.48</ele>
        <time>2022-01-30T09:32:28Z</time>
      </trkpt>
      <trkpt lat="46.3036032859236" lon="8.233907679095864">
        <ele>2061.7800000000002</ele>
        <time>2022-01-30T09:32:35Z</time>
      </trkpt>
      <trkpt lat="46.303560119122267" lon="8.233880018815398">
        <ele>2062.79</ele>
        <time>2022-01-30T09:32:43Z</time>
      </trkpt>
      <trkpt lat="46.303532542660832" lon="8.233866356313229">
        <ele>2063.8299999999999</ele>
        <time>2022-01-30T09:32:49Z</time>
      </trkpt>
      <trkpt lat="46.303492141887546" lon="8.233820591121912">
        <ele>2064.3899999999999</ele>
        <time>2022-01-30T09:32:58Z</time>
      </trkpt>
      <trkpt lat="46.303458278998733" lon="8.23380927555263">
        <ele>2065.54</ele>
        <time>2022-01-30T09:33:05Z</time>
      </trkpt>
      <trkpt lat="46.303415363654494" lon="8.233791589736939">
        <ele>2066.71</ele>
        <time>2022-01-30T09:33:11Z</time>
      </trkpt>
      <trkpt lat="46.303386949002743" lon="8.233756888657808">
        <ele>2067.2800000000002</ele>
        <time>2022-01-30T09:33:18Z</time>
      </trkpt>
      <trkpt lat="46.303357444703579" lon="8.23373157531023">
        <ele>2068.1599999999999</ele>
        <time>2022-01-30T09:33:25Z</time>
      </trkpt>
      <trkpt lat="46.303318049758673" lon="8.233709363266826">
        <ele>2069.0799999999999</ele>
        <time>2022-01-30T09:33:32Z</time>
      </trkpt>
      <trkpt lat="46.30328125320375" lon="8.23367147706449">
        <ele>2070.3000000000002</ele>
        <time>2022-01-30T09:33:42Z</time>
      </trkpt>
      <trkpt lat="46.30323925986886" lon="8.233612552285194">
        <ele>2071.5500000000002</ele>
        <time>2022-01-30T09:33:51Z</time>
      </trkpt>
      <trkpt lat="46.30320506170392" lon="8.233608696609736">
        <ele>2072.5100000000002</ele>
        <time>2022-01-30T09:33:58Z</time>
      </trkpt>
      <trkpt lat="46.303177736699581" lon="8.233587238937616">
        <ele>2072.9099999999999</ele>
        <time>2022-01-30T09:34:05Z</time>
      </trkpt>
      <trkpt lat="46.303143789991736" lon="8.233542982488871">
        <ele>2073.2600000000002</ele>
        <time>2022-01-30T09:34:11Z</time>
      </trkpt>
      <trkpt lat="46.303100371733308" lon="8.233503755182028">
        <ele>2073.6999999999998</ele>
        <time>2022-01-30T09:34:18Z</time>
      </trkpt>
      <trkpt lat="46.30306189879775" lon="8.233497552573681">
        <ele>2073.9899999999998</ele>
        <time>2022-01-30T09:34:24Z</time>
      </trkpt>
      <trkpt lat="46.303022839128971" lon="8.233482046052814">
        <ele>2074.1799999999998</ele>
        <time>2022-01-30T09:34:28Z</time>
      </trkpt>
      <trkpt lat="46.302996687591076" lon="8.233448518440127">
        <ele>2074.8099999999999</ele>
        <time>2022-01-30T09:34:35Z</time>
      </trkpt>
      <trkpt lat="46.302962992340326" lon="8.233420690521598">
        <ele>2075.8400000000001</ele>
        <time>2022-01-30T09:34:45Z</time>
      </trkpt>
      <trkpt lat="46.302915131673217" lon="8.233378026634455">
        <ele>2077.0799999999999</ele>
        <time>2022-01-30T09:34:54Z</time>
      </trkpt>
      <trkpt lat="46.302862241864204" lon="8.233365453779697">
        <ele>2077.9099999999999</ele>
        <time>2022-01-30T09:35:03Z</time>
      </trkpt>
      <trkpt lat="46.30280926823616" lon="8.23335187509656">
        <ele>2079.5500000000002</ele>
        <time>2022-01-30T09:35:12Z</time>
      </trkpt>
      <trkpt lat="46.302778339013457" lon="8.233331171795726">
        <ele>2081.3299999999999</ele>
        <time>2022-01-30T09:35:21Z</time>
      </trkpt>
      <trkpt lat="46.302750259637833" lon="8.233316754922271">
        <ele>2082.8800000000001</ele>
        <time>2022-01-30T09:35:28Z</time>
      </trkpt>
      <trkpt lat="46.302732154726982" lon="8.233304265886545">
        <ele>2083.8800000000001</ele>
        <time>2022-01-30T09:35:31Z</time>
      </trkpt>
      <trkpt lat="46.302706087008119" lon="8.233288591727614">
        <ele>2084.5700000000002</ele>
        <time>2022-01-30T09:35:38Z</time>
      </trkpt>
      <trkpt lat="46.302662082016468" lon="8.23328155092895">
        <ele>2086</ele>
        <time>2022-01-30T09:35:46Z</time>
      </trkpt>
      <trkpt lat="46.302612461149693" lon="8.2332893460989">
        <ele>2086.9499999999998</ele>
        <time>2022-01-30T09:35:54Z</time>
      </trkpt>
      <trkpt lat="46.302568791434169" lon="8.233274845406413">
        <ele>2088.1999999999998</ele>
        <time>2022-01-30T09:36:03Z</time>
      </trkpt>
      <trkpt lat="46.30253316834569" lon="8.233293034136295">
        <ele>2089.4000000000001</ele>
        <time>2022-01-30T09:36:10Z</time>
      </trkpt>
      <trkpt lat="46.302509782835841" lon="8.233294626697898">
        <ele>2090.6999999999998</ele>
        <time>2022-01-30T09:36:18Z</time>
      </trkpt>
      <trkpt lat="46.302450271323323" lon="8.233279036357999">
        <ele>2090.71</ele>
        <time>2022-01-30T09:36:27Z</time>
      </trkpt>
      <trkpt lat="46.302415234968066" lon="8.23326151818037">
        <ele>2091.5900000000001</ele>
        <time>2022-01-30T09:36:34Z</time>
      </trkpt>
      <trkpt lat="46.302365278825164" lon="8.233253723010421">
        <ele>2092.8800000000001</ele>
        <time>2022-01-30T09:36:43Z</time>
      </trkpt>
      <trkpt lat="46.302333930507302" lon="8.233246095478535">
        <ele>2093.5599999999999</ele>
        <time>2022-01-30T09:36:50Z</time>
      </trkpt>
      <trkpt lat="46.30228984169662" lon="8.233216172084212">
        <ele>2094.1199999999999</ele>
        <time>2022-01-30T09:36:57Z</time>
      </trkpt>
      <trkpt lat="46.302245752885938" lon="8.23317551985383">
        <ele>2095.27</ele>
        <time>2022-01-30T09:37:06Z</time>
      </trkpt>
      <trkpt lat="46.302238125354052" lon="8.233170825988054">
        <ele>2095.3099999999999</ele>
        <time>2022-01-30T09:37:07Z</time>
      </trkpt>
      <trkpt lat="46.302200658246875" lon="8.233125731348991">
        <ele>2095.6300000000001</ele>
        <time>2022-01-30T09:37:15Z</time>
      </trkpt>
      <trkpt lat="46.302156820893288" lon="8.233100585639477">
        <ele>2096.0700000000002</ele>
        <time>2022-01-30T09:37:22Z</time>
      </trkpt>
      <trkpt lat="46.302112145349383" lon="8.233059765771031">
        <ele>2097.0300000000002</ele>
        <time>2022-01-30T09:37:30Z</time>
      </trkpt>
      <trkpt lat="46.302069062367082" lon="8.233037386089563">
        <ele>2097.52</ele>
        <time>2022-01-30T09:37:37Z</time>
      </trkpt>
      <trkpt lat="46.302023380994797" lon="8.233007462695241">
        <ele>2098.0100000000002</ele>
        <time>2022-01-30T09:37:45Z</time>
      </trkpt>
      <trkpt lat="46.302006952464581" lon="8.232977287843823">
        <ele>2101.48</ele>
        <time>2022-01-30T09:43:52Z</time>
      </trkpt>
      <trkpt lat="46.302005527541041" lon="8.232984663918614">
        <ele>2104.6399999999999</ele>
        <time>2022-01-30T09:44:04Z</time>
      </trkpt>
      <trkpt lat="46.3020059466362" lon="8.232984496280551">
        <ele>2104.9000000000001</ele>
        <time>2022-01-30T09:44:05Z</time>
      </trkpt>
      <trkpt lat="46.301986165344715" lon="8.232968235388398">
        <ele>2104.5100000000002</ele>
        <time>2022-01-30T09:44:15Z</time>
      </trkpt>
      <trkpt lat="46.301947189494967" lon="8.232912998646498">
        <ele>2103.23</ele>
        <time>2022-01-30T09:44:23Z</time>
      </trkpt>
      <trkpt lat="46.301921037957072" lon="8.232883997261524">
        <ele>2102.3400000000001</ele>
        <time>2022-01-30T09:44:28Z</time>
      </trkpt>
      <trkpt lat="46.301894132047892" lon="8.232833789661527">
        <ele>2101.8400000000001</ele>
        <time>2022-01-30T09:44:33Z</time>
      </trkpt>
      <trkpt lat="46.30188918672502" lon="8.232827754691243">
        <ele>2101.8200000000002</ele>
        <time>2022-01-30T09:44:34Z</time>
      </trkpt>
      <trkpt lat="46.301862364634871" lon="8.232807219028473">
        <ele>2102.0700000000002</ele>
        <time>2022-01-30T09:44:38Z</time>
      </trkpt>
      <trkpt lat="46.301812576130033" lon="8.232779391109943">
        <ele>2102.6599999999999</ele>
        <time>2022-01-30T09:44:45Z</time>
      </trkpt>
      <trkpt lat="46.301757758483291" lon="8.232737481594086">
        <ele>2103.52</ele>
        <time>2022-01-30T09:44:52Z</time>
      </trkpt>
      <trkpt lat="46.301722386851907" lon="8.232705546543002">
        <ele>2104.4099999999999</ele>
        <time>2022-01-30T09:44:58Z</time>
      </trkpt>
      <trkpt lat="46.301694391295314" lon="8.232676293700934">
        <ele>2104.7600000000002</ele>
        <time>2022-01-30T09:45:02Z</time>
      </trkpt>
      <trkpt lat="46.301676537841558" lon="8.232668330892921">
        <ele>2104.9499999999998</ele>
        <time>2022-01-30T09:45:04Z</time>
      </trkpt>
      <trkpt lat="46.301617696881294" lon="8.232625834643841">
        <ele>2105.8400000000001</ele>
        <time>2022-01-30T09:45:12Z</time>
      </trkpt>
      <trkpt lat="46.30158768966794" lon="8.232568837702274">
        <ele>2106.8899999999999</ele>
        <time>2022-01-30T09:45:20Z</time>
      </trkpt>
      <trkpt lat="46.301535721868277" lon="8.232542518526316">
        <ele>2108.3400000000001</ele>
        <time>2022-01-30T09:45:27Z</time>
      </trkpt>
      <trkpt lat="46.301484843716025" lon="8.232521060854197">
        <ele>2108.6599999999999</ele>
        <time>2022-01-30T09:45:35Z</time>
      </trkpt>
      <trkpt lat="46.301442096009851" lon="8.232487449422479">
        <ele>2109.3099999999999</ele>
        <time>2022-01-30T09:45:42Z</time>
      </trkpt>
      <trkpt lat="46.301436396315694" lon="8.232479989528656">
        <ele>2109.48</ele>
        <time>2022-01-30T09:45:43Z</time>
      </trkpt>
      <trkpt lat="46.301407897844911" lon="8.232451993972063">
        <ele>2109.8800000000001</ele>
        <time>2022-01-30T09:45:47Z</time>
      </trkpt>
      <trkpt lat="46.301358779892325" lon="8.2324259262532">
        <ele>2110.5700000000002</ele>
        <time>2022-01-30T09:45:54Z</time>
      </trkpt>
      <trkpt lat="46.301326425746083" lon="8.232383094727993">
        <ele>2111.2199999999998</ele>
        <time>2022-01-30T09:46:01Z</time>
      </trkpt>
      <trkpt lat="46.301309326663613" lon="8.232364151626825">
        <ele>2111.5700000000002</ele>
        <time>2022-01-30T09:46:06Z</time>
      </trkpt>
      <trkpt lat="46.301278816536069" lon="8.232345962896943">
        <ele>2111.98</ele>
        <time>2022-01-30T09:46:10Z</time>
      </trkpt>
      <trkpt lat="46.301238164305687" lon="8.232301538810134">
        <ele>2112.75</ele>
        <time>2022-01-30T09:46:18Z</time>
      </trkpt>
      <trkpt lat="46.301205977797508" lon="8.23226323351264">
        <ele>2114.3000000000002</ele>
        <time>2022-01-30T09:46:25Z</time>
      </trkpt>
      <trkpt lat="46.301179239526391" lon="8.23222367092967">
        <ele>2115.5599999999999</ele>
        <time>2022-01-30T09:46:31Z</time>
      </trkpt>
      <trkpt lat="46.301177395507693" lon="8.232236076146364">
        <ele>2116.1300000000001</ele>
        <time>2022-01-30T09:46:35Z</time>
      </trkpt>
      <trkpt lat="46.301157362759113" lon="8.232136331498623">
        <ele>2116.9899999999998</ele>
        <time>2022-01-30T09:46:42Z</time>
      </trkpt>
      <trkpt lat="46.301154932007194" lon="8.232054524123669">
        <ele>2117.98</ele>
        <time>2022-01-30T09:46:49Z</time>
      </trkpt>
      <trkpt lat="46.301149986684322" lon="8.232038095593453">
        <ele>2118.1399999999999</ele>
        <time>2022-01-30T09:46:51Z</time>
      </trkpt>
      <trkpt lat="46.301150573417544" lon="8.231981853023171">
        <ele>2118.2600000000002</ele>
        <time>2022-01-30T09:46:57Z</time>
      </trkpt>
      <trkpt lat="46.301120985299349" lon="8.231931980699301">
        <ele>2118.6399999999999</ele>
        <time>2022-01-30T09:47:04Z</time>
      </trkpt>
      <trkpt lat="46.301101036369801" lon="8.231863835826516">
        <ele>2119.29</ele>
        <time>2022-01-30T09:47:12Z</time>
      </trkpt>
      <trkpt lat="46.301070190966129" lon="8.231779262423515">
        <ele>2119.9699999999998</ele>
        <time>2022-01-30T09:47:21Z</time>
      </trkpt>
      <trkpt lat="46.301046051084995" lon="8.231729473918676">
        <ele>2120.3800000000001</ele>
        <time>2022-01-30T09:47:27Z</time>
      </trkpt>
      <trkpt lat="46.301042530685663" lon="8.231720924377441">
        <ele>2120.48</ele>
        <time>2022-01-30T09:47:28Z</time>
      </trkpt>
      <trkpt lat="46.301019648090005" lon="8.231660658493638">
        <ele>2120.9899999999998</ele>
        <time>2022-01-30T09:47:34Z</time>
      </trkpt>
      <trkpt lat="46.300995843484998" lon="8.231602488085628">
        <ele>2121.4099999999999</ele>
        <time>2022-01-30T09:47:41Z</time>
      </trkpt>
      <trkpt lat="46.300972457975149" lon="8.23155571706593">
        <ele>2121.1999999999998</ele>
        <time>2022-01-30T09:47:46Z</time>
      </trkpt>
      <trkpt lat="46.300938846543431" lon="8.231487488374114">
        <ele>2120.3499999999999</ele>
        <time>2022-01-30T09:47:53Z</time>
      </trkpt>
      <trkpt lat="46.300916634500027" lon="8.231416745111346">
        <ele>2120.1399999999999</ele>
        <time>2022-01-30T09:48:00Z</time>
      </trkpt>
      <trkpt lat="46.300907833501697" lon="8.231373662129045">
        <ele>2120.5799999999999</ele>
        <time>2022-01-30T09:48:05Z</time>
      </trkpt>
      <trkpt lat="46.300866175442934" lon="8.231280371546745">
        <ele>2121.8000000000002</ele>
        <time>2022-01-30T09:48:15Z</time>
      </trkpt>
      <trkpt lat="46.300841951742768" lon="8.231217591091991">
        <ele>2122.3899999999999</ele>
        <time>2022-01-30T09:48:22Z</time>
      </trkpt>
      <trkpt lat="46.300816051661968" lon="8.231136035174131">
        <ele>2122.9400000000001</ele>
        <time>2022-01-30T09:48:31Z</time>
      </trkpt>
      <trkpt lat="46.300815548747778" lon="8.23112715035677">
        <ele>2122.9699999999998</ele>
        <time>2022-01-30T09:48:32Z</time>
      </trkpt>
      <trkpt lat="46.300794677808881" lon="8.231063028797507">
        <ele>2123.3699999999999</ele>
        <time>2022-01-30T09:48:38Z</time>
      </trkpt>
      <trkpt lat="46.300763078033924" lon="8.230978790670633">
        <ele>2124.3499999999999</ele>
        <time>2022-01-30T09:48:49Z</time>
      </trkpt>
      <trkpt lat="46.300726030021906" lon="8.2309131603688">
        <ele>2125.7600000000002</ele>
        <time>2022-01-30T09:48:59Z</time>
      </trkpt>
      <trkpt lat="46.300698537379503" lon="8.230857839807868">
        <ele>2126.7199999999998</ele>
        <time>2022-01-30T09:49:08Z</time>
      </trkpt>
      <trkpt lat="46.300672050565481" lon="8.230836382135749">
        <ele>2127.6599999999999</ele>
        <time>2022-01-30T09:49:14Z</time>
      </trkpt>
      <trkpt lat="46.300637852400541" lon="8.230789694935083">
        <ele>2129.73</ele>
        <time>2022-01-30T09:49:22Z</time>
      </trkpt>
      <trkpt lat="46.30061044357717" lon="8.230751138180494">
        <ele>2130.6599999999999</ele>
        <time>2022-01-30T09:49:30Z</time>
      </trkpt>
      <trkpt lat="46.300583118572831" lon="8.230722220614553">
        <ele>2130.71</ele>
        <time>2022-01-30T09:49:37Z</time>
      </trkpt>
      <trkpt lat="46.300550680607557" lon="8.230686346068978">
        <ele>2131.7399999999998</ele>
        <time>2022-01-30T09:49:45Z</time>
      </trkpt>
      <trkpt lat="46.300511034205556" lon="8.230657763779163">
        <ele>2132.6799999999998</ele>
        <time>2022-01-30T09:49:51Z</time>
      </trkpt>
      <trkpt lat="46.300489827990532" lon="8.230621637776494">
        <ele>2133.5999999999999</ele>
        <time>2022-01-30T09:49:59Z</time>
      </trkpt>
      <trkpt lat="46.300465269014239" lon="8.23061702772975">
        <ele>2134.75</ele>
        <time>2022-01-30T09:50:07Z</time>
      </trkpt>
      <trkpt lat="46.300446325913072" lon="8.230598671361804">
        <ele>2135.8000000000002</ele>
        <time>2022-01-30T09:50:18Z</time>
      </trkpt>
      <trkpt lat="46.300432160496712" lon="8.230588026344776">
        <ele>2135.9200000000001</ele>
        <time>2022-01-30T09:50:21Z</time>
      </trkpt>
      <trkpt lat="46.300404667854309" lon="8.230555420741439">
        <ele>2136.52</ele>
        <time>2022-01-30T09:50:28Z</time>
      </trkpt>
      <trkpt lat="46.300384132191539" lon="8.230531448498368">
        <ele>2137.3600000000001</ele>
        <time>2022-01-30T09:50:41Z</time>
      </trkpt>
      <trkpt lat="46.3003636803478" lon="8.230499178171158">
        <ele>2137.9499999999998</ele>
        <time>2022-01-30T09:50:49Z</time>
      </trkpt>
      <trkpt lat="46.300348257645965" lon="8.230454167351127">
        <ele>2138.8600000000001</ele>
        <time>2022-01-30T09:50:57Z</time>
      </trkpt>
      <trkpt lat="46.300339121371508" lon="8.230395326390863">
        <ele>2139.9499999999998</ele>
        <time>2022-01-30T09:51:05Z</time>
      </trkpt>
      <trkpt lat="46.300331577658653" lon="8.230355679988861">
        <ele>2141.8600000000001</ele>
        <time>2022-01-30T09:51:11Z</time>
      </trkpt>
      <trkpt lat="46.300299726426601" lon="8.230326846241951">
        <ele>2143.3400000000001</ele>
        <time>2022-01-30T09:51:19Z</time>
      </trkpt>
      <trkpt lat="46.300264354795218" lon="8.230306562036276">
        <ele>2145.5100000000002</ele>
        <time>2022-01-30T09:51:27Z</time>
      </trkpt>
      <trkpt lat="46.300231497734785" lon="8.230273118242621">
        <ele>2146.2399999999998</ele>
        <time>2022-01-30T09:51:34Z</time>
      </trkpt>
      <trkpt lat="46.300204927101731" lon="8.230225089937449">
        <ele>2146.3600000000001</ele>
        <time>2022-01-30T09:51:41Z</time>
      </trkpt>
      <trkpt lat="46.300169136375189" lon="8.230187371373177">
        <ele>2148.0300000000002</ele>
        <time>2022-01-30T09:51:51Z</time>
      </trkpt>
      <trkpt lat="46.300139464437962" lon="8.230155687779188">
        <ele>2149.27</ele>
        <time>2022-01-30T09:51:58Z</time>
      </trkpt>
      <trkpt lat="46.300105936825275" lon="8.230114029720426">
        <ele>2150.3000000000002</ele>
        <time>2022-01-30T09:52:07Z</time>
      </trkpt>
      <trkpt lat="46.300081126391888" lon="8.230083016678691">
        <ele>2150.77</ele>
        <time>2022-01-30T09:52:15Z</time>
      </trkpt>
      <trkpt lat="46.300053717568517" lon="8.230043621733785">
        <ele>2152.1599999999999</ele>
        <time>2022-01-30T09:52:22Z</time>
      </trkpt>
      <trkpt lat="46.300023542717099" lon="8.230018392205238">
        <ele>2152.5799999999999</ele>
        <time>2022-01-30T09:52:31Z</time>
      </trkpt>
      <trkpt lat="46.299993451684713" lon="8.229977069422603">
        <ele>2153.1399999999999</ele>
        <time>2022-01-30T09:52:39Z</time>
      </trkpt>
      <trkpt lat="46.299982639029622" lon="8.22995787486434">
        <ele>2153.5300000000002</ele>
        <time>2022-01-30T09:52:41Z</time>
      </trkpt>
      <trkpt lat="46.299972832202911" lon="8.229954019188881">
        <ele>2154.1199999999999</ele>
        <time>2022-01-30T09:52:47Z</time>
      </trkpt>
      <trkpt lat="46.299940226599574" lon="8.229924431070685">
        <ele>2155.29</ele>
        <time>2022-01-30T09:52:58Z</time>
      </trkpt>
      <trkpt lat="46.299908543005586" lon="8.229906493797898">
        <ele>2157.1999999999998</ele>
        <time>2022-01-30T09:53:05Z</time>
      </trkpt>
      <trkpt lat="46.299875183030963" lon="8.229858716949821">
        <ele>2158.5</ele>
        <time>2022-01-30T09:53:14Z</time>
      </trkpt>
      <trkpt lat="46.299865627661347" lon="8.229834493249655">
        <ele>2161.04</ele>
        <time>2022-01-30T09:53:19Z</time>
      </trkpt>
      <trkpt lat="46.299835788086057" lon="8.229779340326786">
        <ele>2163.6500000000001</ele>
        <time>2022-01-30T09:53:28Z</time>
      </trkpt>
      <trkpt lat="46.299807457253337" lon="8.229735670611262">
        <ele>2163.1100000000001</ele>
        <time>2022-01-30T09:53:37Z</time>
      </trkpt>
      <trkpt lat="46.299775522202253" lon="8.229679679498076">
        <ele>2162.5900000000001</ele>
        <time>2022-01-30T09:53:46Z</time>
      </trkpt>
      <trkpt lat="46.299749789759517" lon="8.2296456489712">
        <ele>2162.3299999999999</ele>
        <time>2022-01-30T09:53:54Z</time>
      </trkpt>
      <trkpt lat="46.299712993204594" lon="8.229579348117113">
        <ele>2162.5100000000002</ele>
        <time>2022-01-30T09:54:04Z</time>
      </trkpt>
      <trkpt lat="46.299687847495079" lon="8.229555627331138">
        <ele>2163.5999999999999</ele>
        <time>2022-01-30T09:54:11Z</time>
      </trkpt>
      <trkpt lat="46.299657253548503" lon="8.2295161485672">
        <ele>2165.0799999999999</ele>
        <time>2022-01-30T09:54:19Z</time>
      </trkpt>
      <trkpt lat="46.299628168344498" lon="8.229454625397921">
        <ele>2165.1500000000001</ele>
        <time>2022-01-30T09:54:28Z</time>
      </trkpt>
      <trkpt lat="46.299594389274716" lon="8.22940425015986">
        <ele>2165.73</ele>
        <time>2022-01-30T09:54:37Z</time>
      </trkpt>
      <trkpt lat="46.299580642953515" lon="8.229359826073051">
        <ele>2166.4699999999998</ele>
        <time>2022-01-30T09:54:43Z</time>
      </trkpt>
      <trkpt lat="46.299551138654351" lon="8.229316826909781">
        <ele>2168.5999999999999</ele>
        <time>2022-01-30T09:54:51Z</time>
      </trkpt>
      <trkpt lat="46.299516689032316" lon="8.229258488863707">
        <ele>2171.3299999999999</ele>
        <time>2022-01-30T09:55:00Z</time>
      </trkpt>
      <trkpt lat="46.299493471160531" lon="8.229209622368217">
        <ele>2173.0900000000001</ele>
        <time>2022-01-30T09:55:08Z</time>
      </trkpt>
      <trkpt lat="46.299484083428979" lon="8.229154469445348">
        <ele>2174.02</ele>
        <time>2022-01-30T09:55:17Z</time>
      </trkpt>
      <trkpt lat="46.299485424533486" lon="8.229152876883745">
        <ele>2178.0300000000002</ele>
        <time>2022-01-30T09:55:27Z</time>
      </trkpt>
      <trkpt lat="46.299485927447677" lon="8.229153379797936">
        <ele>2178.8800000000001</ele>
        <time>2022-01-30T09:55:29Z</time>
      </trkpt>
      <trkpt lat="46.29948659799993" lon="8.22915312834084">
        <ele>2179.1799999999998</ele>
        <time>2022-01-30T09:55:49Z</time>
      </trkpt>
      <trkpt lat="46.299479641020298" lon="8.22915161959827">
        <ele>2176.04</ele>
        <time>2022-01-30T09:56:03Z</time>
      </trkpt>
      <trkpt lat="46.299476120620966" lon="8.229155894368887">
        <ele>2172.98</ele>
        <time>2022-01-30T09:56:13Z</time>
      </trkpt>
      <trkpt lat="46.29947729408741" lon="8.229155894368887">
        <ele>2171.3600000000001</ele>
        <time>2022-01-30T09:56:30Z</time>
      </trkpt>
      <trkpt lat="46.29947679117322" lon="8.229123372584581">
        <ele>2170.6999999999998</ele>
        <time>2022-01-30T09:56:37Z</time>
      </trkpt>
      <trkpt lat="46.299464218318462" lon="8.229049695655704">
        <ele>2170.0799999999999</ele>
        <time>2022-01-30T09:56:44Z</time>
      </trkpt>
      <trkpt lat="46.29942599684" lon="8.228969229385257">
        <ele>2172</ele>
        <time>2022-01-30T09:56:53Z</time>
      </trkpt>
      <trkpt lat="46.299389787018299" lon="8.228897228837013">
        <ele>2175.02</ele>
        <time>2022-01-30T09:57:00Z</time>
      </trkpt>
      <trkpt lat="46.299342261627316" lon="8.228831766173244">
        <ele>2175.27</ele>
        <time>2022-01-30T09:57:09Z</time>
      </trkpt>
      <trkpt lat="46.299302447587252" lon="8.228793125599623">
        <ele>2173.5900000000001</ele>
        <time>2022-01-30T09:57:16Z</time>
      </trkpt>
      <trkpt lat="46.29926179535687" lon="8.22874509729445">
        <ele>2173.5999999999999</ele>
        <time>2022-01-30T09:57:24Z</time>
      </trkpt>
      <trkpt lat="46.299259280785918" lon="8.228739565238357">
        <ele>2172.6900000000001</ele>
        <time>2022-01-30T09:57:38Z</time>
      </trkpt>
      <trkpt lat="46.299262046813965" lon="8.228740990161896">
        <ele>2172.98</ele>
        <time>2022-01-30T09:58:24Z</time>
      </trkpt>
      <trkpt lat="46.299237990751863" lon="8.228716598823667">
        <ele>2173.8000000000002</ele>
        <time>2022-01-30T09:58:36Z</time>
      </trkpt>
      <trkpt lat="46.299195494502783" lon="8.22872607037425">
        <ele>2174.02</ele>
        <time>2022-01-30T09:58:42Z</time>
      </trkpt>
      <trkpt lat="46.299154674634337" lon="8.228736463934183">
        <ele>2174.6100000000001</ele>
        <time>2022-01-30T09:58:48Z</time>
      </trkpt>
      <trkpt lat="46.299129361286759" lon="8.228751132264733">
        <ele>2175.5300000000002</ele>
        <time>2022-01-30T09:58:52Z</time>
      </trkpt>
      <trkpt lat="46.299060378223658" lon="8.228759095072746">
        <ele>2177.3899999999999</ele>
        <time>2022-01-30T09:59:01Z</time>
      </trkpt>
      <trkpt lat="46.299038417637348" lon="8.228737218305469">
        <ele>2178.3299999999999</ele>
        <time>2022-01-30T09:59:07Z</time>
      </trkpt>
      <trkpt lat="46.299021318554878" lon="8.228682484477758">
        <ele>2180.3000000000002</ele>
        <time>2022-01-30T09:59:15Z</time>
      </trkpt>
      <trkpt lat="46.29900916479528" lon="8.228640155866742">
        <ele>2181.4499999999998</ele>
        <time>2022-01-30T09:59:22Z</time>
      </trkpt>
      <trkpt lat="46.298992987722158" lon="8.228602772578597">
        <ele>2183</ele>
        <time>2022-01-30T09:59:30Z</time>
      </trkpt>
      <trkpt lat="46.298961136490107" lon="8.228602856397629">
        <ele>2184.54</ele>
        <time>2022-01-30T09:59:38Z</time>
      </trkpt>
      <trkpt lat="46.298940181732178" lon="8.228602269664407">
        <ele>2184.6999999999998</ele>
        <time>2022-01-30T09:59:45Z</time>
      </trkpt>
      <trkpt lat="46.29891294054687" lon="8.228612830862403">
        <ele>2185.5</ele>
        <time>2022-01-30T09:59:53Z</time>
      </trkpt>
      <trkpt lat="46.298878323286772" lon="8.228601766750217">
        <ele>2186.6799999999998</ele>
        <time>2022-01-30T10:00:02Z</time>
      </trkpt>
      <trkpt lat="46.298843789845705" lon="8.228585841134191">
        <ele>2188.7800000000002</ele>
        <time>2022-01-30T10:00:10Z</time>
      </trkpt>
      <trkpt lat="46.298811016604304" lon="8.228571591898799">
        <ele>2191.0500000000002</ele>
        <time>2022-01-30T10:00:19Z</time>
      </trkpt>
      <trkpt lat="46.298771621659398" lon="8.22855843231082">
        <ele>2190.73</ele>
        <time>2022-01-30T10:00:26Z</time>
      </trkpt>
      <trkpt lat="46.298740189522505" lon="8.228526329621673">
        <ele>2191.4699999999998</ele>
        <time>2022-01-30T10:00:33Z</time>
      </trkpt>
      <trkpt lat="46.298726191744208" lon="8.228517947718501">
        <ele>2192.1100000000001</ele>
        <time>2022-01-30T10:00:40Z</time>
      </trkpt>
      <trkpt lat="46.298693669959903" lon="8.22848416864872">
        <ele>2193.5599999999999</ele>
        <time>2022-01-30T10:00:49Z</time>
      </trkpt>
      <trkpt lat="46.298665590584278" lon="8.228484839200974">
        <ele>2194.4499999999998</ele>
        <time>2022-01-30T10:00:54Z</time>
      </trkpt>
      <trkpt lat="46.298643378540874" lon="8.228504033759236">
        <ele>2195.27</ele>
        <time>2022-01-30T10:01:01Z</time>
      </trkpt>
      <trkpt lat="46.298619322478771" lon="8.228496657684445">
        <ele>2195</ele>
        <time>2022-01-30T10:01:13Z</time>
      </trkpt>
      <trkpt lat="46.298577161505818" lon="8.228488191962242">
        <ele>2196.1300000000001</ele>
        <time>2022-01-30T10:01:20Z</time>
      </trkpt>
      <trkpt lat="46.298541789874434" lon="8.228462627157569">
        <ele>2197.1799999999998</ele>
        <time>2022-01-30T10:01:28Z</time>
      </trkpt>
      <trkpt lat="46.298519158735871" lon="8.228399343788624">
        <ele>2198.5300000000002</ele>
        <time>2022-01-30T10:01:37Z</time>
      </trkpt>
      <trkpt lat="46.298503316938877" lon="8.22837864048779">
        <ele>2198.9299999999998</ele>
        <time>2022-01-30T10:01:44Z</time>
      </trkpt>
      <trkpt lat="46.2984848767519" lon="8.228350393474102">
        <ele>2198.5100000000002</ele>
        <time>2022-01-30T10:01:52Z</time>
      </trkpt>
      <trkpt lat="46.298449840396643" lon="8.228294150903821">
        <ele>2197.6700000000001</ele>
        <time>2022-01-30T10:01:59Z</time>
      </trkpt>
      <trkpt lat="46.298421174287796" lon="8.228273531422019">
        <ele>2198.23</ele>
        <time>2022-01-30T10:02:05Z</time>
      </trkpt>
      <trkpt lat="46.298400890082121" lon="8.228238243609667">
        <ele>2200.0700000000002</ele>
        <time>2022-01-30T10:02:11Z</time>
      </trkpt>
      <trkpt lat="46.298361076042056" lon="8.228215780109167">
        <ele>2201.6900000000001</ele>
        <time>2022-01-30T10:02:19Z</time>
      </trkpt>
      <trkpt lat="46.298321345821023" lon="8.228188790380955">
        <ele>2202.6900000000001</ele>
        <time>2022-01-30T10:02:27Z</time>
      </trkpt>
      <trkpt lat="46.298288824036717" lon="8.228176468983293">
        <ele>2203.3600000000001</ele>
        <time>2022-01-30T10:02:36Z</time>
      </trkpt>
      <trkpt lat="46.29829284735024" lon="8.228170853108168">
        <ele>2203.3299999999999</ele>
        <time>2022-01-30T10:03:05Z</time>
      </trkpt>
      <trkpt lat="46.298251440748572" lon="8.228149730712175">
        <ele>2204.4400000000001</ele>
        <time>2022-01-30T10:03:11Z</time>
      </trkpt>
      <trkpt lat="46.298210117965937" lon="8.228122992441058">
        <ele>2205.4200000000001</ele>
        <time>2022-01-30T10:03:18Z</time>
      </trkpt>
      <trkpt lat="46.29820492118597" lon="8.228119136765599">
        <ele>2205.5799999999999</ele>
        <time>2022-01-30T10:03:19Z</time>
      </trkpt>
      <trkpt lat="46.29815018735826" lon="8.228072365745902">
        <ele>2207.3800000000001</ele>
        <time>2022-01-30T10:03:29Z</time>
      </trkpt>
      <trkpt lat="46.298122024163604" lon="8.228038083761931">
        <ele>2209.4000000000001</ele>
        <time>2022-01-30T10:03:36Z</time>
      </trkpt>
      <trkpt lat="46.298119677230716" lon="8.228028360754252">
        <ele>2209.23</ele>
        <time>2022-01-30T10:03:53Z</time>
      </trkpt>
      <trkpt lat="46.298105176538229" lon="8.227992318570614">
        <ele>2209.4299999999998</ele>
        <time>2022-01-30T10:04:08Z</time>
      </trkpt>
      <trkpt lat="46.298093944787979" lon="8.227934231981635">
        <ele>2210.8000000000002</ele>
        <time>2022-01-30T10:04:15Z</time>
      </trkpt>
      <trkpt lat="46.298059830442071" lon="8.227855190634728">
        <ele>2211.5599999999999</ele>
        <time>2022-01-30T10:04:24Z</time>
      </trkpt>
      <trkpt lat="46.298036696389318" lon="8.227795427665114">
        <ele>2213.6199999999999</ele>
        <time>2022-01-30T10:04:33Z</time>
      </trkpt>
      <trkpt lat="46.298020016402006" lon="8.227748991921544">
        <ele>2215.1900000000001</ele>
        <time>2022-01-30T10:04:40Z</time>
      </trkpt>
      <trkpt lat="46.298009036108851" lon="8.227677997201681">
        <ele>2216.5300000000002</ele>
        <time>2022-01-30T10:04:48Z</time>
      </trkpt>
      <trkpt lat="46.297989673912525" lon="8.227606751024723">
        <ele>2217.0500000000002</ele>
        <time>2022-01-30T10:04:56Z</time>
      </trkpt>
      <trkpt lat="46.297972574830055" lon="8.227560063824058">
        <ele>2218.1399999999999</ele>
        <time>2022-01-30T10:05:03Z</time>
      </trkpt>
      <trkpt lat="46.297952039167285" lon="8.227518070489168">
        <ele>2219.73</ele>
        <time>2022-01-30T10:05:11Z</time>
      </trkpt>
      <trkpt lat="46.297923373058438" lon="8.227474568411708">
        <ele>2220.1799999999998</ele>
        <time>2022-01-30T10:05:17Z</time>
      </trkpt>
      <trkpt lat="46.297899652272463" lon="8.227450596168637">
        <ele>2221.48</ele>
        <time>2022-01-30T10:05:23Z</time>
      </trkpt>
      <trkpt lat="46.297874422743917" lon="8.227422684431076">
        <ele>2222.1599999999999</ele>
        <time>2022-01-30T10:05:27Z</time>
      </trkpt>
      <trkpt lat="46.297867633402348" lon="8.227408183738589">
        <ele>2223.5500000000002</ele>
        <time>2022-01-30T10:05:35Z</time>
      </trkpt>
      <trkpt lat="46.297867130488157" lon="8.227398293092847">
        <ele>2223.5100000000002</ele>
        <time>2022-01-30T10:05:51Z</time>
      </trkpt>
      <trkpt lat="46.297860173508525" lon="8.22734615765512">
        <ele>2223.1700000000001</ele>
        <time>2022-01-30T10:06:02Z</time>
      </trkpt>
      <trkpt lat="46.297844331711531" lon="8.227293016389012">
        <ele>2221.2399999999998</ele>
        <time>2022-01-30T10:06:11Z</time>
      </trkpt>
      <trkpt lat="46.297825556248426" lon="8.227239120751619">
        <ele>2220.3299999999999</ele>
        <time>2022-01-30T10:06:20Z</time>
      </trkpt>
      <trkpt lat="46.297811977565289" lon="8.227189583703876">
        <ele>2219.3699999999999</ele>
        <time>2022-01-30T10:06:29Z</time>
      </trkpt>
      <trkpt lat="46.29781499505043" lon="8.227126132696867">
        <ele>2217.9400000000001</ele>
        <time>2022-01-30T10:06:39Z</time>
      </trkpt>
      <trkpt lat="46.297840978950262" lon="8.227040134370327">
        <ele>2215.6399999999999</ele>
        <time>2022-01-30T10:06:49Z</time>
      </trkpt>
      <trkpt lat="46.297851540148258" lon="8.226977018639445">
        <ele>2213.9499999999998</ele>
        <time>2022-01-30T10:06:56Z</time>
      </trkpt>
      <trkpt lat="46.297866962850094" lon="8.226904682815075">
        <ele>2211.4000000000001</ele>
        <time>2022-01-30T10:07:04Z</time>
      </trkpt>
      <trkpt lat="46.297888169065118" lon="8.226835867390037">
        <ele>2210.8699999999999</ele>
        <time>2022-01-30T10:07:11Z</time>
      </trkpt>
      <trkpt lat="46.297919098287821" lon="8.22677006945014">
        <ele>2211.3800000000001</ele>
        <time>2022-01-30T10:07:18Z</time>
      </trkpt>
      <trkpt lat="46.297937370836735" lon="8.226712066680193">
        <ele>2212.5</ele>
        <time>2022-01-30T10:07:23Z</time>
      </trkpt>
      <trkpt lat="46.297941142693162" lon="8.226693039759994">
        <ele>2212.73</ele>
        <time>2022-01-30T10:07:24Z</time>
      </trkpt>
      <trkpt lat="46.297945417463779" lon="8.226633779704571">
        <ele>2213.7800000000002</ele>
        <time>2022-01-30T10:07:31Z</time>
      </trkpt>
      <trkpt lat="46.297912392765284" lon="8.226561192423105">
        <ele>2214.6900000000001</ele>
        <time>2022-01-30T10:07:39Z</time>
      </trkpt>
      <trkpt lat="46.297891857102513" lon="8.226471422240138">
        <ele>2216.4499999999998</ele>
        <time>2022-01-30T10:07:47Z</time>
      </trkpt>
      <trkpt lat="46.297891018912196" lon="8.226447449997068">
        <ele>2216.8699999999999</ele>
        <time>2022-01-30T10:07:49Z</time>
      </trkpt>
      <trkpt lat="46.297884648665786" lon="8.226354075595737">
        <ele>2217.8699999999999</ele>
        <time>2022-01-30T10:07:58Z</time>
      </trkpt>
      <trkpt lat="46.297886744141579" lon="8.226300096139312">
        <ele>2219.1199999999999</ele>
        <time>2022-01-30T10:08:04Z</time>
      </trkpt>
      <trkpt lat="46.297878781333566" lon="8.226194316521287">
        <ele>2219.29</ele>
        <time>2022-01-30T10:08:14Z</time>
      </trkpt>
      <trkpt lat="46.297850534319878" lon="8.226129775866866">
        <ele>2220.96</ele>
        <time>2022-01-30T10:08:22Z</time>
      </trkpt>
      <trkpt lat="46.297847433015704" lon="8.226084765046835">
        <ele>2224.1900000000001</ele>
        <time>2022-01-30T10:08:27Z</time>
      </trkpt>
      <trkpt lat="46.297828992828727" lon="8.226009579375386">
        <ele>2225.1399999999999</ele>
        <time>2022-01-30T10:08:35Z</time>
      </trkpt>
      <trkpt lat="46.297810971736908" lon="8.225980242714286">
        <ele>2223.2800000000002</ele>
        <time>2022-01-30T10:08:39Z</time>
      </trkpt>
      <trkpt lat="46.297764535993338" lon="8.225920731201768">
        <ele>2222.0799999999999</ele>
        <time>2022-01-30T10:08:47Z</time>
      </trkpt>
      <trkpt lat="46.297709634527564" lon="8.225839929655194">
        <ele>2224.52</ele>
        <time>2022-01-30T10:08:57Z</time>
      </trkpt>
      <trkpt lat="46.297649117186666" lon="8.22575275786221">
        <ele>2225.9299999999998</ele>
        <time>2022-01-30T10:09:07Z</time>
      </trkpt>
      <trkpt lat="46.297598825767636" lon="8.225704142823815">
        <ele>2229.02</ele>
        <time>2022-01-30T10:09:14Z</time>
      </trkpt>
      <trkpt lat="46.297593461349607" lon="8.225697856396437">
        <ele>2229.3000000000002</ele>
        <time>2022-01-30T10:09:15Z</time>
      </trkpt>
      <trkpt lat="46.297524059191346" lon="8.225642032921314">
        <ele>2228.2800000000002</ele>
        <time>2022-01-30T10:09:25Z</time>
      </trkpt>
      <trkpt lat="46.297443760558963" lon="8.225608421489596">
        <ele>2226.1399999999999</ele>
        <time>2022-01-30T10:09:35Z</time>
      </trkpt>
      <trkpt lat="46.29738399758935" lon="8.225554022938013">
        <ele>2226.02</ele>
        <time>2022-01-30T10:09:44Z</time>
      </trkpt>
      <trkpt lat="46.297351894900203" lon="8.225515298545361">
        <ele>2225.8800000000001</ele>
        <time>2022-01-30T10:09:50Z</time>
      </trkpt>
      <trkpt lat="46.297291545197368" lon="8.225450422614813">
        <ele>2225.8400000000001</ele>
        <time>2022-01-30T10:09:59Z</time>
      </trkpt>
      <trkpt lat="46.297250473871827" lon="8.225432820618153">
        <ele>2226.1900000000001</ele>
        <time>2022-01-30T10:10:05Z</time>
      </trkpt>
      <trkpt lat="46.297206385061145" lon="8.225386468693614">
        <ele>2226.9699999999998</ele>
        <time>2022-01-30T10:10:12Z</time>
      </trkpt>
      <trkpt lat="46.297188783064485" lon="8.225313294678927">
        <ele>2227.0100000000002</ele>
        <time>2022-01-30T10:10:19Z</time>
      </trkpt>
      <trkpt lat="46.297164391726255" lon="8.225248251110315">
        <ele>2227</ele>
        <time>2022-01-30T10:10:25Z</time>
      </trkpt>
      <trkpt lat="46.297135138884187" lon="8.225170718505979">
        <ele>2227.4400000000001</ele>
        <time>2022-01-30T10:10:33Z</time>
      </trkpt>
      <trkpt lat="46.297129774466157" lon="8.225137945264578">
        <ele>2227.6999999999998</ele>
        <time>2022-01-30T10:10:36Z</time>
      </trkpt>
      <trkpt lat="46.297122566029429" lon="8.225095281377435">
        <ele>2227.9400000000001</ele>
        <time>2022-01-30T10:10:39Z</time>
      </trkpt>
      <trkpt lat="46.297095157206059" lon="8.225034344941378">
        <ele>2228.1999999999998</ele>
        <time>2022-01-30T10:10:46Z</time>
      </trkpt>
      <trkpt lat="46.297059198841453" lon="8.224958153441548">
        <ele>2228.4299999999998</ele>
        <time>2022-01-30T10:10:55Z</time>
      </trkpt>
      <trkpt lat="46.29700236953795" lon="8.224842818453908">
        <ele>2228.1700000000001</ele>
        <time>2022-01-30T10:11:06Z</time>
      </trkpt>
      <trkpt lat="46.296978062018752" lon="8.224809290841222">
        <ele>2228.23</ele>
        <time>2022-01-30T10:11:10Z</time>
      </trkpt>
      <trkpt lat="46.296915197744966" lon="8.224735530093312">
        <ele>2228.1999999999998</ele>
        <time>2022-01-30T10:11:20Z</time>
      </trkpt>
      <trkpt lat="46.296859541907907" lon="8.224678616970778">
        <ele>2227.79</ele>
        <time>2022-01-30T10:11:29Z</time>
      </trkpt>
      <trkpt lat="46.296846382319927" lon="8.224664535373449">
        <ele>2227.6599999999999</ele>
        <time>2022-01-30T10:11:31Z</time>
      </trkpt>
      <trkpt lat="46.296798018738627" lon="8.224601922556758">
        <ele>2226.8899999999999</ele>
        <time>2022-01-30T10:11:39Z</time>
      </trkpt>
      <trkpt lat="46.296768598258495" lon="8.224551295861602">
        <ele>2226.0999999999999</ele>
        <time>2022-01-30T10:11:44Z</time>
      </trkpt>
      <trkpt lat="46.296762563288212" lon="8.224539142102003">
        <ele>2226.04</ele>
        <time>2022-01-30T10:11:45Z</time>
      </trkpt>
      <trkpt lat="46.296743955463171" lon="8.224504441022873">
        <ele>2225.9499999999998</ele>
        <time>2022-01-30T10:11:48Z</time>
      </trkpt>
      <trkpt lat="46.296718558296561" lon="8.224455742165446">
        <ele>2226.71</ele>
        <time>2022-01-30T10:11:53Z</time>
      </trkpt>
      <trkpt lat="46.296704392880201" lon="8.224411569535732">
        <ele>2228.1599999999999</ele>
        <time>2022-01-30T10:11:57Z</time>
      </trkpt>
      <trkpt lat="46.296668266877532" lon="8.224326577037573">
        <ele>2231.6199999999999</ele>
        <time>2022-01-30T10:12:04Z</time>
      </trkpt>
      <trkpt lat="46.296643456444144" lon="8.224245272576809">
        <ele>2232.4000000000001</ele>
        <time>2022-01-30T10:12:12Z</time>
      </trkpt>
      <trkpt lat="46.296626441180706" lon="8.224171679466963">
        <ele>2232.3600000000001</ele>
        <time>2022-01-30T10:12:18Z</time>
      </trkpt>
      <trkpt lat="46.296593835577369" lon="8.224100517109036">
        <ele>2232.5700000000002</ele>
        <time>2022-01-30T10:12:25Z</time>
      </trkpt>
      <trkpt lat="46.296549662947655" lon="8.224029941484332">
        <ele>2232.04</ele>
        <time>2022-01-30T10:12:33Z</time>
      </trkpt>
      <trkpt lat="46.296507837250829" lon="8.223947798833251">
        <ele>2230.8699999999999</ele>
        <time>2022-01-30T10:12:42Z</time>
      </trkpt>
      <trkpt lat="46.296465676277876" lon="8.223883425816894">
        <ele>2231.29</ele>
        <time>2022-01-30T10:12:49Z</time>
      </trkpt>
      <trkpt lat="46.296425946056843" lon="8.223807737231255">
        <ele>2232.0700000000002</ele>
        <time>2022-01-30T10:12:57Z</time>
      </trkpt>
      <trkpt lat="46.296391664072871" lon="8.223749566823244">
        <ele>2233.1100000000001</ele>
        <time>2022-01-30T10:13:03Z</time>
      </trkpt>
      <trkpt lat="46.296381941065192" lon="8.223738251253963">
        <ele>2233.1900000000001</ele>
        <time>2022-01-30T10:13:05Z</time>
      </trkpt>
      <trkpt lat="46.296342462301254" lon="8.223692066967487">
        <ele>2233.2399999999998</ele>
        <time>2022-01-30T10:13:12Z</time>
      </trkpt>
      <trkpt lat="46.29628554917872" lon="8.223623586818576">
        <ele>2233.04</ele>
        <time>2022-01-30T10:13:21Z</time>
      </trkpt>
      <trkpt lat="46.296280017122626" lon="8.223615624010563">
        <ele>2233.0900000000001</ele>
        <time>2022-01-30T10:13:22Z</time>
      </trkpt>
      <trkpt lat="46.296234671026468" lon="8.22355586104095">
        <ele>2233.9699999999998</ele>
        <time>2022-01-30T10:13:30Z</time>
      </trkpt>
      <trkpt lat="46.296228636056185" lon="8.223545886576176">
        <ele>2234.02</ele>
        <time>2022-01-30T10:13:31Z</time>
      </trkpt>
      <trkpt lat="46.296223439276218" lon="8.223533648997545">
        <ele>2234.0500000000002</ele>
        <time>2022-01-30T10:13:32Z</time>
      </trkpt>
      <trkpt lat="46.296183373779058" lon="8.223479250445962">
        <ele>2234.23</ele>
        <time>2022-01-30T10:13:38Z</time>
      </trkpt>
      <trkpt lat="46.296150768175721" lon="8.223401047289372">
        <ele>2235.0900000000001</ele>
        <time>2022-01-30T10:13:46Z</time>
      </trkpt>
      <trkpt lat="46.296111373230815" lon="8.223313121125102">
        <ele>2235.6799999999998</ele>
        <time>2022-01-30T10:13:55Z</time>
      </trkpt>
      <trkpt lat="46.296088825911283" lon="8.223288143053651">
        <ele>2235.6799999999998</ele>
        <time>2022-01-30T10:13:59Z</time>
      </trkpt>
      <trkpt lat="46.296084467321634" lon="8.223277162760496">
        <ele>2235.8699999999999</ele>
        <time>2022-01-30T10:14:00Z</time>
      </trkpt>
      <trkpt lat="46.296076588332653" lon="8.223250173032284">
        <ele>2236.1399999999999</ele>
        <time>2022-01-30T10:14:02Z</time>
      </trkpt>
      <trkpt lat="46.296067871153355" lon="8.223223686218262">
        <ele>2236.4099999999999</ele>
        <time>2022-01-30T10:14:04Z</time>
      </trkpt>
      <trkpt lat="46.296059573069215" lon="8.223196277394891">
        <ele>2236.6700000000001</ele>
        <time>2022-01-30T10:14:07Z</time>
      </trkpt>
      <trkpt lat="46.296029733493924" lon="8.223126288503408">
        <ele>2237.1900000000001</ele>
        <time>2022-01-30T10:14:15Z</time>
      </trkpt>
      <trkpt lat="46.295997798442841" lon="8.223060490563512">
        <ele>2236.52</ele>
        <time>2022-01-30T10:14:23Z</time>
      </trkpt>
      <trkpt lat="46.295960582792759" lon="8.22299343533814">
        <ele>2236.4499999999998</ele>
        <time>2022-01-30T10:14:31Z</time>
      </trkpt>
      <trkpt lat="46.295939041301608" lon="8.222965439781547">
        <ele>2236.5500000000002</ele>
        <time>2022-01-30T10:14:35Z</time>
      </trkpt>
      <trkpt lat="46.295934179797769" lon="8.222958482801914">
        <ele>2236.5700000000002</ele>
        <time>2022-01-30T10:14:36Z</time>
      </trkpt>
      <trkpt lat="46.295913392677903" lon="8.222910538315773">
        <ele>2236.8299999999999</ele>
        <time>2022-01-30T10:14:43Z</time>
      </trkpt>
      <trkpt lat="46.295910039916635" lon="8.222921183332801">
        <ele>2236.54</ele>
        <time>2022-01-30T10:15:02Z</time>
      </trkpt>
      <trkpt lat="46.295913141220808" lon="8.222925877198577">
        <ele>2237.4499999999998</ele>
        <time>2022-01-30T10:15:52Z</time>
      </trkpt>
      <trkpt lat="46.295913057401776" lon="8.222928140312433">
        <ele>2234.3299999999999</ele>
        <time>2022-01-30T10:16:05Z</time>
      </trkpt>
      <trkpt lat="46.295909872278571" lon="8.222917746752501">
        <ele>2233.1799999999998</ele>
        <time>2022-01-30T10:16:23Z</time>
      </trkpt>
      <trkpt lat="46.295891935005784" lon="8.222903246060014">
        <ele>2233.1100000000001</ele>
        <time>2022-01-30T10:16:27Z</time>
      </trkpt>
      <trkpt lat="46.295853042975068" lon="8.222850356251001">
        <ele>2232.9699999999998</ele>
        <time>2022-01-30T10:16:34Z</time>
      </trkpt>
      <trkpt lat="46.29581649787724" lon="8.222795454785228">
        <ele>2234.46</ele>
        <time>2022-01-30T10:16:42Z</time>
      </trkpt>
      <trkpt lat="46.295750951394439" lon="8.222762849181891">
        <ele>2236.2399999999998</ele>
        <time>2022-01-30T10:16:50Z</time>
      </trkpt>
      <trkpt lat="46.295698061585426" lon="8.222724543884397">
        <ele>2237.25</ele>
        <time>2022-01-30T10:16:57Z</time>
      </trkpt>
      <trkpt lat="46.295640058815479" lon="8.222702667117119">
        <ele>2239.21</ele>
        <time>2022-01-30T10:17:05Z</time>
      </trkpt>
      <trkpt lat="46.295597730204463" lon="8.222685987129808">
        <ele>2241.02</ele>
        <time>2022-01-30T10:17:12Z</time>
      </trkpt>
      <trkpt lat="46.295541236177087" lon="8.222670145332813">
        <ele>2240.8000000000002</ele>
        <time>2022-01-30T10:17:21Z</time>
      </trkpt>
      <trkpt lat="46.295493794605136" lon="8.222649525851011">
        <ele>2241.0599999999999</ele>
        <time>2022-01-30T10:17:28Z</time>
      </trkpt>
      <trkpt lat="46.295465044677258" lon="8.222641060128808">
        <ele>2241.4099999999999</ele>
        <time>2022-01-30T10:17:32Z</time>
      </trkpt>
      <trkpt lat="46.295422045513988" lon="8.222624631598592">
        <ele>2242.54</ele>
        <time>2022-01-30T10:17:39Z</time>
      </trkpt>
      <trkpt lat="46.295369323343039" lon="8.222619099542499">
        <ele>2244.6100000000001</ele>
        <time>2022-01-30T10:17:48Z</time>
      </trkpt>
      <trkpt lat="46.295365132391453" lon="8.222620524466038">
        <ele>2244.9699999999998</ele>
        <time>2022-01-30T10:17:49Z</time>
      </trkpt>
      <trkpt lat="46.295315343886614" lon="8.222615495324135">
        <ele>2247.9400000000001</ele>
        <time>2022-01-30T10:17:56Z</time>
      </trkpt>
      <trkpt lat="46.29527217708528" lon="8.222614238038659">
        <ele>2249.6100000000001</ele>
        <time>2022-01-30T10:18:03Z</time>
      </trkpt>
      <trkpt lat="46.295223897323012" lon="8.222611891105771">
        <ele>2249.52</ele>
        <time>2022-01-30T10:18:10Z</time>
      </trkpt>
      <trkpt lat="46.29517637193203" lon="8.222613651305437">
        <ele>2250.0900000000001</ele>
        <time>2022-01-30T10:18:18Z</time>
      </trkpt>
      <trkpt lat="46.295152734965086" lon="8.222611639648676">
        <ele>2250.3499999999999</ele>
        <time>2022-01-30T10:18:22Z</time>
      </trkpt>
      <trkpt lat="46.295094732195139" lon="8.222613567486405">
        <ele>2249.1399999999999</ele>
        <time>2022-01-30T10:18:28Z</time>
      </trkpt>
      <trkpt lat="46.295044356957078" lon="8.222617087885737">
        <ele>2247.5999999999999</ele>
        <time>2022-01-30T10:18:38Z</time>
      </trkpt>
      <trkpt lat="46.29499414935708" lon="8.22263577952981">
        <ele>2246.9899999999998</ele>
        <time>2022-01-30T10:18:46Z</time>
      </trkpt>
      <trkpt lat="46.294953832402825" lon="8.222656063735485">
        <ele>2247.6900000000001</ele>
        <time>2022-01-30T10:18:52Z</time>
      </trkpt>
      <trkpt lat="46.294908737763762" lon="8.222663691267371">
        <ele>2248.96</ele>
        <time>2022-01-30T10:18:59Z</time>
      </trkpt>
      <trkpt lat="46.294862134382129" lon="8.222691183909774">
        <ele>2250.2600000000002</ele>
        <time>2022-01-30T10:19:06Z</time>
      </trkpt>
      <trkpt lat="46.294857524335384" lon="8.222699565812945">
        <ele>2250.2800000000002</ele>
        <time>2022-01-30T10:19:07Z</time>
      </trkpt>
      <trkpt lat="46.294821063056588" lon="8.222732841968536">
        <ele>2251.3400000000001</ele>
        <time>2022-01-30T10:19:15Z</time>
      </trkpt>
      <trkpt lat="46.294801449403167" lon="8.222748683765531">
        <ele>2251.7199999999998</ele>
        <time>2022-01-30T10:19:18Z</time>
      </trkpt>
      <trkpt lat="46.294762473553419" lon="8.222777936607599">
        <ele>2252.77</ele>
        <time>2022-01-30T10:19:25Z</time>
      </trkpt>
      <trkpt lat="46.294715786352754" lon="8.222796125337482">
        <ele>2254.23</ele>
        <time>2022-01-30T10:19:31Z</time>
      </trkpt>
      <trkpt lat="46.294669350609183" lon="8.222819678485394">
        <ele>2254.8800000000001</ele>
        <time>2022-01-30T10:19:39Z</time>
      </trkpt>
      <trkpt lat="46.294622831046581" lon="8.222844824194908">
        <ele>2255.0500000000002</ele>
        <time>2022-01-30T10:19:47Z</time>
      </trkpt>
      <trkpt lat="46.294548818841577" lon="8.222869383171201">
        <ele>2254.5</ele>
        <time>2022-01-30T10:19:57Z</time>
      </trkpt>
      <trkpt lat="46.29452258348465" lon="8.222868293523789">
        <ele>2254</ele>
        <time>2022-01-30T10:20:03Z</time>
      </trkpt>
      <trkpt lat="46.294473130255938" lon="8.222895618528128">
        <ele>2253.6300000000001</ele>
        <time>2022-01-30T10:20:11Z</time>
      </trkpt>
      <trkpt lat="46.294460976496339" lon="8.22289913892746">
        <ele>2254.5900000000001</ele>
        <time>2022-01-30T10:20:22Z</time>
      </trkpt>
      <trkpt lat="46.294461982324719" lon="8.222898887470365">
        <ele>2257.6999999999998</ele>
        <time>2022-01-30T10:20:30Z</time>
      </trkpt>
      <trkpt lat="46.294463155791163" lon="8.222893858328462">
        <ele>2260.9000000000001</ele>
        <time>2022-01-30T10:20:38Z</time>
      </trkpt>
      <trkpt lat="46.2944629881531" lon="8.222891846671701">
        <ele>2263.9899999999998</ele>
        <time>2022-01-30T10:20:46Z</time>
      </trkpt>
      <trkpt lat="46.29446248523891" lon="8.222891679033637">
        <ele>2263.9899999999998</ele>
        <time>2022-01-30T10:20:47Z</time>
      </trkpt>
      <trkpt lat="46.294462652876973" lon="8.222891846671701">
        <ele>2260.2600000000002</ele>
        <time>2022-01-30T10:20:51Z</time>
      </trkpt>
      <trkpt lat="46.294446224346757" lon="8.222895786166191">
        <ele>2257.6100000000001</ele>
        <time>2022-01-30T10:21:42Z</time>
      </trkpt>
      <trkpt lat="46.294443542137742" lon="8.22289377450943">
        <ele>2256.6599999999999</ele>
        <time>2022-01-30T10:22:03Z</time>
      </trkpt>
      <trkpt lat="46.29444295540452" lon="8.222895367071033">
        <ele>2255.7399999999998</ele>
        <time>2022-01-30T10:22:14Z</time>
      </trkpt>
      <trkpt lat="46.294409595429897" lon="8.222873825579882">
        <ele>2252.3400000000001</ele>
        <time>2022-01-30T10:24:32Z</time>
      </trkpt>
      <trkpt lat="46.294355448335409" lon="8.222839375957847">
        <ele>2252.3400000000001</ele>
        <time>2022-01-30T10:24:40Z</time>
      </trkpt>
      <trkpt lat="46.294339019805193" lon="8.222829233855009">
        <ele>2252.3400000000001</ele>
        <time>2022-01-30T10:24:42Z</time>
      </trkpt>
      <trkpt lat="46.294291242957115" lon="8.222816158086062">
        <ele>2255.3099999999999</ele>
        <time>2022-01-30T10:24:50Z</time>
      </trkpt>
      <trkpt lat="46.294285962358117" lon="8.222822863608599">
        <ele>2255.3600000000001</ele>
        <time>2022-01-30T10:24:59Z</time>
      </trkpt>
      <trkpt lat="46.29426509141922" lon="8.222824539989233">
        <ele>2254.5</ele>
        <time>2022-01-30T10:25:07Z</time>
      </trkpt>
      <trkpt lat="46.294207088649273" lon="8.22282143868506">
        <ele>2254.98</ele>
        <time>2022-01-30T10:25:14Z</time>
      </trkpt>
      <trkpt lat="46.29416685551405" lon="8.222811967134476">
        <ele>2256.6199999999999</ele>
        <time>2022-01-30T10:25:18Z</time>
      </trkpt>
      <trkpt lat="46.29414539784193" lon="8.222803333774209">
        <ele>2256.8099999999999</ele>
        <time>2022-01-30T10:25:21Z</time>
      </trkpt>
      <trkpt lat="46.294092172756791" lon="8.222784390673041">
        <ele>2256.5599999999999</ele>
        <time>2022-01-30T10:25:29Z</time>
      </trkpt>
      <trkpt lat="46.294039785861969" lon="8.222745498642325">
        <ele>2256.27</ele>
        <time>2022-01-30T10:25:36Z</time>
      </trkpt>
      <trkpt lat="46.293975077569485" lon="8.222719430923462">
        <ele>2257.02</ele>
        <time>2022-01-30T10:25:44Z</time>
      </trkpt>
      <trkpt lat="46.293933838605881" lon="8.222689926624298">
        <ele>2258.5900000000001</ele>
        <time>2022-01-30T10:25:50Z</time>
      </trkpt>
      <trkpt lat="46.293876254931092" lon="8.222645334899426">
        <ele>2258.7600000000002</ele>
        <time>2022-01-30T10:25:58Z</time>
      </trkpt>
      <trkpt lat="46.29380576312542" lon="8.222589092329145">
        <ele>2257.8200000000002</ele>
        <time>2022-01-30T10:26:07Z</time>
      </trkpt>
      <trkpt lat="46.293782964348793" lon="8.222560174763203">
        <ele>2258.2399999999998</ele>
        <time>2022-01-30T10:26:12Z</time>
      </trkpt>
      <trkpt lat="46.293756226077676" lon="8.222518432885408">
        <ele>2258.71</ele>
        <time>2022-01-30T10:26:19Z</time>
      </trkpt>
      <trkpt lat="46.293716244399548" lon="8.222462022677064">
        <ele>2258.77</ele>
        <time>2022-01-30T10:26:27Z</time>
      </trkpt>
      <trkpt lat="46.293655140325427" lon="8.222406953573227">
        <ele>2258.7600000000002</ele>
        <time>2022-01-30T10:26:35Z</time>
      </trkpt>
      <trkpt lat="46.293611470609903" lon="8.222324475646019">
        <ele>2258.4200000000001</ele>
        <time>2022-01-30T10:26:44Z</time>
      </trkpt>
      <trkpt lat="46.293561179190874" lon="8.22221651673317">
        <ele>2258.0599999999999</ele>
        <time>2022-01-30T10:26:55Z</time>
      </trkpt>
      <trkpt lat="46.293518850579858" lon="8.222155747935176">
        <ele>2259.23</ele>
        <time>2022-01-30T10:27:03Z</time>
      </trkpt>
      <trkpt lat="46.293479287996888" lon="8.222142672166228">
        <ele>2260.1199999999999</ele>
        <time>2022-01-30T10:27:11Z</time>
      </trkpt>
      <trkpt lat="46.293429331853986" lon="8.222114760428667">
        <ele>2261.3800000000001</ele>
        <time>2022-01-30T10:27:19Z</time>
      </trkpt>
      <trkpt lat="46.293408880010247" lon="8.2221026904881">
        <ele>2261.7399999999998</ele>
        <time>2022-01-30T10:27:22Z</time>
      </trkpt>
      <trkpt lat="46.293385326862335" lon="8.222077377140522">
        <ele>2262.6500000000001</ele>
        <time>2022-01-30T10:27:29Z</time>
      </trkpt>
      <trkpt lat="46.293344255536795" lon="8.222051728516817">
        <ele>2263.48</ele>
        <time>2022-01-30T10:27:36Z</time>
      </trkpt>
      <trkpt lat="46.293305866420269" lon="8.221996491774917">
        <ele>2263.98</ele>
        <time>2022-01-30T10:27:44Z</time>
      </trkpt>
      <trkpt lat="46.293268650770187" lon="8.221949888393283">
        <ele>2264.0300000000002</ele>
        <time>2022-01-30T10:27:51Z</time>
      </trkpt>
      <trkpt lat="46.293264627456665" lon="8.221943518146873">
        <ele>2264.0500000000002</ele>
        <time>2022-01-30T10:27:52Z</time>
      </trkpt>
      <trkpt lat="46.2932213768363" lon="8.221896747127175">
        <ele>2264.6399999999999</ele>
        <time>2022-01-30T10:28:00Z</time>
      </trkpt>
      <trkpt lat="46.293191956356168" lon="8.221841594204307">
        <ele>2265.4099999999999</ele>
        <time>2022-01-30T10:28:08Z</time>
      </trkpt>
      <trkpt lat="46.293163038790226" lon="8.221779316663742">
        <ele>2265.77</ele>
        <time>2022-01-30T10:28:15Z</time>
      </trkpt>
      <trkpt lat="46.293145855888724" lon="8.221749225631356">
        <ele>2265.6700000000001</ele>
        <time>2022-01-30T10:28:18Z</time>
      </trkpt>
      <trkpt lat="46.293130181729794" lon="8.22167462669313">
        <ele>2266.3499999999999</ele>
        <time>2022-01-30T10:28:26Z</time>
      </trkpt>
      <trkpt lat="46.293100425973535" lon="8.221618719398975">
        <ele>2266.9099999999999</ele>
        <time>2022-01-30T10:28:34Z</time>
      </trkpt>
      <trkpt lat="46.293044267222285" lon="8.221551580354571">
        <ele>2267</ele>
        <time>2022-01-30T10:28:45Z</time>
      </trkpt>
      <trkpt lat="46.292999172583222" lon="8.221492236480117">
        <ele>2267.0999999999999</ele>
        <time>2022-01-30T10:28:55Z</time>
      </trkpt>
      <trkpt lat="46.292959861457348" lon="8.221437335014343">
        <ele>2268.1100000000001</ele>
        <time>2022-01-30T10:29:02Z</time>
      </trkpt>
      <trkpt lat="46.292933458462358" lon="8.221390061080456">
        <ele>2269</ele>
        <time>2022-01-30T10:29:08Z</time>
      </trkpt>
      <trkpt lat="46.292889369651675" lon="8.221348319202662">
        <ele>2271.29</ele>
        <time>2022-01-30T10:29:15Z</time>
      </trkpt>
      <trkpt lat="46.292869923636317" lon="8.221303978934884">
        <ele>2271.5999999999999</ele>
        <time>2022-01-30T10:29:23Z</time>
      </trkpt>
      <trkpt lat="46.292832540348172" lon="8.22124463506043">
        <ele>2273.4000000000001</ele>
        <time>2022-01-30T10:29:32Z</time>
      </trkpt>
      <trkpt lat="46.292807562276721" lon="8.221203647553921">
        <ele>2274.9499999999998</ele>
        <time>2022-01-30T10:29:38Z</time>
      </trkpt>
      <trkpt lat="46.292772693559527" lon="8.221170287579298">
        <ele>2275.1799999999998</ele>
        <time>2022-01-30T10:29:45Z</time>
      </trkpt>
      <trkpt lat="46.292735142633319" lon="8.221105076372623">
        <ele>2277.8099999999999</ele>
        <time>2022-01-30T10:29:55Z</time>
      </trkpt>
      <trkpt lat="46.29271075129509" lon="8.221064424142242">
        <ele>2280.5100000000002</ele>
        <time>2022-01-30T10:30:04Z</time>
      </trkpt>
      <trkpt lat="46.292704297229648" lon="8.221061239019036">
        <ele>2281.4499999999998</ele>
        <time>2022-01-30T10:30:15Z</time>
      </trkpt>
      <trkpt lat="46.292686024680734" lon="8.221063669770956">
        <ele>2278.5100000000002</ele>
        <time>2022-01-30T10:30:28Z</time>
      </trkpt>
      <trkpt lat="46.29268191754818" lon="8.221060652285814">
        <ele>2276.21</ele>
        <time>2022-01-30T10:30:52Z</time>
      </trkpt>
      <trkpt lat="46.29267705604434" lon="8.221058892086148">
        <ele>2276.75</ele>
        <time>2022-01-30T10:31:06Z</time>
      </trkpt>
      <trkpt lat="46.292637661099434" lon="8.221068950369954">
        <ele>2276.3400000000001</ele>
        <time>2022-01-30T10:31:15Z</time>
      </trkpt>
      <trkpt lat="46.292580664157867" lon="8.221048917621374">
        <ele>2276.2199999999998</ele>
        <time>2022-01-30T10:31:24Z</time>
      </trkpt>
      <trkpt lat="46.292527355253696" lon="8.221019832417369">
        <ele>2276.6199999999999</ele>
        <time>2022-01-30T10:31:32Z</time>
      </trkpt>
      <trkpt lat="46.292478740215302" lon="8.221001056954265">
        <ele>2277.3899999999999</ele>
        <time>2022-01-30T10:31:40Z</time>
      </trkpt>
      <trkpt lat="46.292438423261046" lon="8.220980437472463">
        <ele>2278.1199999999999</ele>
        <time>2022-01-30T10:31:46Z</time>
      </trkpt>
      <trkpt lat="46.292399279773235" lon="8.220975659787655">
        <ele>2279.0300000000002</ele>
        <time>2022-01-30T10:31:51Z</time>
      </trkpt>
      <trkpt lat="46.292344881221652" lon="8.22095487266779">
        <ele>2279.8699999999999</ele>
        <time>2022-01-30T10:32:00Z</time>
      </trkpt>
      <trkpt lat="46.292310347780585" lon="8.220948250964284">
        <ele>2280.6799999999998</ele>
        <time>2022-01-30T10:32:06Z</time>
      </trkpt>
      <trkpt lat="46.292264834046364" lon="8.220915561541915">
        <ele>2282.23</ele>
        <time>2022-01-30T10:32:15Z</time>
      </trkpt>
      <trkpt lat="46.292234240099788" lon="8.220873987302184">
        <ele>2283.27</ele>
        <time>2022-01-30T10:32:23Z</time>
      </trkpt>
      <trkpt lat="46.292215380817652" lon="8.220869293436408">
        <ele>2282.7800000000002</ele>
        <time>2022-01-30T10:32:38Z</time>
      </trkpt>
      <trkpt lat="46.292214626446366" lon="8.220862084999681">
        <ele>2284.4000000000001</ele>
        <time>2022-01-30T10:32:59Z</time>
      </trkpt>
      <trkpt lat="46.292197778820992" lon="8.220854541286826">
        <ele>2285.4499999999998</ele>
        <time>2022-01-30T10:33:09Z</time>
      </trkpt>
      <trkpt lat="46.2921576295048" lon="8.220811123028398">
        <ele>2285.5900000000001</ele>
        <time>2022-01-30T10:33:17Z</time>
      </trkpt>
      <trkpt lat="46.29215469583869" lon="8.220802573487163">
        <ele>2282.52</ele>
        <time>2022-01-30T10:33:23Z</time>
      </trkpt>
      <trkpt lat="46.2921541929245" lon="8.2208058424294">
        <ele>2284.46</ele>
        <time>2022-01-30T10:33:30Z</time>
      </trkpt>
      <trkpt lat="46.292155450209975" lon="8.220803746953607">
        <ele>2285.29</ele>
        <time>2022-01-30T10:33:49Z</time>
      </trkpt>
      <trkpt lat="46.2921541929245" lon="8.220805423334241">
        <ele>2287.29</ele>
        <time>2022-01-30T10:33:57Z</time>
      </trkpt>
      <trkpt lat="46.292154779657722" lon="8.220809027552605">
        <ele>2287.77</ele>
        <time>2022-01-30T10:34:10Z</time>
      </trkpt>
      <trkpt lat="46.292157378047705" lon="8.220811793580651">
        <ele>2285.3600000000001</ele>
        <time>2022-01-30T10:34:37Z</time>
      </trkpt>
      <trkpt lat="46.292161736637354" lon="8.220810536295176">
        <ele>2285.0300000000002</ele>
        <time>2022-01-30T10:34:52Z</time>
      </trkpt>
      <trkpt lat="46.292163329198956" lon="8.220809949561954">
        <ele>2284.4200000000001</ele>
        <time>2022-01-30T10:35:14Z</time>
      </trkpt>
      <trkpt lat="46.292159473523498" lon="8.22080877609551">
        <ele>2280.5999999999999</ele>
        <time>2022-01-30T10:35:29Z</time>
      </trkpt>
      <trkpt lat="46.29215813241899" lon="8.220812631770968">
        <ele>2284.8400000000001</ele>
        <time>2022-01-30T10:35:37Z</time>
      </trkpt>
      <trkpt lat="46.292155450209975" lon="8.220812128856778">
        <ele>2281.96</ele>
        <time>2022-01-30T10:35:51Z</time>
      </trkpt>
      <trkpt lat="46.292154863476753" lon="8.220810787752271">
        <ele>2282.9299999999998</ele>
        <time>2022-01-30T10:36:04Z</time>
      </trkpt>
      <trkpt lat="46.292153941467404" lon="8.220805255696178">
        <ele>2283.6900000000001</ele>
        <time>2022-01-30T10:36:41Z</time>
      </trkpt>
      <trkpt lat="46.29215519875288" lon="8.220798885449767">
        <ele>2286.0999999999999</ele>
        <time>2022-01-30T10:36:46Z</time>
      </trkpt>
      <trkpt lat="46.292154444381595" lon="8.220798633992672">
        <ele>2289.5799999999999</ele>
        <time>2022-01-30T10:36:57Z</time>
      </trkpt>
      <trkpt lat="46.292154360562563" lon="8.220798885449767">
        <ele>2289.5799999999999</ele>
        <time>2022-01-30T10:36:58Z</time>
      </trkpt>
      <trkpt lat="46.292154528200626" lon="8.220799891278148">
        <ele>2286.0799999999999</ele>
        <time>2022-01-30T10:37:08Z</time>
      </trkpt>
      <trkpt lat="46.292154528200626" lon="8.220800058916211">
        <ele>2285.2199999999998</ele>
        <time>2022-01-30T10:37:10Z</time>
      </trkpt>
      <trkpt lat="46.292157964780927" lon="8.220806093886495">
        <ele>2285.0900000000001</ele>
        <time>2022-01-30T10:37:38Z</time>
      </trkpt>
      <trkpt lat="46.292159976437688" lon="8.220803244039416">
        <ele>2283.7800000000002</ele>
        <time>2022-01-30T10:37:58Z</time>
      </trkpt>
      <trkpt lat="46.292158467695117" lon="8.220805590972304">
        <ele>2282.21</ele>
        <time>2022-01-30T10:38:17Z</time>
      </trkpt>
      <trkpt lat="46.292150421068072" lon="8.220800394192338">
        <ele>2280.0799999999999</ele>
        <time>2022-01-30T10:38:39Z</time>
      </trkpt>
      <trkpt lat="46.292150588706136" lon="8.220788072794676">
        <ele>2280.8200000000002</ele>
        <time>2022-01-30T10:38:49Z</time>
      </trkpt>
      <trkpt lat="46.292156036943197" lon="8.220786228775978">
        <ele>2283.8000000000002</ele>
        <time>2022-01-30T10:39:05Z</time>
      </trkpt>
      <trkpt lat="46.292150923982263" lon="8.220793353393674">
        <ele>2285.1100000000001</ele>
        <time>2022-01-30T10:39:23Z</time>
      </trkpt>
      <trkpt lat="46.292148996144533" lon="8.220795197412372">
        <ele>2286.6599999999999</ele>
        <time>2022-01-30T10:39:43Z</time>
      </trkpt>
      <trkpt lat="46.292152181267738" lon="8.220818918198347">
        <ele>2285.1700000000001</ele>
        <time>2022-01-30T10:40:16Z</time>
      </trkpt>
      <trkpt lat="46.292140865698457" lon="8.220801567658782">
        <ele>2283.3200000000002</ele>
        <time>2022-01-30T10:40:42Z</time>
      </trkpt>
      <trkpt lat="46.292104823514819" lon="8.220742475241423">
        <ele>2283.5999999999999</ele>
        <time>2022-01-30T10:40:49Z</time>
      </trkpt>
      <trkpt lat="46.29207163117826" lon="8.220662763342261">
        <ele>2284.6100000000001</ele>
        <time>2022-01-30T10:40:57Z</time>
      </trkpt>
      <trkpt lat="46.292056040838361" lon="8.220631163567305">
        <ele>2285.9400000000001</ele>
        <time>2022-01-30T10:41:03Z</time>
      </trkpt>
      <trkpt lat="46.292021423578262" lon="8.220574837177992">
        <ele>2288.1900000000001</ele>
        <time>2022-01-30T10:41:11Z</time>
      </trkpt>
      <trkpt lat="46.292018322274089" lon="8.220569472759962">
        <ele>2288.5100000000002</ele>
        <time>2022-01-30T10:41:12Z</time>
      </trkpt>
      <trkpt lat="46.2919866386801" lon="8.220531670376658">
        <ele>2290.9699999999998</ele>
        <time>2022-01-30T10:41:19Z</time>
      </trkpt>
      <trkpt lat="46.291948081925511" lon="8.220506440848112">
        <ele>2292.1500000000001</ele>
        <time>2022-01-30T10:41:27Z</time>
      </trkpt>
      <trkpt lat="46.291908770799637" lon="8.220470063388348">
        <ele>2291.9699999999998</ele>
        <time>2022-01-30T10:41:34Z</time>
      </trkpt>
      <trkpt lat="46.291862167418003" lon="8.22042815387249">
        <ele>2291.5500000000002</ele>
        <time>2022-01-30T10:41:41Z</time>
      </trkpt>
      <trkpt lat="46.291851438581944" lon="8.220419017598033">
        <ele>2291.6300000000001</ele>
        <time>2022-01-30T10:41:43Z</time>
      </trkpt>
      <trkpt lat="46.291817240417004" lon="8.220378030091524">
        <ele>2293.4499999999998</ele>
        <time>2022-01-30T10:41:51Z</time>
      </trkpt>
      <trkpt lat="46.291774744167924" lon="8.220348441973329">
        <ele>2292.9299999999998</ele>
        <time>2022-01-30T10:41:59Z</time>
      </trkpt>
      <trkpt lat="46.291732331737876" lon="8.220274932682514">
        <ele>2292.8099999999999</ele>
        <time>2022-01-30T10:42:08Z</time>
      </trkpt>
      <trkpt lat="46.291705425828695" lon="8.220225479453802">
        <ele>2293.8000000000002</ele>
        <time>2022-01-30T10:42:15Z</time>
      </trkpt>
      <trkpt lat="46.291663683950901" lon="8.220168147236109">
        <ele>2292.9400000000001</ele>
        <time>2022-01-30T10:42:23Z</time>
      </trkpt>
      <trkpt lat="46.291624456644058" lon="8.220111820846796">
        <ele>2292.8200000000002</ele>
        <time>2022-01-30T10:42:29Z</time>
      </trkpt>
      <trkpt lat="46.291591348126531" lon="8.220033869147301">
        <ele>2292.1300000000001</ele>
        <time>2022-01-30T10:42:39Z</time>
      </trkpt>
      <trkpt lat="46.291554970666766" lon="8.219981985166669">
        <ele>2290.4899999999998</ele>
        <time>2022-01-30T10:42:47Z</time>
      </trkpt>
      <trkpt lat="46.291518760845065" lon="8.219939572736621">
        <ele>2289.7199999999998</ele>
        <time>2022-01-30T10:42:53Z</time>
      </trkpt>
      <trkpt lat="46.29149847663939" lon="8.219889448955655">
        <ele>2290.4099999999999</ele>
        <time>2022-01-30T10:43:00Z</time>
      </trkpt>
      <trkpt lat="46.291460422798991" lon="8.219840498641133">
        <ele>2291.5300000000002</ele>
        <time>2022-01-30T10:43:08Z</time>
      </trkpt>
      <trkpt lat="46.291435696184635" lon="8.219793559983373">
        <ele>2294.6399999999999</ele>
        <time>2022-01-30T10:43:16Z</time>
      </trkpt>
      <trkpt lat="46.291400659829378" lon="8.219746872782707">
        <ele>2297.1799999999998</ele>
        <time>2022-01-30T10:43:24Z</time>
      </trkpt>
      <trkpt lat="46.291370652616024" lon="8.21970647200942">
        <ele>2300.1999999999998</ele>
        <time>2022-01-30T10:43:31Z</time>
      </trkpt>
      <trkpt lat="46.291341567412019" lon="8.219682918861508">
        <ele>2303.2399999999998</ele>
        <time>2022-01-30T10:43:36Z</time>
      </trkpt>
      <trkpt lat="46.291337376460433" lon="8.219678057357669">
        <ele>2303.5</ele>
        <time>2022-01-30T10:43:37Z</time>
      </trkpt>
      <trkpt lat="46.291303094476461" lon="8.219650480896235">
        <ele>2302.8800000000001</ele>
        <time>2022-01-30T10:43:44Z</time>
      </trkpt>
      <trkpt lat="46.291272165253758" lon="8.219613181427121">
        <ele>2305.04</ele>
        <time>2022-01-30T10:43:49Z</time>
      </trkpt>
      <trkpt lat="46.291236877441406" lon="8.219572361558676">
        <ele>2302.9000000000001</ele>
        <time>2022-01-30T10:43:56Z</time>
      </trkpt>
      <trkpt lat="46.291212486103177" lon="8.219545288011432">
        <ele>2299.7800000000002</ele>
        <time>2022-01-30T10:44:02Z</time>
      </trkpt>
      <trkpt lat="46.291158674284816" lon="8.219485273584724">
        <ele>2297.48</ele>
        <time>2022-01-30T10:44:11Z</time>
      </trkpt>
      <trkpt lat="46.291128750890493" lon="8.219464235007763">
        <ele>2297.4000000000001</ele>
        <time>2022-01-30T10:44:18Z</time>
      </trkpt>
      <trkpt lat="46.291096061468124" lon="8.219417547807097">
        <ele>2297.0999999999999</ele>
        <time>2022-01-30T10:44:24Z</time>
      </trkpt>
      <trkpt lat="46.29105968400836" lon="8.219387121498585">
        <ele>2298.4499999999998</ele>
        <time>2022-01-30T10:44:31Z</time>
      </trkpt>
      <trkpt lat="46.291022468358278" lon="8.219347475096583">
        <ele>2300.6599999999999</ele>
        <time>2022-01-30T10:44:40Z</time>
      </trkpt>
      <trkpt lat="46.290997741743922" lon="8.219328280538321">
        <ele>2299.8699999999999</ele>
        <time>2022-01-30T10:44:46Z</time>
      </trkpt>
      <trkpt lat="46.290957843884826" lon="8.219281593337655">
        <ele>2300.6300000000001</ele>
        <time>2022-01-30T10:44:54Z</time>
      </trkpt>
      <trkpt lat="46.290934458374977" lon="8.219237420707941">
        <ele>2301.6399999999999</ele>
        <time>2022-01-30T10:45:01Z</time>
      </trkpt>
      <trkpt lat="46.290885340422392" lon="8.219167264178395">
        <ele>2302.7600000000002</ele>
        <time>2022-01-30T10:45:12Z</time>
      </trkpt>
      <trkpt lat="46.2908451911062" lon="8.219125354662538">
        <ele>2303.1100000000001</ele>
        <time>2022-01-30T10:45:20Z</time>
      </trkpt>
      <trkpt lat="46.290802359580994" lon="8.219063999131322">
        <ele>2303.98</ele>
        <time>2022-01-30T10:45:28Z</time>
      </trkpt>
      <trkpt lat="46.290754918009043" lon="8.219006163999438">
        <ele>2304.2600000000002</ele>
        <time>2022-01-30T10:45:37Z</time>
      </trkpt>
      <trkpt lat="46.290706554427743" lon="8.218978336080909">
        <ele>2304.1799999999998</ele>
        <time>2022-01-30T10:45:44Z</time>
      </trkpt>
      <trkpt lat="46.290652323514223" lon="8.218936258926988">
        <ele>2304.5599999999999</ele>
        <time>2022-01-30T10:45:52Z</time>
      </trkpt>
      <trkpt lat="46.290596751496196" lon="8.218904742971063">
        <ele>2304.27</ele>
        <time>2022-01-30T10:46:01Z</time>
      </trkpt>
      <trkpt lat="46.2905602902174" lon="8.21885721758008">
        <ele>2303.21</ele>
        <time>2022-01-30T10:46:08Z</time>
      </trkpt>
      <trkpt lat="46.290539335459471" lon="8.218849841505289">
        <ele>2302.7800000000002</ele>
        <time>2022-01-30T10:46:12Z</time>
      </trkpt>
      <trkpt lat="46.290528522804379" lon="8.218839950859547">
        <ele>2302.7399999999998</ele>
        <time>2022-01-30T10:46:14Z</time>
      </trkpt>
      <trkpt lat="46.290466831997037" lon="8.218766776844859">
        <ele>2303.6100000000001</ele>
        <time>2022-01-30T10:46:24Z</time>
      </trkpt>
      <trkpt lat="46.29044009372592" lon="8.21874238550663">
        <ele>2305.0900000000001</ele>
        <time>2022-01-30T10:46:31Z</time>
      </trkpt>
      <trkpt lat="46.290417378768325" lon="8.218717826530337">
        <ele>2305.5300000000002</ele>
        <time>2022-01-30T10:46:37Z</time>
      </trkpt>
      <trkpt lat="46.290371529757977" lon="8.218667535111308">
        <ele>2305.3400000000001</ele>
        <time>2022-01-30T10:46:45Z</time>
      </trkpt>
      <trkpt lat="46.290341774001718" lon="8.218639120459557">
        <ele>2305.25</ele>
        <time>2022-01-30T10:46:51Z</time>
      </trkpt>
      <trkpt lat="46.290290225297213" lon="8.2185850571841">
        <ele>2304.8299999999999</ele>
        <time>2022-01-30T10:47:00Z</time>
      </trkpt>
      <trkpt lat="46.290236748754978" lon="8.21853518486023">
        <ele>2306.0500000000002</ele>
        <time>2022-01-30T10:47:09Z</time>
      </trkpt>
      <trkpt lat="46.29020213149488" lon="8.218494029715657">
        <ele>2305.8200000000002</ele>
        <time>2022-01-30T10:47:17Z</time>
      </trkpt>
      <trkpt lat="46.290183439850807" lon="8.218475421890616">
        <ele>2305.3000000000002</ele>
        <time>2022-01-30T10:47:33Z</time>
      </trkpt>
      <trkpt lat="46.290177488699555" lon="8.218465279787779">
        <ele>2305.9699999999998</ele>
        <time>2022-01-30T10:47:49Z</time>
      </trkpt>
      <trkpt lat="46.290136585012078" lon="8.218441726639867">
        <ele>2304.3600000000001</ele>
        <time>2022-01-30T10:47:57Z</time>
      </trkpt>
      <trkpt lat="46.290118647739291" lon="8.218435356393457">
        <ele>2303.73</ele>
        <time>2022-01-30T10:48:01Z</time>
      </trkpt>
      <trkpt lat="46.290064919739962" lon="8.21842085570097">
        <ele>2303.3099999999999</ele>
        <time>2022-01-30T10:48:10Z</time>
      </trkpt>
      <trkpt lat="46.290020579472184" lon="8.218404594808817">
        <ele>2302.5</ele>
        <time>2022-01-30T10:48:21Z</time>
      </trkpt>
      <trkpt lat="46.290015634149313" lon="8.218399817124009">
        <ele>2303.3000000000002</ele>
        <time>2022-01-30T10:48:42Z</time>
      </trkpt>
      <trkpt lat="46.289979256689548" lon="8.218379365280271">
        <ele>2304.1599999999999</ele>
        <time>2022-01-30T10:48:54Z</time>
      </trkpt>
      <trkpt lat="46.289949920028448" lon="8.218350782990456">
        <ele>2304.3499999999999</ele>
        <time>2022-01-30T10:48:59Z</time>
      </trkpt>
      <trkpt lat="46.289903651922941" lon="8.218291690573096">
        <ele>2304.6900000000001</ele>
        <time>2022-01-30T10:49:07Z</time>
      </trkpt>
      <trkpt lat="46.289874231442809" lon="8.218248523771763">
        <ele>2305.0599999999999</ele>
        <time>2022-01-30T10:49:13Z</time>
      </trkpt>
      <trkpt lat="46.289871968328953" lon="8.218242824077606">
        <ele>2305.1100000000001</ele>
        <time>2022-01-30T10:49:14Z</time>
      </trkpt>
      <trkpt lat="46.289851432666183" lon="8.218212481588125">
        <ele>2305.1700000000001</ele>
        <time>2022-01-30T10:49:18Z</time>
      </trkpt>
      <trkpt lat="46.289810445159674" lon="8.21818339638412">
        <ele>2305.6399999999999</ele>
        <time>2022-01-30T10:49:26Z</time>
      </trkpt>
      <trkpt lat="46.289774822071195" lon="8.21815213188529">
        <ele>2307.0599999999999</ele>
        <time>2022-01-30T10:49:33Z</time>
      </trkpt>
      <trkpt lat="46.289762752130628" lon="8.21814626455307">
        <ele>2307.25</ele>
        <time>2022-01-30T10:49:35Z</time>
      </trkpt>
      <trkpt lat="46.289714220911264" lon="8.218108797445893">
        <ele>2308.0700000000002</ele>
        <time>2022-01-30T10:49:42Z</time>
      </trkpt>
      <trkpt lat="46.289680860936642" lon="8.21808516047895">
        <ele>2308.02</ele>
        <time>2022-01-30T10:49:48Z</time>
      </trkpt>
      <trkpt lat="46.28965244628489" lon="8.218031516298652">
        <ele>2309.0100000000002</ele>
        <time>2022-01-30T10:49:55Z</time>
      </trkpt>
      <trkpt lat="46.289623863995075" lon="8.217985248193145">
        <ele>2309.9299999999998</ele>
        <time>2022-01-30T10:50:01Z</time>
      </trkpt>
      <trkpt lat="46.289591761305928" lon="8.217925149947405">
        <ele>2310.4000000000001</ele>
        <time>2022-01-30T10:50:09Z</time>
      </trkpt>
      <trkpt lat="46.289560748264194" lon="8.217877540737391">
        <ele>2312.0500000000002</ele>
        <time>2022-01-30T10:50:17Z</time>
      </trkpt>
      <trkpt lat="46.289516994729638" lon="8.217826746404171">
        <ele>2313.8600000000001</ele>
        <time>2022-01-30T10:50:25Z</time>
      </trkpt>
      <trkpt lat="46.28949168138206" lon="8.217784753069282">
        <ele>2314.0300000000002</ele>
        <time>2022-01-30T10:50:31Z</time>
      </trkpt>
      <trkpt lat="46.289465446025133" lon="8.2177509739995">
        <ele>2313.9499999999998</ele>
        <time>2022-01-30T10:50:39Z</time>
      </trkpt>
      <trkpt lat="46.289425548166037" lon="8.217714847996831">
        <ele>2313.6199999999999</ele>
        <time>2022-01-30T10:50:46Z</time>
      </trkpt>
      <trkpt lat="46.289409790188074" lon="8.217692384496331">
        <ele>2313.75</ele>
        <time>2022-01-30T10:50:50Z</time>
      </trkpt>
      <trkpt lat="46.289375340566039" lon="8.217633878812194">
        <ele>2313.5799999999999</ele>
        <time>2022-01-30T10:50:58Z</time>
      </trkpt>
      <trkpt lat="46.289353044703603" lon="8.217575876042247">
        <ele>2312.1100000000001</ele>
        <time>2022-01-30T10:51:06Z</time>
      </trkpt>
      <trkpt lat="46.289314823225141" lon="8.217517118901014">
        <ele>2310.7199999999998</ele>
        <time>2022-01-30T10:51:15Z</time>
      </trkpt>
      <trkpt lat="46.289281463250518" lon="8.217469844967127">
        <ele>2310.6700000000001</ele>
        <time>2022-01-30T10:51:21Z</time>
      </trkpt>
      <trkpt lat="46.289268136024475" lon="8.2174401730299">
        <ele>2310.6500000000001</ele>
        <time>2022-01-30T10:51:24Z</time>
      </trkpt>
      <trkpt lat="46.289236955344677" lon="8.217382254078984">
        <ele>2310.6500000000001</ele>
        <time>2022-01-30T10:51:32Z</time>
      </trkpt>
      <trkpt lat="46.289210384711623" lon="8.217313271015883">
        <ele>2310.75</ele>
        <time>2022-01-30T10:51:39Z</time>
      </trkpt>
      <trkpt lat="46.289177360013127" lon="8.217230457812548">
        <ele>2310.79</ele>
        <time>2022-01-30T10:51:49Z</time>
      </trkpt>
      <trkpt lat="46.289149783551693" lon="8.217189135029912">
        <ele>2311.0900000000001</ele>
        <time>2022-01-30T10:51:57Z</time>
      </trkpt>
      <trkpt lat="46.289115753024817" lon="8.217133395373821">
        <ele>2307.9000000000001</ele>
        <time>2022-01-30T10:52:05Z</time>
      </trkpt>
      <trkpt lat="46.289112232625484" lon="8.217128617689014">
        <ele>2309.6599999999999</ele>
        <time>2022-01-30T10:52:06Z</time>
      </trkpt>
      <trkpt lat="46.289094379171729" lon="8.21711135096848">
        <ele>2311.3000000000002</ele>
        <time>2022-01-30T10:52:09Z</time>
      </trkpt>
      <trkpt lat="46.289056744426489" lon="8.217079332098365">
        <ele>2311.9299999999998</ele>
        <time>2022-01-30T10:52:16Z</time>
      </trkpt>
      <trkpt lat="46.289019361138344" lon="8.21703314781189">
        <ele>2312.23</ele>
        <time>2022-01-30T10:52:22Z</time>
      </trkpt>
      <trkpt lat="46.289013745263219" lon="8.217028537765145">
        <ele>2312.2800000000002</ele>
        <time>2022-01-30T10:52:23Z</time>
      </trkpt>
      <trkpt lat="46.288969153538346" lon="8.21699894964695">
        <ele>2312.7800000000002</ele>
        <time>2022-01-30T10:52:30Z</time>
      </trkpt>
      <trkpt lat="46.28894928842783" lon="8.216986041516066">
        <ele>2313.1900000000001</ele>
        <time>2022-01-30T10:52:36Z</time>
      </trkpt>
      <trkpt lat="46.288922550156713" lon="8.216954777017236">
        <ele>2313.6599999999999</ele>
        <time>2022-01-30T10:52:43Z</time>
      </trkpt>
      <trkpt lat="46.28887846134603" lon="8.216899121180177">
        <ele>2314.73</ele>
        <time>2022-01-30T10:52:51Z</time>
      </trkpt>
      <trkpt lat="46.288851220160723" lon="8.216883698478341">
        <ele>2315.8200000000002</ele>
        <time>2022-01-30T10:52:57Z</time>
      </trkpt>
      <trkpt lat="46.288817273452878" lon="8.216846818104386">
        <ele>2316.73</ele>
        <time>2022-01-30T10:53:04Z</time>
      </trkpt>
      <trkpt lat="46.288784667849541" lon="8.216827288269997">
        <ele>2317.73</ele>
        <time>2022-01-30T10:53:11Z</time>
      </trkpt>
      <trkpt lat="46.288757175207138" lon="8.21677565574646">
        <ele>2318.6700000000001</ele>
        <time>2022-01-30T10:53:17Z</time>
      </trkpt>
      <trkpt lat="46.288735968992114" lon="8.216762579977512">
        <ele>2319.1999999999998</ele>
        <time>2022-01-30T10:53:23Z</time>
      </trkpt>
      <trkpt lat="46.288710655644536" lon="8.216742798686028">
        <ele>2320.1599999999999</ele>
        <time>2022-01-30T10:53:29Z</time>
      </trkpt>
      <trkpt lat="46.2886952329427" lon="8.216724274680018">
        <ele>2321.0500000000002</ele>
        <time>2022-01-30T10:53:35Z</time>
      </trkpt>
      <trkpt lat="46.288674529641867" lon="8.216696782037616">
        <ele>2321.6700000000001</ele>
        <time>2022-01-30T10:53:40Z</time>
      </trkpt>
      <trkpt lat="46.288651647046208" lon="8.216653196141124">
        <ele>2322.3899999999999</ele>
        <time>2022-01-30T10:53:48Z</time>
      </trkpt>
      <trkpt lat="46.288630776107311" lon="8.216640120372176">
        <ele>2323.3600000000001</ele>
        <time>2022-01-30T10:53:53Z</time>
      </trkpt>
      <trkpt lat="46.288596829399467" lon="8.216611035168171">
        <ele>2325.0799999999999</ele>
        <time>2022-01-30T10:54:00Z</time>
      </trkpt>
      <trkpt lat="46.288564978167415" lon="8.216579351574183">
        <ele>2327.3200000000002</ele>
        <time>2022-01-30T10:54:08Z</time>
      </trkpt>
      <trkpt lat="46.288569839671254" lon="8.21656946092844">
        <ele>2330.4499999999998</ele>
        <time>2022-01-30T10:54:28Z</time>
      </trkpt>
      <trkpt lat="46.288575287908316" lon="8.216570131480694">
        <ele>2333.5900000000001</ele>
        <time>2022-01-30T10:54:43Z</time>
      </trkpt>
      <trkpt lat="46.288547292351723" lon="8.216553954407573">
        <ele>2334.1599999999999</ele>
        <time>2022-01-30T10:54:57Z</time>
      </trkpt>
      <trkpt lat="46.288491133600473" lon="8.216499974951148">
        <ele>2333.3099999999999</ele>
        <time>2022-01-30T10:55:04Z</time>
      </trkpt>
      <trkpt lat="46.288451068103313" lon="8.216458987444639">
        <ele>2333.5100000000002</ele>
        <time>2022-01-30T10:55:10Z</time>
      </trkpt>
      <trkpt lat="46.288416367024183" lon="8.216438535600901">
        <ele>2332.6999999999998</ele>
        <time>2022-01-30T10:55:18Z</time>
      </trkpt>
      <trkpt lat="46.288389628753066" lon="8.216402074322105">
        <ele>2333.0100000000002</ele>
        <time>2022-01-30T10:55:24Z</time>
      </trkpt>
      <trkpt lat="46.288384348154068" lon="8.21639939211309">
        <ele>2333.0900000000001</ele>
        <time>2022-01-30T10:55:25Z</time>
      </trkpt>
      <trkpt lat="46.288336487486959" lon="8.216352956369519">
        <ele>2333.4899999999998</ele>
        <time>2022-01-30T10:55:33Z</time>
      </trkpt>
      <trkpt lat="46.288313772529364" lon="8.216307442635298">
        <ele>2333.5700000000002</ele>
        <time>2022-01-30T10:55:40Z</time>
      </trkpt>
      <trkpt lat="46.28829013556242" lon="8.216272322461009">
        <ele>2333.9499999999998</ele>
        <time>2022-01-30T10:55:46Z</time>
      </trkpt>
      <trkpt lat="46.288271360099316" lon="8.216263018548489">
        <ele>2334.48</ele>
        <time>2022-01-30T10:55:52Z</time>
      </trkpt>
      <trkpt lat="46.288242861628532" lon="8.216225635260344">
        <ele>2335.0599999999999</ele>
        <time>2022-01-30T10:55:58Z</time>
      </trkpt>
      <trkpt lat="46.288226265460253" lon="8.216216331347823">
        <ele>2335.1199999999999</ele>
        <time>2022-01-30T10:56:00Z</time>
      </trkpt>
      <trkpt lat="46.28819533623755" lon="8.21617366746068">
        <ele>2335.4499999999998</ele>
        <time>2022-01-30T10:56:05Z</time>
      </trkpt>
      <trkpt lat="46.28818117082119" lon="8.216153467074037">
        <ele>2335.6500000000001</ele>
        <time>2022-01-30T10:56:11Z</time>
      </trkpt>
      <trkpt lat="46.288154684007168" lon="8.216135697439313">
        <ele>2335.9499999999998</ele>
        <time>2022-01-30T10:56:18Z</time>
      </trkpt>
      <trkpt lat="46.288123084232211" lon="8.216112228110433">
        <ele>2335.9899999999998</ele>
        <time>2022-01-30T10:56:24Z</time>
      </trkpt>
      <trkpt lat="46.288097938522696" lon="8.216105438768864">
        <ele>2335.1900000000001</ele>
        <time>2022-01-30T10:56:42Z</time>
      </trkpt>
      <trkpt lat="46.2881098408252" lon="8.216099236160517">
        <ele>2337.0300000000002</ele>
        <time>2022-01-30T10:56:53Z</time>
      </trkpt>
      <trkpt lat="46.288117133080959" lon="8.216109126806259">
        <ele>2336.3899999999999</ele>
        <time>2022-01-30T10:57:10Z</time>
      </trkpt>
      <trkpt lat="46.288099363446236" lon="8.216104852035642">
        <ele>2337.23</ele>
        <time>2022-01-30T10:57:33Z</time>
      </trkpt>
      <trkpt lat="46.288098189979792" lon="8.216106528416276">
        <ele>2336.3299999999999</ele>
        <time>2022-01-30T10:57:44Z</time>
      </trkpt>
      <trkpt lat="46.288085365667939" lon="8.216171571984887">
        <ele>2336.23</ele>
        <time>2022-01-30T10:57:58Z</time>
      </trkpt>
      <trkpt lat="46.288063740357757" lon="8.2162796985358">
        <ele>2337.3600000000001</ele>
        <time>2022-01-30T10:58:09Z</time>
      </trkpt>
      <trkpt lat="46.28803314641118" lon="8.216344993561506">
        <ele>2338.5500000000002</ele>
        <time>2022-01-30T10:58:16Z</time>
      </trkpt>
      <trkpt lat="46.288005067035556" lon="8.21641112677753">
        <ele>2339.6599999999999</ele>
        <time>2022-01-30T10:58:22Z</time>
      </trkpt>
      <trkpt lat="46.287999870255589" lon="8.216442558914423">
        <ele>2340.3699999999999</ele>
        <time>2022-01-30T10:58:25Z</time>
      </trkpt>
      <trkpt lat="46.287988722324371" lon="8.216534592211247">
        <ele>2341.1700000000001</ele>
        <time>2022-01-30T10:58:33Z</time>
      </trkpt>
      <trkpt lat="46.287989728152752" lon="8.216616651043296">
        <ele>2341.5999999999999</ele>
        <time>2022-01-30T10:58:40Z</time>
      </trkpt>
      <trkpt lat="46.287975143641233" lon="8.216630481183529">
        <ele>2341.9099999999999</ele>
        <time>2022-01-30T10:58:43Z</time>
      </trkpt>
      <trkpt lat="46.287905238568783" lon="8.2166060898453">
        <ele>2342.6100000000001</ele>
        <time>2022-01-30T10:58:51Z</time>
      </trkpt>
      <trkpt lat="46.287902053445578" lon="8.216648418456316">
        <ele>2343.54</ele>
        <time>2022-01-30T10:58:57Z</time>
      </trkpt>
      <trkpt lat="46.287901885807514" lon="8.21668429300189">
        <ele>2344.8099999999999</ele>
        <time>2022-01-30T10:59:05Z</time>
      </trkpt>
      <trkpt lat="46.28788897767663" lon="8.216683957725763">
        <ele>2345.7399999999998</ele>
        <time>2022-01-30T10:59:09Z</time>
      </trkpt>
      <trkpt lat="46.287842290475965" lon="8.216684795916081">
        <ele>2347.2199999999998</ele>
        <time>2022-01-30T10:59:16Z</time>
      </trkpt>
      <trkpt lat="46.287798369303346" lon="8.216671468690038">
        <ele>2347.8299999999999</ele>
        <time>2022-01-30T10:59:24Z</time>
      </trkpt>
      <trkpt lat="46.287786550819874" lon="8.216641796752811">
        <ele>2348.6199999999999</ele>
        <time>2022-01-30T10:59:32Z</time>
      </trkpt>
      <trkpt lat="46.287764925509691" lon="8.216621177271009">
        <ele>2349.4299999999998</ele>
        <time>2022-01-30T10:59:40Z</time>
      </trkpt>
      <trkpt lat="46.28776484169066" lon="8.216606341302395">
        <ele>2350.2399999999998</ele>
        <time>2022-01-30T10:59:47Z</time>
      </trkpt>
      <trkpt lat="46.287755286321044" lon="8.216597456485033">
        <ele>2351.8899999999999</ele>
        <time>2022-01-30T11:00:12Z</time>
      </trkpt>
      <trkpt lat="46.287724189460278" lon="8.216591337695718">
        <ele>2352.7399999999998</ele>
        <time>2022-01-30T11:00:27Z</time>
      </trkpt>
      <trkpt lat="46.287683537229896" lon="8.216561833396554">
        <ele>2352.3400000000001</ele>
        <time>2022-01-30T11:00:35Z</time>
      </trkpt>
      <trkpt lat="46.28763735294342" lon="8.216505171731114">
        <ele>2352</ele>
        <time>2022-01-30T11:00:42Z</time>
      </trkpt>
      <trkpt lat="46.287596197798848" lon="8.216473823413253">
        <ele>2352.4699999999998</ele>
        <time>2022-01-30T11:00:49Z</time>
      </trkpt>
      <trkpt lat="46.287552444264293" lon="8.21643115952611">
        <ele>2352.9400000000001</ele>
        <time>2022-01-30T11:00:57Z</time>
      </trkpt>
      <trkpt lat="46.287508187815547" lon="8.216390842571855">
        <ele>2353.21</ele>
        <time>2022-01-30T11:01:04Z</time>
      </trkpt>
      <trkpt lat="46.287483628839254" lon="8.216372737661004">
        <ele>2353.3400000000001</ele>
        <time>2022-01-30T11:01:12Z</time>
      </trkpt>
      <trkpt lat="46.287465691566467" lon="8.216345831751823">
        <ele>2353.4000000000001</ele>
        <time>2022-01-30T11:01:17Z</time>
      </trkpt>
      <trkpt lat="46.287429984658957" lon="8.216293193399906">
        <ele>2353.3400000000001</ele>
        <time>2022-01-30T11:01:24Z</time>
      </trkpt>
      <trkpt lat="46.287410287186503" lon="8.216263856738806">
        <ele>2353.6100000000001</ele>
        <time>2022-01-30T11:01:31Z</time>
      </trkpt>
      <trkpt lat="46.287386147305369" lon="8.216252876445651">
        <ele>2353.9000000000001</ele>
        <time>2022-01-30T11:01:38Z</time>
      </trkpt>
      <trkpt lat="46.287359073758125" lon="8.216240052133799">
        <ele>2354.3099999999999</ele>
        <time>2022-01-30T11:01:44Z</time>
      </trkpt>
      <trkpt lat="46.287346752360463" lon="8.216228317469358">
        <ele>2355.8499999999999</ele>
        <time>2022-01-30T11:02:05Z</time>
      </trkpt>
      <trkpt lat="46.287322025746107" lon="8.216190934181213">
        <ele>2357.5500000000002</ele>
        <time>2022-01-30T11:02:17Z</time>
      </trkpt>
      <trkpt lat="46.28727332688868" lon="8.216148773208261">
        <ele>2356.8299999999999</ele>
        <time>2022-01-30T11:02:24Z</time>
      </trkpt>
      <trkpt lat="46.28721565939486" lon="8.216080041602254">
        <ele>2357.4299999999998</ele>
        <time>2022-01-30T11:02:33Z</time>
      </trkpt>
      <trkpt lat="46.287199566140771" lon="8.216045927256346">
        <ele>2357.3800000000001</ele>
        <time>2022-01-30T11:02:37Z</time>
      </trkpt>
      <trkpt lat="46.287218676880002" lon="8.215987337753177">
        <ele>2357.8499999999999</ele>
        <time>2022-01-30T11:02:44Z</time>
      </trkpt>
      <trkpt lat="46.287255557253957" lon="8.215945679694414">
        <ele>2358.5900000000001</ele>
        <time>2022-01-30T11:02:51Z</time>
      </trkpt>
      <trkpt lat="46.287267543375492" lon="8.215864878147841">
        <ele>2359.3000000000002</ele>
        <time>2022-01-30T11:02:58Z</time>
      </trkpt>
      <trkpt lat="46.287261927500367" lon="8.215850461274386">
        <ele>2359.4400000000001</ele>
        <time>2022-01-30T11:02:59Z</time>
      </trkpt>
      <trkpt lat="46.287246756255627" lon="8.215814670547843">
        <ele>2359.8200000000002</ele>
        <time>2022-01-30T11:03:02Z</time>
      </trkpt>
      <trkpt lat="46.28725279122591" lon="8.215744933113456">
        <ele>2360.7800000000002</ele>
        <time>2022-01-30T11:03:09Z</time>
      </trkpt>
      <trkpt lat="46.287255641072989" lon="8.21568944491446">
        <ele>2361.52</ele>
        <time>2022-01-30T11:03:16Z</time>
      </trkpt>
      <trkpt lat="46.287270141765475" lon="8.215616941452026">
        <ele>2362.6799999999998</ele>
        <time>2022-01-30T11:03:24Z</time>
      </trkpt>
      <trkpt lat="46.287270560860634" lon="8.215595399960876">
        <ele>2363.73</ele>
        <time>2022-01-30T11:03:32Z</time>
      </trkpt>
      <trkpt lat="46.28727626055479" lon="8.215598920360208">
        <ele>2363.6399999999999</ele>
        <time>2022-01-30T11:03:57Z</time>
      </trkpt>
      <trkpt lat="46.287282295525074" lon="8.215583246201277">
        <ele>2362.1500000000001</ele>
        <time>2022-01-30T11:04:21Z</time>
      </trkpt>
      <trkpt lat="46.287254886701703" lon="8.215561117976904">
        <ele>2362.25</ele>
        <time>2022-01-30T11:04:29Z</time>
      </trkpt>
      <trkpt lat="46.287205936387181" lon="8.215517029166222">
        <ele>2361.8299999999999</ele>
        <time>2022-01-30T11:04:37Z</time>
      </trkpt>
      <trkpt lat="46.287173833698034" lon="8.215479478240013">
        <ele>2361.71</ele>
        <time>2022-01-30T11:04:41Z</time>
      </trkpt>
      <trkpt lat="46.287149861454964" lon="8.215439161285758">
        <ele>2361.9499999999998</ele>
        <time>2022-01-30T11:04:46Z</time>
      </trkpt>
      <trkpt lat="46.2871203571558" lon="8.215410159900785">
        <ele>2362.96</ele>
        <time>2022-01-30T11:04:53Z</time>
      </trkpt>
      <trkpt lat="46.287088170647621" lon="8.21538015268743">
        <ele>2364.1199999999999</ele>
        <time>2022-01-30T11:04:59Z</time>
      </trkpt>
      <trkpt lat="46.287056319415569" lon="8.215349391102791">
        <ele>2364.96</ele>
        <time>2022-01-30T11:05:05Z</time>
      </trkpt>
      <trkpt lat="46.287040142342448" lon="8.215330867096782">
        <ele>2365.5599999999999</ele>
        <time>2022-01-30T11:05:10Z</time>
      </trkpt>
      <trkpt lat="46.286993622779846" lon="8.215277474373579">
        <ele>2366.29</ele>
        <time>2022-01-30T11:05:16Z</time>
      </trkpt>
      <trkpt lat="46.286965124309063" lon="8.215265823528171">
        <ele>2367.8400000000001</ele>
        <time>2022-01-30T11:05:24Z</time>
      </trkpt>
      <trkpt lat="46.28694199025631" lon="8.215243360027671">
        <ele>2368.54</ele>
        <time>2022-01-30T11:05:30Z</time>
      </trkpt>
      <trkpt lat="46.286915587261319" lon="8.215212598443031">
        <ele>2369.1999999999998</ele>
        <time>2022-01-30T11:05:37Z</time>
      </trkpt>
      <trkpt lat="46.286896727979183" lon="8.215192733332515">
        <ele>2370.6700000000001</ele>
        <time>2022-01-30T11:05:43Z</time>
      </trkpt>
      <trkpt lat="46.286848783493042" lon="8.215194577351213">
        <ele>2372.0500000000002</ele>
        <time>2022-01-30T11:05:50Z</time>
      </trkpt>
      <trkpt lat="46.286803185939789" lon="8.215176472440362">
        <ele>2374.4899999999998</ele>
        <time>2022-01-30T11:05:58Z</time>
      </trkpt>
      <trkpt lat="46.286788685247302" lon="8.215169347822666">
        <ele>2375.1300000000001</ele>
        <time>2022-01-30T11:06:01Z</time>
      </trkpt>
      <trkpt lat="46.28674702718854" lon="8.215146129950881">
        <ele>2378.21</ele>
        <time>2022-01-30T11:06:15Z</time>
      </trkpt>
      <trkpt lat="46.28674702718854" lon="8.215144285932183">
        <ele>2380.77</ele>
        <time>2022-01-30T11:06:56Z</time>
      </trkpt>
      <trkpt lat="46.28670553676784" lon="8.215114697813988">
        <ele>2382.1399999999999</ele>
        <time>2022-01-30T11:07:03Z</time>
      </trkpt>
      <trkpt lat="46.286675194278359" lon="8.215111261233687">
        <ele>2383.1900000000001</ele>
        <time>2022-01-30T11:07:08Z</time>
      </trkpt>
      <trkpt lat="46.286635044962168" lon="8.215082762762904">
        <ele>2384.1500000000001</ele>
        <time>2022-01-30T11:07:15Z</time>
      </trkpt>
      <trkpt lat="46.286609061062336" lon="8.215073961764574">
        <ele>2384.75</ele>
        <time>2022-01-30T11:07:19Z</time>
      </trkpt>
      <trkpt lat="46.286606462672353" lon="8.21507278829813">
        <ele>2385.3899999999999</ele>
        <time>2022-01-30T11:07:26Z</time>
      </trkpt>
      <trkpt lat="46.286560026928782" lon="8.215021071955562">
        <ele>2385.96</ele>
        <time>2022-01-30T11:07:34Z</time>
      </trkpt>
      <trkpt lat="46.286527588963509" lon="8.215014785528183">
        <ele>2386.3000000000002</ele>
        <time>2022-01-30T11:07:41Z</time>
      </trkpt>
      <trkpt lat="46.286492552608252" lon="8.215010175481439">
        <ele>2386.5700000000002</ele>
        <time>2022-01-30T11:07:48Z</time>
      </trkpt>
      <trkpt lat="46.28645047545433" lon="8.214985448867083">
        <ele>2387.0500000000002</ele>
        <time>2022-01-30T11:07:55Z</time>
      </trkpt>
      <trkpt lat="46.286438992246985" lon="8.214973881840706">
        <ele>2387.6799999999998</ele>
        <time>2022-01-30T11:08:02Z</time>
      </trkpt>
      <trkpt lat="46.286408733576536" lon="8.214951418340206">
        <ele>2388.23</ele>
        <time>2022-01-30T11:08:12Z</time>
      </trkpt>
      <trkpt lat="46.286389119923115" lon="8.214946137741208">
        <ele>2388.6799999999998</ele>
        <time>2022-01-30T11:08:18Z</time>
      </trkpt>
      <trkpt lat="46.286372942849994" lon="8.214919818565249">
        <ele>2388.8200000000002</ele>
        <time>2022-01-30T11:08:25Z</time>
      </trkpt>
      <trkpt lat="46.28636154346168" lon="8.214915543794632">
        <ele>2388.6900000000001</ele>
        <time>2022-01-30T11:09:48Z</time>
      </trkpt>
      <trkpt lat="46.286355089396238" lon="8.214927697554231">
        <ele>2388.9899999999998</ele>
        <time>2022-01-30T11:10:17Z</time>
      </trkpt>
      <trkpt lat="46.286337655037642" lon="8.214940521866083">
        <ele>2388.98</ele>
        <time>2022-01-30T11:10:20Z</time>
      </trkpt>
      <trkpt lat="46.286324579268694" lon="8.214947897940874">
        <ele>2388.73</ele>
        <time>2022-01-30T11:10:22Z</time>
      </trkpt>
      <trkpt lat="46.286286693066359" lon="8.214938761666417">
        <ele>2388.77</ele>
        <time>2022-01-30T11:10:30Z</time>
      </trkpt>
      <trkpt lat="46.286268252879381" lon="8.214928032830358">
        <ele>2389.25</ele>
        <time>2022-01-30T11:10:35Z</time>
      </trkpt>
      <trkpt lat="46.286232378333807" lon="8.214916633442044">
        <ele>2390.1999999999998</ele>
        <time>2022-01-30T11:10:42Z</time>
      </trkpt>
      <trkpt lat="46.286193151026964" lon="8.214864498004317">
        <ele>2391.2199999999998</ele>
        <time>2022-01-30T11:10:51Z</time>
      </trkpt>
      <trkpt lat="46.286179572343826" lon="8.21485142223537">
        <ele>2391.8099999999999</ele>
        <time>2022-01-30T11:10:57Z</time>
      </trkpt>
      <trkpt lat="46.286155516281724" lon="8.214806243777275">
        <ele>2392.7399999999998</ele>
        <time>2022-01-30T11:11:05Z</time>
      </trkpt>
      <trkpt lat="46.286134393885732" lon="8.214807417243719">
        <ele>2393.73</ele>
        <time>2022-01-30T11:11:13Z</time>
      </trkpt>
      <trkpt lat="46.286130035296082" lon="8.214800376445055">
        <ele>2394.6399999999999</ele>
        <time>2022-01-30T11:11:19Z</time>
      </trkpt>
      <trkpt lat="46.286109331995249" lon="8.214789899066091">
        <ele>2395.2399999999998</ele>
        <time>2022-01-30T11:11:25Z</time>
      </trkpt>
      <trkpt lat="46.286066919565201" lon="8.214792078360915">
        <ele>2396.5900000000001</ele>
        <time>2022-01-30T11:11:34Z</time>
      </trkpt>
      <trkpt lat="46.286034733057022" lon="8.214764585718513">
        <ele>2397.8099999999999</ele>
        <time>2022-01-30T11:11:41Z</time>
      </trkpt>
      <trkpt lat="46.286034481599927" lon="8.214765591546893">
        <ele>2398.6799999999998</ele>
        <time>2022-01-30T11:11:48Z</time>
      </trkpt>
      <trkpt lat="46.286003720015287" lon="8.214736338704824">
        <ele>2399.8600000000001</ele>
        <time>2022-01-30T11:12:03Z</time>
      </trkpt>
      <trkpt lat="46.285967174917459" lon="8.214663835242391">
        <ele>2401.5700000000002</ele>
        <time>2022-01-30T11:12:12Z</time>
      </trkpt>
      <trkpt lat="46.285962061956525" lon="8.214657129719853">
        <ele>2401.6799999999998</ele>
        <time>2022-01-30T11:12:13Z</time>
      </trkpt>
      <trkpt lat="46.285924594849348" lon="8.214624188840389">
        <ele>2402.2199999999998</ele>
        <time>2022-01-30T11:12:20Z</time>
      </trkpt>
      <trkpt lat="46.285920822992921" lon="8.214617148041725">
        <ele>2402.25</ele>
        <time>2022-01-30T11:12:21Z</time>
      </trkpt>
      <trkpt lat="46.285913530737162" lon="8.214593343436718">
        <ele>2402.8099999999999</ele>
        <time>2022-01-30T11:12:26Z</time>
      </trkpt>
      <trkpt lat="46.285907328128815" lon="8.214567443355918">
        <ele>2405.0300000000002</ele>
        <time>2022-01-30T11:12:35Z</time>
      </trkpt>
      <trkpt lat="46.28587975166738" lon="8.214566437527537">
        <ele>2404.6100000000001</ele>
        <time>2022-01-30T11:12:43Z</time>
      </trkpt>
      <trkpt lat="46.285860892385244" lon="8.214557133615017">
        <ele>2404.5700000000002</ele>
        <time>2022-01-30T11:12:49Z</time>
      </trkpt>
      <trkpt lat="46.285846894606948" lon="8.214537855237722">
        <ele>2405.3200000000002</ele>
        <time>2022-01-30T11:12:56Z</time>
      </trkpt>
      <trkpt lat="46.28584848716855" lon="8.214536346495152">
        <ele>2406.3400000000001</ele>
        <time>2022-01-30T11:13:05Z</time>
      </trkpt>
      <trkpt lat="46.285852342844009" lon="8.214524444192648">
        <ele>2406.48</ele>
        <time>2022-01-30T11:13:22Z</time>
      </trkpt>
      <trkpt lat="46.285852426663041" lon="8.214522432535887">
        <ele>2407.2399999999998</ele>
        <time>2022-01-30T11:13:30Z</time>
      </trkpt>
      <trkpt lat="46.285838764160872" lon="8.214502232149243">
        <ele>2407.9699999999998</ele>
        <time>2022-01-30T11:13:42Z</time>
      </trkpt>
      <trkpt lat="46.285821916535497" lon="8.214461747556925">
        <ele>2408.6599999999999</ele>
        <time>2022-01-30T11:13:50Z</time>
      </trkpt>
      <trkpt lat="46.285806158557534" lon="8.214418329298496">
        <ele>2411.3099999999999</ele>
        <time>2022-01-30T11:14:00Z</time>
      </trkpt>
      <trkpt lat="46.285783443599939" lon="8.214378850534558">
        <ele>2413.48</ele>
        <time>2022-01-30T11:14:08Z</time>
      </trkpt>
      <trkpt lat="46.285792328417301" lon="8.214363092556596">
        <ele>2415.1100000000001</ele>
        <time>2022-01-30T11:14:23Z</time>
      </trkpt>
      <trkpt lat="46.285775564610958" lon="8.214328391477466">
        <ele>2414.6999999999998</ele>
        <time>2022-01-30T11:14:29Z</time>
      </trkpt>
      <trkpt lat="46.285774139687419" lon="8.214320596307516">
        <ele>2415.3400000000001</ele>
        <time>2022-01-30T11:14:35Z</time>
      </trkpt>
      <trkpt lat="46.285760896280408" lon="8.214283045381308">
        <ele>2416.48</ele>
        <time>2022-01-30T11:14:45Z</time>
      </trkpt>
      <trkpt lat="46.285736421123147" lon="8.214240465313196">
        <ele>2416.77</ele>
        <time>2022-01-30T11:14:59Z</time>
      </trkpt>
      <trkpt lat="46.285722088068724" lon="8.214207943528891">
        <ele>2417.5999999999999</ele>
        <time>2022-01-30T11:15:08Z</time>
      </trkpt>
      <trkpt lat="46.285710772499442" lon="8.214189084246755">
        <ele>2418.3699999999999</ele>
        <time>2022-01-30T11:15:15Z</time>
      </trkpt>
      <trkpt lat="46.285694930702448" lon="8.214157316833735">
        <ele>2420</ele>
        <time>2022-01-30T11:15:22Z</time>
      </trkpt>
      <trkpt lat="46.285683698952198" lon="8.214145498350263">
        <ele>2421.0999999999999</ele>
        <time>2022-01-30T11:15:32Z</time>
      </trkpt>
      <trkpt lat="46.285675652325153" lon="8.214112557470799">
        <ele>2422.3800000000001</ele>
        <time>2022-01-30T11:15:41Z</time>
      </trkpt>
      <trkpt lat="46.28566718660295" lon="8.214100571349263">
        <ele>2423.8800000000001</ele>
        <time>2022-01-30T11:15:53Z</time>
      </trkpt>
      <trkpt lat="46.285655032843351" lon="8.214064948260784">
        <ele>2424.4400000000001</ele>
        <time>2022-01-30T11:16:00Z</time>
      </trkpt>
      <trkpt lat="46.285651596263051" lon="8.214036365970969">
        <ele>2425.1300000000001</ele>
        <time>2022-01-30T11:16:07Z</time>
      </trkpt>
      <trkpt lat="46.28563592210412" lon="8.214000575244427">
        <ele>2424.96</ele>
        <time>2022-01-30T11:16:19Z</time>
      </trkpt>
      <trkpt lat="46.285625360906124" lon="8.213971154764295">
        <ele>2424.9000000000001</ele>
        <time>2022-01-30T11:16:25Z</time>
      </trkpt>
      <trkpt lat="46.285595521330833" lon="8.213945925235748">
        <ele>2424.8600000000001</ele>
        <time>2022-01-30T11:16:31Z</time>
      </trkpt>
      <trkpt lat="46.285565933212638" lon="8.213942153379321">
        <ele>2435.0500000000002</ele>
        <time>2022-01-30T11:19:09Z</time>
      </trkpt>
      <trkpt lat="46.285564843565226" lon="8.213948775082827">
        <ele>2432.0100000000002</ele>
        <time>2022-01-30T11:19:27Z</time>
      </trkpt>
      <trkpt lat="46.285536177456379" lon="8.213956067338586">
        <ele>2431.96</ele>
        <time>2022-01-30T11:19:37Z</time>
      </trkpt>
      <trkpt lat="46.285509439185262" lon="8.214001832529903">
        <ele>2431.48</ele>
        <time>2022-01-30T11:19:44Z</time>
      </trkpt>
      <trkpt lat="46.28546099178493" lon="8.214053381234407">
        <ele>2431.4099999999999</ele>
        <time>2022-01-30T11:19:51Z</time>
      </trkpt>
      <trkpt lat="46.28541212528944" lon="8.214049022644758">
        <ele>2430.9200000000001</ele>
        <time>2022-01-30T11:19:58Z</time>
      </trkpt>
      <trkpt lat="46.285359319299459" lon="8.214056147262454">
        <ele>2430.5</ele>
        <time>2022-01-30T11:20:06Z</time>
      </trkpt>
      <trkpt lat="46.285322019830346" lon="8.214083639904857">
        <ele>2431.0799999999999</ele>
        <time>2022-01-30T11:20:15Z</time>
      </trkpt>
      <trkpt lat="46.285288240760565" lon="8.214076431468129">
        <ele>2432.0500000000002</ele>
        <time>2022-01-30T11:20:21Z</time>
      </trkpt>
      <trkpt lat="46.285274159163237" lon="8.214077018201351">
        <ele>2432.6999999999998</ele>
        <time>2022-01-30T11:20:33Z</time>
      </trkpt>
      <trkpt lat="46.285268040373921" lon="8.214076682925224">
        <ele>2431.8899999999999</ele>
        <time>2022-01-30T11:22:09Z</time>
      </trkpt>
      <trkpt lat="46.285238536074758" lon="8.214078275486827">
        <ele>2434.0300000000002</ele>
        <time>2022-01-30T11:22:52Z</time>
      </trkpt>
      <trkpt lat="46.285192351788282" lon="8.214049274101853">
        <ele>2433.29</ele>
        <time>2022-01-30T11:22:59Z</time>
      </trkpt>
      <trkpt lat="46.285132672637701" lon="8.214022535830736">
        <ele>2432.6100000000001</ele>
        <time>2022-01-30T11:23:07Z</time>
      </trkpt>
      <trkpt lat="46.285107946023345" lon="8.214014070108533">
        <ele>2432.6199999999999</ele>
        <time>2022-01-30T11:23:10Z</time>
      </trkpt>
      <trkpt lat="46.285078944638371" lon="8.213963275775313">
        <ele>2433.6500000000001</ele>
        <time>2022-01-30T11:23:18Z</time>
      </trkpt>
      <trkpt lat="46.285045417025685" lon="8.213916756212711">
        <ele>2434.48</ele>
        <time>2022-01-30T11:23:25Z</time>
      </trkpt>
      <trkpt lat="46.285025049000978" lon="8.213864956051111">
        <ele>2436.3699999999999</ele>
        <time>2022-01-30T11:23:32Z</time>
      </trkpt>
      <trkpt lat="46.285010296851397" lon="8.213829584419727">
        <ele>2438.1100000000001</ele>
        <time>2022-01-30T11:23:39Z</time>
      </trkpt>
      <trkpt lat="46.284991940483451" lon="8.213790692389011">
        <ele>2438.2800000000002</ele>
        <time>2022-01-30T11:23:45Z</time>
      </trkpt>
      <trkpt lat="46.284988420084119" lon="8.213748196139932">
        <ele>2439.3600000000001</ele>
        <time>2022-01-30T11:23:52Z</time>
      </trkpt>
      <trkpt lat="46.28499822691083" lon="8.213721960783005">
        <ele>2440.8699999999999</ele>
        <time>2022-01-30T11:23:59Z</time>
      </trkpt>
      <trkpt lat="46.284990347921848" lon="8.213666556403041">
        <ele>2442.46</ele>
        <time>2022-01-30T11:24:06Z</time>
      </trkpt>
      <trkpt lat="46.28498699516058" lon="8.213639734312892">
        <ele>2443.5999999999999</ele>
        <time>2022-01-30T11:24:14Z</time>
      </trkpt>
      <trkpt lat="46.284973165020347" lon="8.21360687725246">
        <ele>2443.29</ele>
        <time>2022-01-30T11:24:21Z</time>
      </trkpt>
      <trkpt lat="46.284972745925188" lon="8.21355071850121">
        <ele>2441.46</ele>
        <time>2022-01-30T11:24:34Z</time>
      </trkpt>
      <trkpt lat="46.284955898299813" lon="8.213459188118577">
        <ele>2441.1799999999998</ele>
        <time>2022-01-30T11:24:44Z</time>
      </trkpt>
      <trkpt lat="46.284952964633703" lon="8.213407471776009">
        <ele>2441.7600000000002</ele>
        <time>2022-01-30T11:24:52Z</time>
      </trkpt>
      <trkpt lat="46.284945253282785" lon="8.213362041860819">
        <ele>2442.1399999999999</ele>
        <time>2022-01-30T11:24:59Z</time>
      </trkpt>
      <trkpt lat="46.284931842237711" lon="8.213336393237114">
        <ele>2442.0100000000002</ele>
        <time>2022-01-30T11:25:13Z</time>
      </trkpt>
      <trkpt lat="46.284925891086459" lon="8.21327168494463">
        <ele>2441.5599999999999</ele>
        <time>2022-01-30T11:25:23Z</time>
      </trkpt>
      <trkpt lat="46.284905439242721" lon="8.213211251422763">
        <ele>2441.8000000000002</ele>
        <time>2022-01-30T11:25:33Z</time>
      </trkpt>
      <trkpt lat="46.284901248291135" lon="8.21318568661809">
        <ele>2442.0100000000002</ele>
        <time>2022-01-30T11:25:39Z</time>
      </trkpt>
      <trkpt lat="46.28488389775157" lon="8.213121565058827">
        <ele>2442.1500000000001</ele>
        <time>2022-01-30T11:25:47Z</time>
      </trkpt>
      <trkpt lat="46.284874090924859" lon="8.213088875636458">
        <ele>2443.6799999999998</ele>
        <time>2022-01-30T11:25:57Z</time>
      </trkpt>
      <trkpt lat="46.284862775355577" lon="8.213027184829116">
        <ele>2445.0599999999999</ele>
        <time>2022-01-30T11:26:06Z</time>
      </trkpt>
      <trkpt lat="46.284851795062423" lon="8.212995836511254">
        <ele>2446.6900000000001</ele>
        <time>2022-01-30T11:26:13Z</time>
      </trkpt>
      <trkpt lat="46.284851124510169" lon="8.212980665266514">
        <ele>2449.3499999999999</ele>
        <time>2022-01-30T11:26:23Z</time>
      </trkpt>
      <trkpt lat="46.284853471443057" lon="8.212981084361672">
        <ele>2450.0300000000002</ele>
        <time>2022-01-30T11:26:25Z</time>
      </trkpt>
      <trkpt lat="46.284856740385294" lon="8.212982593104243">
        <ele>2453.0700000000002</ele>
        <time>2022-01-30T11:26:47Z</time>
      </trkpt>
      <trkpt lat="46.284840395674109" lon="8.212943198159337">
        <ele>2455.6700000000001</ele>
        <time>2022-01-30T11:26:55Z</time>
      </trkpt>
      <trkpt lat="46.284831678494811" lon="8.212897852063179">
        <ele>2456.9099999999999</ele>
        <time>2022-01-30T11:27:02Z</time>
      </trkpt>
      <trkpt lat="46.284817429259419" lon="8.212854936718941">
        <ele>2459.2800000000002</ele>
        <time>2022-01-30T11:27:09Z</time>
      </trkpt>
      <trkpt lat="46.284811394289136" lon="8.212822834029794">
        <ele>2462.3800000000001</ele>
        <time>2022-01-30T11:27:13Z</time>
      </trkpt>
      <trkpt lat="46.284808628261089" lon="8.212802466005087">
        <ele>2465.8899999999999</ele>
        <time>2022-01-30T11:27:18Z</time>
      </trkpt>
      <trkpt lat="46.284808041527867" lon="8.212797855958343">
        <ele>2465.1599999999999</ele>
        <time>2022-01-30T11:27:23Z</time>
      </trkpt>
      <trkpt lat="46.284797145053744" lon="8.212737841531634">
        <ele>2463</ele>
        <time>2022-01-30T11:27:32Z</time>
      </trkpt>
      <trkpt lat="46.284796223044395" lon="8.212728286162019">
        <ele>2462.2199999999998</ele>
        <time>2022-01-30T11:27:43Z</time>
      </trkpt>
      <trkpt lat="46.284781889989972" lon="8.212708421051502">
        <ele>2460.27</ele>
        <time>2022-01-30T11:27:50Z</time>
      </trkpt>
      <trkpt lat="46.28477493301034" lon="8.212687131017447">
        <ele>2460.2800000000002</ele>
        <time>2022-01-30T11:27:59Z</time>
      </trkpt>
      <trkpt lat="46.284761354327202" lon="8.212661650031805">
        <ele>2459.7800000000002</ele>
        <time>2022-01-30T11:28:08Z</time>
      </trkpt>
      <trkpt lat="46.284763449802995" lon="8.212661482393742">
        <ele>2459.2399999999998</ele>
        <time>2022-01-30T11:28:19Z</time>
      </trkpt>
      <trkpt lat="46.2847666349262" lon="8.212653771042824">
        <ele>2457.5999999999999</ele>
        <time>2022-01-30T11:28:32Z</time>
      </trkpt>
      <trkpt lat="46.284773340448737" lon="8.212677240371704">
        <ele>2456.2800000000002</ele>
        <time>2022-01-30T11:28:59Z</time>
      </trkpt>
      <trkpt lat="46.284757498651743" lon="8.212670031934977">
        <ele>2455.0700000000002</ele>
        <time>2022-01-30T11:29:11Z</time>
      </trkpt>
      <trkpt lat="46.284756995737553" lon="8.212647065520287">
        <ele>2455.9899999999998</ele>
        <time>2022-01-30T11:29:19Z</time>
      </trkpt>
      <trkpt lat="46.284756241366267" lon="8.212644048035145">
        <ele>2456.1900000000001</ele>
        <time>2022-01-30T11:29:48Z</time>
      </trkpt>
      <trkpt lat="46.284765042364597" lon="8.212656620889902">
        <ele>2455.7800000000002</ele>
        <time>2022-01-30T11:30:21Z</time>
      </trkpt>
      <trkpt lat="46.284763617441058" lon="8.212653016671538">
        <ele>2455.0900000000001</ele>
        <time>2022-01-30T11:30:30Z</time>
      </trkpt>
      <trkpt lat="46.284751379862428" lon="8.21264723315835">
        <ele>2456.5700000000002</ele>
        <time>2022-01-30T11:30:48Z</time>
      </trkpt>
      <trkpt lat="46.284735538065434" lon="8.212637845426798">
        <ele>2455.0700000000002</ele>
        <time>2022-01-30T11:31:24Z</time>
      </trkpt>
      <trkpt lat="46.284740483388305" lon="8.212648238986731">
        <ele>2453.77</ele>
        <time>2022-01-30T11:31:48Z</time>
      </trkpt>
      <trkpt lat="46.284722629934549" lon="8.212634744122624">
        <ele>2450.29</ele>
        <time>2022-01-30T11:32:23Z</time>
      </trkpt>
      <trkpt lat="46.284728748723865" lon="8.212643461301923">
        <ele>2453.4299999999998</ele>
        <time>2022-01-30T11:32:34Z</time>
      </trkpt>
      <trkpt lat="46.284722462296486" lon="8.212636252865195">
        <ele>2457.04</ele>
        <time>2022-01-30T11:34:23Z</time>
      </trkpt>
      <trkpt lat="46.28472313284874" lon="8.21263549849391">
        <ele>2460.3600000000001</ele>
        <time>2022-01-30T11:35:22Z</time>
      </trkpt>
      <trkpt lat="46.284722127020359" lon="8.212635079398751">
        <ele>2460.5599999999999</ele>
        <time>2022-01-30T11:36:21Z</time>
      </trkpt>
      <trkpt lat="46.284731850028038" lon="8.212659051641822">
        <ele>2459.0599999999999</ele>
        <time>2022-01-30T11:38:15Z</time>
      </trkpt>
      <trkpt lat="46.284736124798656" lon="8.212657291442156">
        <ele>2459.0599999999999</ele>
        <time>2022-01-30T11:38:27Z</time>
      </trkpt>
      <trkpt lat="46.284738387912512" lon="8.212657291442156">
        <ele>2459.0599999999999</ele>
        <time>2022-01-30T11:38:36Z</time>
      </trkpt>
      <trkpt lat="46.284736292436719" lon="8.212646059691906">
        <ele>2459.0599999999999</ele>
        <time>2022-01-30T11:38:48Z</time>
      </trkpt>
      <trkpt lat="46.284729335457087" lon="8.212667936459184">
        <ele>2459.0599999999999</ele>
        <time>2022-01-30T11:39:11Z</time>
      </trkpt>
      <trkpt lat="46.284729083999991" lon="8.212712528184056">
        <ele>2459.0599999999999</ele>
        <time>2022-01-30T11:39:19Z</time>
      </trkpt>
      <trkpt lat="46.284715086221695" lon="8.212747732177377">
        <ele>2459.0599999999999</ele>
        <time>2022-01-30T11:39:28Z</time>
      </trkpt>
      <trkpt lat="46.284704273566604" lon="8.212800454348326">
        <ele>2456.23</ele>
        <time>2022-01-30T11:39:36Z</time>
      </trkpt>
      <trkpt lat="46.284709889441729" lon="8.212855271995068">
        <ele>2455.6100000000001</ele>
        <time>2022-01-30T11:39:45Z</time>
      </trkpt>
      <trkpt lat="46.284708380699158" lon="8.212899444624782">
        <ele>2455.5999999999999</ele>
        <time>2022-01-30T11:39:51Z</time>
      </trkpt>
      <trkpt lat="46.284697987139225" lon="8.212946886196733">
        <ele>2456.52</ele>
        <time>2022-01-30T11:40:00Z</time>
      </trkpt>
      <trkpt lat="46.284699160605669" lon="8.213016036897898">
        <ele>2456.6300000000001</ele>
        <time>2022-01-30T11:40:09Z</time>
      </trkpt>
      <trkpt lat="46.284700585529208" lon="8.213056437671185">
        <ele>2456.5100000000002</ele>
        <time>2022-01-30T11:40:16Z</time>
      </trkpt>
      <trkpt lat="46.284685079008341" lon="8.213121984153986">
        <ele>2455.4699999999998</ele>
        <time>2022-01-30T11:40:25Z</time>
      </trkpt>
      <trkpt lat="46.284677032381296" lon="8.213194822892547">
        <ele>2454.5900000000001</ele>
        <time>2022-01-30T11:40:34Z</time>
      </trkpt>
      <trkpt lat="46.284682061523199" lon="8.213255340233445">
        <ele>2453.5100000000002</ele>
        <time>2022-01-30T11:40:44Z</time>
      </trkpt>
      <trkpt lat="46.284682396799326" lon="8.213289957493544">
        <ele>2454.1300000000001</ele>
        <time>2022-01-30T11:40:51Z</time>
      </trkpt>
      <trkpt lat="46.284681558609009" lon="8.21334645152092">
        <ele>2455.1900000000001</ele>
        <time>2022-01-30T11:41:00Z</time>
      </trkpt>
      <trkpt lat="46.284687593579292" lon="8.213392468169332">
        <ele>2456.04</ele>
        <time>2022-01-30T11:41:07Z</time>
      </trkpt>
      <trkpt lat="46.284681893885136" lon="8.213418871164322">
        <ele>2456.8699999999999</ele>
        <time>2022-01-30T11:41:15Z</time>
      </trkpt>
      <trkpt lat="46.284692538902164" lon="8.213438652455807">
        <ele>2457.4099999999999</ele>
        <time>2022-01-30T11:41:21Z</time>
      </trkpt>
      <trkpt lat="46.284695472568274" lon="8.213445944711566">
        <ele>2457.8600000000001</ele>
        <time>2022-01-30T11:41:31Z</time>
      </trkpt>
      <trkpt lat="46.284695975482464" lon="8.213468072935939">
        <ele>2465.7199999999998</ele>
        <time>2022-01-30T11:44:38Z</time>
      </trkpt>
      <trkpt lat="46.284700753167272" lon="8.213493470102549">
        <ele>2465.3400000000001</ele>
        <time>2022-01-30T11:46:26Z</time>
      </trkpt>
      <trkpt lat="46.284697987139225" lon="8.213490284979343">
        <ele>2462.3400000000001</ele>
        <time>2022-01-30T11:46:44Z</time>
      </trkpt>
      <trkpt lat="46.284696394577622" lon="8.213486429303885">
        <ele>2461.1900000000001</ele>
        <time>2022-01-30T11:47:27Z</time>
      </trkpt>
      <trkpt lat="46.284696143120527" lon="8.213468156754971">
        <ele>2460.2600000000002</ele>
        <time>2022-01-30T11:48:14Z</time>
      </trkpt>
      <trkpt lat="46.284691533073783" lon="8.213439323008061">
        <ele>2459.8200000000002</ele>
        <time>2022-01-30T11:48:37Z</time>
      </trkpt>
      <trkpt lat="46.284677032381296" lon="8.213397916406393">
        <ele>2458.48</ele>
        <time>2022-01-30T11:48:48Z</time>
      </trkpt>
      <trkpt lat="46.284679295495152" lon="8.213346786797047">
        <ele>2457.48</ele>
        <time>2022-01-30T11:48:58Z</time>
      </trkpt>
      <trkpt lat="46.284694131463766" lon="8.213318539783359">
        <ele>2455.9499999999998</ele>
        <time>2022-01-30T11:49:07Z</time>
      </trkpt>
      <trkpt lat="46.284691533073783" lon="8.213276797905564">
        <ele>2454.8800000000001</ele>
        <time>2022-01-30T11:49:14Z</time>
      </trkpt>
      <trkpt lat="46.284680385142565" lon="8.213228769600391">
        <ele>2453.79</ele>
        <time>2022-01-30T11:49:23Z</time>
      </trkpt>
      <trkpt lat="46.284679882228374" lon="8.213151656091213">
        <ele>2452.9699999999998</ele>
        <time>2022-01-30T11:49:33Z</time>
      </trkpt>
      <trkpt lat="46.284678624942899" lon="8.213110417127609">
        <ele>2453.1399999999999</ele>
        <time>2022-01-30T11:49:39Z</time>
      </trkpt>
      <trkpt lat="46.284676948562264" lon="8.213050235062838">
        <ele>2453.2399999999998</ele>
        <time>2022-01-30T11:49:45Z</time>
      </trkpt>
      <trkpt lat="46.284673260524869" lon="8.2129399292171">
        <ele>2453.9400000000001</ele>
        <time>2022-01-30T11:49:53Z</time>
      </trkpt>
      <trkpt lat="46.28469429910183" lon="8.212892236188054">
        <ele>2454.23</ele>
        <time>2022-01-30T11:50:01Z</time>
      </trkpt>
      <trkpt lat="46.284700417891145" lon="8.21284856647253">
        <ele>2454.3699999999999</ele>
        <time>2022-01-30T11:50:11Z</time>
      </trkpt>
      <trkpt lat="46.284699579700828" lon="8.21279282681644">
        <ele>2454</ele>
        <time>2022-01-30T11:50:19Z</time>
      </trkpt>
      <trkpt lat="46.284706452861428" lon="8.212743122130632">
        <ele>2454</ele>
        <time>2022-01-30T11:50:28Z</time>
      </trkpt>
      <trkpt lat="46.284711146727204" lon="8.212705571204424">
        <ele>2453.8000000000002</ele>
        <time>2022-01-30T11:50:37Z</time>
      </trkpt>
      <trkpt lat="46.28472413867712" lon="8.212691238150001">
        <ele>2453.9400000000001</ele>
        <time>2022-01-30T11:50:46Z</time>
      </trkpt>
      <trkpt lat="46.284736040979624" lon="8.212654022499919">
        <ele>2454.3800000000001</ele>
        <time>2022-01-30T11:50:53Z</time>
      </trkpt>
      <trkpt lat="46.284723384305835" lon="8.212635666131973">
        <ele>2454</ele>
        <time>2022-01-30T11:55:56Z</time>
      </trkpt>
      <trkpt lat="46.284780045971274" lon="8.212661230936647">
        <ele>2454.0100000000002</ele>
        <time>2022-01-30T11:56:54Z</time>
      </trkpt>
      <trkpt lat="46.284817848354578" lon="8.212707247585058">
        <ele>2453.0100000000002</ele>
        <time>2022-01-30T11:57:00Z</time>
      </trkpt>
      <trkpt lat="46.284826062619686" lon="8.212716216221452">
        <ele>2452.3200000000002</ele>
        <time>2022-01-30T11:57:01Z</time>
      </trkpt>
      <trkpt lat="46.284842994064093" lon="8.212734488770366">
        <ele>2451.6500000000001</ele>
        <time>2022-01-30T11:57:03Z</time>
      </trkpt>
      <trkpt lat="46.284887753427029" lon="8.21279626339674">
        <ele>2449.9299999999998</ele>
        <time>2022-01-30T11:57:12Z</time>
      </trkpt>
      <trkpt lat="46.284917593002319" lon="8.212826270610094">
        <ele>2448.5</ele>
        <time>2022-01-30T11:57:17Z</time>
      </trkpt>
      <trkpt lat="46.284957993775606" lon="8.21287932805717">
        <ele>2446.23</ele>
        <time>2022-01-30T11:57:24Z</time>
      </trkpt>
      <trkpt lat="46.284995963796973" lon="8.212918136268854">
        <ele>2444.8499999999999</ele>
        <time>2022-01-30T11:57:29Z</time>
      </trkpt>
      <trkpt lat="46.285038040950894" lon="8.212993154302239">
        <ele>2443.6199999999999</ele>
        <time>2022-01-30T11:57:36Z</time>
      </trkpt>
      <trkpt lat="46.285086655989289" lon="8.213012432679534">
        <ele>2442.0999999999999</ele>
        <time>2022-01-30T11:57:43Z</time>
      </trkpt>
      <trkpt lat="46.285125464200974" lon="8.213026849552989">
        <ele>2440.1999999999998</ele>
        <time>2022-01-30T11:57:48Z</time>
      </trkpt>
      <trkpt lat="46.285135354846716" lon="8.213030034676194">
        <ele>2439.6900000000001</ele>
        <time>2022-01-30T11:57:49Z</time>
      </trkpt>
      <trkpt lat="46.285187071189284" lon="8.21308652870357">
        <ele>2437.3699999999999</ele>
        <time>2022-01-30T11:57:55Z</time>
      </trkpt>
      <trkpt lat="46.285223448649049" lon="8.213140843436122">
        <ele>2435.46</ele>
        <time>2022-01-30T11:58:02Z</time>
      </trkpt>
      <trkpt lat="46.285289749503136" lon="8.213173449039459">
        <ele>2434.04</ele>
        <time>2022-01-30T11:58:09Z</time>
      </trkpt>
      <trkpt lat="46.285313721746206" lon="8.213250059634447">
        <ele>2433.3099999999999</ele>
        <time>2022-01-30T11:58:16Z</time>
      </trkpt>
      <trkpt lat="46.285317996516824" lon="8.213257687166333">
        <ele>2433.1100000000001</ele>
        <time>2022-01-30T11:58:17Z</time>
      </trkpt>
      <trkpt lat="46.285354625433683" lon="8.213281156495214">
        <ele>2432.5100000000002</ele>
        <time>2022-01-30T11:58:21Z</time>
      </trkpt>
      <trkpt lat="46.285403072834015" lon="8.213321892544627">
        <ele>2432.1900000000001</ele>
        <time>2022-01-30T11:58:26Z</time>
      </trkpt>
      <trkpt lat="46.285413550212979" lon="8.213395569473505">
        <ele>2431.5700000000002</ele>
        <time>2022-01-30T11:58:32Z</time>
      </trkpt>
      <trkpt lat="46.285384465008974" lon="8.213464887812734">
        <ele>2431.8000000000002</ele>
        <time>2022-01-30T11:58:41Z</time>
      </trkpt>
      <trkpt lat="46.285392260178924" lon="8.213515346869826">
        <ele>2433.0500000000002</ele>
        <time>2022-01-30T11:58:49Z</time>
      </trkpt>
      <trkpt lat="46.285383542999625" lon="8.213536636903882">
        <ele>2433.9200000000001</ele>
        <time>2022-01-30T11:59:00Z</time>
      </trkpt>
      <trkpt lat="46.285360073670745" lon="8.213511826470494">
        <ele>2434.0900000000001</ele>
        <time>2022-01-30T11:59:17Z</time>
      </trkpt>
      <trkpt lat="46.285358145833015" lon="8.213511323556304">
        <ele>2433.3200000000002</ele>
        <time>2022-01-30T11:59:23Z</time>
      </trkpt>
      <trkpt lat="46.285359067842364" lon="8.213509898632765">
        <ele>2431.5300000000002</ele>
        <time>2022-01-30T12:00:47Z</time>
      </trkpt>
      <trkpt lat="46.285361330956221" lon="8.213511155918241">
        <ele>2431.3299999999999</ele>
        <time>2022-01-30T12:16:07Z</time>
      </trkpt>
      <trkpt lat="46.285362336784601" lon="8.213513838127255">
        <ele>2433.2199999999998</ele>
        <time>2022-01-30T12:17:37Z</time>
      </trkpt>
      <trkpt lat="46.2853520270437" lon="8.213467234745622">
        <ele>2433.9499999999998</ele>
        <time>2022-01-30T12:17:49Z</time>
      </trkpt>
      <trkpt lat="46.28536082804203" lon="8.21343052200973">
        <ele>2434.8499999999999</ele>
        <time>2022-01-30T12:18:04Z</time>
      </trkpt>
      <trkpt lat="46.285417238250375" lon="8.213458517566323">
        <ele>2433.2199999999998</ele>
        <time>2022-01-30T12:18:12Z</time>
      </trkpt>
      <trkpt lat="46.285431236028671" lon="8.213477963581681">
        <ele>2432.9299999999998</ele>
        <time>2022-01-30T12:18:14Z</time>
      </trkpt>
      <trkpt lat="46.285436097532511" lon="8.213486848399043">
        <ele>2432.8000000000002</ele>
        <time>2022-01-30T12:18:15Z</time>
      </trkpt>
      <trkpt lat="46.2854712177068" lon="8.213547030463815">
        <ele>2432.2199999999998</ele>
        <time>2022-01-30T12:18:22Z</time>
      </trkpt>
      <trkpt lat="46.285498039796948" lon="8.213646356016398">
        <ele>2431.6100000000001</ele>
        <time>2022-01-30T12:18:32Z</time>
      </trkpt>
      <trkpt lat="46.285520922392607" lon="8.213716680184007">
        <ele>2430.8099999999999</ele>
        <time>2022-01-30T12:18:41Z</time>
      </trkpt>
      <trkpt lat="46.285555539652705" lon="8.213764792308211">
        <ele>2430.0100000000002</ele>
        <time>2022-01-30T12:18:49Z</time>
      </trkpt>
      <trkpt lat="46.28556945361197" lon="8.213801756501198">
        <ele>2429.6700000000001</ele>
        <time>2022-01-30T12:18:53Z</time>
      </trkpt>
      <trkpt lat="46.28559585660696" lon="8.213870488107204">
        <ele>2429.29</ele>
        <time>2022-01-30T12:19:01Z</time>
      </trkpt>
      <trkpt lat="46.28559242002666" lon="8.213935783132911">
        <ele>2429.0900000000001</ele>
        <time>2022-01-30T12:19:09Z</time>
      </trkpt>
      <trkpt lat="46.28562175668776" lon="8.213992277160287">
        <ele>2428.4099999999999</ele>
        <time>2022-01-30T12:19:17Z</time>
      </trkpt>
      <trkpt lat="46.285663582384586" lon="8.214088333770633">
        <ele>2426.3800000000001</ele>
        <time>2022-01-30T12:19:29Z</time>
      </trkpt>
      <trkpt lat="46.285690488293767" lon="8.214146923273802">
        <ele>2424.29</ele>
        <time>2022-01-30T12:19:38Z</time>
      </trkpt>
      <trkpt lat="46.285694846883416" lon="8.214156143367291">
        <ele>2423.7199999999998</ele>
        <time>2022-01-30T12:19:40Z</time>
      </trkpt>
      <trkpt lat="46.285717645660043" lon="8.214214229956269">
        <ele>2421.5100000000002</ele>
        <time>2022-01-30T12:19:48Z</time>
      </trkpt>
      <trkpt lat="46.285736924037337" lon="8.214294528588653">
        <ele>2418.5599999999999</ele>
        <time>2022-01-30T12:19:59Z</time>
      </trkpt>
      <trkpt lat="46.285761063918471" lon="8.214356554672122">
        <ele>2416.3800000000001</ele>
        <time>2022-01-30T12:20:08Z</time>
      </trkpt>
      <trkpt lat="46.285788221284747" lon="8.214391339570284">
        <ele>2414.8099999999999</ele>
        <time>2022-01-30T12:20:17Z</time>
      </trkpt>
      <trkpt lat="46.285813869908452" lon="8.214437523856759">
        <ele>2413.48</ele>
        <time>2022-01-30T12:20:27Z</time>
      </trkpt>
      <trkpt lat="46.285825939849019" lon="8.214477589353919">
        <ele>2411.8400000000001</ele>
        <time>2022-01-30T12:20:35Z</time>
      </trkpt>
      <trkpt lat="46.285841278731823" lon="8.214512877166271">
        <ele>2411.0599999999999</ele>
        <time>2022-01-30T12:20:41Z</time>
      </trkpt>
      <trkpt lat="46.285851839929819" lon="8.214556379243732">
        <ele>2409.5100000000002</ele>
        <time>2022-01-30T12:20:53Z</time>
      </trkpt>
      <trkpt lat="46.285881763324142" lon="8.214595941826701">
        <ele>2408.3600000000001</ele>
        <time>2022-01-30T12:21:02Z</time>
      </trkpt>
      <trkpt lat="46.285933898761868" lon="8.214618489146233">
        <ele>2407.27</ele>
        <time>2022-01-30T12:21:12Z</time>
      </trkpt>
      <trkpt lat="46.285963654518127" lon="8.214679341763258">
        <ele>2405.5900000000001</ele>
        <time>2022-01-30T12:21:21Z</time>
      </trkpt>
      <trkpt lat="46.285992655903101" lon="8.214743547141552">
        <ele>2404.4000000000001</ele>
        <time>2022-01-30T12:21:31Z</time>
      </trkpt>
      <trkpt lat="46.286054933443666" lon="8.214785372838378">
        <ele>2403.8600000000001</ele>
        <time>2022-01-30T12:21:40Z</time>
      </trkpt>
      <trkpt lat="46.286142272874713" lon="8.214823678135872">
        <ele>2402.5500000000002</ele>
        <time>2022-01-30T12:21:51Z</time>
      </trkpt>
      <trkpt lat="46.286202874034643" lon="8.214874723926187">
        <ele>2400.2800000000002</ele>
        <time>2022-01-30T12:22:00Z</time>
      </trkpt>
      <trkpt lat="46.286232797428966" lon="8.214896516874433">
        <ele>2399.6999999999998</ele>
        <time>2022-01-30T12:22:05Z</time>
      </trkpt>
      <trkpt lat="46.286239754408598" lon="8.214901797473431">
        <ele>2399.5900000000001</ele>
        <time>2022-01-30T12:22:06Z</time>
      </trkpt>
      <trkpt lat="46.286300858482718" lon="8.21494278497994">
        <ele>2396.8000000000002</ele>
        <time>2022-01-30T12:22:15Z</time>
      </trkpt>
      <trkpt lat="46.286375038325787" lon="8.214979078620672">
        <ele>2393.5999999999999</ele>
        <time>2022-01-30T12:22:23Z</time>
      </trkpt>
      <trkpt lat="46.28645533695817" lon="8.215031968429685">
        <ele>2390.8400000000001</ele>
        <time>2022-01-30T12:22:34Z</time>
      </trkpt>
      <trkpt lat="46.286547454074025" lon="8.21507521905005">
        <ele>2388.9899999999998</ele>
        <time>2022-01-30T12:22:46Z</time>
      </trkpt>
      <trkpt lat="46.28661023452878" lon="8.215114194899797">
        <ele>2388.6700000000001</ele>
        <time>2022-01-30T12:22:55Z</time>
      </trkpt>
      <trkpt lat="46.286690281704068" lon="8.215158954262734">
        <ele>2387.6900000000001</ele>
        <time>2022-01-30T12:23:06Z</time>
      </trkpt>
      <trkpt lat="46.286727329716086" lon="8.21518225595355">
        <ele>2386.8600000000001</ele>
        <time>2022-01-30T12:23:15Z</time>
      </trkpt>
      <trkpt lat="46.286798994988203" lon="8.215227350592613">
        <ele>2384.3699999999999</ele>
        <time>2022-01-30T12:23:25Z</time>
      </trkpt>
      <trkpt lat="46.286853142082691" lon="8.2152452878654">
        <ele>2382.98</ele>
        <time>2022-01-30T12:23:34Z</time>
      </trkpt>
      <trkpt lat="46.286863619461656" lon="8.215234056115151">
        <ele>2381.7399999999998</ele>
        <time>2022-01-30T12:23:45Z</time>
      </trkpt>
      <trkpt lat="46.286879796534777" lon="8.215241096913815">
        <ele>2381.7800000000002</ele>
        <time>2022-01-30T12:23:52Z</time>
      </trkpt>
      <trkpt lat="46.286970991641283" lon="8.215302284806967">
        <ele>2379.9299999999998</ele>
        <time>2022-01-30T12:24:04Z</time>
      </trkpt>
      <trkpt lat="46.286997562274337" lon="8.215324077755213">
        <ele>2378.23</ele>
        <time>2022-01-30T12:24:08Z</time>
      </trkpt>
      <trkpt lat="46.287077441811562" lon="8.215406555682421">
        <ele>2374.2800000000002</ele>
        <time>2022-01-30T12:24:19Z</time>
      </trkpt>
      <trkpt lat="46.287125051021576" lon="8.215459026396275">
        <ele>2371.2199999999998</ele>
        <time>2022-01-30T12:24:26Z</time>
      </trkpt>
      <trkpt lat="46.287181628867984" lon="8.215537732467055">
        <ele>2368.1100000000001</ele>
        <time>2022-01-30T12:24:34Z</time>
      </trkpt>
      <trkpt lat="46.287265028804541" lon="8.215650888159871">
        <ele>2365.6500000000001</ele>
        <time>2022-01-30T12:24:44Z</time>
      </trkpt>
      <trkpt lat="46.287260167300701" lon="8.215791117399931">
        <ele>2362.4899999999998</ele>
        <time>2022-01-30T12:24:52Z</time>
      </trkpt>
      <trkpt lat="46.28725765272975" lon="8.215968897566199">
        <ele>2359.3800000000001</ele>
        <time>2022-01-30T12:25:02Z</time>
      </trkpt>
      <trkpt lat="46.2872532941401" lon="8.215988343581557">
        <ele>2359.1100000000001</ele>
        <time>2022-01-30T12:25:03Z</time>
      </trkpt>
      <trkpt lat="46.2871980573982" lon="8.216071324422956">
        <ele>2357.6199999999999</ele>
        <time>2022-01-30T12:25:12Z</time>
      </trkpt>
      <trkpt lat="46.287210378795862" lon="8.216116921976209">
        <ele>2356.5500000000002</ele>
        <time>2022-01-30T12:25:16Z</time>
      </trkpt>
      <trkpt lat="46.287249438464642" lon="8.216154975816608">
        <ele>2354.6399999999999</ele>
        <time>2022-01-30T12:25:26Z</time>
      </trkpt>
      <trkpt lat="46.287257568910718" lon="8.216160424053669">
        <ele>2354.6199999999999</ele>
        <time>2022-01-30T12:25:29Z</time>
      </trkpt>
      <trkpt lat="46.287281457334757" lon="8.216179786249995">
        <ele>2354.5799999999999</ele>
        <time>2022-01-30T12:25:32Z</time>
      </trkpt>
      <trkpt lat="46.287334263324738" lon="8.21620493195951">
        <ele>2354.77</ele>
        <time>2022-01-30T12:25:38Z</time>
      </trkpt>
      <trkpt lat="46.287386985495687" lon="8.216260252520442">
        <ele>2355.0500000000002</ele>
        <time>2022-01-30T12:25:46Z</time>
      </trkpt>
      <trkpt lat="46.287439037114382" lon="8.216315656900406">
        <ele>2354.7399999999998</ele>
        <time>2022-01-30T12:25:52Z</time>
      </trkpt>
      <trkpt lat="46.287452364340425" lon="8.216336695477366">
        <ele>2354.3000000000002</ele>
        <time>2022-01-30T12:25:54Z</time>
      </trkpt>
      <trkpt lat="46.287533836439252" lon="8.216419592499733">
        <ele>2352.4899999999998</ele>
        <time>2022-01-30T12:26:04Z</time>
      </trkpt>
      <trkpt lat="46.287591839209199" lon="8.216480277478695">
        <ele>2351.9200000000001</ele>
        <time>2022-01-30T12:26:11Z</time>
      </trkpt>
      <trkpt lat="46.287622265517712" lon="8.216512631624937">
        <ele>2351.5799999999999</ele>
        <time>2022-01-30T12:26:15Z</time>
      </trkpt>
      <trkpt lat="46.287630395963788" lon="8.216518750414252">
        <ele>2351.4400000000001</ele>
        <time>2022-01-30T12:26:16Z</time>
      </trkpt>
      <trkpt lat="46.287656128406525" lon="8.216543644666672">
        <ele>2350.9099999999999</ele>
        <time>2022-01-30T12:26:19Z</time>
      </trkpt>
      <trkpt lat="46.287726368755102" lon="8.216602569445968">
        <ele>2352.8499999999999</ele>
        <time>2022-01-30T12:26:26Z</time>
      </trkpt>
      <trkpt lat="46.287804823368788" lon="8.216684041544795">
        <ele>2351.1900000000001</ele>
        <time>2022-01-30T12:26:36Z</time>
      </trkpt>
      <trkpt lat="46.287884283810854" lon="8.216665768995881">
        <ele>2348.7199999999998</ele>
        <time>2022-01-30T12:26:46Z</time>
      </trkpt>
      <trkpt lat="46.28790364600718" lon="8.216628972440958">
        <ele>2347.4200000000001</ele>
        <time>2022-01-30T12:26:50Z</time>
      </trkpt>
      <trkpt lat="46.287946896627545" lon="8.216613549739122">
        <ele>2346.1199999999999</ele>
        <time>2022-01-30T12:26:55Z</time>
      </trkpt>
      <trkpt lat="46.288003223016858" lon="8.216492095962167">
        <ele>2343.4299999999998</ele>
        <time>2022-01-30T12:27:05Z</time>
      </trkpt>
      <trkpt lat="46.288033733144403" lon="8.216494526714087">
        <ele>2342.9099999999999</ele>
        <time>2022-01-30T12:27:09Z</time>
      </trkpt>
      <trkpt lat="46.288127861917019" lon="8.216558648273349">
        <ele>2342.0500000000002</ele>
        <time>2022-01-30T12:27:19Z</time>
      </trkpt>
      <trkpt lat="46.288204556331038" lon="8.216631319373846">
        <ele>2340.8400000000001</ele>
        <time>2022-01-30T12:27:27Z</time>
      </trkpt>
      <trkpt lat="46.288264822214842" lon="8.216696279123426">
        <ele>2339.2800000000002</ele>
        <time>2022-01-30T12:27:35Z</time>
      </trkpt>
      <trkpt lat="46.288320226594806" lon="8.21677515283227">
        <ele>2337.4299999999998</ele>
        <time>2022-01-30T12:27:44Z</time>
      </trkpt>
      <trkpt lat="46.288389461115003" lon="8.216854277998209">
        <ele>2335.6799999999998</ele>
        <time>2022-01-30T12:27:54Z</time>
      </trkpt>
      <trkpt lat="46.288459869101644" lon="8.216910939663649">
        <ele>2334.25</ele>
        <time>2022-01-30T12:28:03Z</time>
      </trkpt>
      <trkpt lat="46.288501862436533" lon="8.216957123950124">
        <ele>2332.0500000000002</ele>
        <time>2022-01-30T12:28:11Z</time>
      </trkpt>
      <trkpt lat="46.288529438897967" lon="8.217002470046282">
        <ele>2331.1599999999999</ele>
        <time>2022-01-30T12:28:16Z</time>
      </trkpt>
      <trkpt lat="46.28859749995172" lon="8.217080757021904">
        <ele>2329.1500000000001</ele>
        <time>2022-01-30T12:28:27Z</time>
      </trkpt>
      <trkpt lat="46.288623316213489" lon="8.217110428959131">
        <ele>2328.8899999999999</ele>
        <time>2022-01-30T12:28:31Z</time>
      </trkpt>
      <trkpt lat="46.288685761392117" lon="8.217172622680664">
        <ele>2328.0500000000002</ele>
        <time>2022-01-30T12:28:40Z</time>
      </trkpt>
      <trkpt lat="46.288735130801797" lon="8.217233475297689">
        <ele>2326.9200000000001</ele>
        <time>2022-01-30T12:28:48Z</time>
      </trkpt>
      <trkpt lat="46.288785170763731" lon="8.21727748028934">
        <ele>2325.3699999999999</ele>
        <time>2022-01-30T12:28:55Z</time>
      </trkpt>
      <trkpt lat="46.288840658962727" lon="8.217339087277651">
        <ele>2323.8899999999999</ele>
        <time>2022-01-30T12:29:04Z</time>
      </trkpt>
      <trkpt lat="46.288847783580422" lon="8.217346044257283">
        <ele>2323.7800000000002</ele>
        <time>2022-01-30T12:29:05Z</time>
      </trkpt>
      <trkpt lat="46.288871085271239" lon="8.217370687052608">
        <ele>2323.3800000000001</ele>
        <time>2022-01-30T12:29:08Z</time>
      </trkpt>
      <trkpt lat="46.288970159366727" lon="8.217475460842252">
        <ele>2321.8899999999999</ele>
        <time>2022-01-30T12:29:20Z</time>
      </trkpt>
      <trkpt lat="46.289007291197777" lon="8.217518962919712">
        <ele>2321.5599999999999</ele>
        <time>2022-01-30T12:29:25Z</time>
      </trkpt>
      <trkpt lat="46.28902112133801" lon="8.217533547431231">
        <ele>2321.3600000000001</ele>
        <time>2022-01-30T12:29:27Z</time>
      </trkpt>
      <trkpt lat="46.289112232625484" lon="8.217606050893664">
        <ele>2320.8899999999999</ele>
        <time>2022-01-30T12:29:36Z</time>
      </trkpt>
      <trkpt lat="46.289179120212793" lon="8.217671597376466">
        <ele>2319.5799999999999</ele>
        <time>2022-01-30T12:29:44Z</time>
      </trkpt>
      <trkpt lat="46.289230585098267" lon="8.217744017019868">
        <ele>2318.1300000000001</ele>
        <time>2022-01-30T12:29:51Z</time>
      </trkpt>
      <trkpt lat="46.289249779656529" lon="8.217756422236562">
        <ele>2317.8899999999999</ele>
        <time>2022-01-30T12:29:53Z</time>
      </trkpt>
      <trkpt lat="46.28932605497539" lon="8.217831021174789">
        <ele>2317.4699999999998</ele>
        <time>2022-01-30T12:30:01Z</time>
      </trkpt>
      <trkpt lat="46.289418088272214" lon="8.217903440818191">
        <ele>2317.3000000000002</ele>
        <time>2022-01-30T12:30:11Z</time>
      </trkpt>
      <trkpt lat="46.289487322792411" lon="8.217975357547402">
        <ele>2317.2399999999998</ele>
        <time>2022-01-30T12:30:19Z</time>
      </trkpt>
      <trkpt lat="46.289564520120621" lon="8.218072671443224">
        <ele>2315.8400000000001</ele>
        <time>2022-01-30T12:30:29Z</time>
      </trkpt>
      <trkpt lat="46.289623444899917" lon="8.21813452988863">
        <ele>2314.1700000000001</ele>
        <time>2022-01-30T12:30:36Z</time>
      </trkpt>
      <trkpt lat="46.289676586166024" lon="8.218178534880281">
        <ele>2313.29</ele>
        <time>2022-01-30T12:30:42Z</time>
      </trkpt>
      <trkpt lat="46.289702737703919" lon="8.218197645619512">
        <ele>2313.02</ele>
        <time>2022-01-30T12:30:45Z</time>
      </trkpt>
      <trkpt lat="46.289774654433131" lon="8.21825816296041">
        <ele>2312.96</ele>
        <time>2022-01-30T12:30:53Z</time>
      </trkpt>
      <trkpt lat="46.28984103910625" lon="8.218318093568087">
        <ele>2312.2800000000002</ele>
        <time>2022-01-30T12:31:01Z</time>
      </trkpt>
      <trkpt lat="46.289894934743643" lon="8.218367965891957">
        <ele>2310.8600000000001</ele>
        <time>2022-01-30T12:31:08Z</time>
      </trkpt>
      <trkpt lat="46.289943046867847" lon="8.218406271189451">
        <ele>2308.9200000000001</ele>
        <time>2022-01-30T12:31:15Z</time>
      </trkpt>
      <trkpt lat="46.289951093494892" lon="8.218421274796128">
        <ele>2308.2600000000002</ele>
        <time>2022-01-30T12:31:17Z</time>
      </trkpt>
      <trkpt lat="46.289970288053155" lon="8.218445079401135">
        <ele>2307.2800000000002</ele>
        <time>2022-01-30T12:31:20Z</time>
      </trkpt>
      <trkpt lat="46.290026698261499" lon="8.218484725803137">
        <ele>2306.2199999999998</ele>
        <time>2022-01-30T12:31:27Z</time>
      </trkpt>
      <trkpt lat="46.290083024650812" lon="8.218472572043538">
        <ele>2305.8699999999999</ele>
        <time>2022-01-30T12:31:35Z</time>
      </trkpt>
      <trkpt lat="46.290100626647472" lon="8.218481373041868">
        <ele>2305.54</ele>
        <time>2022-01-30T12:31:48Z</time>
      </trkpt>
      <trkpt lat="46.290108421817422" lon="8.218460083007813">
        <ele>2305.23</ele>
        <time>2022-01-30T12:32:15Z</time>
      </trkpt>
      <trkpt lat="46.290110936388373" lon="8.218458825722337">
        <ele>2305.8200000000002</ele>
        <time>2022-01-30T12:32:29Z</time>
      </trkpt>
      <trkpt lat="46.290111187845469" lon="8.21845849044621">
        <ele>2306.0500000000002</ele>
        <time>2022-01-30T12:32:46Z</time>
      </trkpt>
      <trkpt lat="46.290122671052814" lon="8.218457233160734">
        <ele>2306.0500000000002</ele>
        <time>2022-01-30T12:33:08Z</time>
      </trkpt>
      <trkpt lat="46.290118144825101" lon="8.218460418283939">
        <ele>2309.4400000000001</ele>
        <time>2022-01-30T12:33:34Z</time>
      </trkpt>
      <trkpt lat="46.290118144825101" lon="8.218459747731686">
        <ele>2309.1900000000001</ele>
        <time>2022-01-30T12:33:35Z</time>
      </trkpt>
      <trkpt lat="46.290117055177689" lon="8.218459244817495">
        <ele>2306.1900000000001</ele>
        <time>2022-01-30T12:33:50Z</time>
      </trkpt>
      <trkpt lat="46.29011713899672" lon="8.218463435769081">
        <ele>2306.4299999999998</ele>
        <time>2022-01-30T12:34:06Z</time>
      </trkpt>
      <trkpt lat="46.290138261392713" lon="8.218454467132688">
        <ele>2307.0599999999999</ele>
        <time>2022-01-30T12:34:17Z</time>
      </trkpt>
      <trkpt lat="46.290158377960324" lon="8.218455472961068">
        <ele>2307.2199999999998</ele>
        <time>2022-01-30T12:34:25Z</time>
      </trkpt>
      <trkpt lat="46.290164245292544" lon="8.218457652255893">
        <ele>2306.3499999999999</ele>
        <time>2022-01-30T12:36:14Z</time>
      </trkpt>
      <trkpt lat="46.290164580568671" lon="8.218461172655225">
        <ele>2306.6399999999999</ele>
        <time>2022-01-30T12:36:28Z</time>
      </trkpt>
      <trkpt lat="46.290167095139623" lon="8.218452790752053">
        <ele>2306.8099999999999</ele>
        <time>2022-01-30T12:36:45Z</time>
      </trkpt>
      <trkpt lat="46.290166927501559" lon="8.218454634770751">
        <ele>2306.8099999999999</ele>
        <time>2022-01-30T12:37:00Z</time>
      </trkpt>
      <trkpt lat="46.290165251120925" lon="8.218456981703639">
        <ele>2306.8099999999999</ele>
        <time>2022-01-30T12:37:30Z</time>
      </trkpt>
      <trkpt lat="46.290180338546634" lon="8.218492772430182">
        <ele>2306.8099999999999</ele>
        <time>2022-01-30T12:37:49Z</time>
      </trkpt>
      <trkpt lat="46.290212525054812" lon="8.218525042757392">
        <ele>2306.8099999999999</ele>
        <time>2022-01-30T12:37:54Z</time>
      </trkpt>
      <trkpt lat="46.290262816473842" lon="8.218577597290278">
        <ele>2306.8099999999999</ele>
        <time>2022-01-30T12:38:01Z</time>
      </trkpt>
      <trkpt lat="46.290344623848796" lon="8.218657141551375">
        <ele>2307.5</ele>
        <time>2022-01-30T12:38:10Z</time>
      </trkpt>
      <trkpt lat="46.290414528921247" lon="8.218736434355378">
        <ele>2307.5999999999999</ele>
        <time>2022-01-30T12:38:20Z</time>
      </trkpt>
      <trkpt lat="46.290482673794031" lon="8.218806590884924">
        <ele>2307.4499999999998</ele>
        <time>2022-01-30T12:38:29Z</time>
      </trkpt>
      <trkpt lat="46.290544280782342" lon="8.218861827626824">
        <ele>2306.9299999999998</ele>
        <time>2022-01-30T12:38:37Z</time>
      </trkpt>
      <trkpt lat="46.290603624656796" lon="8.21890071965754">
        <ele>2306.4400000000001</ele>
        <time>2022-01-30T12:38:44Z</time>
      </trkpt>
      <trkpt lat="46.290654754266143" lon="8.218948664143682">
        <ele>2306.3600000000001</ele>
        <time>2022-01-30T12:38:51Z</time>
      </trkpt>
      <trkpt lat="46.29069859161973" lon="8.219004152342677">
        <ele>2306.5500000000002</ele>
        <time>2022-01-30T12:38:58Z</time>
      </trkpt>
      <trkpt lat="46.290746871381998" lon="8.21906584315002">
        <ele>2306.8400000000001</ele>
        <time>2022-01-30T12:39:06Z</time>
      </trkpt>
      <trkpt lat="46.290816189721227" lon="8.219142034649849">
        <ele>2306.9899999999998</ele>
        <time>2022-01-30T12:39:15Z</time>
      </trkpt>
      <trkpt lat="46.29083689302206" lon="8.219170030206442">
        <ele>2306.96</ele>
        <time>2022-01-30T12:39:18Z</time>
      </trkpt>
      <trkpt lat="46.290923980996013" lon="8.219270696863532">
        <ele>2306.8200000000002</ele>
        <time>2022-01-30T12:39:29Z</time>
      </trkpt>
      <trkpt lat="46.291003357619047" lon="8.219362059608102">
        <ele>2306.3299999999999</ele>
        <time>2022-01-30T12:39:39Z</time>
      </trkpt>
      <trkpt lat="46.29104845225811" lon="8.219439424574375">
        <ele>2305.4499999999998</ele>
        <time>2022-01-30T12:39:47Z</time>
      </trkpt>
      <trkpt lat="46.291137216612697" lon="8.219521064311266">
        <ele>2304.54</ele>
        <time>2022-01-30T12:39:57Z</time>
      </trkpt>
      <trkpt lat="46.291212486103177" lon="8.2195935677737">
        <ele>2304.0900000000001</ele>
        <time>2022-01-30T12:40:05Z</time>
      </trkpt>
      <trkpt lat="46.29128398373723" lon="8.219664478674531">
        <ele>2302.9400000000001</ele>
        <time>2022-01-30T12:40:13Z</time>
      </trkpt>
      <trkpt lat="46.29136604256928" lon="8.219757433980703">
        <ele>2301.75</ele>
        <time>2022-01-30T12:40:23Z</time>
      </trkpt>
      <trkpt lat="46.291437121108174" lon="8.219859441742301">
        <ele>2300.23</ele>
        <time>2022-01-30T12:40:32Z</time>
      </trkpt>
      <trkpt lat="46.291506439447403" lon="8.219955582171679">
        <ele>2298.3299999999999</ele>
        <time>2022-01-30T12:40:40Z</time>
      </trkpt>
      <trkpt lat="46.291513899341226" lon="8.219963628798723">
        <ele>2298.1100000000001</ele>
        <time>2022-01-30T12:40:41Z</time>
      </trkpt>
      <trkpt lat="46.29156687296927" lon="8.220038982108235">
        <ele>2294.8299999999999</ele>
        <time>2022-01-30T12:40:50Z</time>
      </trkpt>
      <trkpt lat="46.291573327034712" lon="8.220045352354646">
        <ele>2294.4899999999998</ele>
        <time>2022-01-30T12:40:51Z</time>
      </trkpt>
      <trkpt lat="46.291599981486797" lon="8.220087680965662">
        <ele>2293.4400000000001</ele>
        <time>2022-01-30T12:40:55Z</time>
      </trkpt>
      <trkpt lat="46.291673071682453" lon="8.220234448090196">
        <ele>2292.6199999999999</ele>
        <time>2022-01-30T12:41:07Z</time>
      </trkpt>
      <trkpt lat="46.291679525747895" lon="8.220244254916906">
        <ele>2292.5300000000002</ele>
        <time>2022-01-30T12:41:08Z</time>
      </trkpt>
      <trkpt lat="46.291755717247725" lon="8.220337545499206">
        <ele>2291.3299999999999</ele>
        <time>2022-01-30T12:41:17Z</time>
      </trkpt>
      <trkpt lat="46.291822772473097" lon="8.22039982303977">
        <ele>2290.8800000000001</ele>
        <time>2022-01-30T12:41:25Z</time>
      </trkpt>
      <trkpt lat="46.291903490200639" lon="8.220489677041769">
        <ele>2290.1900000000001</ele>
        <time>2022-01-30T12:41:34Z</time>
      </trkpt>
      <trkpt lat="46.291913297027349" lon="8.220496634021401">
        <ele>2290.1700000000001</ele>
        <time>2022-01-30T12:41:35Z</time>
      </trkpt>
      <trkpt lat="46.291990075260401" lon="8.220552457496524">
        <ele>2289.77</ele>
        <time>2022-01-30T12:41:43Z</time>
      </trkpt>
      <trkpt lat="46.292054364457726" lon="8.220628229901195">
        <ele>2288.3800000000001</ele>
        <time>2022-01-30T12:41:52Z</time>
      </trkpt>
      <trkpt lat="46.292079091072083" lon="8.22068564593792">
        <ele>2287.1700000000001</ele>
        <time>2022-01-30T12:41:57Z</time>
      </trkpt>
      <trkpt lat="46.292116725817323" lon="8.220775499939919">
        <ele>2286.2199999999998</ele>
        <time>2022-01-30T12:42:05Z</time>
      </trkpt>
      <trkpt lat="46.292197778820992" lon="8.220850769430399">
        <ele>2285.0700000000002</ele>
        <time>2022-01-30T12:42:14Z</time>
      </trkpt>
      <trkpt lat="46.292278999462724" lon="8.220936181023717">
        <ele>2282.96</ele>
        <time>2022-01-30T12:42:24Z</time>
      </trkpt>
      <trkpt lat="46.292348653078079" lon="8.220975492149591">
        <ele>2279.5599999999999</ele>
        <time>2022-01-30T12:42:32Z</time>
      </trkpt>
      <trkpt lat="46.292398693040013" lon="8.220996782183647">
        <ele>2276.0900000000001</ele>
        <time>2022-01-30T12:42:38Z</time>
      </trkpt>
      <trkpt lat="46.292477734386921" lon="8.221038859337568">
        <ele>2272.98</ele>
        <time>2022-01-30T12:42:46Z</time>
      </trkpt>
      <trkpt lat="46.292559541761875" lon="8.221099963411689">
        <ele>2273.29</ele>
        <time>2022-01-30T12:42:55Z</time>
      </trkpt>
      <trkpt lat="46.292624920606613" lon="8.221175484359264">
        <ele>2274</ele>
        <time>2022-01-30T12:43:04Z</time>
      </trkpt>
      <trkpt lat="46.29270245321095" lon="8.22120456956327">
        <ele>2274.6700000000001</ele>
        <time>2022-01-30T12:43:13Z</time>
      </trkpt>
      <trkpt lat="46.292773280292749" lon="8.221248155459762">
        <ele>2273.4899999999998</ele>
        <time>2022-01-30T12:43:22Z</time>
      </trkpt>
      <trkpt lat="46.292842430993915" lon="8.221327867358923">
        <ele>2272.5900000000001</ele>
        <time>2022-01-30T12:43:30Z</time>
      </trkpt>
      <trkpt lat="46.292918622493744" lon="8.221429288387299">
        <ele>2272.29</ele>
        <time>2022-01-30T12:43:40Z</time>
      </trkpt>
      <trkpt lat="46.293010991066694" lon="8.221555184572935">
        <ele>2271.5999999999999</ele>
        <time>2022-01-30T12:43:51Z</time>
      </trkpt>
      <trkpt lat="46.293048961088061" lon="8.221590975299478">
        <ele>2271.25</ele>
        <time>2022-01-30T12:43:55Z</time>
      </trkpt>
      <trkpt lat="46.293123392388225" lon="8.221702873706818">
        <ele>2270.6900000000001</ele>
        <time>2022-01-30T12:44:05Z</time>
      </trkpt>
      <trkpt lat="46.293155495077372" lon="8.221770767122507">
        <ele>2270.3200000000002</ele>
        <time>2022-01-30T12:44:10Z</time>
      </trkpt>
      <trkpt lat="46.293156752362847" lon="8.221815777942538">
        <ele>2269.6900000000001</ele>
        <time>2022-01-30T12:44:13Z</time>
      </trkpt>
      <trkpt lat="46.293215844780207" lon="8.221908062696457">
        <ele>2269.04</ele>
        <time>2022-01-30T12:44:21Z</time>
      </trkpt>
      <trkpt lat="46.293270662426949" lon="8.221974698826671">
        <ele>2267.77</ele>
        <time>2022-01-30T12:44:28Z</time>
      </trkpt>
      <trkpt lat="46.293327827006578" lon="8.222069917246699">
        <ele>2266.7199999999998</ele>
        <time>2022-01-30T12:44:37Z</time>
      </trkpt>
      <trkpt lat="46.293405862525105" lon="8.222119873389602">
        <ele>2265.5900000000001</ele>
        <time>2022-01-30T12:44:46Z</time>
      </trkpt>
      <trkpt lat="46.293464032933116" lon="8.222153736278415">
        <ele>2263.5999999999999</ele>
        <time>2022-01-30T12:44:54Z</time>
      </trkpt>
      <trkpt lat="46.293515330180526" lon="8.222194220870733">
        <ele>2262.8299999999999</ele>
        <time>2022-01-30T12:45:00Z</time>
      </trkpt>
      <trkpt lat="46.293590348213911" lon="8.222321877256036">
        <ele>2261.2600000000002</ele>
        <time>2022-01-30T12:45:11Z</time>
      </trkpt>
      <trkpt lat="46.293624294921756" lon="8.222395554184914">
        <ele>2260.9000000000001</ele>
        <time>2022-01-30T12:45:17Z</time>
      </trkpt>
      <trkpt lat="46.293648183345795" lon="8.222430841997266">
        <ele>2260.8400000000001</ele>
        <time>2022-01-30T12:45:20Z</time>
      </trkpt>
      <trkpt lat="46.293659331277013" lon="8.222445091232657">
        <ele>2260.8400000000001</ele>
        <time>2022-01-30T12:45:22Z</time>
      </trkpt>
      <trkpt lat="46.29371683113277" lon="8.222492197528482">
        <ele>2261.0100000000002</ele>
        <time>2022-01-30T12:45:29Z</time>
      </trkpt>
      <trkpt lat="46.293745161965489" lon="8.222521366551518">
        <ele>2261.23</ele>
        <time>2022-01-30T12:45:33Z</time>
      </trkpt>
      <trkpt lat="46.293810792267323" lon="8.222581632435322">
        <ele>2261.4000000000001</ele>
        <time>2022-01-30T12:45:43Z</time>
      </trkpt>
      <trkpt lat="46.293848259374499" lon="8.222621446475387">
        <ele>2261.04</ele>
        <time>2022-01-30T12:45:50Z</time>
      </trkpt>
      <trkpt lat="46.293846918269992" lon="8.222626643255353">
        <ele>2260.0799999999999</ele>
        <time>2022-01-30T12:46:08Z</time>
      </trkpt>
      <trkpt lat="46.293860748410225" lon="8.222642820328474">
        <ele>2259.3200000000002</ele>
        <time>2022-01-30T12:46:37Z</time>
      </trkpt>
      <trkpt lat="46.293901484459639" lon="8.222667127847672">
        <ele>2259.3800000000001</ele>
        <time>2022-01-30T12:46:45Z</time>
      </trkpt>
      <trkpt lat="46.293924283236265" lon="8.222686070948839">
        <ele>2259.5900000000001</ele>
        <time>2022-01-30T12:46:51Z</time>
      </trkpt>
      <trkpt lat="46.293943058699369" lon="8.222695291042328">
        <ele>2259.6300000000001</ele>
        <time>2022-01-30T12:46:54Z</time>
      </trkpt>
      <trkpt lat="46.293984968215227" lon="8.222723370417953">
        <ele>2259.8699999999999</ele>
        <time>2022-01-30T12:47:01Z</time>
      </trkpt>
      <trkpt lat="46.293998965993524" lon="8.222730243578553">
        <ele>2259.98</ele>
        <time>2022-01-30T12:47:03Z</time>
      </trkpt>
      <trkpt lat="46.294044395908713" lon="8.222757149487734">
        <ele>2260.3299999999999</ele>
        <time>2022-01-30T12:47:08Z</time>
      </trkpt>
      <trkpt lat="46.294113546609879" lon="8.222800651565194">
        <ele>2260.6399999999999</ele>
        <time>2022-01-30T12:47:17Z</time>
      </trkpt>
      <trkpt lat="46.294218739494681" lon="8.222835687920451">
        <ele>2261.0599999999999</ele>
        <time>2022-01-30T12:47:26Z</time>
      </trkpt>
      <trkpt lat="46.29428755491972" lon="8.222852535545826">
        <ele>2259.7600000000002</ele>
        <time>2022-01-30T12:47:33Z</time>
      </trkpt>
      <trkpt lat="46.294364836066961" lon="8.222878351807594">
        <ele>2258.4200000000001</ele>
        <time>2022-01-30T12:47:41Z</time>
      </trkpt>
      <trkpt lat="46.294414456933737" lon="8.222906347364187">
        <ele>2257.8099999999999</ele>
        <time>2022-01-30T12:47:46Z</time>
      </trkpt>
      <trkpt lat="46.294425521045923" lon="8.222910538315773">
        <ele>2257.5</ele>
        <time>2022-01-30T12:47:47Z</time>
      </trkpt>
      <trkpt lat="46.294437842443585" lon="8.222913220524788">
        <ele>2257.4000000000001</ele>
        <time>2022-01-30T12:47:48Z</time>
      </trkpt>
      <trkpt lat="46.294537084177136" lon="8.222894025966525">
        <ele>2256.6100000000001</ele>
        <time>2022-01-30T12:47:57Z</time>
      </trkpt>
      <trkpt lat="46.294546639546752" lon="8.222889332100749">
        <ele>2256.52</ele>
        <time>2022-01-30T12:47:58Z</time>
      </trkpt>
      <trkpt lat="46.294555021449924" lon="8.22288304567337">
        <ele>2256.4499999999998</ele>
        <time>2022-01-30T12:47:59Z</time>
      </trkpt>
      <trkpt lat="46.294564576819539" lon="8.222874328494072">
        <ele>2256.3299999999999</ele>
        <time>2022-01-30T12:48:00Z</time>
      </trkpt>
      <trkpt lat="46.294661052525043" lon="8.222817666828632">
        <ele>2255.9200000000001</ele>
        <time>2022-01-30T12:48:08Z</time>
      </trkpt>
      <trkpt lat="46.294759539887309" lon="8.222752455621958">
        <ele>2255.3000000000002</ele>
        <time>2022-01-30T12:48:18Z</time>
      </trkpt>
      <trkpt lat="46.294860122725368" lon="8.222680874168873">
        <ele>2255.9400000000001</ele>
        <time>2022-01-30T12:48:28Z</time>
      </trkpt>
      <trkpt lat="46.294934889301658" lon="8.222654638811946">
        <ele>2256.6399999999999</ele>
        <time>2022-01-30T12:48:35Z</time>
      </trkpt>
      <trkpt lat="46.295022983103991" lon="8.222653968259692">
        <ele>2256.46</ele>
        <time>2022-01-30T12:48:43Z</time>
      </trkpt>
      <trkpt lat="46.295114764943719" lon="8.222663439810276">
        <ele>2257.79</ele>
        <time>2022-01-30T12:48:52Z</time>
      </trkpt>
      <trkpt lat="46.29515097476542" lon="8.222670145332813">
        <ele>2257.79</ele>
        <time>2022-01-30T12:48:56Z</time>
      </trkpt>
      <trkpt lat="46.29517737776041" lon="8.222685651853681">
        <ele>2256.9899999999998</ele>
        <time>2022-01-30T12:48:59Z</time>
      </trkpt>
      <trkpt lat="46.295253317803144" lon="8.222708953544498">
        <ele>2254.7800000000002</ele>
        <time>2022-01-30T12:49:07Z</time>
      </trkpt>
      <trkpt lat="46.295267986133695" lon="8.222711216658354">
        <ele>2254.3299999999999</ele>
        <time>2022-01-30T12:49:09Z</time>
      </trkpt>
      <trkpt lat="46.295275781303644" lon="8.222714737057686">
        <ele>2254.1100000000001</ele>
        <time>2022-01-30T12:49:10Z</time>
      </trkpt>
      <trkpt lat="46.29528533667326" lon="8.222719430923462">
        <ele>2253.9299999999998</ele>
        <time>2022-01-30T12:49:11Z</time>
      </trkpt>
      <trkpt lat="46.295318529009819" lon="8.222733847796917">
        <ele>2253.0900000000001</ele>
        <time>2022-01-30T12:49:15Z</time>
      </trkpt>
      <trkpt lat="46.295340741053224" lon="8.222738541662693">
        <ele>2252.6199999999999</ele>
        <time>2022-01-30T12:49:17Z</time>
      </trkpt>
      <trkpt lat="46.295417519286275" lon="8.222753126174212">
        <ele>2250.7399999999998</ele>
        <time>2022-01-30T12:49:24Z</time>
      </trkpt>
      <trkpt lat="46.295490274205804" lon="8.222778690978885">
        <ele>2249.1799999999998</ele>
        <time>2022-01-30T12:49:32Z</time>
      </trkpt>
      <trkpt lat="46.295577865093946" lon="8.222792940214276">
        <ele>2247.6300000000001</ele>
        <time>2022-01-30T12:49:39Z</time>
      </trkpt>
      <trkpt lat="46.295589851215482" lon="8.222795873880386">
        <ele>2247.4899999999998</ele>
        <time>2022-01-30T12:49:40Z</time>
      </trkpt>
      <trkpt lat="46.295609716325998" lon="8.222803333774209">
        <ele>2247.0700000000002</ele>
        <time>2022-01-30T12:49:42Z</time>
      </trkpt>
      <trkpt lat="46.295617260038853" lon="8.222808446735144">
        <ele>2246.8099999999999</ele>
        <time>2022-01-30T12:49:43Z</time>
      </trkpt>
      <trkpt lat="46.295627066865563" lon="8.222813559696078">
        <ele>2246.5599999999999</ele>
        <time>2022-01-30T12:49:44Z</time>
      </trkpt>
      <trkpt lat="46.29571876488626" lon="8.222840130329132">
        <ele>2244.8299999999999</ele>
        <time>2022-01-30T12:49:53Z</time>
      </trkpt>
      <trkpt lat="46.295748688280582" lon="8.222848763689399">
        <ele>2244.25</ele>
        <time>2022-01-30T12:49:56Z</time>
      </trkpt>
      <trkpt lat="46.295756064355373" lon="8.222853038460016">
        <ele>2244.0700000000002</ele>
        <time>2022-01-30T12:49:57Z</time>
      </trkpt>
      <trkpt lat="46.295764362439513" lon="8.222857061773539">
        <ele>2243.8000000000002</ele>
        <time>2022-01-30T12:49:58Z</time>
      </trkpt>
      <trkpt lat="46.295774169266224" lon="8.222861588001251">
        <ele>2243.3200000000002</ele>
        <time>2022-01-30T12:49:59Z</time>
      </trkpt>
      <trkpt lat="46.295784981921315" lon="8.222865024581552">
        <ele>2243.1700000000001</ele>
        <time>2022-01-30T12:50:00Z</time>
      </trkpt>
      <trkpt lat="46.295877518132329" lon="8.222929481416941">
        <ele>2242.2399999999998</ele>
        <time>2022-01-30T12:50:09Z</time>
      </trkpt>
      <trkpt lat="46.29595723003149" lon="8.223001984879375">
        <ele>2241.71</ele>
        <time>2022-01-30T12:50:17Z</time>
      </trkpt>
      <trkpt lat="46.295966953039169" lon="8.223009696230292">
        <ele>2241.7399999999998</ele>
        <time>2022-01-30T12:50:18Z</time>
      </trkpt>
      <trkpt lat="46.295975921675563" lon="8.223018916323781">
        <ele>2241.8099999999999</ele>
        <time>2022-01-30T12:50:19Z</time>
      </trkpt>
      <trkpt lat="46.295983465388417" lon="8.223030734807253">
        <ele>2241.9200000000001</ele>
        <time>2022-01-30T12:50:20Z</time>
      </trkpt>
      <trkpt lat="46.295990757644176" lon="8.223041463643313">
        <ele>2242.02</ele>
        <time>2022-01-30T12:50:21Z</time>
      </trkpt>
      <trkpt lat="46.296042054891586" lon="8.223137939348817">
        <ele>2240.8600000000001</ele>
        <time>2022-01-30T12:50:29Z</time>
      </trkpt>
      <trkpt lat="46.296053621917963" lon="8.223149171099067">
        <ele>2240.5500000000002</ele>
        <time>2022-01-30T12:50:30Z</time>
      </trkpt>
      <trkpt lat="46.296081366017461" lon="8.223178340122104">
        <ele>2239.5900000000001</ele>
        <time>2022-01-30T12:50:33Z</time>
      </trkpt>
      <trkpt lat="46.296086898073554" lon="8.223190326243639">
        <ele>2238.9699999999998</ele>
        <time>2022-01-30T12:50:34Z</time>
      </trkpt>
      <trkpt lat="46.296102069318295" lon="8.223225949332118">
        <ele>2238.0799999999999</ele>
        <time>2022-01-30T12:50:37Z</time>
      </trkpt>
      <trkpt lat="46.296123443171382" lon="8.223271127790213">
        <ele>2237.1300000000001</ele>
        <time>2022-01-30T12:50:41Z</time>
      </trkpt>
      <trkpt lat="46.296159066259861" lon="8.223392916843295">
        <ele>2236.2600000000002</ele>
        <time>2022-01-30T12:50:50Z</time>
      </trkpt>
      <trkpt lat="46.296193180605769" lon="8.223484279587865">
        <ele>2236.1700000000001</ele>
        <time>2022-01-30T12:50:58Z</time>
      </trkpt>
      <trkpt lat="46.296225786209106" lon="8.223555944859982">
        <ele>2236.3899999999999</ele>
        <time>2022-01-30T12:51:06Z</time>
      </trkpt>
      <trkpt lat="46.296237772330642" lon="8.223582347854972">
        <ele>2236.4400000000001</ele>
        <time>2022-01-30T12:51:08Z</time>
      </trkpt>
      <trkpt lat="46.296316981315613" lon="8.22367362678051">
        <ele>2236.6900000000001</ele>
        <time>2022-01-30T12:51:17Z</time>
      </trkpt>
      <trkpt lat="46.296377331018448" lon="8.223759289830923">
        <ele>2236.5500000000002</ele>
        <time>2022-01-30T12:51:26Z</time>
      </trkpt>
      <trkpt lat="46.296445056796074" lon="8.223864734172821">
        <ele>2235.3600000000001</ele>
        <time>2022-01-30T12:51:36Z</time>
      </trkpt>
      <trkpt lat="46.296498030424118" lon="8.223958779126406">
        <ele>2234.8400000000001</ele>
        <time>2022-01-30T12:51:45Z</time>
      </trkpt>
      <trkpt lat="46.296546394005418" lon="8.224054332822561">
        <ele>2234.46</ele>
        <time>2022-01-30T12:51:53Z</time>
      </trkpt>
      <trkpt lat="46.296590734273195" lon="8.22412365116179">
        <ele>2234.3600000000001</ele>
        <time>2022-01-30T12:52:00Z</time>
      </trkpt>
      <trkpt lat="46.296633398160338" lon="8.224236890673637">
        <ele>2233.9499999999998</ele>
        <time>2022-01-30T12:52:10Z</time>
      </trkpt>
      <trkpt lat="46.296679582446814" lon="8.2243596855551">
        <ele>2232.6999999999998</ele>
        <time>2022-01-30T12:52:20Z</time>
      </trkpt>
      <trkpt lat="46.296697435900569" lon="8.224420873448253">
        <ele>2232.3699999999999</ele>
        <time>2022-01-30T12:52:26Z</time>
      </trkpt>
      <trkpt lat="46.296722162514925" lon="8.224477618932724">
        <ele>2231.6500000000001</ele>
        <time>2022-01-30T12:52:33Z</time>
      </trkpt>
      <trkpt lat="46.296751331537962" lon="8.224532939493656">
        <ele>2230.9699999999998</ele>
        <time>2022-01-30T12:52:42Z</time>
      </trkpt>
      <trkpt lat="46.296765161678195" lon="8.224564120173454">
        <ele>2231.04</ele>
        <time>2022-01-30T12:53:07Z</time>
      </trkpt>
      <trkpt lat="46.296795252710581" lon="8.224635533988476">
        <ele>2231.9299999999998</ele>
        <time>2022-01-30T12:53:14Z</time>
      </trkpt>
      <trkpt lat="46.296801874414086" lon="8.224644837900996">
        <ele>2231.9899999999998</ele>
        <time>2022-01-30T12:53:15Z</time>
      </trkpt>
      <trkpt lat="46.296809585765004" lon="8.224653555080295">
        <ele>2232.0799999999999</ele>
        <time>2022-01-30T12:53:16Z</time>
      </trkpt>
      <trkpt lat="46.296816123649478" lon="8.224661853164434">
        <ele>2232.23</ele>
        <time>2022-01-30T12:53:17Z</time>
      </trkpt>
      <trkpt lat="46.296875635161996" lon="8.224722454324365">
        <ele>2232.5100000000002</ele>
        <time>2022-01-30T12:53:25Z</time>
      </trkpt>
      <trkpt lat="46.296911258250475" lon="8.224764950573444">
        <ele>2232.5300000000002</ele>
        <time>2022-01-30T12:53:32Z</time>
      </trkpt>
      <trkpt lat="46.296953167766333" lon="8.224811721593142">
        <ele>2232.4299999999998</ele>
        <time>2022-01-30T12:53:40Z</time>
      </trkpt>
      <trkpt lat="46.297010751441121" lon="8.224917249754071">
        <ele>2231.27</ele>
        <time>2022-01-30T12:53:49Z</time>
      </trkpt>
      <trkpt lat="46.297082668170333" lon="8.225010288879275">
        <ele>2230.9499999999998</ele>
        <time>2022-01-30T12:53:57Z</time>
      </trkpt>
      <trkpt lat="46.297090128064156" lon="8.225051695480943">
        <ele>2231.0799999999999</ele>
        <time>2022-01-30T12:54:00Z</time>
      </trkpt>
      <trkpt lat="46.297094570472836" lon="8.225061753764749">
        <ele>2231.0599999999999</ele>
        <time>2022-01-30T12:54:01Z</time>
      </trkpt>
      <trkpt lat="46.297098929062486" lon="8.225072985514998">
        <ele>2231</ele>
        <time>2022-01-30T12:54:02Z</time>
      </trkpt>
      <trkpt lat="46.297145951539278" lon="8.225219333544374">
        <ele>2229.8200000000002</ele>
        <time>2022-01-30T12:54:13Z</time>
      </trkpt>
      <trkpt lat="46.29718123935163" lon="8.225339278578758">
        <ele>2228.9400000000001</ele>
        <time>2022-01-30T12:54:22Z</time>
      </trkpt>
      <trkpt lat="46.29721543751657" lon="8.225410524755716">
        <ele>2228.3600000000001</ele>
        <time>2022-01-30T12:54:30Z</time>
      </trkpt>
      <trkpt lat="46.297222562134266" lon="8.225416475906968">
        <ele>2228.1900000000001</ele>
        <time>2022-01-30T12:54:31Z</time>
      </trkpt>
      <trkpt lat="46.297313841059804" lon="8.225502641871572">
        <ele>2226.1900000000001</ele>
        <time>2022-01-30T12:54:41Z</time>
      </trkpt>
      <trkpt lat="46.297394055873156" lon="8.225587550550699">
        <ele>2225.6900000000001</ele>
        <time>2022-01-30T12:54:50Z</time>
      </trkpt>
      <trkpt lat="46.297482317313552" lon="8.225645385682583">
        <ele>2225.3400000000001</ele>
        <time>2022-01-30T12:54:58Z</time>
      </trkpt>
      <trkpt lat="46.297563537955284" lon="8.225711435079575">
        <ele>2225.4299999999998</ele>
        <time>2022-01-30T12:55:07Z</time>
      </trkpt>
      <trkpt lat="46.297656744718552" lon="8.225822327658534">
        <ele>2226.7600000000002</ele>
        <time>2022-01-30T12:55:18Z</time>
      </trkpt>
      <trkpt lat="46.297740144655108" lon="8.22592718526721">
        <ele>2225.4400000000001</ele>
        <time>2022-01-30T12:55:28Z</time>
      </trkpt>
      <trkpt lat="46.297805523499846" lon="8.22602542117238">
        <ele>2224.0900000000001</ele>
        <time>2022-01-30T12:55:37Z</time>
      </trkpt>
      <trkpt lat="46.297827987000346" lon="8.226086189970374">
        <ele>2223.4400000000001</ele>
        <time>2022-01-30T12:55:42Z</time>
      </trkpt>
      <trkpt lat="46.297829244285822" lon="8.226101780310273">
        <ele>2223.4200000000001</ele>
        <time>2022-01-30T12:55:43Z</time>
      </trkpt>
      <trkpt lat="46.297839973121881" lon="8.22614754550159">
        <ele>2223.2399999999998</ele>
        <time>2022-01-30T12:55:46Z</time>
      </trkpt>
      <trkpt lat="46.297845588997006" lon="8.226160621270537">
        <ele>2223.1700000000001</ele>
        <time>2022-01-30T12:55:47Z</time>
      </trkpt>
      <trkpt lat="46.297874338924885" lon="8.226284673437476">
        <ele>2221.75</ele>
        <time>2022-01-30T12:55:56Z</time>
      </trkpt>
      <trkpt lat="46.297867465764284" lon="8.226350974291563">
        <ele>2221.8000000000002</ele>
        <time>2022-01-30T12:56:00Z</time>
      </trkpt>
      <trkpt lat="46.297868639230728" lon="8.2264768704772">
        <ele>2221.3600000000001</ele>
        <time>2022-01-30T12:56:08Z</time>
      </trkpt>
      <trkpt lat="46.297888671979308" lon="8.226609975099564">
        <ele>2220.5599999999999</ele>
        <time>2022-01-30T12:56:17Z</time>
      </trkpt>
      <trkpt lat="46.297902837395668" lon="8.226700499653816">
        <ele>2219.7199999999998</ele>
        <time>2022-01-30T12:56:25Z</time>
      </trkpt>
      <trkpt lat="46.29790828563273" lon="8.226758250966668">
        <ele>2218.6900000000001</ele>
        <time>2022-01-30T12:56:34Z</time>
      </trkpt>
      <trkpt lat="46.297897892072797" lon="8.226788425818086">
        <ele>2219.0599999999999</ele>
        <time>2022-01-30T12:56:40Z</time>
      </trkpt>
      <trkpt lat="46.297881798818707" lon="8.226835448294878">
        <ele>2219.0999999999999</ele>
        <time>2022-01-30T12:56:44Z</time>
      </trkpt>
      <trkpt lat="46.29786578938365" lon="8.226890098303556">
        <ele>2218.8099999999999</ele>
        <time>2022-01-30T12:56:48Z</time>
      </trkpt>
      <trkpt lat="46.29786528646946" lon="8.226917674764991">
        <ele>2218.48</ele>
        <time>2022-01-30T12:56:50Z</time>
      </trkpt>
      <trkpt lat="46.29791172221303" lon="8.227011635899544">
        <ele>2218.48</ele>
        <time>2022-01-30T12:56:58Z</time>
      </trkpt>
      <trkpt lat="46.297943238168955" lon="8.227046839892864">
        <ele>2218.77</ele>
        <time>2022-01-30T12:57:02Z</time>
      </trkpt>
      <trkpt lat="46.298020435497165" lon="8.227115990594029">
        <ele>2219.1100000000001</ele>
        <time>2022-01-30T12:57:11Z</time>
      </trkpt>
      <trkpt lat="46.298090675845742" lon="8.227197043597698">
        <ele>2218.71</ele>
        <time>2022-01-30T12:57:20Z</time>
      </trkpt>
      <trkpt lat="46.298169381916523" lon="8.227309780195355">
        <ele>2217.52</ele>
        <time>2022-01-30T12:57:31Z</time>
      </trkpt>
      <trkpt lat="46.298209698870778" lon="8.227377841249108">
        <ele>2216.8000000000002</ele>
        <time>2022-01-30T12:57:38Z</time>
      </trkpt>
      <trkpt lat="46.298209531232715" lon="8.227395694702864">
        <ele>2216.7800000000002</ele>
        <time>2022-01-30T12:57:39Z</time>
      </trkpt>
      <trkpt lat="46.298204753547907" lon="8.227411368861795">
        <ele>2216.77</ele>
        <time>2022-01-30T12:57:40Z</time>
      </trkpt>
      <trkpt lat="46.298209531232715" lon="8.22749326005578">
        <ele>2216.4200000000001</ele>
        <time>2022-01-30T12:57:45Z</time>
      </trkpt>
      <trkpt lat="46.298210956156254" lon="8.22750885039568">
        <ele>2216.3600000000001</ele>
        <time>2022-01-30T12:57:46Z</time>
      </trkpt>
      <trkpt lat="46.298233084380627" lon="8.227651929482818">
        <ele>2215.2399999999998</ele>
        <time>2022-01-30T12:57:56Z</time>
      </trkpt>
      <trkpt lat="46.2982327491045" lon="8.22779668495059">
        <ele>2212.4000000000001</ele>
        <time>2022-01-30T12:58:06Z</time>
      </trkpt>
      <trkpt lat="46.298232581466436" lon="8.227813197299838">
        <ele>2212.1399999999999</ele>
        <time>2022-01-30T12:58:07Z</time>
      </trkpt>
      <trkpt lat="46.298232330009341" lon="8.227829374372959">
        <ele>2211.9299999999998</ele>
        <time>2022-01-30T12:58:08Z</time>
      </trkpt>
      <trkpt lat="46.298232078552246" lon="8.227843455970287">
        <ele>2211.8200000000002</ele>
        <time>2022-01-30T12:58:09Z</time>
      </trkpt>
      <trkpt lat="46.298238197341561" lon="8.227949235588312">
        <ele>2210.9299999999998</ele>
        <time>2022-01-30T12:58:17Z</time>
      </trkpt>
      <trkpt lat="46.298252446576953" lon="8.228091057389975">
        <ele>2210.1399999999999</ele>
        <time>2022-01-30T12:58:27Z</time>
      </trkpt>
      <trkpt lat="46.29830407910049" lon="8.22818904183805">
        <ele>2208.6999999999998</ele>
        <time>2022-01-30T12:58:36Z</time>
      </trkpt>
      <trkpt lat="46.298371637240052" lon="8.228255677968264">
        <ele>2207.0300000000002</ele>
        <time>2022-01-30T12:58:44Z</time>
      </trkpt>
      <trkpt lat="46.298444056883454" lon="8.228326924145222">
        <ele>2205.4299999999998</ele>
        <time>2022-01-30T12:58:53Z</time>
      </trkpt>
      <trkpt lat="46.298502646386623" lon="8.228407222777605">
        <ele>2202.3200000000002</ele>
        <time>2022-01-30T12:59:01Z</time>
      </trkpt>
      <trkpt lat="46.298553524538875" lon="8.228486934676766">
        <ele>2199.8499999999999</ele>
        <time>2022-01-30T12:59:10Z</time>
      </trkpt>
      <trkpt lat="46.298624267801642" lon="8.228500345721841">
        <ele>2197.6900000000001</ele>
        <time>2022-01-30T12:59:19Z</time>
      </trkpt>
      <trkpt lat="46.298690065741539" lon="8.228502860292792">
        <ele>2196.8600000000001</ele>
        <time>2022-01-30T12:59:28Z</time>
      </trkpt>
      <trkpt lat="46.298752594739199" lon="8.228572430089116">
        <ele>2195.21</ele>
        <time>2022-01-30T12:59:37Z</time>
      </trkpt>
      <trkpt lat="46.298818727955222" lon="8.228595396503806">
        <ele>2192.9299999999998</ele>
        <time>2022-01-30T12:59:46Z</time>
      </trkpt>
      <trkpt lat="46.29888947121799" lon="8.228610651567578">
        <ele>2190.4499999999998</ele>
        <time>2022-01-30T12:59:56Z</time>
      </trkpt>
      <trkpt lat="46.298952167853713" lon="8.2286112383008">
        <ele>2188.8299999999999</ele>
        <time>2022-01-30T13:00:04Z</time>
      </trkpt>
      <trkpt lat="46.298990976065397" lon="8.228672845289111">
        <ele>2186.27</ele>
        <time>2022-01-30T13:00:12Z</time>
      </trkpt>
      <trkpt lat="46.299036741256714" lon="8.228742834180594">
        <ele>2183.54</ele>
        <time>2022-01-30T13:00:19Z</time>
      </trkpt>
      <trkpt lat="46.299107484519482" lon="8.228747192770243">
        <ele>2182.0100000000002</ele>
        <time>2022-01-30T13:00:28Z</time>
      </trkpt>
      <trkpt lat="46.299151070415974" lon="8.228731350973249">
        <ele>2181.4400000000001</ele>
        <time>2022-01-30T13:00:33Z</time>
      </trkpt>
      <trkpt lat="46.299212761223316" lon="8.228714084252715">
        <ele>2179.8899999999999</ele>
        <time>2022-01-30T13:00:40Z</time>
      </trkpt>
      <trkpt lat="46.299221897497773" lon="8.228715844452381">
        <ele>2179.5</ele>
        <time>2022-01-30T13:00:41Z</time>
      </trkpt>
      <trkpt lat="46.299231285229325" lon="8.228722047060728">
        <ele>2179.4000000000001</ele>
        <time>2022-01-30T13:00:42Z</time>
      </trkpt>
      <trkpt lat="46.299242516979575" lon="8.228732524439693">
        <ele>2179.3299999999999</ele>
        <time>2022-01-30T13:00:43Z</time>
      </trkpt>
      <trkpt lat="46.299255676567554" lon="8.22874459438026">
        <ele>2179.2800000000002</ele>
        <time>2022-01-30T13:00:44Z</time>
      </trkpt>
      <trkpt lat="46.299269841983914" lon="8.228756664320827">
        <ele>2179.25</ele>
        <time>2022-01-30T13:00:45Z</time>
      </trkpt>
      <trkpt lat="46.29928182810545" lon="8.228769823908806">
        <ele>2179.25</ele>
        <time>2022-01-30T13:00:46Z</time>
      </trkpt>
      <trkpt lat="46.299368580803275" lon="8.228896977379918">
        <ele>2177.8400000000001</ele>
        <time>2022-01-30T13:00:56Z</time>
      </trkpt>
      <trkpt lat="46.299418788403273" lon="8.229013737291098">
        <ele>2175.8499999999999</ele>
        <time>2022-01-30T13:01:04Z</time>
      </trkpt>
      <trkpt lat="46.299442341551185" lon="8.22912136092782">
        <ele>2176.6399999999999</ele>
        <time>2022-01-30T13:01:11Z</time>
      </trkpt>
      <trkpt lat="46.299441587179899" lon="8.229149356484413">
        <ele>2176.8099999999999</ele>
        <time>2022-01-30T13:01:13Z</time>
      </trkpt>
      <trkpt lat="46.299450388178229" lon="8.229217249900103">
        <ele>2177.4299999999998</ele>
        <time>2022-01-30T13:01:17Z</time>
      </trkpt>
      <trkpt lat="46.299454662948847" lon="8.229233426973224">
        <ele>2177.4699999999998</ele>
        <time>2022-01-30T13:01:18Z</time>
      </trkpt>
      <trkpt lat="46.299519035965204" lon="8.229332333430648">
        <ele>2174.1999999999998</ele>
        <time>2022-01-30T13:01:27Z</time>
      </trkpt>
      <trkpt lat="46.299596652388573" lon="8.22946828790009">
        <ele>2172.2199999999998</ele>
        <time>2022-01-30T13:01:39Z</time>
      </trkpt>
      <trkpt lat="46.299662031233311" lon="8.229562416672707">
        <ele>2170.2399999999998</ele>
        <time>2022-01-30T13:01:48Z</time>
      </trkpt>
      <trkpt lat="46.299701929092407" lon="8.229626035317779">
        <ele>2168.4499999999998</ele>
        <time>2022-01-30T13:01:54Z</time>
      </trkpt>
      <trkpt lat="46.299714585766196" lon="8.229648498818278">
        <ele>2167.9000000000001</ele>
        <time>2022-01-30T13:01:56Z</time>
      </trkpt>
      <trkpt lat="46.29978465847671" lon="8.229764923453331">
        <ele>2166.5599999999999</ele>
        <time>2022-01-30T13:02:06Z</time>
      </trkpt>
      <trkpt lat="46.299856659024954" lon="8.229880258440971">
        <ele>2164.02</ele>
        <time>2022-01-30T13:02:16Z</time>
      </trkpt>
      <trkpt lat="46.29993318580091" lon="8.229944128543139">
        <ele>2160.7199999999998</ele>
        <time>2022-01-30T13:02:24Z</time>
      </trkpt>
      <trkpt lat="46.300003593787551" lon="8.230011686682701">
        <ele>2157.8899999999999</ele>
        <time>2022-01-30T13:02:33Z</time>
      </trkpt>
      <trkpt lat="46.30004265345633" lon="8.230096092447639">
        <ele>2157.9499999999998</ele>
        <time>2022-01-30T13:02:40Z</time>
      </trkpt>
      <trkpt lat="46.300049358978868" lon="8.230108832940459">
        <ele>2157.8400000000001</ele>
        <time>2022-01-30T13:02:41Z</time>
      </trkpt>
      <trkpt lat="46.300057657063007" lon="8.230119729414582">
        <ele>2157.6100000000001</ele>
        <time>2022-01-30T13:02:42Z</time>
      </trkpt>
      <trkpt lat="46.300119431689382" lon="8.230191729962826">
        <ele>2154.5599999999999</ele>
        <time>2022-01-30T13:02:49Z</time>
      </trkpt>
      <trkpt lat="46.300182631239295" lon="8.230264820158482">
        <ele>2151.9000000000001</ele>
        <time>2022-01-30T13:02:57Z</time>
      </trkpt>
      <trkpt lat="46.300235521048307" lon="8.230397086590529">
        <ele>2150.77</ele>
        <time>2022-01-30T13:03:06Z</time>
      </trkpt>
      <trkpt lat="46.300275586545467" lon="8.230482498183847">
        <ele>2148.3099999999999</ele>
        <time>2022-01-30T13:03:14Z</time>
      </trkpt>
      <trkpt lat="46.300306851044297" lon="8.230503033846617">
        <ele>2146.4200000000001</ele>
        <time>2022-01-30T13:03:18Z</time>
      </trkpt>
      <trkpt lat="46.300389664247632" lon="8.230575118213892">
        <ele>2144.0799999999999</ele>
        <time>2022-01-30T13:03:28Z</time>
      </trkpt>
      <trkpt lat="46.300479853525758" lon="8.230620883405209">
        <ele>2141.29</ele>
        <time>2022-01-30T13:03:37Z</time>
      </trkpt>
      <trkpt lat="46.300537521019578" lon="8.230677461251617">
        <ele>2138.1300000000001</ele>
        <time>2022-01-30T13:03:45Z</time>
      </trkpt>
      <trkpt lat="46.300600133836269" lon="8.23077435605228">
        <ele>2136.7800000000002</ele>
        <time>2022-01-30T13:03:54Z</time>
      </trkpt>
      <trkpt lat="46.300624273717403" lon="8.230870747938752">
        <ele>2135.3299999999999</ele>
        <time>2022-01-30T13:04:02Z</time>
      </trkpt>
      <trkpt lat="46.30066174082458" lon="8.230911567807198">
        <ele>2134.1500000000001</ele>
        <time>2022-01-30T13:04:07Z</time>
      </trkpt>
      <trkpt lat="46.300754277035594" lon="8.231010474264622">
        <ele>2131.52</ele>
        <time>2022-01-30T13:04:18Z</time>
      </trkpt>
      <trkpt lat="46.300803394988179" lon="8.231140393763781">
        <ele>2130.5799999999999</ele>
        <time>2022-01-30T13:04:27Z</time>
      </trkpt>
      <trkpt lat="46.300857039168477" lon="8.231289424002171">
        <ele>2130.04</ele>
        <time>2022-01-30T13:04:37Z</time>
      </trkpt>
      <trkpt lat="46.300911018624902" lon="8.231403920799494">
        <ele>2127.6300000000001</ele>
        <time>2022-01-30T13:04:45Z</time>
      </trkpt>
      <trkpt lat="46.300956448540092" lon="8.231573151424527">
        <ele>2125.1199999999999</ele>
        <time>2022-01-30T13:04:55Z</time>
      </trkpt>
      <trkpt lat="46.300999950617552" lon="8.231663759797812">
        <ele>2124.5100000000002</ele>
        <time>2022-01-30T13:05:02Z</time>
      </trkpt>
      <trkpt lat="46.301009086892009" lon="8.231684463098645">
        <ele>2124.3699999999999</ele>
        <time>2022-01-30T13:05:04Z</time>
      </trkpt>
      <trkpt lat="46.301013361662626" lon="8.231696784496307">
        <ele>2124.3299999999999</ele>
        <time>2022-01-30T13:05:05Z</time>
      </trkpt>
      <trkpt lat="46.301018893718719" lon="8.231710027903318">
        <ele>2124.3099999999999</ele>
        <time>2022-01-30T13:05:06Z</time>
      </trkpt>
      <trkpt lat="46.301054265350103" lon="8.231828380376101">
        <ele>2123.7600000000002</ele>
        <time>2022-01-30T13:05:14Z</time>
      </trkpt>
      <trkpt lat="46.301084440201521" lon="8.231931729242206">
        <ele>2123.3099999999999</ele>
        <time>2022-01-30T13:05:21Z</time>
      </trkpt>
      <trkpt lat="46.30109366029501" lon="8.231984535232186">
        <ele>2123.4499999999998</ele>
        <time>2022-01-30T13:05:25Z</time>
      </trkpt>
      <trkpt lat="46.301119979470968" lon="8.232100624591112">
        <ele>2122.6500000000001</ele>
        <time>2022-01-30T13:05:34Z</time>
      </trkpt>
      <trkpt lat="46.301153423264623" lon="8.232221240177751">
        <ele>2121.4099999999999</ele>
        <time>2022-01-30T13:05:44Z</time>
      </trkpt>
      <trkpt lat="46.301169516518712" lon="8.232259042561054">
        <ele>2120.4899999999998</ele>
        <time>2022-01-30T13:06:01Z</time>
      </trkpt>
      <trkpt lat="46.301242941990495" lon="8.232331965118647">
        <ele>2120.3800000000001</ele>
        <time>2022-01-30T13:06:12Z</time>
      </trkpt>
      <trkpt lat="46.301251072436571" lon="8.232338922098279">
        <ele>2120.21</ele>
        <time>2022-01-30T13:06:13Z</time>
      </trkpt>
      <trkpt lat="46.301326593384147" lon="8.232401786372066">
        <ele>2117.4699999999998</ele>
        <time>2022-01-30T13:06:22Z</time>
      </trkpt>
      <trkpt lat="46.301422482356429" lon="8.232487952336669">
        <ele>2115.1799999999998</ele>
        <time>2022-01-30T13:06:32Z</time>
      </trkpt>
      <trkpt lat="46.301460452377796" lon="8.232522821053863">
        <ele>2114.3600000000001</ele>
        <time>2022-01-30T13:06:36Z</time>
      </trkpt>
      <trkpt lat="46.301471097394824" lon="8.232530364766717">
        <ele>2114.21</ele>
        <time>2022-01-30T13:06:37Z</time>
      </trkpt>
      <trkpt lat="46.301481742411852" lon="8.232536232098937">
        <ele>2114.0500000000002</ele>
        <time>2022-01-30T13:06:38Z</time>
      </trkpt>
      <trkpt lat="46.301492638885975" lon="8.23254126124084">
        <ele>2113.8699999999999</ele>
        <time>2022-01-30T13:06:39Z</time>
      </trkpt>
      <trkpt lat="46.30150462500751" lon="8.232546541839838">
        <ele>2113.6999999999998</ele>
        <time>2022-01-30T13:06:40Z</time>
      </trkpt>
      <trkpt lat="46.301516443490982" lon="8.232551068067551">
        <ele>2113.5300000000002</ele>
        <time>2022-01-30T13:06:41Z</time>
      </trkpt>
      <trkpt lat="46.301528597250581" lon="8.23255492374301">
        <ele>2113.3099999999999</ele>
        <time>2022-01-30T13:06:42Z</time>
      </trkpt>
      <trkpt lat="46.301539745181799" lon="8.232559869065881">
        <ele>2113.0799999999999</ele>
        <time>2022-01-30T13:06:43Z</time>
      </trkpt>
      <trkpt lat="46.301615852862597" lon="8.232617368921638">
        <ele>2110.9200000000001</ele>
        <time>2022-01-30T13:06:51Z</time>
      </trkpt>
      <trkpt lat="46.301717692986131" lon="8.23268249630928">
        <ele>2108.9499999999998</ele>
        <time>2022-01-30T13:07:00Z</time>
      </trkpt>
      <trkpt lat="46.301806289702654" lon="8.232778636738658">
        <ele>2109.0999999999999</ele>
        <time>2022-01-30T13:07:09Z</time>
      </trkpt>
      <trkpt lat="46.301888767629862" lon="8.232857594266534">
        <ele>2109.04</ele>
        <time>2022-01-30T13:07:17Z</time>
      </trkpt>
      <trkpt lat="46.301936879754066" lon="8.232929678633809">
        <ele>2107.8200000000002</ele>
        <time>2022-01-30T13:07:24Z</time>
      </trkpt>
      <trkpt lat="46.301968060433865" lon="8.23299472220242">
        <ele>2104.0100000000002</ele>
        <time>2022-01-30T13:13:55Z</time>
      </trkpt>
      <trkpt lat="46.301976442337036" lon="8.232987932860851">
        <ele>2104.0100000000002</ele>
        <time>2022-01-30T13:14:19Z</time>
      </trkpt>
      <trkpt lat="46.301992787048221" lon="8.232989693060517">
        <ele>2104.0100000000002</ele>
        <time>2022-01-30T13:15:07Z</time>
      </trkpt>
      <trkpt lat="46.301994295790792" lon="8.232992375269532">
        <ele>2104.0100000000002</ele>
        <time>2022-01-30T13:15:31Z</time>
      </trkpt>
      <trkpt lat="46.302001923322678" lon="8.23299128562212">
        <ele>2104.0100000000002</ele>
        <time>2022-01-30T13:15:48Z</time>
      </trkpt>
      <trkpt lat="46.302062189206481" lon="8.233029758557677">
        <ele>2104.0100000000002</ele>
        <time>2022-01-30T13:15:56Z</time>
      </trkpt>
      <trkpt lat="46.302069732919335" lon="8.233036044985056">
        <ele>2104.0100000000002</ele>
        <time>2022-01-30T13:15:57Z</time>
      </trkpt>
      <trkpt lat="46.302155060693622" lon="8.233119947835803">
        <ele>2103.3000000000002</ele>
        <time>2022-01-30T13:16:07Z</time>
      </trkpt>
      <trkpt lat="46.302225049585104" lon="8.233191194012761">
        <ele>2101.9499999999998</ele>
        <time>2022-01-30T13:16:16Z</time>
      </trkpt>
      <trkpt lat="46.302232593297958" lon="8.233197899535298">
        <ele>2101.7600000000002</ele>
        <time>2022-01-30T13:16:17Z</time>
      </trkpt>
      <trkpt lat="46.302326889708638" lon="8.233248023316264">
        <ele>2099.75</ele>
        <time>2022-01-30T13:16:27Z</time>
      </trkpt>
      <trkpt lat="46.302443733438849" lon="8.233262440189719">
        <ele>2097.2199999999998</ele>
        <time>2022-01-30T13:16:37Z</time>
      </trkpt>
      <trkpt lat="46.302571138367057" lon="8.233286496251822">
        <ele>2094.3200000000002</ele>
        <time>2022-01-30T13:16:48Z</time>
      </trkpt>
      <trkpt lat="46.302657052874565" lon="8.233283059671521">
        <ele>2092.27</ele>
        <time>2022-01-30T13:16:56Z</time>
      </trkpt>
      <trkpt lat="46.302750343456864" lon="8.233320023864508">
        <ele>2089.0100000000002</ele>
        <time>2022-01-30T13:17:06Z</time>
      </trkpt>
      <trkpt lat="46.302819158881903" lon="8.233356066048145">
        <ele>2086.5500000000002</ele>
        <time>2022-01-30T13:17:14Z</time>
      </trkpt>
      <trkpt lat="46.302882442250848" lon="8.23339344933629">
        <ele>2084.21</ele>
        <time>2022-01-30T13:17:22Z</time>
      </trkpt>
      <trkpt lat="46.302916137501597" lon="8.233415661379695">
        <ele>2083.0900000000001</ele>
        <time>2022-01-30T13:17:28Z</time>
      </trkpt>
      <trkpt lat="46.302933571860194" lon="8.233431335538626">
        <ele>2082.75</ele>
        <time>2022-01-30T13:17:30Z</time>
      </trkpt>
      <trkpt lat="46.303025521337986" lon="8.233502330258489">
        <ele>2080.6399999999999</ele>
        <time>2022-01-30T13:17:39Z</time>
      </trkpt>
      <trkpt lat="46.303068939596415" lon="8.233534097671509">
        <ele>2079.5900000000001</ele>
        <time>2022-01-30T13:17:44Z</time>
      </trkpt>
      <trkpt lat="46.303085284307599" lon="8.233548179268837">
        <ele>2079.3299999999999</ele>
        <time>2022-01-30T13:17:46Z</time>
      </trkpt>
      <trkpt lat="46.303109675645828" lon="8.233564523980022">
        <ele>2078.8499999999999</ele>
        <time>2022-01-30T13:17:49Z</time>
      </trkpt>
      <trkpt lat="46.303162649273872" lon="8.23360743932426">
        <ele>2077.9400000000001</ele>
        <time>2022-01-30T13:17:55Z</time>
      </trkpt>
      <trkpt lat="46.303232638165355" lon="8.233661754056811">
        <ele>2077.1100000000001</ele>
        <time>2022-01-30T13:18:02Z</time>
      </trkpt>
      <trkpt lat="46.30333062261343" lon="8.233730150386691">
        <ele>2075.1900000000001</ele>
        <time>2022-01-30T13:18:12Z</time>
      </trkpt>
      <trkpt lat="46.303415279835463" lon="8.233816316351295">
        <ele>2073.0100000000002</ele>
        <time>2022-01-30T13:18:23Z</time>
      </trkpt>
      <trkpt lat="46.303454423323274" lon="8.233841462060809">
        <ele>2071.9899999999998</ele>
        <time>2022-01-30T13:18:27Z</time>
      </trkpt>
      <trkpt lat="46.303461631760001" lon="8.233848419040442">
        <ele>2071.77</ele>
        <time>2022-01-30T13:18:28Z</time>
      </trkpt>
      <trkpt lat="46.30348795093596" lon="8.233868787065148">
        <ele>2070.8699999999999</ele>
        <time>2022-01-30T13:18:31Z</time>
      </trkpt>
      <trkpt lat="46.303530531004071" lon="8.23389083147049">
        <ele>2069.2600000000002</ele>
        <time>2022-01-30T13:18:38Z</time>
      </trkpt>
      <trkpt lat="46.303535727784038" lon="8.233894854784012">
        <ele>2068.3099999999999</ele>
        <time>2022-01-30T13:18:42Z</time>
      </trkpt>
      <trkpt lat="46.303551653400064" lon="8.233905751258135">
        <ele>2068.21</ele>
        <time>2022-01-30T13:18:44Z</time>
      </trkpt>
      <trkpt lat="46.303606471046805" lon="8.23396073654294">
        <ele>2066.8400000000001</ele>
        <time>2022-01-30T13:18:52Z</time>
      </trkpt>
      <trkpt lat="46.303627090528607" lon="8.233956629410386">
        <ele>2065.9899999999998</ele>
        <time>2022-01-30T13:18:55Z</time>
      </trkpt>
      <trkpt lat="46.303687859326601" lon="8.233957635238767">
        <ele>2063.96</ele>
        <time>2022-01-30T13:19:05Z</time>
      </trkpt>
      <trkpt lat="46.303701773285866" lon="8.233955455943942">
        <ele>2063.4400000000001</ele>
        <time>2022-01-30T13:19:22Z</time>
      </trkpt>
      <trkpt lat="46.303773438557982" lon="8.233940871432424">
        <ele>2062.6900000000001</ele>
        <time>2022-01-30T13:19:32Z</time>
      </trkpt>
      <trkpt lat="46.303824651986361" lon="8.233971381559968">
        <ele>2061.27</ele>
        <time>2022-01-30T13:19:40Z</time>
      </trkpt>
      <trkpt lat="46.303866980597377" lon="8.233983367681503">
        <ele>2060.3299999999999</ele>
        <time>2022-01-30T13:19:45Z</time>
      </trkpt>
      <trkpt lat="46.303952392190695" lon="8.23403256945312">
        <ele>2058.1300000000001</ele>
        <time>2022-01-30T13:19:56Z</time>
      </trkpt>
      <trkpt lat="46.304029924795032" lon="8.23408043012023">
        <ele>2056.5599999999999</ele>
        <time>2022-01-30T13:20:06Z</time>
      </trkpt>
      <trkpt lat="46.304056579247117" lon="8.234104234725237">
        <ele>2055.9899999999998</ele>
        <time>2022-01-30T13:20:09Z</time>
      </trkpt>
      <trkpt lat="46.304110391065478" lon="8.234164668247104">
        <ele>2054.4099999999999</ele>
        <time>2022-01-30T13:20:17Z</time>
      </trkpt>
      <trkpt lat="46.30416177213192" lon="8.23422459885478">
        <ele>2053.4400000000001</ele>
        <time>2022-01-30T13:20:25Z</time>
      </trkpt>
      <trkpt lat="46.304191192612052" lon="8.234301963821054">
        <ele>2052.1799999999998</ele>
        <time>2022-01-30T13:20:32Z</time>
      </trkpt>
      <trkpt lat="46.304245758801699" lon="8.234300119802356">
        <ele>2050.7199999999998</ele>
        <time>2022-01-30T13:20:40Z</time>
      </trkpt>
      <trkpt lat="46.304311472922564" lon="8.234289474785328">
        <ele>2048.96</ele>
        <time>2022-01-30T13:20:49Z</time>
      </trkpt>
      <trkpt lat="46.304348353296518" lon="8.234306741505861">
        <ele>2047.9000000000001</ele>
        <time>2022-01-30T13:20:54Z</time>
      </trkpt>
      <trkpt lat="46.304398560896516" lon="8.234345633536577">
        <ele>2046.73</ele>
        <time>2022-01-30T13:21:02Z</time>
      </trkpt>
      <trkpt lat="46.304464023560286" lon="8.234409252181649">
        <ele>2044.96</ele>
        <time>2022-01-30T13:21:13Z</time>
      </trkpt>
      <trkpt lat="46.304519344121218" lon="8.234411347657442">
        <ele>2043.95</ele>
        <time>2022-01-30T13:21:19Z</time>
      </trkpt>
      <trkpt lat="46.304588243365288" lon="8.234418220818043">
        <ele>2042.77</ele>
        <time>2022-01-30T13:21:28Z</time>
      </trkpt>
      <trkpt lat="46.304646749049425" lon="8.2344566937536">
        <ele>2041.02</ele>
        <time>2022-01-30T13:21:37Z</time>
      </trkpt>
      <trkpt lat="46.304652197286487" lon="8.23445132933557">
        <ele>2039.9100000000001</ele>
        <time>2022-01-30T13:21:48Z</time>
      </trkpt>
      <trkpt lat="46.304666195064783" lon="8.234432637691498">
        <ele>2039.52</ele>
        <time>2022-01-30T13:22:09Z</time>
      </trkpt>
      <trkpt lat="46.304710535332561" lon="8.234472535550594">
        <ele>2039.53</ele>
        <time>2022-01-30T13:22:20Z</time>
      </trkpt>
      <trkpt lat="46.304712546989322" lon="8.234583428129554">
        <ele>2038.05</ele>
        <time>2022-01-30T13:22:31Z</time>
      </trkpt>
      <trkpt lat="46.304710116237402" lon="8.234692895784974">
        <ele>2035.6500000000001</ele>
        <time>2022-01-30T13:22:41Z</time>
      </trkpt>
      <trkpt lat="46.304712546989322" lon="8.234741846099496">
        <ele>2034.8199999999999</ele>
        <time>2022-01-30T13:22:45Z</time>
      </trkpt>
      <trkpt lat="46.304712798446417" lon="8.234825162217021">
        <ele>2033.1700000000001</ele>
        <time>2022-01-30T13:22:52Z</time>
      </trkpt>
      <trkpt lat="46.304733417928219" lon="8.235011156648397">
        <ele>2031.25</ele>
        <time>2022-01-30T13:23:04Z</time>
      </trkpt>
      <trkpt lat="46.304752277210355" lon="8.235118947923183">
        <ele>2030.1700000000001</ele>
        <time>2022-01-30T13:23:12Z</time>
      </trkpt>
      <trkpt lat="46.304787984117866" lon="8.235217938199639">
        <ele>2029.1199999999999</ele>
        <time>2022-01-30T13:23:21Z</time>
      </trkpt>
      <trkpt lat="46.304851938039064" lon="8.235270073637366">
        <ele>2028.03</ele>
        <time>2022-01-30T13:23:29Z</time>
      </trkpt>
      <trkpt lat="46.304886471480131" lon="8.235286083072424">
        <ele>2026.9400000000001</ele>
        <time>2022-01-30T13:23:38Z</time>
      </trkpt>
      <trkpt lat="46.30493969656527" lon="8.235344421118498">
        <ele>2025.24</ele>
        <time>2022-01-30T13:23:48Z</time>
      </trkpt>
      <trkpt lat="46.304972050711513" lon="8.235407872125506">
        <ele>2023.23</ele>
        <time>2022-01-30T13:23:57Z</time>
      </trkpt>
      <trkpt lat="46.304990742355585" lon="8.235460259020329">
        <ele>2021.8099999999999</ele>
        <time>2022-01-30T13:24:03Z</time>
      </trkpt>
      <trkpt lat="46.305028293281794" lon="8.235559249296784">
        <ele>2019.46</ele>
        <time>2022-01-30T13:24:14Z</time>
      </trkpt>
      <trkpt lat="46.305051343515515" lon="8.2356240414083">
        <ele>2017.49</ele>
        <time>2022-01-30T13:24:25Z</time>
      </trkpt>
      <trkpt lat="46.305059138685465" lon="8.235663939267397">
        <ele>2016.1400000000001</ele>
        <time>2022-01-30T13:24:36Z</time>
      </trkpt>
      <trkpt lat="46.30505008623004" lon="8.235683385282755">
        <ele>2016.1400000000001</ele>
        <time>2022-01-30T13:25:00Z</time>
      </trkpt>
      <trkpt lat="46.305049248039722" lon="8.235691264271736">
        <ele>2013.1500000000001</ele>
        <time>2022-01-30T13:25:08Z</time>
      </trkpt>
      <trkpt lat="46.305051678791642" lon="8.235687660053372">
        <ele>2016.5899999999999</ele>
        <time>2022-01-30T13:25:11Z</time>
      </trkpt>
      <trkpt lat="46.305053858086467" lon="8.235688162967563">
        <ele>2019.1300000000001</ele>
        <time>2022-01-30T13:25:14Z</time>
      </trkpt>
      <trkpt lat="46.305053774267435" lon="8.235688665881753">
        <ele>2016.0799999999999</ele>
        <time>2022-01-30T13:25:19Z</time>
      </trkpt>
      <trkpt lat="46.305052433162928" lon="8.235688162967563">
        <ele>2015.25</ele>
        <time>2022-01-30T13:25:21Z</time>
      </trkpt>
      <trkpt lat="46.305049918591976" lon="8.235686318948865">
        <ele>2018.26</ele>
        <time>2022-01-30T13:25:40Z</time>
      </trkpt>
      <trkpt lat="46.305052516981959" lon="8.235690593719482">
        <ele>2015.0999999999999</ele>
        <time>2022-01-30T13:25:55Z</time>
      </trkpt>
      <trkpt lat="46.30504765547812" lon="8.235688162967563">
        <ele>2016.8099999999999</ele>
        <time>2022-01-30T13:26:12Z</time>
      </trkpt>
      <trkpt lat="46.305045895278454" lon="8.235696963965893">
        <ele>2019.3800000000001</ele>
        <time>2022-01-30T13:26:25Z</time>
      </trkpt>
      <trkpt lat="46.305047823116183" lon="8.235702160745859">
        <ele>2016.3499999999999</ele>
        <time>2022-01-30T13:26:42Z</time>
      </trkpt>
      <trkpt lat="46.305049834772944" lon="8.235703585669398">
        <ele>2014.01</ele>
        <time>2022-01-30T13:26:55Z</time>
      </trkpt>
      <trkpt lat="46.305049667134881" lon="8.235699143260717">
        <ele>2016.8199999999999</ele>
        <time>2022-01-30T13:27:02Z</time>
      </trkpt>
      <trkpt lat="46.305065592750907" lon="8.23573493398726">
        <ele>2016.2</ele>
        <time>2022-01-30T13:27:15Z</time>
      </trkpt>
      <trkpt lat="46.305079841986299" lon="8.235769299790263">
        <ele>2015.6800000000001</ele>
        <time>2022-01-30T13:27:20Z</time>
      </trkpt>
      <trkpt lat="46.305140694603324" lon="8.235815316438675">
        <ele>2014.9300000000001</ele>
        <time>2022-01-30T13:27:28Z</time>
      </trkpt>
      <trkpt lat="46.305198697373271" lon="8.235821519047022">
        <ele>2013.8199999999999</ele>
        <time>2022-01-30T13:27:34Z</time>
      </trkpt>
      <trkpt lat="46.305300369858742" lon="8.235876252874732">
        <ele>2012.54</ele>
        <time>2022-01-30T13:27:44Z</time>
      </trkpt>
      <trkpt lat="46.305391481146216" lon="8.236002819612622">
        <ele>2010.8800000000001</ele>
        <time>2022-01-30T13:27:54Z</time>
      </trkpt>
      <trkpt lat="46.305448981001973" lon="8.236127039417625">
        <ele>2010.1199999999999</ele>
        <time>2022-01-30T13:28:03Z</time>
      </trkpt>
      <trkpt lat="46.305481670424342" lon="8.236209684982896">
        <ele>2009.4300000000001</ele>
        <time>2022-01-30T13:28:09Z</time>
      </trkpt>
      <trkpt lat="46.305514862760901" lon="8.236337676644325">
        <ele>2008.3800000000001</ele>
        <time>2022-01-30T13:28:18Z</time>
      </trkpt>
      <trkpt lat="46.305524669587612" lon="8.23636039160192">
        <ele>2008.24</ele>
        <time>2022-01-30T13:28:20Z</time>
      </trkpt>
      <trkpt lat="46.305532967671752" lon="8.236371371895075">
        <ele>2008.1700000000001</ele>
        <time>2022-01-30T13:28:21Z</time>
      </trkpt>
      <trkpt lat="46.305540343746543" lon="8.236383944749832">
        <ele>2008.0999999999999</ele>
        <time>2022-01-30T13:28:22Z</time>
      </trkpt>
      <trkpt lat="46.305546797811985" lon="8.236399032175541">
        <ele>2008.03</ele>
        <time>2022-01-30T13:28:23Z</time>
      </trkpt>
      <trkpt lat="46.305551491677761" lon="8.236416298896074">
        <ele>2007.9400000000001</ele>
        <time>2022-01-30T13:28:24Z</time>
      </trkpt>
      <trkpt lat="46.30555484443903" lon="8.236434319987893">
        <ele>2007.8199999999999</ele>
        <time>2022-01-30T13:28:25Z</time>
      </trkpt>
      <trkpt lat="46.305558364838362" lon="8.236470697447658">
        <ele>2007.6300000000001</ele>
        <time>2022-01-30T13:28:27Z</time>
      </trkpt>
      <trkpt lat="46.305559873580933" lon="8.236488467082381">
        <ele>2007.54</ele>
        <time>2022-01-30T13:28:28Z</time>
      </trkpt>
      <trkpt lat="46.305563226342201" lon="8.236503973603249">
        <ele>2007.3900000000001</ele>
        <time>2022-01-30T13:28:29Z</time>
      </trkpt>
      <trkpt lat="46.305610667914152" lon="8.236600868403912">
        <ele>2006.9400000000001</ele>
        <time>2022-01-30T13:28:36Z</time>
      </trkpt>
      <trkpt lat="46.305628689005971" lon="8.236669264733791">
        <ele>2007.1199999999999</ele>
        <time>2022-01-30T13:28:41Z</time>
      </trkpt>
      <trkpt lat="46.305669844150543" lon="8.236797424033284">
        <ele>2007.29</ele>
        <time>2022-01-30T13:28:49Z</time>
      </trkpt>
      <trkpt lat="46.305726757273078" lon="8.236894989386201">
        <ele>2006.5</ele>
        <time>2022-01-30T13:28:57Z</time>
      </trkpt>
      <trkpt lat="46.305775288492441" lon="8.236989118158817">
        <ele>2005.96</ele>
        <time>2022-01-30T13:29:04Z</time>
      </trkpt>
      <trkpt lat="46.305824657902122" lon="8.237123060971499">
        <ele>2006.49</ele>
        <time>2022-01-30T13:29:14Z</time>
      </trkpt>
      <trkpt lat="46.305868998169899" lon="8.237214926630259">
        <ele>2006.5599999999999</ele>
        <time>2022-01-30T13:29:19Z</time>
      </trkpt>
      <trkpt lat="46.305953236296773" lon="8.237304277718067">
        <ele>2006.4300000000001</ele>
        <time>2022-01-30T13:29:29Z</time>
      </trkpt>
      <trkpt lat="46.306043844670057" lon="8.237403854727745">
        <ele>2006.1099999999999</ele>
        <time>2022-01-30T13:29:38Z</time>
      </trkpt>
      <trkpt lat="46.306153144687414" lon="8.237517680972815">
        <ele>2006.28</ele>
        <time>2022-01-30T13:29:48Z</time>
      </trkpt>
      <trkpt lat="46.306234449148178" lon="8.237659251317382">
        <ele>2006.4300000000001</ele>
        <time>2022-01-30T13:29:59Z</time>
      </trkpt>
      <trkpt lat="46.306286416947842" lon="8.237728821113706">
        <ele>2006.3699999999999</ele>
        <time>2022-01-30T13:30:06Z</time>
      </trkpt>
      <trkpt lat="46.306339725852013" lon="8.237754972651601">
        <ele>2006.3299999999999</ele>
        <time>2022-01-30T13:30:10Z</time>
      </trkpt>
      <trkpt lat="46.306351628154516" lon="8.237762097269297">
        <ele>2006.3</ele>
        <time>2022-01-30T13:30:11Z</time>
      </trkpt>
      <trkpt lat="46.306424047797918" lon="8.237859327346087">
        <ele>2005.97</ele>
        <time>2022-01-30T13:30:19Z</time>
      </trkpt>
      <trkpt lat="46.306436788290739" lon="8.237875839695334">
        <ele>2005.8699999999999</ele>
        <time>2022-01-30T13:30:21Z</time>
      </trkpt>
      <trkpt lat="46.306443829089403" lon="8.237883886322379">
        <ele>2005.8199999999999</ele>
        <time>2022-01-30T13:30:22Z</time>
      </trkpt>
      <trkpt lat="46.306460844352841" lon="8.237903919070959">
        <ele>2005.8399999999999</ele>
        <time>2022-01-30T13:30:24Z</time>
      </trkpt>
      <trkpt lat="46.306525468826294" lon="8.237982792779803">
        <ele>2005.72</ele>
        <time>2022-01-30T13:30:33Z</time>
      </trkpt>
      <trkpt lat="46.306585650891066" lon="8.23806082829833">
        <ele>2005.6500000000001</ele>
        <time>2022-01-30T13:30:42Z</time>
      </trkpt>
      <trkpt lat="46.306655388325453" lon="8.238151269033551">
        <ele>2005.5799999999999</ele>
        <time>2022-01-30T13:30:51Z</time>
      </trkpt>
      <trkpt lat="46.306732082739472" lon="8.238228969275951">
        <ele>2005.8499999999999</ele>
        <time>2022-01-30T13:31:00Z</time>
      </trkpt>
      <trkpt lat="46.306808860972524" lon="8.238333240151405">
        <ele>2006.03</ele>
        <time>2022-01-30T13:31:10Z</time>
      </trkpt>
      <trkpt lat="46.30688052624464" lon="8.238433320075274">
        <ele>2005.6700000000001</ele>
        <time>2022-01-30T13:31:19Z</time>
      </trkpt>
      <trkpt lat="46.306960741057992" lon="8.238540943711996">
        <ele>2004.29</ele>
        <time>2022-01-30T13:31:29Z</time>
      </trkpt>
      <trkpt lat="46.307012038305402" lon="8.238634066656232">
        <ele>2003.8199999999999</ele>
        <time>2022-01-30T13:31:37Z</time>
      </trkpt>
      <trkpt lat="46.307073645293713" lon="8.238717131316662">
        <ele>2003.6500000000001</ele>
        <time>2022-01-30T13:31:45Z</time>
      </trkpt>
      <trkpt lat="46.307137096300721" lon="8.238835483789444">
        <ele>2003.6700000000001</ele>
        <time>2022-01-30T13:31:54Z</time>
      </trkpt>
      <trkpt lat="46.307185627520084" lon="8.238932294771075">
        <ele>2003.53</ele>
        <time>2022-01-30T13:32:02Z</time>
      </trkpt>
      <trkpt lat="46.307230470702052" lon="8.23901854455471">
        <ele>2002.74</ele>
        <time>2022-01-30T13:32:09Z</time>
      </trkpt>
      <trkpt lat="46.307277241721749" lon="8.239129269495606">
        <ele>2002.9000000000001</ele>
        <time>2022-01-30T13:32:18Z</time>
      </trkpt>
      <trkpt lat="46.307326024398208" lon="8.239228092133999">
        <ele>2002.27</ele>
        <time>2022-01-30T13:32:26Z</time>
      </trkpt>
      <trkpt lat="46.307369191199541" lon="8.239312581717968">
        <ele>2001.1700000000001</ele>
        <time>2022-01-30T13:32:33Z</time>
      </trkpt>
      <trkpt lat="46.307417722418904" lon="8.239391120150685">
        <ele>2000.29</ele>
        <time>2022-01-30T13:32:40Z</time>
      </trkpt>
      <trkpt lat="46.30746248178184" lon="8.239511484280229">
        <ele>1999.74</ele>
        <time>2022-01-30T13:32:48Z</time>
      </trkpt>
      <trkpt lat="46.30751914344728" lon="8.239630255848169">
        <ele>1999.1500000000001</ele>
        <time>2022-01-30T13:32:57Z</time>
      </trkpt>
      <trkpt lat="46.307589467614889" lon="8.239759169518948">
        <ele>1999.1700000000001</ele>
        <time>2022-01-30T13:33:08Z</time>
      </trkpt>
      <trkpt lat="46.307592652738094" lon="8.239773251116276">
        <ele>1999.1300000000001</ele>
        <time>2022-01-30T13:33:09Z</time>
      </trkpt>
      <trkpt lat="46.30760028026998" lon="8.239804599434137">
        <ele>1999.02</ele>
        <time>2022-01-30T13:33:11Z</time>
      </trkpt>
      <trkpt lat="46.307677058503032" lon="8.239909037947655">
        <ele>1998.1700000000001</ele>
        <time>2022-01-30T13:33:21Z</time>
      </trkpt>
      <trkpt lat="46.307739755138755" lon="8.24001481756568">
        <ele>1997.5599999999999</ele>
        <time>2022-01-30T13:33:31Z</time>
      </trkpt>
      <trkpt lat="46.307782586663961" lon="8.240075251087546">
        <ele>1997.0599999999999</ele>
        <time>2022-01-30T13:33:37Z</time>
      </trkpt>
      <trkpt lat="46.30781427025795" lon="8.240143395960331">
        <ele>1997.01</ele>
        <time>2022-01-30T13:33:43Z</time>
      </trkpt>
      <trkpt lat="46.307855257764459" lon="8.24024842120707">
        <ele>1996.71</ele>
        <time>2022-01-30T13:33:52Z</time>
      </trkpt>
      <trkpt lat="46.307879397645593" lon="8.24035981670022">
        <ele>1997.1500000000001</ele>
        <time>2022-01-30T13:34:01Z</time>
      </trkpt>
      <trkpt lat="46.307878643274307" lon="8.240380017086864">
        <ele>1997.22</ele>
        <time>2022-01-30T13:34:03Z</time>
      </trkpt>
      <trkpt lat="46.307879481464624" lon="8.240393595770001">
        <ele>1997.27</ele>
        <time>2022-01-30T13:34:04Z</time>
      </trkpt>
      <trkpt lat="46.307892976328731" lon="8.240429554134607">
        <ele>1997.3699999999999</ele>
        <time>2022-01-30T13:34:07Z</time>
      </trkpt>
      <trkpt lat="46.307906219735742" lon="8.240456879138947">
        <ele>1997.4300000000001</ele>
        <time>2022-01-30T13:34:09Z</time>
      </trkpt>
      <trkpt lat="46.307913092896342" lon="8.240468949079514">
        <ele>1997.45</ele>
        <time>2022-01-30T13:34:10Z</time>
      </trkpt>
      <trkpt lat="46.307921558618546" lon="8.240479091182351">
        <ele>1997.45</ele>
        <time>2022-01-30T13:34:11Z</time>
      </trkpt>
      <trkpt lat="46.307927258312702" lon="8.24049074202776">
        <ele>1997.47</ele>
        <time>2022-01-30T13:34:12Z</time>
      </trkpt>
      <trkpt lat="46.307932958006859" lon="8.240502057597041">
        <ele>1997.52</ele>
        <time>2022-01-30T13:34:13Z</time>
      </trkpt>
      <trkpt lat="46.307936143130064" lon="8.240514881908894">
        <ele>1997.52</ele>
        <time>2022-01-30T13:34:14Z</time>
      </trkpt>
      <trkpt lat="46.307971682399511" lon="8.240604987367988">
        <ele>1997.72</ele>
        <time>2022-01-30T13:34:21Z</time>
      </trkpt>
      <trkpt lat="46.307978555560112" lon="8.240625439211726">
        <ele>1997.8199999999999</ele>
        <time>2022-01-30T13:34:23Z</time>
      </trkpt>
      <trkpt lat="46.307982662692666" lon="8.240636168047786">
        <ele>1997.8599999999999</ele>
        <time>2022-01-30T13:34:24Z</time>
      </trkpt>
      <trkpt lat="46.307987188920379" lon="8.240650584921241">
        <ele>1997.99</ele>
        <time>2022-01-30T13:34:25Z</time>
      </trkpt>
      <trkpt lat="46.308020045980811" lon="8.240740690380335">
        <ele>1998.1800000000001</ele>
        <time>2022-01-30T13:34:33Z</time>
      </trkpt>
      <trkpt lat="46.308049550279975" lon="8.240844793617725">
        <ele>1997.96</ele>
        <time>2022-01-30T13:34:42Z</time>
      </trkpt>
      <trkpt lat="46.308062877506018" lon="8.240900449454784">
        <ele>1997.55</ele>
        <time>2022-01-30T13:34:50Z</time>
      </trkpt>
      <trkpt lat="46.308087017387152" lon="8.240933055058122">
        <ele>1998.1300000000001</ele>
        <time>2022-01-30T13:35:00Z</time>
      </trkpt>
      <trkpt lat="46.308077126741409" lon="8.241010252386332">
        <ele>1998.1900000000001</ele>
        <time>2022-01-30T13:35:07Z</time>
      </trkpt>
      <trkpt lat="46.308021554723382" lon="8.241063980385661">
        <ele>1997.74</ele>
        <time>2022-01-30T13:35:16Z</time>
      </trkpt>
      <trkpt lat="46.307962881401181" lon="8.241113852709532">
        <ele>1998.0899999999999</ele>
        <time>2022-01-30T13:35:24Z</time>
      </trkpt>
      <trkpt lat="46.307938322424889" lon="8.241143776103854">
        <ele>1998.48</ele>
        <time>2022-01-30T13:35:34Z</time>
      </trkpt>
      <trkpt lat="46.307914517819881" lon="8.241189625114203">
        <ele>1998.96</ele>
        <time>2022-01-30T13:35:41Z</time>
      </trkpt>
      <trkpt lat="46.307895574718714" lon="8.241236731410027">
        <ele>1999.73</ele>
        <time>2022-01-30T13:35:48Z</time>
      </trkpt>
      <trkpt lat="46.307890964671969" lon="8.24124519713223">
        <ele>2000.6500000000001</ele>
        <time>2022-01-30T13:36:00Z</time>
      </trkpt>
      <trkpt lat="46.307884594425559" lon="8.24124176055193">
        <ele>2002.22</ele>
        <time>2022-01-30T13:36:16Z</time>
      </trkpt>
      <trkpt lat="46.307884426787496" lon="8.241252070292831">
        <ele>2001.46</ele>
        <time>2022-01-30T13:36:34Z</time>
      </trkpt>
      <trkpt lat="46.307880152016878" lon="8.241237485781312">
        <ele>1998.26</ele>
        <time>2022-01-30T13:36:58Z</time>
      </trkpt>
      <trkpt lat="46.307877888903022" lon="8.241234719753265">
        <ele>2001.6700000000001</ele>
        <time>2022-01-30T13:37:08Z</time>
      </trkpt>
      <trkpt lat="46.307879230007529" lon="8.241234216839075">
        <ele>2003.1900000000001</ele>
        <time>2022-01-30T13:37:11Z</time>
      </trkpt>
      <trkpt lat="46.307885264977813" lon="8.241233294829726">
        <ele>2000.4000000000001</ele>
        <time>2022-01-30T13:37:48Z</time>
      </trkpt>
      <trkpt lat="46.307887192815542" lon="8.2412363961339">
        <ele>2000.52</ele>
        <time>2022-01-30T13:38:20Z</time>
      </trkpt>
      <trkpt lat="46.307866992428899" lon="8.241281658411026">
        <ele>2003.29</ele>
        <time>2022-01-30T13:38:30Z</time>
      </trkpt>
      <trkpt lat="46.307858778163791" lon="8.241307055577636">
        <ele>2002.7</ele>
        <time>2022-01-30T13:38:32Z</time>
      </trkpt>
      <trkpt lat="46.307855257764459" lon="8.241321472451091">
        <ele>2002.28</ele>
        <time>2022-01-30T13:38:33Z</time>
      </trkpt>
      <trkpt lat="46.307848636060953" lon="8.241395568475127">
        <ele>1999.97</ele>
        <time>2022-01-30T13:38:38Z</time>
      </trkpt>
      <trkpt lat="46.30784067325294" lon="8.241476956754923">
        <ele>1998.2</ele>
        <time>2022-01-30T13:38:46Z</time>
      </trkpt>
      <trkpt lat="46.307840840891004" lon="8.241479052230716">
        <ele>1997.74</ele>
        <time>2022-01-30T13:39:03Z</time>
      </trkpt>
      <trkpt lat="46.307844780385494" lon="8.24148709885776">
        <ele>1997.23</ele>
        <time>2022-01-30T13:39:19Z</time>
      </trkpt>
      <trkpt lat="46.307851066812873" lon="8.241479387506843">
        <ele>1996.8299999999999</ele>
        <time>2022-01-30T13:39:36Z</time>
      </trkpt>
      <trkpt lat="46.307858023792505" lon="8.241481650620699">
        <ele>1993.6199999999999</ele>
        <time>2022-01-30T13:39:45Z</time>
      </trkpt>
      <trkpt lat="46.307858359068632" lon="8.241482069715858">
        <ele>1992.75</ele>
        <time>2022-01-30T13:39:47Z</time>
      </trkpt>
      <trkpt lat="46.30785777233541" lon="8.241480393335223">
        <ele>1996.47</ele>
        <time>2022-01-30T13:39:50Z</time>
      </trkpt>
      <trkpt lat="46.307858945801854" lon="8.241483327001333">
        <ele>1997.95</ele>
        <time>2022-01-30T13:39:52Z</time>
      </trkpt>
      <trkpt lat="46.307860538363457" lon="8.241485757753253">
        <ele>1994.3699999999999</ele>
        <time>2022-01-30T13:39:53Z</time>
      </trkpt>
      <trkpt lat="46.307861544191837" lon="8.241486679762602">
        <ele>1995.8399999999999</ele>
        <time>2022-01-30T13:39:54Z</time>
      </trkpt>
      <trkpt lat="46.30786556750536" lon="8.241481482982636">
        <ele>1997.4300000000001</ele>
        <time>2022-01-30T13:40:13Z</time>
      </trkpt>
      <trkpt lat="46.307859448716044" lon="8.24148123152554">
        <ele>1997.4300000000001</ele>
        <time>2022-01-30T13:40:35Z</time>
      </trkpt>
      <trkpt lat="46.307851234450936" lon="8.241482069715858">
        <ele>1997.4300000000001</ele>
        <time>2022-01-30T13:41:08Z</time>
      </trkpt>
      <trkpt lat="46.307856934145093" lon="8.241483243182302">
        <ele>1997.4300000000001</ele>
        <time>2022-01-30T13:41:36Z</time>
      </trkpt>
      <trkpt lat="46.307847797870636" lon="8.241474945098162">
        <ele>1997.4300000000001</ele>
        <time>2022-01-30T13:42:17Z</time>
      </trkpt>
      <trkpt lat="46.30784654058516" lon="8.241486344486475">
        <ele>1997.4300000000001</ele>
        <time>2022-01-30T13:42:36Z</time>
      </trkpt>
      <trkpt lat="46.307850480079651" lon="8.241479471325874">
        <ele>1997.4300000000001</ele>
        <time>2022-01-30T13:43:08Z</time>
      </trkpt>
      <trkpt lat="46.307853497564793" lon="8.241475196555257">
        <ele>1997.4300000000001</ele>
        <time>2022-01-30T13:43:35Z</time>
      </trkpt>
      <trkpt lat="46.307858861982822" lon="8.241480393335223">
        <ele>1997.4300000000001</ele>
        <time>2022-01-30T13:43:53Z</time>
      </trkpt>
      <trkpt lat="46.307860789820552" lon="8.241518279537559">
        <ele>1997.4300000000001</ele>
        <time>2022-01-30T13:44:09Z</time>
      </trkpt>
      <trkpt lat="46.307858694344759" lon="8.241541916504502">
        <ele>1997.4300000000001</ele>
        <time>2022-01-30T13:44:11Z</time>
      </trkpt>
      <trkpt lat="46.307856263592839" lon="8.241675272583962">
        <ele>1997.1199999999999</ele>
        <time>2022-01-30T13:44:21Z</time>
      </trkpt>
      <trkpt lat="46.307856598868966" lon="8.241690779104829">
        <ele>1996.98</ele>
        <time>2022-01-30T13:44:22Z</time>
      </trkpt>
      <trkpt lat="46.307859029620886" lon="8.241813741624355">
        <ele>1996.24</ele>
        <time>2022-01-30T13:44:30Z</time>
      </trkpt>
      <trkpt lat="46.307860286906362" lon="8.241860261186957">
        <ele>1995.75</ele>
        <time>2022-01-30T13:44:39Z</time>
      </trkpt>
      <trkpt lat="46.307845367118716" lon="8.24193611741066">
        <ele>1995.3499999999999</ele>
        <time>2022-01-30T13:44:47Z</time>
      </trkpt>
      <trkpt lat="46.307833548635244" lon="8.241968639194965">
        <ele>1994.9400000000001</ele>
        <time>2022-01-30T13:44:58Z</time>
      </trkpt>
      <trkpt lat="46.307831620797515" lon="8.242008788511157">
        <ele>1994.6400000000001</ele>
        <time>2022-01-30T13:45:09Z</time>
      </trkpt>
      <trkpt lat="46.307845953851938" lon="8.242043741047382">
        <ele>1993.3800000000001</ele>
        <time>2022-01-30T13:45:18Z</time>
      </trkpt>
      <trkpt lat="46.307857939973474" lon="8.242102665826678">
        <ele>1991.8599999999999</ele>
        <time>2022-01-30T13:45:29Z</time>
      </trkpt>
      <trkpt lat="46.307858023792505" lon="8.242154298350215">
        <ele>1989.5</ele>
        <time>2022-01-30T13:45:39Z</time>
      </trkpt>
      <trkpt lat="46.307879230007529" lon="8.242191094905138">
        <ele>1988.24</ele>
        <time>2022-01-30T13:45:46Z</time>
      </trkpt>
      <trkpt lat="46.307910745963454" lon="8.24224004521966">
        <ele>1986.1800000000001</ele>
        <time>2022-01-30T13:45:54Z</time>
      </trkpt>
      <trkpt lat="46.307973442599177" lon="8.242245158180594">
        <ele>1984.05</ele>
        <time>2022-01-30T13:46:04Z</time>
      </trkpt>
      <trkpt lat="46.308023147284985" lon="8.242232333868742">
        <ele>1982.3599999999999</ele>
        <time>2022-01-30T13:46:11Z</time>
      </trkpt>
      <trkpt lat="46.308033959940076" lon="8.24223417788744">
        <ele>1981.77</ele>
        <time>2022-01-30T13:46:13Z</time>
      </trkpt>
      <trkpt lat="46.308040833100677" lon="8.242253540083766">
        <ele>1981.4000000000001</ele>
        <time>2022-01-30T13:46:15Z</time>
      </trkpt>
      <trkpt lat="46.308051226660609" lon="8.242312632501125">
        <ele>1980.5899999999999</ele>
        <time>2022-01-30T13:46:19Z</time>
      </trkpt>
      <trkpt lat="46.308053825050592" lon="8.242327468469739">
        <ele>1980.4100000000001</ele>
        <time>2022-01-30T13:46:20Z</time>
      </trkpt>
      <trkpt lat="46.308067655190825" lon="8.242361331358552">
        <ele>1978.9100000000001</ele>
        <time>2022-01-30T13:46:26Z</time>
      </trkpt>
      <trkpt lat="46.308101350441575" lon="8.242342388257384">
        <ele>1977.6800000000001</ele>
        <time>2022-01-30T13:46:31Z</time>
      </trkpt>
      <trkpt lat="46.308149378746748" lon="8.242323445156217">
        <ele>1976.29</ele>
        <time>2022-01-30T13:46:37Z</time>
      </trkpt>
      <trkpt lat="46.308184331282973" lon="8.242305340245366">
        <ele>1974.97</ele>
        <time>2022-01-30T13:46:45Z</time>
      </trkpt>
      <trkpt lat="46.308237053453922" lon="8.242312129586935">
        <ele>1973.8299999999999</ele>
        <time>2022-01-30T13:46:53Z</time>
      </trkpt>
      <trkpt lat="46.308284830302" lon="8.24233534745872">
        <ele>1972.3</ele>
        <time>2022-01-30T13:47:01Z</time>
      </trkpt>
      <trkpt lat="46.30831123329699" lon="8.242354290559888">
        <ele>1971.1700000000001</ele>
        <time>2022-01-30T13:47:08Z</time>
      </trkpt>
      <trkpt lat="46.308342916890979" lon="8.242381196469069">
        <ele>1970.1900000000001</ele>
        <time>2022-01-30T13:47:14Z</time>
      </trkpt>
      <trkpt lat="46.308394633233547" lon="8.242395780980587">
        <ele>1968.6400000000001</ele>
        <time>2022-01-30T13:47:22Z</time>
      </trkpt>
      <trkpt lat="46.308455988764763" lon="8.242422770708799">
        <ele>1966.6800000000001</ele>
        <time>2022-01-30T13:47:32Z</time>
      </trkpt>
      <trkpt lat="46.308514242991805" lon="8.24245604686439">
        <ele>1964.73</ele>
        <time>2022-01-30T13:47:42Z</time>
      </trkpt>
      <trkpt lat="46.308540729805827" lon="8.242464428767562">
        <ele>1963.28</ele>
        <time>2022-01-30T13:47:50Z</time>
      </trkpt>
      <trkpt lat="46.308576436713338" lon="8.242477169260383">
        <ele>1962.47</ele>
        <time>2022-01-30T13:48:03Z</time>
      </trkpt>
      <trkpt lat="46.308614239096642" lon="8.242503153160214">
        <ele>1961.6800000000001</ele>
        <time>2022-01-30T13:48:09Z</time>
      </trkpt>
      <trkpt lat="46.30866939201951" lon="8.24254933744669">
        <ele>1959.52</ele>
        <time>2022-01-30T13:48:19Z</time>
      </trkpt>
      <trkpt lat="46.308705434203148" lon="8.24257523752749">
        <ele>1957.99</ele>
        <time>2022-01-30T13:48:26Z</time>
      </trkpt>
      <trkpt lat="46.308752372860909" lon="8.242588145658374">
        <ele>1956.25</ele>
        <time>2022-01-30T13:48:34Z</time>
      </trkpt>
      <trkpt lat="46.30881599150598" lon="8.242590660229325">
        <ele>1954.3499999999999</ele>
        <time>2022-01-30T13:48:43Z</time>
      </trkpt>
      <trkpt lat="46.308855470269918" lon="8.242564257234335">
        <ele>1952.53</ele>
        <time>2022-01-30T13:48:50Z</time>
      </trkpt>
      <trkpt lat="46.30892395041883" lon="8.242585295811296">
        <ele>1950.3699999999999</ele>
        <time>2022-01-30T13:49:01Z</time>
      </trkpt>
      <trkpt lat="46.308981450274587" lon="8.242592420428991">
        <ele>1948.6300000000001</ele>
        <time>2022-01-30T13:49:10Z</time>
      </trkpt>
      <trkpt lat="46.309012128040195" lon="8.242668192833662">
        <ele>1947.1300000000001</ele>
        <time>2022-01-30T13:49:19Z</time>
      </trkpt>
      <trkpt lat="46.309055797755718" lon="8.242681436240673">
        <ele>1945.0699999999999</ele>
        <time>2022-01-30T13:49:27Z</time>
      </trkpt>
      <trkpt lat="46.309132659807801" lon="8.242674479261041">
        <ele>1942.9100000000001</ele>
        <time>2022-01-30T13:49:34Z</time>
      </trkpt>
      <trkpt lat="46.30919418297708" lon="8.242724016308785">
        <ele>1941.1099999999999</ele>
        <time>2022-01-30T13:49:42Z</time>
      </trkpt>
      <trkpt lat="46.309209857136011" lon="8.242771038785577">
        <ele>1939.0799999999999</ele>
        <time>2022-01-30T13:49:50Z</time>
      </trkpt>
      <trkpt lat="46.309180939570069" lon="8.242821330204606">
        <ele>1937.9100000000001</ele>
        <time>2022-01-30T13:49:55Z</time>
      </trkpt>
      <trkpt lat="46.309128552675247" lon="8.242916716262698">
        <ele>1935.6600000000001</ele>
        <time>2022-01-30T13:50:04Z</time>
      </trkpt>
      <trkpt lat="46.309137688949704" lon="8.242998355999589">
        <ele>1933.5999999999999</ele>
        <time>2022-01-30T13:50:13Z</time>
      </trkpt>
      <trkpt lat="46.309158559888601" lon="8.243038924410939">
        <ele>1932.6099999999999</ele>
        <time>2022-01-30T13:50:18Z</time>
      </trkpt>
      <trkpt lat="46.309167025610805" lon="8.243052586913109">
        <ele>1932.3399999999999</ele>
        <time>2022-01-30T13:50:19Z</time>
      </trkpt>
      <trkpt lat="46.309192255139351" lon="8.243106985464692">
        <ele>1930.98</ele>
        <time>2022-01-30T13:50:23Z</time>
      </trkpt>
      <trkpt lat="46.309248749166727" lon="8.243195498362184">
        <ele>1927.77</ele>
        <time>2022-01-30T13:50:32Z</time>
      </trkpt>
      <trkpt lat="46.309289149940014" lon="8.243229445070028">
        <ele>1926.3399999999999</ele>
        <time>2022-01-30T13:50:37Z</time>
      </trkpt>
      <trkpt lat="46.309385877102613" lon="8.243245789781213">
        <ele>1923.1900000000001</ele>
        <time>2022-01-30T13:50:47Z</time>
      </trkpt>
      <trkpt lat="46.309392163529992" lon="8.243251321837306">
        <ele>1922.9300000000001</ele>
        <time>2022-01-30T13:50:48Z</time>
      </trkpt>
      <trkpt lat="46.309396522119641" lon="8.243261044844985">
        <ele>1922.7</ele>
        <time>2022-01-30T13:50:49Z</time>
      </trkpt>
      <trkpt lat="46.309401048347354" lon="8.243274539709091">
        <ele>1922.47</ele>
        <time>2022-01-30T13:50:50Z</time>
      </trkpt>
      <trkpt lat="46.309423847123981" lon="8.243306390941143">
        <ele>1921.6800000000001</ele>
        <time>2022-01-30T13:50:53Z</time>
      </trkpt>
      <trkpt lat="46.309434324502945" lon="8.243309827521443">
        <ele>1921.4000000000001</ele>
        <time>2022-01-30T13:50:54Z</time>
      </trkpt>
      <trkpt lat="46.309506157413125" lon="8.243290884420276">
        <ele>1919.23</ele>
        <time>2022-01-30T13:51:02Z</time>
      </trkpt>
      <trkpt lat="46.309558628126979" lon="8.24327839538455">
        <ele>1917.3</ele>
        <time>2022-01-30T13:51:10Z</time>
      </trkpt>
      <trkpt lat="46.30963834002614" lon="8.243253836408258">
        <ele>1915.04</ele>
        <time>2022-01-30T13:51:20Z</time>
      </trkpt>
      <trkpt lat="46.309745963662863" lon="8.243314353749156">
        <ele>1912.6800000000001</ele>
        <time>2022-01-30T13:51:31Z</time>
      </trkpt>
      <trkpt lat="46.309765661135316" lon="8.24331309646368">
        <ele>1912.28</ele>
        <time>2022-01-30T13:51:33Z</time>
      </trkpt>
      <trkpt lat="46.309840762987733" lon="8.243356430903077">
        <ele>1910.3900000000001</ele>
        <time>2022-01-30T13:51:42Z</time>
      </trkpt>
      <trkpt lat="46.309870854020119" lon="8.24337512254715">
        <ele>1909.54</ele>
        <time>2022-01-30T13:51:45Z</time>
      </trkpt>
      <trkpt lat="46.309880828484893" lon="8.243377888575196">
        <ele>1909.3299999999999</ele>
        <time>2022-01-30T13:51:46Z</time>
      </trkpt>
      <trkpt lat="46.309891641139984" lon="8.243378391489387">
        <ele>1909.0899999999999</ele>
        <time>2022-01-30T13:51:47Z</time>
      </trkpt>
      <trkpt lat="46.309902369976044" lon="8.243377720937133">
        <ele>1908.8699999999999</ele>
        <time>2022-01-30T13:51:48Z</time>
      </trkpt>
      <trkpt lat="46.309989960864186" lon="8.243373529985547">
        <ele>1908.4000000000001</ele>
        <time>2022-01-30T13:51:58Z</time>
      </trkpt>
      <trkpt lat="46.310069169849157" lon="8.24336783029139">
        <ele>1908.9200000000001</ele>
        <time>2022-01-30T13:52:07Z</time>
      </trkpt>
      <trkpt lat="46.310087442398071" lon="8.243368165567517">
        <ele>1909.02</ele>
        <time>2022-01-30T13:52:15Z</time>
      </trkpt>
      <trkpt lat="46.3101049605757" lon="8.24335265904665">
        <ele>1909.24</ele>
        <time>2022-01-30T13:52:23Z</time>
      </trkpt>
      <trkpt lat="46.310112420469522" lon="8.243364645168185">
        <ele>1909.1700000000001</ele>
        <time>2022-01-30T14:04:02Z</time>
      </trkpt>
      <trkpt lat="46.310129519551992" lon="8.243416277691722">
        <ele>1909.1700000000001</ele>
        <time>2022-01-30T14:04:09Z</time>
      </trkpt>
      <trkpt lat="46.310179475694895" lon="8.243413092568517">
        <ele>1909.1700000000001</ele>
        <time>2022-01-30T14:04:16Z</time>
      </trkpt>
      <trkpt lat="46.310221552848816" lon="8.243425581604242">
        <ele>1909.1700000000001</ele>
        <time>2022-01-30T14:04:23Z</time>
      </trkpt>
      <trkpt lat="46.31026815623045" lon="8.243458271026611">
        <ele>1905.5799999999999</ele>
        <time>2022-01-30T14:04:29Z</time>
      </trkpt>
      <trkpt lat="46.31028383038938" lon="8.243466317653656">
        <ele>1904.8699999999999</ele>
        <time>2022-01-30T14:04:31Z</time>
      </trkpt>
      <trkpt lat="46.310333367437124" lon="8.243501437827945">
        <ele>1903.05</ele>
        <time>2022-01-30T14:04:37Z</time>
      </trkpt>
      <trkpt lat="46.310379132628441" lon="8.243553154170513">
        <ele>1901.6500000000001</ele>
        <time>2022-01-30T14:04:43Z</time>
      </trkpt>
      <trkpt lat="46.310385838150978" lon="8.243562374264002">
        <ele>1901.4100000000001</ele>
        <time>2022-01-30T14:04:44Z</time>
      </trkpt>
      <trkpt lat="46.310393717139959" lon="8.243570839986205">
        <ele>1901.1400000000001</ele>
        <time>2022-01-30T14:04:45Z</time>
      </trkpt>
      <trkpt lat="46.310402937233448" lon="8.243578299880028">
        <ele>1900.8499999999999</ele>
        <time>2022-01-30T14:04:46Z</time>
      </trkpt>
      <trkpt lat="46.310461694374681" lon="8.243664549663663">
        <ele>1898.1400000000001</ele>
        <time>2022-01-30T14:04:55Z</time>
      </trkpt>
      <trkpt lat="46.310490947216749" lon="8.243755325675011">
        <ele>1896.73</ele>
        <time>2022-01-30T14:05:01Z</time>
      </trkpt>
      <trkpt lat="46.310496060177684" lon="8.243771670386195">
        <ele>1896.3800000000001</ele>
        <time>2022-01-30T14:05:02Z</time>
      </trkpt>
      <trkpt lat="46.31051005795598" lon="8.243797654286027">
        <ele>1896.0899999999999</ele>
        <time>2022-01-30T14:05:04Z</time>
      </trkpt>
      <trkpt lat="46.310518942773342" lon="8.243808969855309">
        <ele>1895.9300000000001</ele>
        <time>2022-01-30T14:05:05Z</time>
      </trkpt>
      <trkpt lat="46.310526989400387" lon="8.243822380900383">
        <ele>1895.6900000000001</ele>
        <time>2022-01-30T14:05:06Z</time>
      </trkpt>
      <trkpt lat="46.310535287484527" lon="8.243835791945458">
        <ele>1895.47</ele>
        <time>2022-01-30T14:05:07Z</time>
      </trkpt>
      <trkpt lat="46.310542244464159" lon="8.243849454447627">
        <ele>1895.28</ele>
        <time>2022-01-30T14:05:08Z</time>
      </trkpt>
      <trkpt lat="46.310628326609731" lon="8.243959425017238">
        <ele>1892.95</ele>
        <time>2022-01-30T14:05:19Z</time>
      </trkpt>
      <trkpt lat="46.310636037960649" lon="8.243968561291695">
        <ele>1892.8499999999999</ele>
        <time>2022-01-30T14:05:20Z</time>
      </trkpt>
      <trkpt lat="46.310642743483186" lon="8.243978954851627">
        <ele>1892.74</ele>
        <time>2022-01-30T14:05:21Z</time>
      </trkpt>
      <trkpt lat="46.310648946091533" lon="8.24398934841156">
        <ele>1892.6400000000001</ele>
        <time>2022-01-30T14:05:22Z</time>
      </trkpt>
      <trkpt lat="46.310657663270831" lon="8.244000496342778">
        <ele>1892.53</ele>
        <time>2022-01-30T14:05:23Z</time>
      </trkpt>
      <trkpt lat="46.310667973011732" lon="8.244008626788855">
        <ele>1892.4300000000001</ele>
        <time>2022-01-30T14:05:24Z</time>
      </trkpt>
      <trkpt lat="46.310679791495204" lon="8.244015332311392">
        <ele>1892.3299999999999</ele>
        <time>2022-01-30T14:05:25Z</time>
      </trkpt>
      <trkpt lat="46.310692364349961" lon="8.244019271805883">
        <ele>1892.23</ele>
        <time>2022-01-30T14:05:26Z</time>
      </trkpt>
      <trkpt lat="46.310703931376338" lon="8.244026144966483">
        <ele>1892.0799999999999</ele>
        <time>2022-01-30T14:05:27Z</time>
      </trkpt>
      <trkpt lat="46.310795545578003" lon="8.244134439155459">
        <ele>1890.72</ele>
        <time>2022-01-30T14:05:38Z</time>
      </trkpt>
      <trkpt lat="46.310881376266479" lon="8.244236782193184">
        <ele>1888.7</ele>
        <time>2022-01-30T14:05:51Z</time>
      </trkpt>
      <trkpt lat="46.310953544452786" lon="8.244352955371141">
        <ele>1886.9200000000001</ele>
        <time>2022-01-30T14:06:02Z</time>
      </trkpt>
      <trkpt lat="46.310981372371316" lon="8.244387237355113">
        <ele>1886.0999999999999</ele>
        <time>2022-01-30T14:06:06Z</time>
      </trkpt>
      <trkpt lat="46.311067873612046" lon="8.244469463825226">
        <ele>1884.0599999999999</ele>
        <time>2022-01-30T14:06:16Z</time>
      </trkpt>
      <trkpt lat="46.311155296862125" lon="8.244599048048258">
        <ele>1881.48</ele>
        <time>2022-01-30T14:06:27Z</time>
      </trkpt>
      <trkpt lat="46.311255963519216" lon="8.24464556761086">
        <ele>1879.2</ele>
        <time>2022-01-30T14:06:35Z</time>
      </trkpt>
      <trkpt lat="46.311352774500847" lon="8.244684459641576">
        <ele>1877.3900000000001</ele>
        <time>2022-01-30T14:06:44Z</time>
      </trkpt>
      <trkpt lat="46.311442544683814" lon="8.244731649756432">
        <ele>1876.1500000000001</ele>
        <time>2022-01-30T14:06:53Z</time>
      </trkpt>
      <trkpt lat="46.311527956277132" lon="8.244760651141405">
        <ele>1875.3199999999999</ele>
        <time>2022-01-30T14:06:58Z</time>
      </trkpt>
      <trkpt lat="46.311583276838064" lon="8.244783952832222">
        <ele>1873.8900000000001</ele>
        <time>2022-01-30T14:07:04Z</time>
      </trkpt>
      <trkpt lat="46.311654858291149" lon="8.2448576297611">
        <ele>1871.76</ele>
        <time>2022-01-30T14:07:12Z</time>
      </trkpt>
      <trkpt lat="46.311672041192651" lon="8.244882775470614">
        <ele>1871.0599999999999</ele>
        <time>2022-01-30T14:07:14Z</time>
      </trkpt>
      <trkpt lat="46.311736246570945" lon="8.244996769353747">
        <ele>1869.1300000000001</ele>
        <time>2022-01-30T14:07:23Z</time>
      </trkpt>
      <trkpt lat="46.311755776405334" lon="8.245016718283296">
        <ele>1868.3499999999999</ele>
        <time>2022-01-30T14:07:26Z</time>
      </trkpt>
      <trkpt lat="46.311784693971276" lon="8.245009426027536">
        <ele>1868.1300000000001</ele>
        <time>2022-01-30T14:07:28Z</time>
      </trkpt>
      <trkpt lat="46.311812940984964" lon="8.244953770190477">
        <ele>1866.1300000000001</ele>
        <time>2022-01-30T14:07:37Z</time>
      </trkpt>
      <trkpt lat="46.311864573508501" lon="8.244952177628875">
        <ele>1865.05</ele>
        <time>2022-01-30T14:07:43Z</time>
      </trkpt>
      <trkpt lat="46.311917463317513" lon="8.244996182620525">
        <ele>1862.79</ele>
        <time>2022-01-30T14:07:51Z</time>
      </trkpt>
      <trkpt lat="46.311949398368597" lon="8.245076732710004">
        <ele>1860.8800000000001</ele>
        <time>2022-01-30T14:07:59Z</time>
      </trkpt>
      <trkpt lat="46.311963060870767" lon="8.245108081027865">
        <ele>1859.9300000000001</ele>
        <time>2022-01-30T14:08:02Z</time>
      </trkpt>
      <trkpt lat="46.312007317319512" lon="8.245251579210162">
        <ele>1858.3199999999999</ele>
        <time>2022-01-30T14:08:10Z</time>
      </trkpt>
      <trkpt lat="46.312029277905822" lon="8.245332548394799">
        <ele>1857.22</ele>
        <time>2022-01-30T14:08:17Z</time>
      </trkpt>
      <trkpt lat="46.312058279290795" lon="8.245387617498636">
        <ele>1856.3299999999999</ele>
        <time>2022-01-30T14:08:23Z</time>
      </trkpt>
      <trkpt lat="46.312062470242381" lon="8.245392562821508">
        <ele>1856.21</ele>
        <time>2022-01-30T14:08:24Z</time>
      </trkpt>
      <trkpt lat="46.312055345624685" lon="8.245474118739367">
        <ele>1854.9200000000001</ele>
        <time>2022-01-30T14:08:30Z</time>
      </trkpt>
      <trkpt lat="46.31207562983036" lon="8.245570426806808">
        <ele>1852.3099999999999</ele>
        <time>2022-01-30T14:08:38Z</time>
      </trkpt>
      <trkpt lat="46.312093986198306" lon="8.245645361021161">
        <ele>1850.55</ele>
        <time>2022-01-30T14:08:44Z</time>
      </trkpt>
      <trkpt lat="46.312127429991961" lon="8.245718283578754">
        <ele>1848.79</ele>
        <time>2022-01-30T14:08:50Z</time>
      </trkpt>
      <trkpt lat="46.31215869449079" lon="8.245814926922321">
        <ele>1846.5799999999999</ele>
        <time>2022-01-30T14:08:58Z</time>
      </trkpt>
      <trkpt lat="46.312193647027016" lon="8.245866978541017">
        <ele>1844.71</ele>
        <time>2022-01-30T14:09:05Z</time>
      </trkpt>
      <trkpt lat="46.312208063900471" lon="8.24589497409761">
        <ele>1844.01</ele>
        <time>2022-01-30T14:09:08Z</time>
      </trkpt>
      <trkpt lat="46.312268748879433" lon="8.24594484642148">
        <ele>1842.28</ele>
        <time>2022-01-30T14:09:16Z</time>
      </trkpt>
      <trkpt lat="46.312341587617993" lon="8.245970662683249">
        <ele>1840.5699999999999</ele>
        <time>2022-01-30T14:09:25Z</time>
      </trkpt>
      <trkpt lat="46.312398249283433" lon="8.246002849191427">
        <ele>1838.8900000000001</ele>
        <time>2022-01-30T14:09:31Z</time>
      </trkpt>
      <trkpt lat="46.312418533489108" lon="8.246003016829491">
        <ele>1838.3900000000001</ele>
        <time>2022-01-30T14:09:33Z</time>
      </trkpt>
      <trkpt lat="46.312483157962561" lon="8.246038220822811">
        <ele>1836.5999999999999</ele>
        <time>2022-01-30T14:09:39Z</time>
      </trkpt>
      <trkpt lat="46.312507381662726" lon="8.246108125895262">
        <ele>1835.21</ele>
        <time>2022-01-30T14:09:45Z</time>
      </trkpt>
      <trkpt lat="46.31251148879528" lon="8.246121788397431">
        <ele>1835</ele>
        <time>2022-01-30T14:09:46Z</time>
      </trkpt>
      <trkpt lat="46.312551135197282" lon="8.246214659884572">
        <ele>1833.75</ele>
        <time>2022-01-30T14:09:53Z</time>
      </trkpt>
      <trkpt lat="46.312614418566227" lon="8.246269645169377">
        <ele>1832.28</ele>
        <time>2022-01-30T14:10:02Z</time>
      </trkpt>
      <trkpt lat="46.312641240656376" lon="8.246306693181396">
        <ele>1831.73</ele>
        <time>2022-01-30T14:10:05Z</time>
      </trkpt>
      <trkpt lat="46.312659345567226" lon="8.24632253497839">
        <ele>1831.5899999999999</ele>
        <time>2022-01-30T14:10:06Z</time>
      </trkpt>
      <trkpt lat="46.312708295881748" lon="8.24635237455368">
        <ele>1830.97</ele>
        <time>2022-01-30T14:10:09Z</time>
      </trkpt>
      <trkpt lat="46.312714582309127" lon="8.24635187163949">
        <ele>1830.73</ele>
        <time>2022-01-30T14:10:10Z</time>
      </trkpt>
      <trkpt lat="46.312718773260713" lon="8.246352542191744">
        <ele>1830.55</ele>
        <time>2022-01-30T14:10:11Z</time>
      </trkpt>
      <trkpt lat="46.312726736068726" lon="8.246355392038822">
        <ele>1830.4100000000001</ele>
        <time>2022-01-30T14:10:12Z</time>
      </trkpt>
      <trkpt lat="46.312735620886087" lon="8.24636067263782">
        <ele>1830.3</ele>
        <time>2022-01-30T14:10:13Z</time>
      </trkpt>
      <trkpt lat="46.312790773808956" lon="8.246427644044161">
        <ele>1828.8900000000001</ele>
        <time>2022-01-30T14:10:19Z</time>
      </trkpt>
      <trkpt lat="46.312842238694429" lon="8.246435774490237">
        <ele>1828.4400000000001</ele>
        <time>2022-01-30T14:10:24Z</time>
      </trkpt>
      <trkpt lat="46.312850285321474" lon="8.246443821117282">
        <ele>1828.3299999999999</ele>
        <time>2022-01-30T14:10:25Z</time>
      </trkpt>
      <trkpt lat="46.312911892309785" lon="8.246524455025792">
        <ele>1827.01</ele>
        <time>2022-01-30T14:10:33Z</time>
      </trkpt>
      <trkpt lat="46.31292044185102" lon="8.246563095599413">
        <ele>1826.79</ele>
        <time>2022-01-30T14:10:36Z</time>
      </trkpt>
      <trkpt lat="46.312924297526479" lon="8.246578769758344">
        <ele>1826.77</ele>
        <time>2022-01-30T14:10:37Z</time>
      </trkpt>
      <trkpt lat="46.312939217314124" lon="8.246602490544319">
        <ele>1826.6400000000001</ele>
        <time>2022-01-30T14:10:40Z</time>
      </trkpt>
      <trkpt lat="46.312996298074722" lon="8.246645992621779">
        <ele>1826.1199999999999</ele>
        <time>2022-01-30T14:10:48Z</time>
      </trkpt>
      <trkpt lat="46.313054887577891" lon="8.24667189270258">
        <ele>1825.1900000000001</ele>
        <time>2022-01-30T14:10:56Z</time>
      </trkpt>
      <trkpt lat="46.313083386048675" lon="8.246688069775701">
        <ele>1824.4300000000001</ele>
        <time>2022-01-30T14:11:00Z</time>
      </trkpt>
      <trkpt lat="46.313171060755849" lon="8.246814049780369">
        <ele>1821.9300000000001</ele>
        <time>2022-01-30T14:11:10Z</time>
      </trkpt>
      <trkpt lat="46.31322386674583" lon="8.246816983446479">
        <ele>1820.8</ele>
        <time>2022-01-30T14:11:16Z</time>
      </trkpt>
      <trkpt lat="46.31323853507638" lon="8.246842296794057">
        <ele>1820.52</ele>
        <time>2022-01-30T14:11:18Z</time>
      </trkpt>
      <trkpt lat="46.31325907073915" lon="8.246901389211416">
        <ele>1820.1500000000001</ele>
        <time>2022-01-30T14:11:21Z</time>
      </trkpt>
      <trkpt lat="46.313262088224292" lon="8.246920499950647">
        <ele>1819.96</ele>
        <time>2022-01-30T14:11:22Z</time>
      </trkpt>
      <trkpt lat="46.313285389915109" lon="8.247049245983362">
        <ele>1818.1099999999999</ele>
        <time>2022-01-30T14:11:30Z</time>
      </trkpt>
      <trkpt lat="46.313318246975541" lon="8.247102973982692">
        <ele>1817.4300000000001</ele>
        <time>2022-01-30T14:11:34Z</time>
      </trkpt>
      <trkpt lat="46.313326293602586" lon="8.247114038094878">
        <ele>1817.28</ele>
        <time>2022-01-30T14:11:35Z</time>
      </trkpt>
      <trkpt lat="46.313374824821949" lon="8.247135076671839">
        <ele>1816.4100000000001</ele>
        <time>2022-01-30T14:11:41Z</time>
      </trkpt>
      <trkpt lat="46.313442466780543" lon="8.247152594849467">
        <ele>1815.48</ele>
        <time>2022-01-30T14:11:47Z</time>
      </trkpt>
      <trkpt lat="46.313475072383881" lon="8.24715125374496">
        <ele>1814.51</ele>
        <time>2022-01-30T14:11:50Z</time>
      </trkpt>
      <trkpt lat="46.313533829525113" lon="8.247216129675508">
        <ele>1812.9300000000001</ele>
        <time>2022-01-30T14:11:57Z</time>
      </trkpt>
      <trkpt lat="46.313577247783542" lon="8.247184865176678">
        <ele>1810.8099999999999</ele>
        <time>2022-01-30T14:12:05Z</time>
      </trkpt>
      <trkpt lat="46.31363969296217" lon="8.247173046693206">
        <ele>1808.95</ele>
        <time>2022-01-30T14:12:12Z</time>
      </trkpt>
      <trkpt lat="46.313710771501064" lon="8.247218057513237">
        <ele>1806.8299999999999</ele>
        <time>2022-01-30T14:12:20Z</time>
      </trkpt>
      <trkpt lat="46.31371689029038" lon="8.247208334505558">
        <ele>1806.5799999999999</ele>
        <time>2022-01-30T14:12:21Z</time>
      </trkpt>
      <trkpt lat="46.313764499500394" lon="8.24721772223711">
        <ele>1804.49</ele>
        <time>2022-01-30T14:12:28Z</time>
      </trkpt>
      <trkpt lat="46.313805151730776" lon="8.247191486880183">
        <ele>1802.8499999999999</ele>
        <time>2022-01-30T14:12:35Z</time>
      </trkpt>
      <trkpt lat="46.31380288861692" lon="8.24715762399137">
        <ele>1802.0699999999999</ele>
        <time>2022-01-30T14:12:37Z</time>
      </trkpt>
      <trkpt lat="46.31383029744029" lon="8.247143290936947">
        <ele>1801</ele>
        <time>2022-01-30T14:12:42Z</time>
      </trkpt>
      <trkpt lat="46.313830381259322" lon="8.24707162566483">
        <ele>1799</ele>
        <time>2022-01-30T14:12:48Z</time>
      </trkpt>
      <trkpt lat="46.313825184479356" lon="8.247052347287536">
        <ele>1798.7</ele>
        <time>2022-01-30T14:12:49Z</time>
      </trkpt>
      <trkpt lat="46.313853599131107" lon="8.24704329483211">
        <ele>1797.2</ele>
        <time>2022-01-30T14:12:54Z</time>
      </trkpt>
      <trkpt lat="46.313867848366499" lon="8.247057376429439">
        <ele>1797.01</ele>
        <time>2022-01-30T14:12:55Z</time>
      </trkpt>
      <trkpt lat="46.313895592465997" lon="8.247081683948636">
        <ele>1796.5799999999999</ele>
        <time>2022-01-30T14:12:57Z</time>
      </trkpt>
      <trkpt lat="46.313942447304726" lon="8.247144380584359">
        <ele>1795.0599999999999</ele>
        <time>2022-01-30T14:13:04Z</time>
      </trkpt>
      <trkpt lat="46.313955774530768" lon="8.24715418741107">
        <ele>1794.45</ele>
        <time>2022-01-30T14:13:09Z</time>
      </trkpt>
      <trkpt lat="46.313968263566494" lon="8.24716055765748">
        <ele>1794.21</ele>
        <time>2022-01-30T14:13:10Z</time>
      </trkpt>
      <trkpt lat="46.313982931897044" lon="8.24716885574162">
        <ele>1793.98</ele>
        <time>2022-01-30T14:13:11Z</time>
      </trkpt>
      <trkpt lat="46.314074127003551" lon="8.247233983129263">
        <ele>1791.5999999999999</ele>
        <time>2022-01-30T14:13:21Z</time>
      </trkpt>
      <trkpt lat="46.314085442572832" lon="8.247239431366324">
        <ele>1791.3699999999999</ele>
        <time>2022-01-30T14:13:22Z</time>
      </trkpt>
      <trkpt lat="46.314145624637604" lon="8.247292991727591">
        <ele>1789.8399999999999</ele>
        <time>2022-01-30T14:13:28Z</time>
      </trkpt>
      <trkpt lat="46.314153335988522" lon="8.247301122173667">
        <ele>1789.5699999999999</ele>
        <time>2022-01-30T14:13:29Z</time>
      </trkpt>
      <trkpt lat="46.314163058996201" lon="8.247308917343617">
        <ele>1789.3199999999999</ele>
        <time>2022-01-30T14:13:30Z</time>
      </trkpt>
      <trkpt lat="46.314182337373495" lon="8.247333727777004">
        <ele>1788.77</ele>
        <time>2022-01-30T14:13:32Z</time>
      </trkpt>
      <trkpt lat="46.31419088691473" lon="8.247349234297872">
        <ele>1788.4400000000001</ele>
        <time>2022-01-30T14:13:33Z</time>
      </trkpt>
      <trkpt lat="46.314195999875665" lon="8.2473667524755">
        <ele>1788.1400000000001</ele>
        <time>2022-01-30T14:13:34Z</time>
      </trkpt>
      <trkpt lat="46.314199771732092" lon="8.247485021129251">
        <ele>1785.6900000000001</ele>
        <time>2022-01-30T14:13:41Z</time>
      </trkpt>
      <trkpt lat="46.314216954633594" lon="8.247516620904207">
        <ele>1783.8299999999999</ele>
        <time>2022-01-30T14:13:46Z</time>
      </trkpt>
      <trkpt lat="46.31422458216548" lon="8.247514441609383">
        <ele>1783.52</ele>
        <time>2022-01-30T14:13:47Z</time>
      </trkpt>
      <trkpt lat="46.314246626570821" lon="8.247495498508215">
        <ele>1782.9200000000001</ele>
        <time>2022-01-30T14:13:49Z</time>
      </trkpt>
      <trkpt lat="46.314257523044944" lon="8.247482758015394">
        <ele>1782.5699999999999</ele>
        <time>2022-01-30T14:13:50Z</time>
      </trkpt>
      <trkpt lat="46.314278896898031" lon="8.2474444527179">
        <ele>1781.9100000000001</ele>
        <time>2022-01-30T14:13:53Z</time>
      </trkpt>
      <trkpt lat="46.314281495288014" lon="8.247426766902208">
        <ele>1781.6700000000001</ele>
        <time>2022-01-30T14:13:54Z</time>
      </trkpt>
      <trkpt lat="46.314283842220902" lon="8.247406566515565">
        <ele>1781.4400000000001</ele>
        <time>2022-01-30T14:13:55Z</time>
      </trkpt>
      <trkpt lat="46.314310245215893" lon="8.247365327551961">
        <ele>1780.3900000000001</ele>
        <time>2022-01-30T14:13:59Z</time>
      </trkpt>
      <trkpt lat="46.314386017620564" lon="8.247417043894529">
        <ele>1779.0899999999999</ele>
        <time>2022-01-30T14:14:07Z</time>
      </trkpt>
      <trkpt lat="46.314397417008877" lon="8.247342025861144">
        <ele>1777.03</ele>
        <time>2022-01-30T14:14:14Z</time>
      </trkpt>
      <trkpt lat="46.314421640709043" lon="8.247294165194035">
        <ele>1774.79</ele>
        <time>2022-01-30T14:14:22Z</time>
      </trkpt>
      <trkpt lat="46.314453659579158" lon="8.247296176850796">
        <ele>1773.23</ele>
        <time>2022-01-30T14:14:28Z</time>
      </trkpt>
      <trkpt lat="46.314489366486669" lon="8.247314617037773">
        <ele>1772.4400000000001</ele>
        <time>2022-01-30T14:14:31Z</time>
      </trkpt>
      <trkpt lat="46.314517864957452" lon="8.247382678091526">
        <ele>1771.1500000000001</ele>
        <time>2022-01-30T14:14:35Z</time>
      </trkpt>
      <trkpt lat="46.314525660127401" lon="8.247450990602374">
        <ele>1770.3</ele>
        <time>2022-01-30T14:14:38Z</time>
      </trkpt>
      <trkpt lat="46.314531527459621" lon="8.247469933703542">
        <ele>1770.0699999999999</ele>
        <time>2022-01-30T14:14:39Z</time>
      </trkpt>
      <trkpt lat="46.314572766423225" lon="8.247613767161965">
        <ele>1768.5599999999999</ele>
        <time>2022-01-30T14:14:46Z</time>
      </trkpt>
      <trkpt lat="46.314612664282322" lon="8.247643439099193">
        <ele>1767.6199999999999</ele>
        <time>2022-01-30T14:14:53Z</time>
      </trkpt>
      <trkpt lat="46.31465314887464" lon="8.247654251754284">
        <ele>1766.8599999999999</ele>
        <time>2022-01-30T14:14:57Z</time>
      </trkpt>
      <trkpt lat="46.314667817205191" lon="8.247659364715219">
        <ele>1766.54</ele>
        <time>2022-01-30T14:14:58Z</time>
      </trkpt>
      <trkpt lat="46.314682569354773" lon="8.247672440484166">
        <ele>1766.3900000000001</ele>
        <time>2022-01-30T14:14:59Z</time>
      </trkpt>
      <trkpt lat="46.314736129716039" lon="8.247742345556617">
        <ele>1765.6099999999999</ele>
        <time>2022-01-30T14:15:04Z</time>
      </trkpt>
      <trkpt lat="46.314759431406856" lon="8.247773023322225">
        <ele>1765.3199999999999</ele>
        <time>2022-01-30T14:15:07Z</time>
      </trkpt>
      <trkpt lat="46.314763789996505" lon="8.247785931453109">
        <ele>1765.22</ele>
        <time>2022-01-30T14:15:08Z</time>
      </trkpt>
      <trkpt lat="46.314769070595503" lon="8.247800264507532">
        <ele>1765.1500000000001</ele>
        <time>2022-01-30T14:15:09Z</time>
      </trkpt>
      <trkpt lat="46.314784996211529" lon="8.247817028313875">
        <ele>1764.8800000000001</ele>
        <time>2022-01-30T14:15:11Z</time>
      </trkpt>
      <trkpt lat="46.314827995374799" lon="8.247845359146595">
        <ele>1763.8399999999999</ele>
        <time>2022-01-30T14:15:17Z</time>
      </trkpt>
      <trkpt lat="46.314869821071625" lon="8.247845191508532">
        <ele>1762.1900000000001</ele>
        <time>2022-01-30T14:15:24Z</time>
      </trkpt>
      <trkpt lat="46.314896140247583" lon="8.247863380238414">
        <ele>1761.47</ele>
        <time>2022-01-30T14:15:27Z</time>
      </trkpt>
      <trkpt lat="46.314902929589152" lon="8.247861787676811">
        <ele>1761.1300000000001</ele>
        <time>2022-01-30T14:15:28Z</time>
      </trkpt>
      <trkpt lat="46.314920950680971" lon="8.247857680544257">
        <ele>1760.5699999999999</ele>
        <time>2022-01-30T14:15:30Z</time>
      </trkpt>
      <trkpt lat="46.31497316993773" lon="8.247889950871468">
        <ele>1759.0599999999999</ele>
        <time>2022-01-30T14:15:35Z</time>
      </trkpt>
      <trkpt lat="46.314981132745743" lon="8.247901098802686">
        <ele>1758.8199999999999</ele>
        <time>2022-01-30T14:15:36Z</time>
      </trkpt>
      <trkpt lat="46.314994879066944" lon="8.247974691912532">
        <ele>1757.79</ele>
        <time>2022-01-30T14:15:40Z</time>
      </trkpt>
      <trkpt lat="46.315018683671951" lon="8.248031521216035">
        <ele>1756.8199999999999</ele>
        <time>2022-01-30T14:15:44Z</time>
      </trkpt>
      <trkpt lat="46.315037626773119" lon="8.248049039393663">
        <ele>1755.9400000000001</ele>
        <time>2022-01-30T14:15:46Z</time>
      </trkpt>
      <trkpt lat="46.315049529075623" lon="8.248060690239072">
        <ele>1755.6500000000001</ele>
        <time>2022-01-30T14:15:47Z</time>
      </trkpt>
      <trkpt lat="46.31509093567729" lon="8.24810897000134">
        <ele>1754.8900000000001</ele>
        <time>2022-01-30T14:15:51Z</time>
      </trkpt>
      <trkpt lat="46.31510216742754" lon="8.248116346076131">
        <ele>1754.6500000000001</ele>
        <time>2022-01-30T14:15:52Z</time>
      </trkpt>
      <trkpt lat="46.315113147720695" lon="8.248123722150922">
        <ele>1754.4200000000001</ele>
        <time>2022-01-30T14:15:53Z</time>
      </trkpt>
      <trkpt lat="46.31512513384223" lon="8.248136797919869">
        <ele>1754.2</ele>
        <time>2022-01-30T14:15:54Z</time>
      </trkpt>
      <trkpt lat="46.31513636559248" lon="8.248151550069451">
        <ele>1753.99</ele>
        <time>2022-01-30T14:15:55Z</time>
      </trkpt>
      <trkpt lat="46.315199229866266" lon="8.248261939734221">
        <ele>1752.5899999999999</ele>
        <time>2022-01-30T14:16:02Z</time>
      </trkpt>
      <trkpt lat="46.315260920673609" lon="8.248364450410008">
        <ele>1751.8199999999999</ele>
        <time>2022-01-30T14:16:10Z</time>
      </trkpt>
      <trkpt lat="46.31528053432703" lon="8.248374341055751">
        <ele>1751.8699999999999</ele>
        <time>2022-01-30T14:16:13Z</time>
      </trkpt>
      <trkpt lat="46.315292688086629" lon="8.248376520350575">
        <ele>1751.8</ele>
        <time>2022-01-30T14:16:14Z</time>
      </trkpt>
      <trkpt lat="46.315307524055243" lon="8.248380878940225">
        <ele>1751.7</ele>
        <time>2022-01-30T14:16:15Z</time>
      </trkpt>
      <trkpt lat="46.315337447449565" lon="8.248392697423697">
        <ele>1751.52</ele>
        <time>2022-01-30T14:16:17Z</time>
      </trkpt>
      <trkpt lat="46.31540265865624" lon="8.248480875045061">
        <ele>1750.6300000000001</ele>
        <time>2022-01-30T14:16:24Z</time>
      </trkpt>
      <trkpt lat="46.315410789102316" lon="8.248489759862423">
        <ele>1750.5799999999999</ele>
        <time>2022-01-30T14:16:25Z</time>
      </trkpt>
      <trkpt lat="46.315482538193464" lon="8.248553462326527">
        <ele>1749.6600000000001</ele>
        <time>2022-01-30T14:16:33Z</time>
      </trkpt>
      <trkpt lat="46.315571637824178" lon="8.248631749302149">
        <ele>1746.4300000000001</ele>
        <time>2022-01-30T14:16:43Z</time>
      </trkpt>
      <trkpt lat="46.315609188750386" lon="8.24865966103971">
        <ele>1745.6300000000001</ele>
        <time>2022-01-30T14:16:46Z</time>
      </trkpt>
      <trkpt lat="46.315667359158397" lon="8.248719675466418">
        <ele>1744.3699999999999</ele>
        <time>2022-01-30T14:16:52Z</time>
      </trkpt>
      <trkpt lat="46.315718740224838" lon="8.248794190585613">
        <ele>1742.73</ele>
        <time>2022-01-30T14:17:00Z</time>
      </trkpt>
      <trkpt lat="46.315772049129009" lon="8.248816570267081">
        <ele>1741.0799999999999</ele>
        <time>2022-01-30T14:17:09Z</time>
      </trkpt>
      <trkpt lat="46.315823178738356" lon="8.248848924413323">
        <ele>1739.96</ele>
        <time>2022-01-30T14:17:15Z</time>
      </trkpt>
      <trkpt lat="46.315837344154716" lon="8.248847080394626">
        <ele>1739.51</ele>
        <time>2022-01-30T14:17:17Z</time>
      </trkpt>
      <trkpt lat="46.315844468772411" lon="8.248842218890786">
        <ele>1739</ele>
        <time>2022-01-30T14:17:18Z</time>
      </trkpt>
      <trkpt lat="46.315847737714648" lon="8.24879989027977">
        <ele>1737.6300000000001</ele>
        <time>2022-01-30T14:17:24Z</time>
      </trkpt>
      <trkpt lat="46.315864250063896" lon="8.248768290504813">
        <ele>1735.76</ele>
        <time>2022-01-30T14:17:30Z</time>
      </trkpt>
      <trkpt lat="46.315838936716318" lon="8.248758399859071">
        <ele>1734.45</ele>
        <time>2022-01-30T14:17:37Z</time>
      </trkpt>
      <trkpt lat="46.315826950594783" lon="8.248739456757903">
        <ele>1734.27</ele>
        <time>2022-01-30T14:17:39Z</time>
      </trkpt>
      <trkpt lat="46.315806666389108" lon="8.248614734038711">
        <ele>1733.26</ele>
        <time>2022-01-30T14:17:45Z</time>
      </trkpt>
      <trkpt lat="46.315855365246534" lon="8.24862252920866">
        <ele>1732.1400000000001</ele>
        <time>2022-01-30T14:17:50Z</time>
      </trkpt>
      <trkpt lat="46.315901968628168" lon="8.248681873083115">
        <ele>1729.96</ele>
        <time>2022-01-30T14:17:58Z</time>
      </trkpt>
      <trkpt lat="46.315960139036179" lon="8.248752951622009">
        <ele>1727.5</ele>
        <time>2022-01-30T14:18:06Z</time>
      </trkpt>
      <trkpt lat="46.315967850387096" lon="8.248760076239705">
        <ele>1727.3</ele>
        <time>2022-01-30T14:18:07Z</time>
      </trkpt>
      <trkpt lat="46.315977070480585" lon="8.248769631609321">
        <ele>1727.1199999999999</ele>
        <time>2022-01-30T14:18:08Z</time>
      </trkpt>
      <trkpt lat="46.315986793488264" lon="8.248782539740205">
        <ele>1726.9100000000001</ele>
        <time>2022-01-30T14:18:09Z</time>
      </trkpt>
      <trkpt lat="46.316011939197779" lon="8.248812798410654">
        <ele>1726.46</ele>
        <time>2022-01-30T14:18:11Z</time>
      </trkpt>
      <trkpt lat="46.316026858985424" lon="8.248826544731855">
        <ele>1726.23</ele>
        <time>2022-01-30T14:18:12Z</time>
      </trkpt>
      <trkpt lat="46.316042365506291" lon="8.248836183920503">
        <ele>1725.99</ele>
        <time>2022-01-30T14:18:13Z</time>
      </trkpt>
      <trkpt lat="46.316056530922651" lon="8.248847583308816">
        <ele>1725.74</ele>
        <time>2022-01-30T14:18:14Z</time>
      </trkpt>
      <trkpt lat="46.316069522872567" lon="8.248857473954558">
        <ele>1725.1600000000001</ele>
        <time>2022-01-30T14:18:15Z</time>
      </trkpt>
      <trkpt lat="46.316080084070563" lon="8.248866861686111">
        <ele>1724.9000000000001</ele>
        <time>2022-01-30T14:18:16Z</time>
      </trkpt>
      <trkpt lat="46.316162226721644" lon="8.248950848355889">
        <ele>1722.8599999999999</ele>
        <time>2022-01-30T14:18:23Z</time>
      </trkpt>
      <trkpt lat="46.316188545897603" lon="8.249025363475084">
        <ele>1721.1300000000001</ele>
        <time>2022-01-30T14:18:31Z</time>
      </trkpt>
      <trkpt lat="46.316178487613797" lon="8.249027542769909">
        <ele>1720.8199999999999</ele>
        <time>2022-01-30T14:19:06Z</time>
      </trkpt>
      <trkpt lat="46.316187623888254" lon="8.249023016542196">
        <ele>1720.7</ele>
        <time>2022-01-30T14:19:18Z</time>
      </trkpt>
      <trkpt lat="46.316202459856868" lon="8.24908085167408">
        <ele>1720.3099999999999</ele>
        <time>2022-01-30T14:19:28Z</time>
      </trkpt>
      <trkpt lat="46.316222073510289" lon="8.24916685000062">
        <ele>1718.8900000000001</ele>
        <time>2022-01-30T14:19:37Z</time>
      </trkpt>
      <trkpt lat="46.316222073510289" lon="8.249213034287095">
        <ele>1718.0599999999999</ele>
        <time>2022-01-30T14:19:40Z</time>
      </trkpt>
      <trkpt lat="46.316201034933329" lon="8.249261984601617">
        <ele>1717.3099999999999</ele>
        <time>2022-01-30T14:19:44Z</time>
      </trkpt>
      <trkpt lat="46.316128950566053" lon="8.249282939359546">
        <ele>1715.3800000000001</ele>
        <time>2022-01-30T14:19:53Z</time>
      </trkpt>
      <trkpt lat="46.316076144576073" lon="8.24932225048542">
        <ele>1713.55</ele>
        <time>2022-01-30T14:20:01Z</time>
      </trkpt>
      <trkpt lat="46.316016716882586" lon="8.24939114972949">
        <ele>1711.6099999999999</ele>
        <time>2022-01-30T14:20:10Z</time>
      </trkpt>
      <trkpt lat="46.315990649163723" lon="8.249455187469721">
        <ele>1709.77</ele>
        <time>2022-01-30T14:20:18Z</time>
      </trkpt>
      <trkpt lat="46.315978746861219" lon="8.249506065621972">
        <ele>1708.3699999999999</ele>
        <time>2022-01-30T14:20:24Z</time>
      </trkpt>
      <trkpt lat="46.315976483747363" lon="8.249521153047681">
        <ele>1707.97</ele>
        <time>2022-01-30T14:20:25Z</time>
      </trkpt>
      <trkpt lat="46.315921833738685" lon="8.249618383124471">
        <ele>1705.76</ele>
        <time>2022-01-30T14:20:33Z</time>
      </trkpt>
      <trkpt lat="46.315879840403795" lon="8.249676553532481">
        <ele>1704.55</ele>
        <time>2022-01-30T14:20:38Z</time>
      </trkpt>
      <trkpt lat="46.315873470157385" lon="8.249692060053349">
        <ele>1704.3</ele>
        <time>2022-01-30T14:20:39Z</time>
      </trkpt>
      <trkpt lat="46.315848156809807" lon="8.249732796102762">
        <ele>1703.48</ele>
        <time>2022-01-30T14:20:42Z</time>
      </trkpt>
      <trkpt lat="46.315804990008473" lon="8.249804796651006">
        <ele>1701.9200000000001</ele>
        <time>2022-01-30T14:20:48Z</time>
      </trkpt>
      <trkpt lat="46.315774563699961" lon="8.249874031171203">
        <ele>1700.6199999999999</ele>
        <time>2022-01-30T14:20:54Z</time>
      </trkpt>
      <trkpt lat="46.31578822620213" lon="8.249881658703089">
        <ele>1699.9400000000001</ele>
        <time>2022-01-30T14:20:58Z</time>
      </trkpt>
      <trkpt lat="46.315817730501294" lon="8.249888196587563">
        <ele>1699.46</ele>
        <time>2022-01-30T14:21:01Z</time>
      </trkpt>
      <trkpt lat="46.315829465165734" lon="8.249882748350501">
        <ele>1699.3</ele>
        <time>2022-01-30T14:21:02Z</time>
      </trkpt>
      <trkpt lat="46.315841199830174" lon="8.249873444437981">
        <ele>1699.1800000000001</ele>
        <time>2022-01-30T14:21:03Z</time>
      </trkpt>
      <trkpt lat="46.315872631967068" lon="8.249844945967197">
        <ele>1698.45</ele>
        <time>2022-01-30T14:21:07Z</time>
      </trkpt>
      <trkpt lat="46.315916469320655" lon="8.249850645661354">
        <ele>1697.02</ele>
        <time>2022-01-30T14:21:13Z</time>
      </trkpt>
      <trkpt lat="46.315890066325665" lon="8.249913342297077">
        <ele>1696.4300000000001</ele>
        <time>2022-01-30T14:21:17Z</time>
      </trkpt>
      <trkpt lat="46.315788142383099" lon="8.249992299824953">
        <ele>1694.3499999999999</ele>
        <time>2022-01-30T14:21:26Z</time>
      </trkpt>
      <trkpt lat="46.315736090764403" lon="8.24999607168138">
        <ele>1693.1400000000001</ele>
        <time>2022-01-30T14:21:34Z</time>
      </trkpt>
      <trkpt lat="46.315717063844204" lon="8.25001266784966">
        <ele>1692.4400000000001</ele>
        <time>2022-01-30T14:21:39Z</time>
      </trkpt>
      <trkpt lat="46.315667778253555" lon="8.250032868236303">
        <ele>1691.8499999999999</ele>
        <time>2022-01-30T14:21:43Z</time>
      </trkpt>
      <trkpt lat="46.315588233992457" lon="8.250082237645984">
        <ele>1690.1500000000001</ele>
        <time>2022-01-30T14:21:52Z</time>
      </trkpt>
      <trkpt lat="46.315567865967751" lon="8.250088021159172">
        <ele>1689.1099999999999</ele>
        <time>2022-01-30T14:22:02Z</time>
      </trkpt>
      <trkpt lat="46.31552092730999" lon="8.250109981745482">
        <ele>1689.9300000000001</ele>
        <time>2022-01-30T14:22:10Z</time>
      </trkpt>
      <trkpt lat="46.315499721094966" lon="8.250121884047985">
        <ele>1689.0899999999999</ele>
        <time>2022-01-30T14:22:19Z</time>
      </trkpt>
      <trkpt lat="46.315461583435535" lon="8.250131690874696">
        <ele>1689.03</ele>
        <time>2022-01-30T14:22:25Z</time>
      </trkpt>
      <trkpt lat="46.315458230674267" lon="8.250151388347149">
        <ele>1689.03</ele>
        <time>2022-01-30T14:22:27Z</time>
      </trkpt>
      <trkpt lat="46.315459152683616" lon="8.250163458287716">
        <ele>1689.03</ele>
        <time>2022-01-30T14:22:28Z</time>
      </trkpt>
      <trkpt lat="46.315455297008157" lon="8.250211654230952">
        <ele>1689</ele>
        <time>2022-01-30T14:22:31Z</time>
      </trkpt>
      <trkpt lat="46.315422775223851" lon="8.25030779466033">
        <ele>1688.01</ele>
        <time>2022-01-30T14:22:39Z</time>
      </trkpt>
      <trkpt lat="46.315400898456573" lon="8.250340819358826">
        <ele>1687.8399999999999</ele>
        <time>2022-01-30T14:22:42Z</time>
      </trkpt>
      <trkpt lat="46.315327975898981" lon="8.250369569286704">
        <ele>1687.28</ele>
        <time>2022-01-30T14:22:49Z</time>
      </trkpt>
      <trkpt lat="46.315318923443556" lon="8.250376274809241">
        <ele>1687.2</ele>
        <time>2022-01-30T14:22:50Z</time>
      </trkpt>
      <trkpt lat="46.315286150202155" lon="8.250474762171507">
        <ele>1686.4100000000001</ele>
        <time>2022-01-30T14:22:57Z</time>
      </trkpt>
      <trkpt lat="46.31523359566927" lon="8.250570483505726">
        <ele>1684.8599999999999</ele>
        <time>2022-01-30T14:23:05Z</time>
      </trkpt>
      <trkpt lat="46.315155141055584" lon="8.25073778629303">
        <ele>1682.0599999999999</ele>
        <time>2022-01-30T14:23:17Z</time>
      </trkpt>
      <trkpt lat="46.315077021718025" lon="8.250886062160134">
        <ele>1679.54</ele>
        <time>2022-01-30T14:23:28Z</time>
      </trkpt>
      <trkpt lat="46.314990352839231" lon="8.250967366620898">
        <ele>1677.4200000000001</ele>
        <time>2022-01-30T14:23:36Z</time>
      </trkpt>
      <trkpt lat="46.314900079742074" lon="8.251027129590511">
        <ele>1676.1199999999999</ele>
        <time>2022-01-30T14:23:44Z</time>
      </trkpt>
      <trkpt lat="46.314825229346752" lon="8.251117067411542">
        <ele>1675.75</ele>
        <time>2022-01-30T14:23:52Z</time>
      </trkpt>
      <trkpt lat="46.314767980948091" lon="8.251192336902022">
        <ele>1675.8199999999999</ele>
        <time>2022-01-30T14:23:59Z</time>
      </trkpt>
      <trkpt lat="46.314752977341413" lon="8.251204490661621">
        <ele>1675.79</ele>
        <time>2022-01-30T14:24:01Z</time>
      </trkpt>
      <trkpt lat="46.314741326496005" lon="8.251271294429898">
        <ele>1675.45</ele>
        <time>2022-01-30T14:24:06Z</time>
      </trkpt>
      <trkpt lat="46.314725652337074" lon="8.251397022977471">
        <ele>1674.6300000000001</ele>
        <time>2022-01-30T14:24:15Z</time>
      </trkpt>
      <trkpt lat="46.314715845510364" lon="8.251407081261277">
        <ele>1674.5699999999999</ele>
        <time>2022-01-30T14:24:16Z</time>
      </trkpt>
      <trkpt lat="46.314636720344424" lon="8.25143214315176">
        <ele>1673.49</ele>
        <time>2022-01-30T14:24:24Z</time>
      </trkpt>
      <trkpt lat="46.314626829698682" lon="8.251442452892661">
        <ele>1673.3099999999999</ele>
        <time>2022-01-30T14:24:25Z</time>
      </trkpt>
      <trkpt lat="46.314615849405527" lon="8.251455361023545">
        <ele>1673.1400000000001</ele>
        <time>2022-01-30T14:24:26Z</time>
      </trkpt>
      <trkpt lat="46.314599085599184" lon="8.251510430127382">
        <ele>1672.26</ele>
        <time>2022-01-30T14:24:30Z</time>
      </trkpt>
      <trkpt lat="46.314598666504025" lon="8.251525852829218">
        <ele>1672.01</ele>
        <time>2022-01-30T14:24:31Z</time>
      </trkpt>
      <trkpt lat="46.314597576856613" lon="8.251542868092656">
        <ele>1671.78</ele>
        <time>2022-01-30T14:24:32Z</time>
      </trkpt>
      <trkpt lat="46.314596068114042" lon="8.251558877527714">
        <ele>1671.5799999999999</ele>
        <time>2022-01-30T14:24:33Z</time>
      </trkpt>
      <trkpt lat="46.314593469724059" lon="8.251573294401169">
        <ele>1671.0999999999999</ele>
        <time>2022-01-30T14:24:34Z</time>
      </trkpt>
      <trkpt lat="46.314590452238917" lon="8.251587292179465">
        <ele>1670.8</ele>
        <time>2022-01-30T14:24:35Z</time>
      </trkpt>
      <trkpt lat="46.314587770029902" lon="8.251601876690984">
        <ele>1670.5</ele>
        <time>2022-01-30T14:24:36Z</time>
      </trkpt>
      <trkpt lat="46.314585339277983" lon="8.251617299392819">
        <ele>1670.22</ele>
        <time>2022-01-30T14:24:37Z</time>
      </trkpt>
      <trkpt lat="46.314584081992507" lon="8.251633141189814">
        <ele>1669.9000000000001</ele>
        <time>2022-01-30T14:24:38Z</time>
      </trkpt>
      <trkpt lat="46.314575532451272" lon="8.251795498654246">
        <ele>1666.79</ele>
        <time>2022-01-30T14:24:47Z</time>
      </trkpt>
      <trkpt lat="46.314584417268634" lon="8.251946289092302">
        <ele>1664.48</ele>
        <time>2022-01-30T14:24:55Z</time>
      </trkpt>
      <trkpt lat="46.314588775858283" lon="8.252102779224515">
        <ele>1661.8900000000001</ele>
        <time>2022-01-30T14:25:04Z</time>
      </trkpt>
      <trkpt lat="46.314603528007865" lon="8.252288186922669">
        <ele>1658.98</ele>
        <time>2022-01-30T14:25:15Z</time>
      </trkpt>
      <trkpt lat="46.314670080319047" lon="8.252454148605466">
        <ele>1656.0899999999999</ele>
        <time>2022-01-30T14:25:26Z</time>
      </trkpt>
      <trkpt lat="46.314752222970128" lon="8.25258482247591">
        <ele>1653.5</ele>
        <time>2022-01-30T14:25:36Z</time>
      </trkpt>
      <trkpt lat="46.314831599593163" lon="8.252650368958712">
        <ele>1652.8399999999999</ele>
        <time>2022-01-30T14:25:43Z</time>
      </trkpt>
      <trkpt lat="46.31484366953373" lon="8.252680795267224">
        <ele>1652.71</ele>
        <time>2022-01-30T14:25:45Z</time>
      </trkpt>
      <trkpt lat="46.314845597371459" lon="8.252696972340345">
        <ele>1652.6600000000001</ele>
        <time>2022-01-30T14:25:46Z</time>
      </trkpt>
      <trkpt lat="46.31483294069767" lon="8.252882044762373">
        <ele>1652.1500000000001</ele>
        <time>2022-01-30T14:25:57Z</time>
      </trkpt>
      <trkpt lat="46.314858254045248" lon="8.253080192953348">
        <ele>1652.1199999999999</ele>
        <time>2022-01-30T14:26:09Z</time>
      </trkpt>
      <trkpt lat="46.31486713886261" lon="8.253211788833141">
        <ele>1651.52</ele>
        <time>2022-01-30T14:26:17Z</time>
      </trkpt>
      <trkpt lat="46.314869988709688" lon="8.253223020583391">
        <ele>1651.4100000000001</ele>
        <time>2022-01-30T14:26:18Z</time>
      </trkpt>
      <trkpt lat="46.314873173832893" lon="8.253239784389734">
        <ele>1651.21</ele>
        <time>2022-01-30T14:26:19Z</time>
      </trkpt>
      <trkpt lat="46.314910976216197" lon="8.253407087177038">
        <ele>1649.6600000000001</ele>
        <time>2022-01-30T14:26:29Z</time>
      </trkpt>
      <trkpt lat="46.314962357282639" lon="8.253531726077199">
        <ele>1648.47</ele>
        <time>2022-01-30T14:26:38Z</time>
      </trkpt>
      <trkpt lat="46.315038045868278" lon="8.253686623647809">
        <ele>1648.52</ele>
        <time>2022-01-30T14:26:50Z</time>
      </trkpt>
      <trkpt lat="46.315097892656922" lon="8.253805981948972">
        <ele>1647.26</ele>
        <time>2022-01-30T14:26:59Z</time>
      </trkpt>
      <trkpt lat="46.315138963982463" lon="8.253921652212739">
        <ele>1646.5799999999999</ele>
        <time>2022-01-30T14:27:07Z</time>
      </trkpt>
      <trkpt lat="46.315177520737052" lon="8.25406632386148">
        <ele>1646.22</ele>
        <time>2022-01-30T14:27:17Z</time>
      </trkpt>
      <trkpt lat="46.315213479101658" lon="8.254225496202707">
        <ele>1645.96</ele>
        <time>2022-01-30T14:27:27Z</time>
      </trkpt>
      <trkpt lat="46.315238540992141" lon="8.254379220306873">
        <ele>1645.5899999999999</ele>
        <time>2022-01-30T14:27:36Z</time>
      </trkpt>
      <trkpt lat="46.315269470214844" lon="8.25458281673491">
        <ele>1645.3299999999999</ele>
        <time>2022-01-30T14:27:48Z</time>
      </trkpt>
      <trkpt lat="46.315283216536045" lon="8.254797644913197">
        <ele>1644.73</ele>
        <time>2022-01-30T14:28:01Z</time>
      </trkpt>
      <trkpt lat="46.315287491306663" lon="8.255008617416024">
        <ele>1644.26</ele>
        <time>2022-01-30T14:28:13Z</time>
      </trkpt>
      <trkpt lat="46.315299477428198" lon="8.255246244370937">
        <ele>1643.9400000000001</ele>
        <time>2022-01-30T14:28:26Z</time>
      </trkpt>
      <trkpt lat="46.315306266769767" lon="8.255449254065752">
        <ele>1643.78</ele>
        <time>2022-01-30T14:28:38Z</time>
      </trkpt>
      <trkpt lat="46.315309619531035" lon="8.255615970119834">
        <ele>1643.3399999999999</ele>
        <time>2022-01-30T14:28:48Z</time>
      </trkpt>
      <trkpt lat="46.315307272598147" lon="8.255727030336857">
        <ele>1643.0699999999999</ele>
        <time>2022-01-30T14:28:56Z</time>
      </trkpt>
      <trkpt lat="46.315307356417179" lon="8.255743039771915">
        <ele>1643.1199999999999</ele>
        <time>2022-01-30T14:28:57Z</time>
      </trkpt>
      <trkpt lat="46.315307524055243" lon="8.25590162537992">
        <ele>1642.95</ele>
        <time>2022-01-30T14:29:06Z</time>
      </trkpt>
      <trkpt lat="46.315312134101987" lon="8.256067670881748">
        <ele>1642.46</ele>
        <time>2022-01-30T14:29:16Z</time>
      </trkpt>
      <trkpt lat="46.31532252766192" lon="8.256227094680071">
        <ele>1641.8</ele>
        <time>2022-01-30T14:29:26Z</time>
      </trkpt>
      <trkpt lat="46.315336273983121" lon="8.256387691944838">
        <ele>1641.5999999999999</ele>
        <time>2022-01-30T14:29:36Z</time>
      </trkpt>
      <trkpt lat="46.315363766625524" lon="8.256528591737151">
        <ele>1640.8</ele>
        <time>2022-01-30T14:29:45Z</time>
      </trkpt>
      <trkpt lat="46.315390923991799" lon="8.256723470985889">
        <ele>1640.26</ele>
        <time>2022-01-30T14:29:57Z</time>
      </trkpt>
      <trkpt lat="46.315417494624853" lon="8.256881386041641">
        <ele>1639.8699999999999</ele>
        <time>2022-01-30T14:30:07Z</time>
      </trkpt>
      <trkpt lat="46.315436018630862" lon="8.257080791518092">
        <ele>1639.8399999999999</ele>
        <time>2022-01-30T14:30:19Z</time>
      </trkpt>
      <trkpt lat="46.315456554293633" lon="8.257288495078683">
        <ele>1639.6199999999999</ele>
        <time>2022-01-30T14:30:31Z</time>
      </trkpt>
      <trkpt lat="46.31545253098011" lon="8.257452277466655">
        <ele>1639.5799999999999</ele>
        <time>2022-01-30T14:30:41Z</time>
      </trkpt>
      <trkpt lat="46.315444316715002" lon="8.257617484778166">
        <ele>1639.02</ele>
        <time>2022-01-30T14:30:51Z</time>
      </trkpt>
      <trkpt lat="46.315407520160079" lon="8.257823763415217">
        <ele>1638.71</ele>
        <time>2022-01-30T14:31:04Z</time>
      </trkpt>
      <trkpt lat="46.315352199599147" lon="8.257993161678314">
        <ele>1638.4100000000001</ele>
        <time>2022-01-30T14:31:16Z</time>
      </trkpt>
      <trkpt lat="46.315284054726362" lon="8.25814344920218">
        <ele>1638.23</ele>
        <time>2022-01-30T14:31:27Z</time>
      </trkpt>
      <trkpt lat="46.315230997279286" lon="8.258210923522711">
        <ele>1638.49</ele>
        <time>2022-01-30T14:31:35Z</time>
      </trkpt>
      <trkpt lat="46.315165366977453" lon="8.258278565481305">
        <ele>1638.8199999999999</ele>
        <time>2022-01-30T14:31:44Z</time>
      </trkpt>
      <trkpt lat="46.315129157155752" lon="8.258297927677631">
        <ele>1638.97</ele>
        <time>2022-01-30T14:31:48Z</time>
      </trkpt>
      <trkpt lat="46.315040476620197" lon="8.258377639576793">
        <ele>1638.71</ele>
        <time>2022-01-30T14:32:00Z</time>
      </trkpt>
      <trkpt lat="46.315038381144404" lon="8.258390463888645">
        <ele>1638.6800000000001</ele>
        <time>2022-01-30T14:32:01Z</time>
      </trkpt>
      <trkpt lat="46.315045757219195" lon="8.258521221578121">
        <ele>1637.79</ele>
        <time>2022-01-30T14:32:10Z</time>
      </trkpt>
      <trkpt lat="46.315051289275289" lon="8.258534716442227">
        <ele>1637.6900000000001</ele>
        <time>2022-01-30T14:32:11Z</time>
      </trkpt>
      <trkpt lat="46.315113566815853" lon="8.258720794692636">
        <ele>1636.6400000000001</ele>
        <time>2022-01-30T14:32:23Z</time>
      </trkpt>
      <trkpt lat="46.315135443583131" lon="8.258906621485949">
        <ele>1635.9000000000001</ele>
        <time>2022-01-30T14:32:34Z</time>
      </trkpt>
      <trkpt lat="46.315131168812513" lon="8.259062357246876">
        <ele>1635.51</ele>
        <time>2022-01-30T14:32:43Z</time>
      </trkpt>
      <trkpt lat="46.315105184912682" lon="8.259273916482925">
        <ele>1635.3099999999999</ele>
        <time>2022-01-30T14:32:56Z</time>
      </trkpt>
      <trkpt lat="46.315082469955087" lon="8.25941875576973">
        <ele>1635.05</ele>
        <time>2022-01-30T14:33:05Z</time>
      </trkpt>
      <trkpt lat="46.315069645643234" lon="8.259584633633494">
        <ele>1634.8900000000001</ele>
        <time>2022-01-30T14:33:15Z</time>
      </trkpt>
      <trkpt lat="46.315098730847239" lon="8.259742129594088">
        <ele>1634.8900000000001</ele>
        <time>2022-01-30T14:33:25Z</time>
      </trkpt>
      <trkpt lat="46.315144496038556" lon="8.259886046871543">
        <ele>1634.55</ele>
        <time>2022-01-30T14:33:35Z</time>
      </trkpt>
      <trkpt lat="46.315186657011509" lon="8.260058546438813">
        <ele>1634.28</ele>
        <time>2022-01-30T14:33:46Z</time>
      </trkpt>
      <trkpt lat="46.315214317291975" lon="8.260208666324616">
        <ele>1634.1500000000001</ele>
        <time>2022-01-30T14:33:55Z</time>
      </trkpt>
      <trkpt lat="46.315227728337049" lon="8.260411340743303">
        <ele>1634.3699999999999</ele>
        <time>2022-01-30T14:34:07Z</time>
      </trkpt>
      <trkpt lat="46.315222447738051" lon="8.260475462302566">
        <ele>1634.3099999999999</ele>
        <time>2022-01-30T14:34:11Z</time>
      </trkpt>
      <trkpt lat="46.315217167139053" lon="8.260493064299226">
        <ele>1634.28</ele>
        <time>2022-01-30T14:34:12Z</time>
      </trkpt>
      <trkpt lat="46.315212389454246" lon="8.260544864460826">
        <ele>1634.45</ele>
        <time>2022-01-30T14:34:15Z</time>
      </trkpt>
      <trkpt lat="46.315214484930038" lon="8.260560790076852">
        <ele>1634.5</ele>
        <time>2022-01-30T14:34:16Z</time>
      </trkpt>
      <trkpt lat="46.315215574577451" lon="8.260576967149973">
        <ele>1634.5599999999999</ele>
        <time>2022-01-30T14:34:17Z</time>
      </trkpt>
      <trkpt lat="46.315218424424529" lon="8.26065206900239">
        <ele>1634.6900000000001</ele>
        <time>2022-01-30T14:34:22Z</time>
      </trkpt>
      <trkpt lat="46.315205851569772" lon="8.260712334886193">
        <ele>1635.1199999999999</ele>
        <time>2022-01-30T14:34:31Z</time>
      </trkpt>
      <trkpt lat="46.315189255401492" lon="8.260722644627094">
        <ele>1635.3399999999999</ele>
        <time>2022-01-30T14:34:49Z</time>
      </trkpt>
      <trkpt lat="46.315179197117686" lon="8.260730942711234">
        <ele>1635.3099999999999</ele>
        <time>2022-01-30T14:35:00Z</time>
      </trkpt>
      <trkpt lat="46.315177939832211" lon="8.260757848620415">
        <ele>1634.1300000000001</ele>
        <time>2022-01-30T14:35:17Z</time>
      </trkpt>
      <trkpt lat="46.315175173804164" lon="8.260786598548293">
        <ele>1633.8699999999999</ele>
        <time>2022-01-30T14:35:26Z</time>
      </trkpt>
      <trkpt lat="46.315177017822862" lon="8.260742425918579">
        <ele>1635.5899999999999</ele>
        <time>2022-01-30T14:35:34Z</time>
      </trkpt>
      <trkpt lat="46.315187076106668" lon="8.260690039023757">
        <ele>1634.78</ele>
        <time>2022-01-30T14:35:45Z</time>
      </trkpt>
      <trkpt lat="46.315202079713345" lon="8.260699594393373">
        <ele>1635.1199999999999</ele>
        <time>2022-01-30T14:36:05Z</time>
      </trkpt>
      <trkpt lat="46.315199732780457" lon="8.260703785344958">
        <ele>1636.78</ele>
        <time>2022-01-30T14:36:11Z</time>
      </trkpt>
      <trkpt lat="46.315200487151742" lon="8.260711831972003">
        <ele>1634.8299999999999</ele>
        <time>2022-01-30T14:36:35Z</time>
      </trkpt>
      <trkpt lat="46.315203756093979" lon="8.26071803458035">
        <ele>1638.8099999999999</ele>
        <time>2022-01-30T14:37:15Z</time>
      </trkpt>
      <trkpt lat="46.315202666446567" lon="8.260710658505559">
        <ele>1637.05</ele>
        <time>2022-01-30T14:37:37Z</time>
      </trkpt>
      <trkpt lat="46.315199648961425" lon="8.260707557201386">
        <ele>1636.6600000000001</ele>
        <time>2022-01-30T14:37:49Z</time>
      </trkpt>
      <trkpt lat="46.315194955095649" lon="8.260690039023757">
        <ele>1636.45</ele>
        <time>2022-01-30T14:38:02Z</time>
      </trkpt>
      <trkpt lat="46.315190345048904" lon="8.260700097307563">
        <ele>1636.4200000000001</ele>
        <time>2022-01-30T14:38:18Z</time>
      </trkpt>
      <trkpt lat="46.315189925953746" lon="8.260700684040785">
        <ele>1635.8800000000001</ele>
        <time>2022-01-30T14:38:38Z</time>
      </trkpt>
      <trkpt lat="46.315193446353078" lon="8.260705042630434">
        <ele>1632</ele>
        <time>2022-01-30T14:38:46Z</time>
      </trkpt>
      <trkpt lat="46.315193697810173" lon="8.260705880820751">
        <ele>1631.8199999999999</ele>
        <time>2022-01-30T14:38:47Z</time>
      </trkpt>
      <trkpt lat="46.315197050571442" lon="8.260716442018747">
        <ele>1634.8900000000001</ele>
        <time>2022-01-30T14:38:56Z</time>
      </trkpt>
      <trkpt lat="46.315199229866266" lon="8.260713424533606">
        <ele>1637.99</ele>
        <time>2022-01-30T14:39:04Z</time>
      </trkpt>
      <trkpt lat="46.315198224037886" lon="8.260708395391703">
        <ele>1636.5</ele>
        <time>2022-01-30T14:39:10Z</time>
      </trkpt>
      <trkpt lat="46.315198391675949" lon="8.260736977681518">
        <ele>1636.6700000000001</ele>
        <time>2022-01-30T14:39:38Z</time>
      </trkpt>
      <trkpt lat="46.315156146883965" lon="8.260789280757308">
        <ele>1636.4000000000001</ele>
        <time>2022-01-30T14:39:46Z</time>
      </trkpt>
      <trkpt lat="46.315123876556754" lon="8.260842841118574">
        <ele>1637.1099999999999</ele>
        <time>2022-01-30T14:39:52Z</time>
      </trkpt>
      <trkpt lat="46.315078279003501" lon="8.260843846946955">
        <ele>1635.98</ele>
        <time>2022-01-30T14:39:57Z</time>
      </trkpt>
      <trkpt lat="46.314968727529049" lon="8.260845690965653">
        <ele>1635.5799999999999</ele>
        <time>2022-01-30T14:40:08Z</time>
      </trkpt>
      <trkpt lat="46.314818691462278" lon="8.260804452002049">
        <ele>1633.8699999999999</ele>
        <time>2022-01-30T14:40:22Z</time>
      </trkpt>
      <trkpt lat="46.314710984006524" lon="8.260812917724252">
        <ele>1632.9000000000001</ele>
        <time>2022-01-30T14:40:32Z</time>
      </trkpt>
      <trkpt lat="46.314688520506024" lon="8.260810738429427">
        <ele>1632.8399999999999</ele>
        <time>2022-01-30T14:40:34Z</time>
      </trkpt>
      <trkpt lat="46.31467804312706" lon="8.260810989886522">
        <ele>1632.79</ele>
        <time>2022-01-30T14:40:35Z</time>
      </trkpt>
      <trkpt lat="46.314584920182824" lon="8.260880224406719">
        <ele>1632.6300000000001</ele>
        <time>2022-01-30T14:40:44Z</time>
      </trkpt>
      <trkpt lat="46.314501939341426" lon="8.260931270197034">
        <ele>1631.6700000000001</ele>
        <time>2022-01-30T14:40:54Z</time>
      </trkpt>
      <trkpt lat="46.314493976533413" lon="8.260925654321909">
        <ele>1631.4300000000001</ele>
        <time>2022-01-30T14:40:55Z</time>
      </trkpt>
      <trkpt lat="46.314418036490679" lon="8.260809984058142">
        <ele>1629.8</ele>
        <time>2022-01-30T14:41:05Z</time>
      </trkpt>
      <trkpt lat="46.314325332641602" lon="8.260648967698216">
        <ele>1627.4400000000001</ele>
        <time>2022-01-30T14:41:18Z</time>
      </trkpt>
      <trkpt lat="46.314234137535095" lon="8.26059146784246">
        <ele>1625.8</ele>
        <time>2022-01-30T14:41:27Z</time>
      </trkpt>
      <trkpt lat="46.314145959913731" lon="8.26068383641541">
        <ele>1624.8099999999999</ele>
        <time>2022-01-30T14:41:36Z</time>
      </trkpt>
      <trkpt lat="46.314089968800545" lon="8.260781820863485">
        <ele>1624.1400000000001</ele>
        <time>2022-01-30T14:41:44Z</time>
      </trkpt>
      <trkpt lat="46.314086699858308" lon="8.260786850005388">
        <ele>1624.28</ele>
        <time>2022-01-30T14:41:45Z</time>
      </trkpt>
      <trkpt lat="46.314072534441948" lon="8.260800931602716">
        <ele>1624.6800000000001</ele>
        <time>2022-01-30T14:41:47Z</time>
      </trkpt>
      <trkpt lat="46.314062140882015" lon="8.260809062048793">
        <ele>1624.9200000000001</ele>
        <time>2022-01-30T14:41:48Z</time>
      </trkpt>
      <trkpt lat="46.314039342105389" lon="8.260821467265487">
        <ele>1625.3699999999999</ele>
        <time>2022-01-30T14:41:50Z</time>
      </trkpt>
      <trkpt lat="46.314028361812234" lon="8.260827586054802">
        <ele>1625.5699999999999</ele>
        <time>2022-01-30T14:41:51Z</time>
      </trkpt>
      <trkpt lat="46.314002964645624" lon="8.260861365124583">
        <ele>1626.1099999999999</ele>
        <time>2022-01-30T14:41:54Z</time>
      </trkpt>
      <trkpt lat="46.31399248726666" lon="8.26105666346848">
        <ele>1625.9100000000001</ele>
        <time>2022-01-30T14:42:07Z</time>
      </trkpt>
      <trkpt lat="46.313994834199548" lon="8.261078456416726">
        <ele>1626.0599999999999</ele>
        <time>2022-01-30T14:42:14Z</time>
      </trkpt>
      <trkpt lat="46.313992068171501" lon="8.26108256354928">
        <ele>1626.22</ele>
        <time>2022-01-30T14:42:26Z</time>
      </trkpt>
      <trkpt lat="46.313992822542787" lon="8.261079294607043">
        <ele>1626.49</ele>
        <time>2022-01-30T14:42:39Z</time>
      </trkpt>
      <trkpt lat="46.313991565257311" lon="8.2610815577209">
        <ele>1626.6900000000001</ele>
        <time>2022-01-30T14:42:53Z</time>
      </trkpt>
      <trkpt lat="46.31399005651474" lon="8.261083066463471">
        <ele>1626.9300000000001</ele>
        <time>2022-01-30T14:43:10Z</time>
      </trkpt>
      <trkpt lat="46.313994582742453" lon="8.261082731187344">
        <ele>1625.9400000000001</ele>
        <time>2022-01-30T14:43:24Z</time>
      </trkpt>
      <trkpt lat="46.313994079828262" lon="8.261084323748946">
        <ele>1625.9400000000001</ele>
        <time>2022-01-30T14:43:42Z</time>
      </trkpt>
      <trkpt lat="46.313989469781518" lon="8.26108792796731">
        <ele>1625.95</ele>
        <time>2022-01-30T14:44:20Z</time>
      </trkpt>
      <trkpt lat="46.313986871391535" lon="8.261088933795691">
        <ele>1625.9200000000001</ele>
        <time>2022-01-30T14:44:23Z</time>
      </trkpt>
    </trkseg>
  </trk>

  <trk>
    <name>Alpe Misanco2022-01-30</name>
    <extensions>
      <gpxx:TrackExtension>
        <gpxx:DisplayColor>Yellow</gpxx:DisplayColor>
      </gpxx:TrackExtension>
      <gpxtrkx:TrackStatsExtension xmlns:gpxtrkx="http://www.garmin.com/xmlschemas/TrackStatsExtension/v1">
        <gpxtrkx:Distance>6021</gpxtrkx:Distance>
        <gpxtrkx:TotalElapsedTime>24944</gpxtrkx:TotalElapsedTime>
        <gpxtrkx:MovingTime>8907</gpxtrkx:MovingTime>
        <gpxtrkx:StoppedTime>16027</gpxtrkx:StoppedTime>
        <gpxtrkx:MovingSpeed>0.676</gpxtrkx:MovingSpeed>
        <gpxtrkx:MaxSpeed>2.735</gpxtrkx:MaxSpeed>
        <gpxtrkx:MaxElevation>1924.65</gpxtrkx:MaxElevation>
        <gpxtrkx:MinElevation>1626.941</gpxtrkx:MinElevation>
        <gpxtrkx:Ascent>380</gpxtrkx:Ascent>
        <gpxtrkx:Descent>380.524</gpxtrkx:Descent>
        <gpxtrkx:AvgAscentRate>0.021</gpxtrkx:AvgAscentRate>
        <gpxtrkx:MaxAscentRate>0.401</gpxtrkx:MaxAscentRate>
        <gpxtrkx:AvgDescentRate>0.024</gpxtrkx:AvgDescentRate>
        <gpxtrkx:MaxDescentRate>-0.283</gpxtrkx:MaxDescentRate>
      </gpxtrkx:TrackStatsExtension>
    </extensions>
    <trkseg>
      <trkpt lat="46.313956277444959" lon="8.261068230494857">
        <ele>1631.79</ele>
        <time>2022-01-30T07:28:48Z</time>
      </trkpt>
      <trkpt lat="46.313956780359149" lon="8.261069487780333">
        <ele>1631.79</ele>
        <time>2022-01-30T07:28:49Z</time>
      </trkpt>
      <trkpt lat="46.313958372920752" lon="8.261065129190683">
        <ele>1629.3699999999999</ele>
        <time>2022-01-30T07:28:53Z</time>
      </trkpt>
      <trkpt lat="46.313938843086362" lon="8.261070996522903">
        <ele>1630.97</ele>
        <time>2022-01-30T07:29:15Z</time>
      </trkpt>
      <trkpt lat="46.313939346000552" lon="8.261063201352954">
        <ele>1631.55</ele>
        <time>2022-01-30T07:29:27Z</time>
      </trkpt>
      <trkpt lat="46.3139333948493" lon="8.261054484173656">
        <ele>1631.6500000000001</ele>
        <time>2022-01-30T07:29:39Z</time>
      </trkpt>
      <trkpt lat="46.31392459385097" lon="8.261040821671486">
        <ele>1633.03</ele>
        <time>2022-01-30T07:29:55Z</time>
      </trkpt>
      <trkpt lat="46.313931969925761" lon="8.261043587699533">
        <ele>1633.6800000000001</ele>
        <time>2022-01-30T07:30:09Z</time>
      </trkpt>
      <trkpt lat="46.313938423991203" lon="8.261049790307879">
        <ele>1633.99</ele>
        <time>2022-01-30T07:30:22Z</time>
      </trkpt>
      <trkpt lat="46.313934316858649" lon="8.261041743680835">
        <ele>1634.3399999999999</ele>
        <time>2022-01-30T07:30:33Z</time>
      </trkpt>
      <trkpt lat="46.313934316858649" lon="8.261040234938264">
        <ele>1634.22</ele>
        <time>2022-01-30T07:30:53Z</time>
      </trkpt>
      <trkpt lat="46.313942698761821" lon="8.261041240766645">
        <ele>1632.95</ele>
        <time>2022-01-30T07:31:18Z</time>
      </trkpt>
      <trkpt lat="46.313942112028599" lon="8.261041576042771">
        <ele>1633.46</ele>
        <time>2022-01-30T07:31:34Z</time>
      </trkpt>
      <trkpt lat="46.313938172534108" lon="8.261042749509215">
        <ele>1633.6600000000001</ele>
        <time>2022-01-30T07:31:59Z</time>
      </trkpt>
      <trkpt lat="46.313932053744793" lon="8.261054065078497">
        <ele>1633.72</ele>
        <time>2022-01-30T07:32:21Z</time>
      </trkpt>
      <trkpt lat="46.313938591629267" lon="8.261042749509215">
        <ele>1633.25</ele>
        <time>2022-01-30T07:32:40Z</time>
      </trkpt>
      <trkpt lat="46.313938843086362" lon="8.261048113927245">
        <ele>1633.54</ele>
        <time>2022-01-30T07:32:53Z</time>
      </trkpt>
      <trkpt lat="46.313944375142455" lon="8.261047694832087">
        <ele>1634.97</ele>
        <time>2022-01-30T07:33:06Z</time>
      </trkpt>
      <trkpt lat="46.313944207504392" lon="8.261049119755626">
        <ele>1633.0999999999999</ele>
        <time>2022-01-30T07:33:25Z</time>
      </trkpt>
      <trkpt lat="46.313945967704058" lon="8.261053059250116">
        <ele>1634.6400000000001</ele>
        <time>2022-01-30T07:33:32Z</time>
      </trkpt>
      <trkpt lat="46.313937669619918" lon="8.261060854420066">
        <ele>1634.99</ele>
        <time>2022-01-30T07:33:51Z</time>
      </trkpt>
      <trkpt lat="46.313939765095711" lon="8.261044258251786">
        <ele>1634.48</ele>
        <time>2022-01-30T07:34:20Z</time>
      </trkpt>
      <trkpt lat="46.313933478668332" lon="8.261042581871152">
        <ele>1634.24</ele>
        <time>2022-01-30T07:34:36Z</time>
      </trkpt>
      <trkpt lat="46.313936999067664" lon="8.261042749509215">
        <ele>1633.52</ele>
        <time>2022-01-30T07:34:48Z</time>
      </trkpt>
      <trkpt lat="46.313942195847631" lon="8.261047946289182">
        <ele>1632.1500000000001</ele>
        <time>2022-01-30T07:35:18Z</time>
      </trkpt>
      <trkpt lat="46.313940351828933" lon="8.261047108098865">
        <ele>1632</ele>
        <time>2022-01-30T07:35:34Z</time>
      </trkpt>
      <trkpt lat="46.313916547223926" lon="8.261043671518564">
        <ele>1632</ele>
        <time>2022-01-30T07:35:50Z</time>
      </trkpt>
      <trkpt lat="46.313867010176182" lon="8.261063871905208">
        <ele>1631.45</ele>
        <time>2022-01-30T07:36:02Z</time>
      </trkpt>
      <trkpt lat="46.313853347674012" lon="8.261072924360633">
        <ele>1631.03</ele>
        <time>2022-01-30T07:36:21Z</time>
      </trkpt>
      <trkpt lat="46.313855275511742" lon="8.26106839813292">
        <ele>1631.97</ele>
        <time>2022-01-30T07:36:37Z</time>
      </trkpt>
      <trkpt lat="46.313817137852311" lon="8.261075606569648">
        <ele>1632.99</ele>
        <time>2022-01-30T07:36:48Z</time>
      </trkpt>
      <trkpt lat="46.31381856277585" lon="8.261075438931584">
        <ele>1633.1099999999999</ele>
        <time>2022-01-30T07:37:13Z</time>
      </trkpt>
      <trkpt lat="46.313824262470007" lon="8.261064207181335">
        <ele>1632.4000000000001</ele>
        <time>2022-01-30T07:37:34Z</time>
      </trkpt>
      <trkpt lat="46.313821915537119" lon="8.261066554114223">
        <ele>1626.9400000000001</ele>
        <time>2022-01-30T07:37:47Z</time>
      </trkpt>
      <trkpt lat="46.313821664080024" lon="8.261066470295191">
        <ele>1630.75</ele>
        <time>2022-01-30T07:37:48Z</time>
      </trkpt>
      <trkpt lat="46.313820909708738" lon="8.261066554114223">
        <ele>1634.45</ele>
        <time>2022-01-30T07:37:49Z</time>
      </trkpt>
      <trkpt lat="46.313820658251643" lon="8.261066554114223">
        <ele>1628.5699999999999</ele>
        <time>2022-01-30T07:37:51Z</time>
      </trkpt>
      <trkpt lat="46.31382049061358" lon="8.261066805571318">
        <ele>1630.3</ele>
        <time>2022-01-30T07:37:52Z</time>
      </trkpt>
      <trkpt lat="46.313823843374848" lon="8.261068565770984">
        <ele>1630.22</ele>
        <time>2022-01-30T07:38:16Z</time>
      </trkpt>
      <trkpt lat="46.313824011012912" lon="8.261066302657127">
        <ele>1634.22</ele>
        <time>2022-01-30T07:38:20Z</time>
      </trkpt>
      <trkpt lat="46.313825435936451" lon="8.261064626276493">
        <ele>1632.04</ele>
        <time>2022-01-30T07:38:21Z</time>
      </trkpt>
      <trkpt lat="46.313828118145466" lon="8.261062782257795">
        <ele>1630.95</ele>
        <time>2022-01-30T07:38:23Z</time>
      </trkpt>
      <trkpt lat="46.313826274126768" lon="8.261064123362303">
        <ele>1630.48</ele>
        <time>2022-01-30T07:38:40Z</time>
      </trkpt>
      <trkpt lat="46.313823340460658" lon="8.261063788086176">
        <ele>1630.8699999999999</ele>
        <time>2022-01-30T07:38:57Z</time>
      </trkpt>
      <trkpt lat="46.313823089003563" lon="8.261063452810049">
        <ele>1630.3299999999999</ele>
        <time>2022-01-30T07:39:17Z</time>
      </trkpt>
      <trkpt lat="46.313810767605901" lon="8.261063788086176">
        <ele>1631.0699999999999</ele>
        <time>2022-01-30T07:39:39Z</time>
      </trkpt>
      <trkpt lat="46.313815293833613" lon="8.261061776429415">
        <ele>1631.47</ele>
        <time>2022-01-30T07:39:52Z</time>
      </trkpt>
      <trkpt lat="46.313816634938121" lon="8.261062866076827">
        <ele>1631.45</ele>
        <time>2022-01-30T07:40:04Z</time>
      </trkpt>
      <trkpt lat="46.313815461471677" lon="8.261060854420066">
        <ele>1631.8</ele>
        <time>2022-01-30T07:40:28Z</time>
      </trkpt>
      <trkpt lat="46.313816551119089" lon="8.261062446981669">
        <ele>1631.22</ele>
        <time>2022-01-30T07:40:47Z</time>
      </trkpt>
      <trkpt lat="46.31381805986166" lon="8.261063285171986">
        <ele>1632.3699999999999</ele>
        <time>2022-01-30T07:41:12Z</time>
      </trkpt>
      <trkpt lat="46.313816802576184" lon="8.261061441153288">
        <ele>1632.1600000000001</ele>
        <time>2022-01-30T07:41:16Z</time>
      </trkpt>
      <trkpt lat="46.313813030719757" lon="8.261082144454122">
        <ele>1631.7</ele>
        <time>2022-01-30T07:41:42Z</time>
      </trkpt>
      <trkpt lat="46.313808504492044" lon="8.261071583256126">
        <ele>1632.03</ele>
        <time>2022-01-30T07:41:59Z</time>
      </trkpt>
      <trkpt lat="46.313818395137787" lon="8.261048197746277">
        <ele>1632.22</ele>
        <time>2022-01-30T07:42:12Z</time>
      </trkpt>
      <trkpt lat="46.313819317147136" lon="8.261050125584006">
        <ele>1632.8599999999999</ele>
        <time>2022-01-30T07:42:18Z</time>
      </trkpt>
      <trkpt lat="46.313786963000894" lon="8.261062614619732">
        <ele>1632.4200000000001</ele>
        <time>2022-01-30T07:42:38Z</time>
      </trkpt>
      <trkpt lat="46.313706329092383" lon="8.26094669289887">
        <ele>1632.21</ele>
        <time>2022-01-30T07:42:51Z</time>
      </trkpt>
      <trkpt lat="46.313724014908075" lon="8.26066430658102">
        <ele>1630.5</ele>
        <time>2022-01-30T07:43:10Z</time>
      </trkpt>
      <trkpt lat="46.31380146369338" lon="8.260515946894884">
        <ele>1630.3299999999999</ele>
        <time>2022-01-30T07:43:21Z</time>
      </trkpt>
      <trkpt lat="46.313929622992873" lon="8.260520976036787">
        <ele>1629.6300000000001</ele>
        <time>2022-01-30T07:43:32Z</time>
      </trkpt>
      <trkpt lat="46.314069349318743" lon="8.260537488386035">
        <ele>1630.3499999999999</ele>
        <time>2022-01-30T07:43:44Z</time>
      </trkpt>
      <trkpt lat="46.314105642959476" lon="8.260541008785367">
        <ele>1630.29</ele>
        <time>2022-01-30T07:43:48Z</time>
      </trkpt>
      <trkpt lat="46.314174626022577" lon="8.260562298819423">
        <ele>1630.48</ele>
        <time>2022-01-30T07:43:54Z</time>
      </trkpt>
      <trkpt lat="46.314321644604206" lon="8.260665396228433">
        <ele>1631.1199999999999</ele>
        <time>2022-01-30T07:44:09Z</time>
      </trkpt>
      <trkpt lat="46.314430860802531" lon="8.260851390659809">
        <ele>1633.76</ele>
        <time>2022-01-30T07:44:27Z</time>
      </trkpt>
      <trkpt lat="46.314513422548771" lon="8.260942753404379">
        <ele>1636.04</ele>
        <time>2022-01-30T07:44:39Z</time>
      </trkpt>
      <trkpt lat="46.314540579915047" lon="8.260936550796032">
        <ele>1636.5899999999999</ele>
        <time>2022-01-30T07:44:42Z</time>
      </trkpt>
      <trkpt lat="46.314639905467629" lon="8.260846780613065">
        <ele>1638.8199999999999</ele>
        <time>2022-01-30T07:44:54Z</time>
      </trkpt>
      <trkpt lat="46.314690699800849" lon="8.260808978229761">
        <ele>1640.1900000000001</ele>
        <time>2022-01-30T07:45:00Z</time>
      </trkpt>
      <trkpt lat="46.31473277695477" lon="8.26079280115664">
        <ele>1638.4100000000001</ele>
        <time>2022-01-30T07:45:10Z</time>
      </trkpt>
      <trkpt lat="46.314771082252264" lon="8.260779725387693">
        <ele>1638.1500000000001</ele>
        <time>2022-01-30T07:45:23Z</time>
      </trkpt>
      <trkpt lat="46.314907623454928" lon="8.260797746479511">
        <ele>1639.4200000000001</ele>
        <time>2022-01-30T07:45:36Z</time>
      </trkpt>
      <trkpt lat="46.315045086666942" lon="8.260814426466823">
        <ele>1641.3399999999999</ele>
        <time>2022-01-30T07:45:49Z</time>
      </trkpt>
      <trkpt lat="46.315083559602499" lon="8.260819707065821">
        <ele>1641.3</ele>
        <time>2022-01-30T07:46:03Z</time>
      </trkpt>
      <trkpt lat="46.315094204619527" lon="8.260823227465153">
        <ele>1641.29</ele>
        <time>2022-01-30T07:46:22Z</time>
      </trkpt>
      <trkpt lat="46.315104011446238" lon="8.26081819832325">
        <ele>1641.1300000000001</ele>
        <time>2022-01-30T07:46:25Z</time>
      </trkpt>
      <trkpt lat="46.315188081935048" lon="8.260755417868495">
        <ele>1641.1800000000001</ele>
        <time>2022-01-30T07:46:39Z</time>
      </trkpt>
      <trkpt lat="46.315227225422859" lon="8.260656679049134">
        <ele>1641.3199999999999</ele>
        <time>2022-01-30T07:46:50Z</time>
      </trkpt>
      <trkpt lat="46.31522630341351" lon="8.260648129507899">
        <ele>1641.1900000000001</ele>
        <time>2022-01-30T07:47:02Z</time>
      </trkpt>
      <trkpt lat="46.315211970359087" lon="8.260559029877186">
        <ele>1640.4200000000001</ele>
        <time>2022-01-30T07:47:14Z</time>
      </trkpt>
      <trkpt lat="46.315216077491641" lon="8.260465823113918">
        <ele>1639.8900000000001</ele>
        <time>2022-01-30T07:47:28Z</time>
      </trkpt>
      <trkpt lat="46.315208449959755" lon="8.260393990203738">
        <ele>1639.3399999999999</ele>
        <time>2022-01-30T07:47:40Z</time>
      </trkpt>
      <trkpt lat="46.315209371969104" lon="8.260377645492554">
        <ele>1640.8099999999999</ele>
        <time>2022-01-30T07:48:04Z</time>
      </trkpt>
      <trkpt lat="46.315209288150072" lon="8.260327270254493">
        <ele>1641.5599999999999</ele>
        <time>2022-01-30T07:48:15Z</time>
      </trkpt>
      <trkpt lat="46.315215742215514" lon="8.260334813967347">
        <ele>1642.8599999999999</ele>
        <time>2022-01-30T07:48:32Z</time>
      </trkpt>
      <trkpt lat="46.315218675881624" lon="8.260336322709918">
        <ele>1641.8199999999999</ele>
        <time>2022-01-30T07:48:50Z</time>
      </trkpt>
      <trkpt lat="46.315218508243561" lon="8.260336993262172">
        <ele>1639.78</ele>
        <time>2022-01-30T07:48:59Z</time>
      </trkpt>
      <trkpt lat="46.315218424424529" lon="8.260333640500903">
        <ele>1638.5599999999999</ele>
        <time>2022-01-30T07:49:21Z</time>
      </trkpt>
      <trkpt lat="46.315222280099988" lon="8.260342022404075">
        <ele>1637.73</ele>
        <time>2022-01-30T07:50:00Z</time>
      </trkpt>
      <trkpt lat="46.315221777185798" lon="8.260341938585043">
        <ele>1640.95</ele>
        <time>2022-01-30T07:50:03Z</time>
      </trkpt>
      <trkpt lat="46.315220603719354" lon="8.260340848937631">
        <ele>1639.95</ele>
        <time>2022-01-30T07:50:04Z</time>
      </trkpt>
      <trkpt lat="46.315219597890973" lon="8.260340094566345">
        <ele>1639.0799999999999</ele>
        <time>2022-01-30T07:50:06Z</time>
      </trkpt>
      <trkpt lat="46.315217921510339" lon="8.260319726541638">
        <ele>1641.3699999999999</ele>
        <time>2022-01-30T07:50:50Z</time>
      </trkpt>
      <trkpt lat="46.315215909853578" lon="8.2603217381984">
        <ele>1643.5599999999999</ele>
        <time>2022-01-30T07:51:21Z</time>
      </trkpt>
      <trkpt lat="46.315216915681958" lon="8.260326348245144">
        <ele>1642.6600000000001</ele>
        <time>2022-01-30T07:51:37Z</time>
      </trkpt>
      <trkpt lat="46.315218927338719" lon="8.260330120101571">
        <ele>1642.46</ele>
        <time>2022-01-30T07:51:51Z</time>
      </trkpt>
      <trkpt lat="46.315212724730372" lon="8.26030564494431">
        <ele>1642.5699999999999</ele>
        <time>2022-01-30T07:51:57Z</time>
      </trkpt>
      <trkpt lat="46.31520627066493" lon="8.2602768111974">
        <ele>1642.04</ele>
        <time>2022-01-30T07:51:59Z</time>
      </trkpt>
      <trkpt lat="46.315197804942727" lon="8.260209672152996">
        <ele>1642</ele>
        <time>2022-01-30T07:52:03Z</time>
      </trkpt>
      <trkpt lat="46.315131923183799" lon="8.259914377704263">
        <ele>1641.54</ele>
        <time>2022-01-30T07:52:21Z</time>
      </trkpt>
      <trkpt lat="46.315070064738393" lon="8.259677421301603">
        <ele>1642.5799999999999</ele>
        <time>2022-01-30T07:52:36Z</time>
      </trkpt>
      <trkpt lat="46.31505673751235" lon="8.259480614215136">
        <ele>1639.21</ele>
        <time>2022-01-30T07:52:48Z</time>
      </trkpt>
      <trkpt lat="46.315076351165771" lon="8.259263020008802">
        <ele>1640.95</ele>
        <time>2022-01-30T07:53:03Z</time>
      </trkpt>
      <trkpt lat="46.315101329237223" lon="8.259050538763404">
        <ele>1642</ele>
        <time>2022-01-30T07:53:18Z</time>
      </trkpt>
      <trkpt lat="46.315106609836221" lon="8.258994380012155">
        <ele>1639.5899999999999</ele>
        <time>2022-01-30T07:53:22Z</time>
      </trkpt>
      <trkpt lat="46.315108705312014" lon="8.258856916800141">
        <ele>1639.9400000000001</ele>
        <time>2022-01-30T07:53:31Z</time>
      </trkpt>
      <trkpt lat="46.315068136900663" lon="8.258644351735711">
        <ele>1640.8699999999999</ele>
        <time>2022-01-30T07:53:46Z</time>
      </trkpt>
      <trkpt lat="46.315002338960767" lon="8.258408568799496">
        <ele>1642.3599999999999</ele>
        <time>2022-01-30T07:54:04Z</time>
      </trkpt>
      <trkpt lat="46.315033016726375" lon="8.258316619321704">
        <ele>1643.8299999999999</ele>
        <time>2022-01-30T07:54:16Z</time>
      </trkpt>
      <trkpt lat="46.315051289275289" lon="8.258300945162773">
        <ele>1644.01</ele>
        <time>2022-01-30T07:54:18Z</time>
      </trkpt>
      <trkpt lat="46.315181544050574" lon="8.258214024826884">
        <ele>1644.52</ele>
        <time>2022-01-30T07:54:34Z</time>
      </trkpt>
      <trkpt lat="46.315247341990471" lon="8.25814881362021">
        <ele>1643.6300000000001</ele>
        <time>2022-01-30T07:54:43Z</time>
      </trkpt>
      <trkpt lat="46.315357647836208" lon="8.257910599932075">
        <ele>1643.0799999999999</ele>
        <time>2022-01-30T07:55:02Z</time>
      </trkpt>
      <trkpt lat="46.315395114943385" lon="8.257789313793182">
        <ele>1642.5899999999999</ele>
        <time>2022-01-30T07:55:11Z</time>
      </trkpt>
      <trkpt lat="46.315443562343717" lon="8.25777598656714">
        <ele>1642.3699999999999</ele>
        <time>2022-01-30T07:55:21Z</time>
      </trkpt>
      <trkpt lat="46.315431324765086" lon="8.257702980190516">
        <ele>1642.4000000000001</ele>
        <time>2022-01-30T07:55:31Z</time>
      </trkpt>
      <trkpt lat="46.315420009195805" lon="8.257657466456294">
        <ele>1642.23</ele>
        <time>2022-01-30T07:55:38Z</time>
      </trkpt>
      <trkpt lat="46.315426882356405" lon="8.257596865296364">
        <ele>1642.4400000000001</ele>
        <time>2022-01-30T07:55:42Z</time>
      </trkpt>
      <trkpt lat="46.315421098843217" lon="8.257292686030269">
        <ele>1642.74</ele>
        <time>2022-01-30T07:56:01Z</time>
      </trkpt>
      <trkpt lat="46.315401149913669" lon="8.257035026326776">
        <ele>1643.3699999999999</ele>
        <time>2022-01-30T07:56:17Z</time>
      </trkpt>
      <trkpt lat="46.315356893464923" lon="8.25673378072679">
        <ele>1643.8099999999999</ele>
        <time>2022-01-30T07:56:37Z</time>
      </trkpt>
      <trkpt lat="46.315334932878613" lon="8.256577290594578">
        <ele>1643.8199999999999</ele>
        <time>2022-01-30T07:56:52Z</time>
      </trkpt>
      <trkpt lat="46.31533476524055" lon="8.256570920348167">
        <ele>1643.78</ele>
        <time>2022-01-30T07:56:55Z</time>
      </trkpt>
      <trkpt lat="46.315315654501319" lon="8.256459105759859">
        <ele>1643.9000000000001</ele>
        <time>2022-01-30T07:57:08Z</time>
      </trkpt>
      <trkpt lat="46.315310792997479" lon="8.256365144625306">
        <ele>1644.4100000000001</ele>
        <time>2022-01-30T07:57:22Z</time>
      </trkpt>
      <trkpt lat="46.315311379730701" lon="8.256373945623636">
        <ele>1645.0899999999999</ele>
        <time>2022-01-30T07:57:37Z</time>
      </trkpt>
      <trkpt lat="46.315308446064591" lon="8.256377885118127">
        <ele>1645.27</ele>
        <time>2022-01-30T07:58:03Z</time>
      </trkpt>
      <trkpt lat="46.315308948978782" lon="8.256357265636325">
        <ele>1645.0699999999999</ele>
        <time>2022-01-30T07:58:25Z</time>
      </trkpt>
      <trkpt lat="46.315304841846228" lon="8.256340501829982">
        <ele>1645.6300000000001</ele>
        <time>2022-01-30T07:58:38Z</time>
      </trkpt>
      <trkpt lat="46.315311463549733" lon="8.256340753287077">
        <ele>1644.8099999999999</ele>
        <time>2022-01-30T07:59:01Z</time>
      </trkpt>
      <trkpt lat="46.315314145758748" lon="8.256339244544506">
        <ele>1642.8800000000001</ele>
        <time>2022-01-30T07:59:21Z</time>
      </trkpt>
      <trkpt lat="46.315314313396811" lon="8.256338238716126">
        <ele>1642.99</ele>
        <time>2022-01-30T07:59:36Z</time>
      </trkpt>
      <trkpt lat="46.315315067768097" lon="8.256331700831652">
        <ele>1642.8</ele>
        <time>2022-01-30T07:59:55Z</time>
      </trkpt>
      <trkpt lat="46.315307943150401" lon="8.256322396919131">
        <ele>1641.8499999999999</ele>
        <time>2022-01-30T08:00:16Z</time>
      </trkpt>
      <trkpt lat="46.315304255113006" lon="8.256329018622637">
        <ele>1643.0999999999999</ele>
        <time>2022-01-30T08:00:28Z</time>
      </trkpt>
      <trkpt lat="46.315302746370435" lon="8.256324995309115">
        <ele>1643.3099999999999</ele>
        <time>2022-01-30T08:00:45Z</time>
      </trkpt>
      <trkpt lat="46.315323198214173" lon="8.256294820457697">
        <ele>1644.1900000000001</ele>
        <time>2022-01-30T08:01:01Z</time>
      </trkpt>
      <trkpt lat="46.315306182950735" lon="8.256250061094761">
        <ele>1644.47</ele>
        <time>2022-01-30T08:01:09Z</time>
      </trkpt>
      <trkpt lat="46.315293274819851" lon="8.256154675036669">
        <ele>1644.98</ele>
        <time>2022-01-30T08:01:19Z</time>
      </trkpt>
      <trkpt lat="46.315290927886963" lon="8.256119638681412">
        <ele>1644.96</ele>
        <time>2022-01-30T08:01:22Z</time>
      </trkpt>
      <trkpt lat="46.31528589874506" lon="8.256090888753533">
        <ele>1644.8599999999999</ele>
        <time>2022-01-30T08:01:24Z</time>
      </trkpt>
      <trkpt lat="46.315289502963424" lon="8.256048476323485">
        <ele>1644.9400000000001</ele>
        <time>2022-01-30T08:01:29Z</time>
      </trkpt>
      <trkpt lat="46.315284138545394" lon="8.256005560979247">
        <ele>1645.1099999999999</ele>
        <time>2022-01-30T08:01:32Z</time>
      </trkpt>
      <trkpt lat="46.315276008099318" lon="8.255718061700463">
        <ele>1645.8800000000001</ele>
        <time>2022-01-30T08:01:50Z</time>
      </trkpt>
      <trkpt lat="46.315275505185127" lon="8.255601385608316">
        <ele>1646.22</ele>
        <time>2022-01-30T08:02:00Z</time>
      </trkpt>
      <trkpt lat="46.315278019756079" lon="8.255304666236043">
        <ele>1647.2</ele>
        <time>2022-01-30T08:02:18Z</time>
      </trkpt>
      <trkpt lat="46.315273158252239" lon="8.255142057314515">
        <ele>1647.5699999999999</ele>
        <time>2022-01-30T08:02:29Z</time>
      </trkpt>
      <trkpt lat="46.315309703350067" lon="8.255115989595652">
        <ele>1647.6900000000001</ele>
        <time>2022-01-30T08:02:38Z</time>
      </trkpt>
      <trkpt lat="46.315307356417179" lon="8.255115570500493">
        <ele>1647.7</ele>
        <time>2022-01-30T08:02:39Z</time>
      </trkpt>
      <trkpt lat="46.315286988392472" lon="8.255065530538559">
        <ele>1647.8699999999999</ele>
        <time>2022-01-30T08:02:43Z</time>
      </trkpt>
      <trkpt lat="46.315257400274277" lon="8.254745006561279">
        <ele>1647.9300000000001</ele>
        <time>2022-01-30T08:03:01Z</time>
      </trkpt>
      <trkpt lat="46.315231081098318" lon="8.254475276917219">
        <ele>1648.6199999999999</ele>
        <time>2022-01-30T08:03:18Z</time>
      </trkpt>
      <trkpt lat="46.315195877104998" lon="8.254242511466146">
        <ele>1649.0999999999999</ele>
        <time>2022-01-30T08:03:35Z</time>
      </trkpt>
      <trkpt lat="46.315163606777787" lon="8.254063976928592">
        <ele>1649.6300000000001</ele>
        <time>2022-01-30T08:03:49Z</time>
      </trkpt>
      <trkpt lat="46.315127229318023" lon="8.253862056881189">
        <ele>1649.6600000000001</ele>
        <time>2022-01-30T08:04:04Z</time>
      </trkpt>
      <trkpt lat="46.315130162984133" lon="8.253860296681523">
        <ele>1649.5899999999999</ele>
        <time>2022-01-30T08:04:09Z</time>
      </trkpt>
      <trkpt lat="46.315172407776117" lon="8.253756193444133">
        <ele>1649.6099999999999</ele>
        <time>2022-01-30T08:04:24Z</time>
      </trkpt>
      <trkpt lat="46.315203001722693" lon="8.253759630024433">
        <ele>1649.8199999999999</ele>
        <time>2022-01-30T08:04:28Z</time>
      </trkpt>
      <trkpt lat="46.315217921510339" lon="8.253810172900558">
        <ele>1649.8699999999999</ele>
        <time>2022-01-30T08:04:39Z</time>
      </trkpt>
      <trkpt lat="46.315201157703996" lon="8.25381226837635">
        <ele>1650.1099999999999</ele>
        <time>2022-01-30T08:04:50Z</time>
      </trkpt>
      <trkpt lat="46.315193613991141" lon="8.253817716613412">
        <ele>1650.45</ele>
        <time>2022-01-30T08:05:05Z</time>
      </trkpt>
      <trkpt lat="46.315189925953746" lon="8.253813358023763">
        <ele>1650.78</ele>
        <time>2022-01-30T08:05:27Z</time>
      </trkpt>
      <trkpt lat="46.315187159925699" lon="8.253807742148638">
        <ele>1650.49</ele>
        <time>2022-01-30T08:05:58Z</time>
      </trkpt>
      <trkpt lat="46.315184393897653" lon="8.253809502348304">
        <ele>1649.23</ele>
        <time>2022-01-30T08:06:13Z</time>
      </trkpt>
      <trkpt lat="46.315201325342059" lon="8.253811681643128">
        <ele>1649.0899999999999</ele>
        <time>2022-01-30T08:06:29Z</time>
      </trkpt>
      <trkpt lat="46.315210126340389" lon="8.253825763240457">
        <ele>1649.9200000000001</ele>
        <time>2022-01-30T08:06:59Z</time>
      </trkpt>
      <trkpt lat="46.315207192674279" lon="8.253824003040791">
        <ele>1650.45</ele>
        <time>2022-01-30T08:07:13Z</time>
      </trkpt>
      <trkpt lat="46.315205432474613" lon="8.25380782596767">
        <ele>1650.55</ele>
        <time>2022-01-30T08:07:24Z</time>
      </trkpt>
      <trkpt lat="46.315196631476283" lon="8.253813274204731">
        <ele>1650.3599999999999</ele>
        <time>2022-01-30T08:07:45Z</time>
      </trkpt>
      <trkpt lat="46.315188333392143" lon="8.25380782596767">
        <ele>1650.73</ele>
        <time>2022-01-30T08:08:05Z</time>
      </trkpt>
      <trkpt lat="46.315184980630875" lon="8.253804389387369">
        <ele>1650.47</ele>
        <time>2022-01-30T08:08:30Z</time>
      </trkpt>
      <trkpt lat="46.315178023651242" lon="8.25379223562777">
        <ele>1650.6600000000001</ele>
        <time>2022-01-30T08:08:54Z</time>
      </trkpt>
      <trkpt lat="46.315177772194147" lon="8.25379709713161">
        <ele>1650.6700000000001</ele>
        <time>2022-01-30T08:09:21Z</time>
      </trkpt>
      <trkpt lat="46.315169893205166" lon="8.253804221749306">
        <ele>1650.1099999999999</ele>
        <time>2022-01-30T08:09:50Z</time>
      </trkpt>
      <trkpt lat="46.315173581242561" lon="8.253807239234448">
        <ele>1649.6400000000001</ele>
        <time>2022-01-30T08:10:14Z</time>
      </trkpt>
      <trkpt lat="46.315177185460925" lon="8.253811430186033">
        <ele>1649.1099999999999</ele>
        <time>2022-01-30T08:10:36Z</time>
      </trkpt>
      <trkpt lat="46.315181208774447" lon="8.253812100738287">
        <ele>1649.0799999999999</ele>
        <time>2022-01-30T08:11:03Z</time>
      </trkpt>
      <trkpt lat="46.315185399726033" lon="8.253811011090875">
        <ele>1648.02</ele>
        <time>2022-01-30T08:11:26Z</time>
      </trkpt>
      <trkpt lat="46.315184142440557" lon="8.253812519833446">
        <ele>1651.0599999999999</ele>
        <time>2022-01-30T08:11:30Z</time>
      </trkpt>
      <trkpt lat="46.315184058621526" lon="8.253812603652477">
        <ele>1650.7</ele>
        <time>2022-01-30T08:11:31Z</time>
      </trkpt>
      <trkpt lat="46.315183136612177" lon="8.253813190385699">
        <ele>1649.73</ele>
        <time>2022-01-30T08:11:33Z</time>
      </trkpt>
      <trkpt lat="46.315178610384464" lon="8.253815704956651">
        <ele>1649.5599999999999</ele>
        <time>2022-01-30T08:11:51Z</time>
      </trkpt>
      <trkpt lat="46.315186489373446" lon="8.253808161243796">
        <ele>1650.6199999999999</ele>
        <time>2022-01-30T08:12:10Z</time>
      </trkpt>
      <trkpt lat="46.315196044743061" lon="8.253810591995716">
        <ele>1651.1199999999999</ele>
        <time>2022-01-30T08:12:35Z</time>
      </trkpt>
      <trkpt lat="46.31519696675241" lon="8.253806736320257">
        <ele>1650.22</ele>
        <time>2022-01-30T08:13:03Z</time>
      </trkpt>
      <trkpt lat="46.315193111076951" lon="8.25381419621408">
        <ele>1648.3499999999999</ele>
        <time>2022-01-30T08:13:38Z</time>
      </trkpt>
      <trkpt lat="46.315195625647902" lon="8.25381469912827">
        <ele>1649.54</ele>
        <time>2022-01-30T08:14:02Z</time>
      </trkpt>
      <trkpt lat="46.315193446353078" lon="8.253814280033112">
        <ele>1648.3299999999999</ele>
        <time>2022-01-30T08:14:31Z</time>
      </trkpt>
      <trkpt lat="46.315195541828871" lon="8.253804473206401">
        <ele>1648.8199999999999</ele>
        <time>2022-01-30T08:14:49Z</time>
      </trkpt>
      <trkpt lat="46.315190428867936" lon="8.253804892301559">
        <ele>1649.4200000000001</ele>
        <time>2022-01-30T08:15:03Z</time>
      </trkpt>
      <trkpt lat="46.315175425261259" lon="8.253788966685534">
        <ele>1650.04</ele>
        <time>2022-01-30T08:15:21Z</time>
      </trkpt>
      <trkpt lat="46.31517056375742" lon="8.253797851502895">
        <ele>1649.8199999999999</ele>
        <time>2022-01-30T08:15:36Z</time>
      </trkpt>
      <trkpt lat="46.31517207249999" lon="8.253798941150308">
        <ele>1650.1500000000001</ele>
        <time>2022-01-30T08:15:50Z</time>
      </trkpt>
      <trkpt lat="46.315138880163431" lon="8.253796091303229">
        <ele>1649.6700000000001</ele>
        <time>2022-01-30T08:15:56Z</time>
      </trkpt>
      <trkpt lat="46.315120859071612" lon="8.253796929493547">
        <ele>1649.77</ele>
        <time>2022-01-30T08:15:58Z</time>
      </trkpt>
      <trkpt lat="46.315054809674621" lon="8.253783350810409">
        <ele>1649</ele>
        <time>2022-01-30T08:16:09Z</time>
      </trkpt>
      <trkpt lat="46.315053049474955" lon="8.253790307790041">
        <ele>1649.0799999999999</ele>
        <time>2022-01-30T08:16:11Z</time>
      </trkpt>
      <trkpt lat="46.315075261518359" lon="8.253711853176355">
        <ele>1648.8800000000001</ele>
        <time>2022-01-30T08:16:19Z</time>
      </trkpt>
      <trkpt lat="46.315076686441898" lon="8.253654940053821">
        <ele>1648.78</ele>
        <time>2022-01-30T08:16:29Z</time>
      </trkpt>
      <trkpt lat="46.315093701705337" lon="8.253560811281204">
        <ele>1648.74</ele>
        <time>2022-01-30T08:16:37Z</time>
      </trkpt>
      <trkpt lat="46.315107028931379" lon="8.253512782976031">
        <ele>1647.48</ele>
        <time>2022-01-30T08:16:48Z</time>
      </trkpt>
      <trkpt lat="46.315112560987473" lon="8.25349266640842">
        <ele>1647.1800000000001</ele>
        <time>2022-01-30T08:17:02Z</time>
      </trkpt>
      <trkpt lat="46.315104933455586" lon="8.253503730520606">
        <ele>1647.52</ele>
        <time>2022-01-30T08:17:24Z</time>
      </trkpt>
      <trkpt lat="46.31510166451335" lon="8.253508927300572">
        <ele>1647.4400000000001</ele>
        <time>2022-01-30T08:18:02Z</time>
      </trkpt>
      <trkpt lat="46.315102502703667" lon="8.253516471013427">
        <ele>1647.25</ele>
        <time>2022-01-30T08:18:34Z</time>
      </trkpt>
      <trkpt lat="46.315100910142064" lon="8.25352493673563">
        <ele>1647.7</ele>
        <time>2022-01-30T08:19:01Z</time>
      </trkpt>
      <trkpt lat="46.315103340893984" lon="8.253570618107915">
        <ele>1648.6500000000001</ele>
        <time>2022-01-30T08:19:47Z</time>
      </trkpt>
      <trkpt lat="46.31509437225759" lon="8.253577994182706">
        <ele>1646.6500000000001</ele>
        <time>2022-01-30T08:19:54Z</time>
      </trkpt>
      <trkpt lat="46.315098227933049" lon="8.25357086956501">
        <ele>1648.24</ele>
        <time>2022-01-30T08:20:09Z</time>
      </trkpt>
      <trkpt lat="46.315075680613518" lon="8.253583107143641">
        <ele>1647.5</ele>
        <time>2022-01-30T08:20:21Z</time>
      </trkpt>
      <trkpt lat="46.315081212669611" lon="8.253570115193725">
        <ele>1648.04</ele>
        <time>2022-01-30T08:20:36Z</time>
      </trkpt>
      <trkpt lat="46.315075010061264" lon="8.2535679358989">
        <ele>1646.6099999999999</ele>
        <time>2022-01-30T08:20:50Z</time>
      </trkpt>
      <trkpt lat="46.315069394186139" lon="8.253572043031454">
        <ele>1645.6900000000001</ele>
        <time>2022-01-30T08:21:01Z</time>
      </trkpt>
      <trkpt lat="46.31507626734674" lon="8.25358453206718">
        <ele>1645.1300000000001</ele>
        <time>2022-01-30T08:21:10Z</time>
      </trkpt>
      <trkpt lat="46.315094958990812" lon="8.253565588966012">
        <ele>1645.4100000000001</ele>
        <time>2022-01-30T08:21:19Z</time>
      </trkpt>
      <trkpt lat="46.315096635371447" lon="8.253589393571019">
        <ele>1643.77</ele>
        <time>2022-01-30T08:21:28Z</time>
      </trkpt>
      <trkpt lat="46.315097725018859" lon="8.253593919798732">
        <ele>1645.98</ele>
        <time>2022-01-30T08:21:46Z</time>
      </trkpt>
      <trkpt lat="46.315097892656922" lon="8.25359283015132">
        <ele>1644.77</ele>
        <time>2022-01-30T08:21:58Z</time>
      </trkpt>
      <trkpt lat="46.315104262903333" lon="8.25357967056334">
        <ele>1646.53</ele>
        <time>2022-01-30T08:22:10Z</time>
      </trkpt>
      <trkpt lat="46.315099485218525" lon="8.253582436591387">
        <ele>1645.8199999999999</ele>
        <time>2022-01-30T08:22:26Z</time>
      </trkpt>
      <trkpt lat="46.315114488825202" lon="8.253591153770685">
        <ele>1647.21</ele>
        <time>2022-01-30T08:22:42Z</time>
      </trkpt>
      <trkpt lat="46.315086409449577" lon="8.253613784909248">
        <ele>1647.6700000000001</ele>
        <time>2022-01-30T08:22:52Z</time>
      </trkpt>
      <trkpt lat="46.315085906535387" lon="8.253595177084208">
        <ele>1647.3800000000001</ele>
        <time>2022-01-30T08:23:02Z</time>
      </trkpt>
      <trkpt lat="46.315066963434219" lon="8.253580173477531">
        <ele>1647.5799999999999</ele>
        <time>2022-01-30T08:23:12Z</time>
      </trkpt>
      <trkpt lat="46.315072914585471" lon="8.253592243418098">
        <ele>1647.1800000000001</ele>
        <time>2022-01-30T08:23:26Z</time>
      </trkpt>
      <trkpt lat="46.31507383659482" lon="8.253594255074859">
        <ele>1647.1900000000001</ele>
        <time>2022-01-30T08:23:43Z</time>
      </trkpt>
      <trkpt lat="46.315076015889645" lon="8.253590231761336">
        <ele>1646.8199999999999</ele>
        <time>2022-01-30T08:23:57Z</time>
      </trkpt>
      <trkpt lat="46.315065706148744" lon="8.253582855686545">
        <ele>1646.3499999999999</ele>
        <time>2022-01-30T08:24:14Z</time>
      </trkpt>
      <trkpt lat="46.315068304538727" lon="8.253575898706913">
        <ele>1646.5599999999999</ele>
        <time>2022-01-30T08:24:34Z</time>
      </trkpt>
      <trkpt lat="46.315072411671281" lon="8.253585956990719">
        <ele>1645.9100000000001</ele>
        <time>2022-01-30T08:24:48Z</time>
      </trkpt>
      <trkpt lat="46.315073920413852" lon="8.253609174862504">
        <ele>1645.6400000000001</ele>
        <time>2022-01-30T08:25:01Z</time>
      </trkpt>
      <trkpt lat="46.315097222104669" lon="8.253643959760666">
        <ele>1645.4000000000001</ele>
        <time>2022-01-30T08:25:11Z</time>
      </trkpt>
      <trkpt lat="46.315093953162432" lon="8.253648821264505">
        <ele>1644.5599999999999</ele>
        <time>2022-01-30T08:25:26Z</time>
      </trkpt>
      <trkpt lat="46.3150904327631" lon="8.253651252016425">
        <ele>1644.27</ele>
        <time>2022-01-30T08:25:50Z</time>
      </trkpt>
      <trkpt lat="46.315092612057924" lon="8.253647480159998">
        <ele>1643.71</ele>
        <time>2022-01-30T08:26:14Z</time>
      </trkpt>
      <trkpt lat="46.315091773867607" lon="8.253648653626442">
        <ele>1643.8299999999999</ele>
        <time>2022-01-30T08:26:29Z</time>
      </trkpt>
      <trkpt lat="46.315095713362098" lon="8.253641109913588">
        <ele>1643.4400000000001</ele>
        <time>2022-01-30T08:26:45Z</time>
      </trkpt>
      <trkpt lat="46.315097641199827" lon="8.253658376634121">
        <ele>1643.6099999999999</ele>
        <time>2022-01-30T08:27:03Z</time>
      </trkpt>
      <trkpt lat="46.315097557380795" lon="8.253660807386041">
        <ele>1642.9000000000001</ele>
        <time>2022-01-30T08:27:32Z</time>
      </trkpt>
      <trkpt lat="46.315103257074952" lon="8.253639852628112">
        <ele>1643.8900000000001</ele>
        <time>2022-01-30T08:27:53Z</time>
      </trkpt>
      <trkpt lat="46.315100658684969" lon="8.253633063286543">
        <ele>1643.96</ele>
        <time>2022-01-30T08:28:12Z</time>
      </trkpt>
      <trkpt lat="46.315081128850579" lon="8.253624346107245">
        <ele>1645.0999999999999</ele>
        <time>2022-01-30T08:28:28Z</time>
      </trkpt>
      <trkpt lat="46.315114321187139" lon="8.253603978082538">
        <ele>1644.9200000000001</ele>
        <time>2022-01-30T08:28:38Z</time>
      </trkpt>
      <trkpt lat="46.315074842423201" lon="8.253602720797062">
        <ele>1644.8699999999999</ele>
        <time>2022-01-30T08:28:50Z</time>
      </trkpt>
      <trkpt lat="46.315072746947408" lon="8.25359869748354">
        <ele>1644.8099999999999</ele>
        <time>2022-01-30T08:29:01Z</time>
      </trkpt>
      <trkpt lat="46.31507040001452" lon="8.253609342500567">
        <ele>1644.71</ele>
        <time>2022-01-30T08:29:17Z</time>
      </trkpt>
      <trkpt lat="46.315061431378126" lon="8.253652676939964">
        <ele>1644.6600000000001</ele>
        <time>2022-01-30T08:29:28Z</time>
      </trkpt>
      <trkpt lat="46.315065622329712" lon="8.253643624484539">
        <ele>1643.5599999999999</ele>
        <time>2022-01-30T08:29:42Z</time>
      </trkpt>
      <trkpt lat="46.315063862130046" lon="8.253640020266175">
        <ele>1643.1800000000001</ele>
        <time>2022-01-30T08:29:59Z</time>
      </trkpt>
      <trkpt lat="46.315042153000832" lon="8.253616886213422">
        <ele>1643.24</ele>
        <time>2022-01-30T08:30:17Z</time>
      </trkpt>
      <trkpt lat="46.314961099997163" lon="8.253567852079868">
        <ele>1642.21</ele>
        <time>2022-01-30T08:30:29Z</time>
      </trkpt>
      <trkpt lat="46.314922459423542" lon="8.253501383587718">
        <ele>1642.3199999999999</ele>
        <time>2022-01-30T08:30:36Z</time>
      </trkpt>
      <trkpt lat="46.314876191318035" lon="8.253280436620116">
        <ele>1644.4000000000001</ele>
        <time>2022-01-30T08:30:53Z</time>
      </trkpt>
      <trkpt lat="46.31487250328064" lon="8.253262499347329">
        <ele>1644.72</ele>
        <time>2022-01-30T08:31:03Z</time>
      </trkpt>
      <trkpt lat="46.314841406419873" lon="8.253155881538987">
        <ele>1645.51</ele>
        <time>2022-01-30T08:31:13Z</time>
      </trkpt>
      <trkpt lat="46.314818188548088" lon="8.252994697540999">
        <ele>1647.1800000000001</ele>
        <time>2022-01-30T08:31:26Z</time>
      </trkpt>
      <trkpt lat="46.314793881028891" lon="8.252829825505614">
        <ele>1648.51</ele>
        <time>2022-01-30T08:31:41Z</time>
      </trkpt>
      <trkpt lat="46.314792288467288" lon="8.252819180488586">
        <ele>1647.8</ele>
        <time>2022-01-30T08:31:44Z</time>
      </trkpt>
      <trkpt lat="46.314790192991495" lon="8.252596221864224">
        <ele>1647.0899999999999</ele>
        <time>2022-01-30T08:31:59Z</time>
      </trkpt>
      <trkpt lat="46.314719198271632" lon="8.252546349540353">
        <ele>1647.3199999999999</ele>
        <time>2022-01-30T08:32:10Z</time>
      </trkpt>
      <trkpt lat="46.314698830246925" lon="8.252524388954043">
        <ele>1645.5999999999999</ele>
        <time>2022-01-30T08:32:23Z</time>
      </trkpt>
      <trkpt lat="46.314707547426224" lon="8.2525266520679">
        <ele>1645.6300000000001</ele>
        <time>2022-01-30T08:32:39Z</time>
      </trkpt>
      <trkpt lat="46.314702099189162" lon="8.252519862726331">
        <ele>1643.9400000000001</ele>
        <time>2022-01-30T08:32:59Z</time>
      </trkpt>
      <trkpt lat="46.314665386453271" lon="8.252500165253878">
        <ele>1645.77</ele>
        <time>2022-01-30T08:33:16Z</time>
      </trkpt>
      <trkpt lat="46.314631439745426" lon="8.252431098371744">
        <ele>1646.8</ele>
        <time>2022-01-30T08:33:27Z</time>
      </trkpt>
      <trkpt lat="46.314594224095345" lon="8.252336969599128">
        <ele>1648.6900000000001</ele>
        <time>2022-01-30T08:33:40Z</time>
      </trkpt>
      <trkpt lat="46.314566479995847" lon="8.252223646268249">
        <ele>1650.6500000000001</ele>
        <time>2022-01-30T08:33:54Z</time>
      </trkpt>
      <trkpt lat="46.314558601006866" lon="8.252114681527019">
        <ele>1652.47</ele>
        <time>2022-01-30T08:34:06Z</time>
      </trkpt>
      <trkpt lat="46.314550805836916" lon="8.251972021535039">
        <ele>1655.4000000000001</ele>
        <time>2022-01-30T08:34:21Z</time>
      </trkpt>
      <trkpt lat="46.314542843028903" lon="8.251858111470938">
        <ele>1656.1199999999999</ele>
        <time>2022-01-30T08:34:35Z</time>
      </trkpt>
      <trkpt lat="46.314544016495347" lon="8.251776304095984">
        <ele>1656.04</ele>
        <time>2022-01-30T08:34:47Z</time>
      </trkpt>
      <trkpt lat="46.314546531066298" lon="8.251782422885299">
        <ele>1656.4300000000001</ele>
        <time>2022-01-30T08:35:08Z</time>
      </trkpt>
      <trkpt lat="46.314547033980489" lon="8.251784518361092">
        <ele>1655.26</ele>
        <time>2022-01-30T08:35:12Z</time>
      </trkpt>
      <trkpt lat="46.314547955989838" lon="8.251785524189472">
        <ele>1656.5599999999999</ele>
        <time>2022-01-30T08:35:15Z</time>
      </trkpt>
      <trkpt lat="46.314550722017884" lon="8.251790050417185">
        <ele>1655.04</ele>
        <time>2022-01-30T08:35:20Z</time>
      </trkpt>
      <trkpt lat="46.314537059515715" lon="8.25175266712904">
        <ele>1656.2</ele>
        <time>2022-01-30T08:35:31Z</time>
      </trkpt>
      <trkpt lat="46.314536053687334" lon="8.251658538356423">
        <ele>1658.01</ele>
        <time>2022-01-30T08:35:47Z</time>
      </trkpt>
      <trkpt lat="46.314534796401858" lon="8.251531552523375">
        <ele>1659.97</ele>
        <time>2022-01-30T08:36:01Z</time>
      </trkpt>
      <trkpt lat="46.314563546329737" lon="8.251396268606186">
        <ele>1662.8900000000001</ele>
        <time>2022-01-30T08:36:18Z</time>
      </trkpt>
      <trkpt lat="46.314627584069967" lon="8.251341702416539">
        <ele>1665.1900000000001</ele>
        <time>2022-01-30T08:36:31Z</time>
      </trkpt>
      <trkpt lat="46.314687011763453" lon="8.251279089599848">
        <ele>1666.3800000000001</ele>
        <time>2022-01-30T08:36:44Z</time>
      </trkpt>
      <trkpt lat="46.314701177179813" lon="8.251192588359118">
        <ele>1667.27</ele>
        <time>2022-01-30T08:36:55Z</time>
      </trkpt>
      <trkpt lat="46.314688939601183" lon="8.251147577539086">
        <ele>1667.02</ele>
        <time>2022-01-30T08:37:06Z</time>
      </trkpt>
      <trkpt lat="46.314686592668295" lon="8.251135926693678">
        <ele>1666.71</ele>
        <time>2022-01-30T08:37:09Z</time>
      </trkpt>
      <trkpt lat="46.314747780561447" lon="8.251059651374817">
        <ele>1667.6099999999999</ele>
        <time>2022-01-30T08:37:20Z</time>
      </trkpt>
      <trkpt lat="46.314823972061276" lon="8.250963008031249">
        <ele>1667.1700000000001</ele>
        <time>2022-01-30T08:37:33Z</time>
      </trkpt>
      <trkpt lat="46.314840316772461" lon="8.250948004424572">
        <ele>1666.74</ele>
        <time>2022-01-30T08:37:39Z</time>
      </trkpt>
      <trkpt lat="46.31485540419817" lon="8.250930737704039">
        <ele>1666.54</ele>
        <time>2022-01-30T08:37:41Z</time>
      </trkpt>
      <trkpt lat="46.314901253208518" lon="8.250910537317395">
        <ele>1666.8800000000001</ele>
        <time>2022-01-30T08:37:45Z</time>
      </trkpt>
      <trkpt lat="46.315014744177461" lon="8.250840548425913">
        <ele>1667.8199999999999</ele>
        <time>2022-01-30T08:37:59Z</time>
      </trkpt>
      <trkpt lat="46.315069478005171" lon="8.250765698030591">
        <ele>1669.6800000000001</ele>
        <time>2022-01-30T08:38:12Z</time>
      </trkpt>
      <trkpt lat="46.315112728625536" lon="8.250687411054969">
        <ele>1671.3099999999999</ele>
        <time>2022-01-30T08:38:24Z</time>
      </trkpt>
      <trkpt lat="46.315151620656252" lon="8.250588672235608">
        <ele>1672.8299999999999</ele>
        <time>2022-01-30T08:38:39Z</time>
      </trkpt>
      <trkpt lat="46.315191769972444" lon="8.250474762171507">
        <ele>1675.05</ele>
        <time>2022-01-30T08:38:56Z</time>
      </trkpt>
      <trkpt lat="46.315228650346398" lon="8.250411059707403">
        <ele>1676.4200000000001</ele>
        <time>2022-01-30T08:39:09Z</time>
      </trkpt>
      <trkpt lat="46.315263016149402" lon="8.250317266210914">
        <ele>1677.9400000000001</ele>
        <time>2022-01-30T08:39:23Z</time>
      </trkpt>
      <trkpt lat="46.31533719599247" lon="8.250287510454655">
        <ele>1679.26</ele>
        <time>2022-01-30T08:39:36Z</time>
      </trkpt>
      <trkpt lat="46.315349601209164" lon="8.250279128551483">
        <ele>1679.49</ele>
        <time>2022-01-30T08:39:42Z</time>
      </trkpt>
      <trkpt lat="46.315406849607825" lon="8.250157255679369">
        <ele>1680.04</ele>
        <time>2022-01-30T08:39:56Z</time>
      </trkpt>
      <trkpt lat="46.315414980053902" lon="8.250114256516099">
        <ele>1680.6099999999999</ele>
        <time>2022-01-30T08:40:10Z</time>
      </trkpt>
      <trkpt lat="46.315417913720012" lon="8.250101683661342">
        <ele>1680.3599999999999</ele>
        <time>2022-01-30T08:40:23Z</time>
      </trkpt>
      <trkpt lat="46.315422188490629" lon="8.250072095543146">
        <ele>1679.9300000000001</ele>
        <time>2022-01-30T08:40:43Z</time>
      </trkpt>
      <trkpt lat="46.315422439947724" lon="8.250053152441979">
        <ele>1679.49</ele>
        <time>2022-01-30T08:41:03Z</time>
      </trkpt>
      <trkpt lat="46.31542076356709" lon="8.250027503818274">
        <ele>1677.99</ele>
        <time>2022-01-30T08:41:22Z</time>
      </trkpt>
      <trkpt lat="46.315436940640211" lon="8.250012248754501">
        <ele>1678.21</ele>
        <time>2022-01-30T08:41:35Z</time>
      </trkpt>
      <trkpt lat="46.315491087734699" lon="8.250013422220945">
        <ele>1676.3800000000001</ele>
        <time>2022-01-30T08:41:57Z</time>
      </trkpt>
      <trkpt lat="46.315521765500307" lon="8.249999424442649">
        <ele>1677.5799999999999</ele>
        <time>2022-01-30T08:42:13Z</time>
      </trkpt>
      <trkpt lat="46.315570799633861" lon="8.249972183257341">
        <ele>1678.3499999999999</ele>
        <time>2022-01-30T08:42:24Z</time>
      </trkpt>
      <trkpt lat="46.315629137679935" lon="8.249931447207928">
        <ele>1679.95</ele>
        <time>2022-01-30T08:42:37Z</time>
      </trkpt>
      <trkpt lat="46.315653109923005" lon="8.249920969828963">
        <ele>1679.77</ele>
        <time>2022-01-30T08:42:50Z</time>
      </trkpt>
      <trkpt lat="46.315719662234187" lon="8.249901356175542">
        <ele>1681.52</ele>
        <time>2022-01-30T08:43:06Z</time>
      </trkpt>
      <trkpt lat="46.31579945795238" lon="8.249866655096412">
        <ele>1682.53</ele>
        <time>2022-01-30T08:43:18Z</time>
      </trkpt>
      <trkpt lat="46.315854527056217" lon="8.249816363677383">
        <ele>1685.45</ele>
        <time>2022-01-30T08:43:32Z</time>
      </trkpt>
      <trkpt lat="46.315854694694281" lon="8.249767329543829">
        <ele>1686.8399999999999</ele>
        <time>2022-01-30T08:43:44Z</time>
      </trkpt>
      <trkpt lat="46.31581705994904" lon="8.249796079471707">
        <ele>1688.3299999999999</ele>
        <time>2022-01-30T08:43:56Z</time>
      </trkpt>
      <trkpt lat="46.315774982795119" lon="8.249807981774211">
        <ele>1689.53</ele>
        <time>2022-01-30T08:44:10Z</time>
      </trkpt>
      <trkpt lat="46.315735839307308" lon="8.249786859378219">
        <ele>1690.3099999999999</ele>
        <time>2022-01-30T08:44:24Z</time>
      </trkpt>
      <trkpt lat="46.315781939774752" lon="8.249695664271712">
        <ele>1691.9400000000001</ele>
        <time>2022-01-30T08:44:37Z</time>
      </trkpt>
      <trkpt lat="46.315830051898956" lon="8.249605810269713">
        <ele>1693.6199999999999</ele>
        <time>2022-01-30T08:44:51Z</time>
      </trkpt>
      <trkpt lat="46.315842373296618" lon="8.249565409496427">
        <ele>1693.9200000000001</ele>
        <time>2022-01-30T08:45:03Z</time>
      </trkpt>
      <trkpt lat="46.315835164859891" lon="8.249560464173555">
        <ele>1694.0799999999999</ele>
        <time>2022-01-30T08:45:20Z</time>
      </trkpt>
      <trkpt lat="46.315835248678923" lon="8.249537581577897">
        <ele>1693.0899999999999</ele>
        <time>2022-01-30T08:45:31Z</time>
      </trkpt>
      <trkpt lat="46.315834661945701" lon="8.249551327899098">
        <ele>1693.55</ele>
        <time>2022-01-30T08:45:45Z</time>
      </trkpt>
      <trkpt lat="46.31586542353034" lon="8.249544706195593">
        <ele>1693.1900000000001</ele>
        <time>2022-01-30T08:46:13Z</time>
      </trkpt>
      <trkpt lat="46.315892245620489" lon="8.249512603506446">
        <ele>1695.3699999999999</ele>
        <time>2022-01-30T08:46:25Z</time>
      </trkpt>
      <trkpt lat="46.315913451835513" lon="8.249438256025314">
        <ele>1696.1600000000001</ele>
        <time>2022-01-30T08:46:40Z</time>
      </trkpt>
      <trkpt lat="46.315922252833843" lon="8.249394586309791">
        <ele>1697.3599999999999</ele>
        <time>2022-01-30T08:46:52Z</time>
      </trkpt>
      <trkpt lat="46.315947901457548" lon="8.249326860532165">
        <ele>1699.1700000000001</ele>
        <time>2022-01-30T08:47:07Z</time>
      </trkpt>
      <trkpt lat="46.31597195751965" lon="8.24927631765604">
        <ele>1701.0899999999999</ele>
        <time>2022-01-30T08:47:21Z</time>
      </trkpt>
      <trkpt lat="46.316011184826493" lon="8.249281933531165">
        <ele>1701.7</ele>
        <time>2022-01-30T08:47:34Z</time>
      </trkpt>
      <trkpt lat="46.316031301394105" lon="8.249271204695106">
        <ele>1701.72</ele>
        <time>2022-01-30T08:47:44Z</time>
      </trkpt>
      <trkpt lat="46.31605644710362" lon="8.24924991466105">
        <ele>1702.6400000000001</ele>
        <time>2022-01-30T08:47:58Z</time>
      </trkpt>
      <trkpt lat="46.316088801249862" lon="8.249230301007628">
        <ele>1703.97</ele>
        <time>2022-01-30T08:48:10Z</time>
      </trkpt>
      <trkpt lat="46.316140936687589" lon="8.249222254380584">
        <ele>1705.45</ele>
        <time>2022-01-30T08:48:22Z</time>
      </trkpt>
      <trkpt lat="46.316165160387754" lon="8.249190151691437">
        <ele>1706.54</ele>
        <time>2022-01-30T08:48:31Z</time>
      </trkpt>
      <trkpt lat="46.316162645816803" lon="8.249114379286766">
        <ele>1708.0899999999999</ele>
        <time>2022-01-30T08:48:44Z</time>
      </trkpt>
      <trkpt lat="46.316152503713965" lon="8.249044306576252">
        <ele>1710.03</ele>
        <time>2022-01-30T08:48:57Z</time>
      </trkpt>
      <trkpt lat="46.316115707159042" lon="8.248969037085772">
        <ele>1713.04</ele>
        <time>2022-01-30T08:49:11Z</time>
      </trkpt>
      <trkpt lat="46.316142529249191" lon="8.248954620212317">
        <ele>1712.53</ele>
        <time>2022-01-30T08:49:27Z</time>
      </trkpt>
      <trkpt lat="46.316135069355369" lon="8.248915979638696">
        <ele>1712.4300000000001</ele>
        <time>2022-01-30T08:49:30Z</time>
      </trkpt>
      <trkpt lat="46.316058207303286" lon="8.248813804239035">
        <ele>1714.52</ele>
        <time>2022-01-30T08:49:44Z</time>
      </trkpt>
      <trkpt lat="46.316027613356709" lon="8.248781701549888">
        <ele>1715.48</ele>
        <time>2022-01-30T08:49:56Z</time>
      </trkpt>
      <trkpt lat="46.315994085744023" lon="8.248752532526851">
        <ele>1716.26</ele>
        <time>2022-01-30T08:50:08Z</time>
      </trkpt>
      <trkpt lat="46.315984698012471" lon="8.248736606910825">
        <ele>1716.3099999999999</ele>
        <time>2022-01-30T08:50:22Z</time>
      </trkpt>
      <trkpt lat="46.315944129601121" lon="8.248694026842713">
        <ele>1717.3699999999999</ele>
        <time>2022-01-30T08:50:36Z</time>
      </trkpt>
      <trkpt lat="46.315912278369069" lon="8.248653458431363">
        <ele>1717.98</ele>
        <time>2022-01-30T08:50:47Z</time>
      </trkpt>
      <trkpt lat="46.315890904515982" lon="8.248634347692132">
        <ele>1717.8399999999999</ele>
        <time>2022-01-30T08:51:00Z</time>
      </trkpt>
      <trkpt lat="46.315833823755383" lon="8.248590426519513">
        <ele>1719.8</ele>
        <time>2022-01-30T08:51:19Z</time>
      </trkpt>
      <trkpt lat="46.315795099362731" lon="8.248571399599314">
        <ele>1721.1900000000001</ele>
        <time>2022-01-30T08:51:40Z</time>
      </trkpt>
      <trkpt lat="46.315800296142697" lon="8.248640885576606">
        <ele>1722.3699999999999</ele>
        <time>2022-01-30T08:51:56Z</time>
      </trkpt>
      <trkpt lat="46.315811863169074" lon="8.248684639111161">
        <ele>1723.01</ele>
        <time>2022-01-30T08:52:09Z</time>
      </trkpt>
      <trkpt lat="46.31584145128727" lon="8.248734679073095">
        <ele>1724.51</ele>
        <time>2022-01-30T08:52:22Z</time>
      </trkpt>
      <trkpt lat="46.315826699137688" lon="8.248770805075765">
        <ele>1726.04</ele>
        <time>2022-01-30T08:52:33Z</time>
      </trkpt>
      <trkpt lat="46.315800463780761" lon="8.248797208070755">
        <ele>1727.3</ele>
        <time>2022-01-30T08:52:49Z</time>
      </trkpt>
      <trkpt lat="46.315804654732347" lon="8.248802740126848">
        <ele>1727.75</ele>
        <time>2022-01-30T08:53:10Z</time>
      </trkpt>
      <trkpt lat="46.315815467387438" lon="8.248791173100472">
        <ele>1728.1700000000001</ele>
        <time>2022-01-30T08:53:24Z</time>
      </trkpt>
      <trkpt lat="46.315815718844533" lon="8.248806931078434">
        <ele>1727.55</ele>
        <time>2022-01-30T08:53:42Z</time>
      </trkpt>
      <trkpt lat="46.315828207880259" lon="8.248829729855061">
        <ele>1728.8800000000001</ele>
        <time>2022-01-30T08:54:06Z</time>
      </trkpt>
      <trkpt lat="46.315817730501294" lon="8.248844398185611">
        <ele>1729.03</ele>
        <time>2022-01-30T08:54:25Z</time>
      </trkpt>
      <trkpt lat="46.315815299749374" lon="8.248846828937531">
        <ele>1728.1099999999999</ele>
        <time>2022-01-30T08:54:46Z</time>
      </trkpt>
      <trkpt lat="46.31580138579011" lon="8.248841967433691">
        <ele>1727.02</ele>
        <time>2022-01-30T08:55:15Z</time>
      </trkpt>
      <trkpt lat="46.315802307799459" lon="8.248852528631687">
        <ele>1727.5699999999999</ele>
        <time>2022-01-30T08:55:43Z</time>
      </trkpt>
      <trkpt lat="46.31581555120647" lon="8.248873734846711">
        <ele>1727.6700000000001</ele>
        <time>2022-01-30T08:56:07Z</time>
      </trkpt>
      <trkpt lat="46.315755201503634" lon="8.248880691826344">
        <ele>1729.3199999999999</ele>
        <time>2022-01-30T08:56:19Z</time>
      </trkpt>
      <trkpt lat="46.315724859014153" lon="8.248864179477096">
        <ele>1730.2</ele>
        <time>2022-01-30T08:56:34Z</time>
      </trkpt>
      <trkpt lat="46.315727708861232" lon="8.24884339235723">
        <ele>1730.1900000000001</ele>
        <time>2022-01-30T08:56:54Z</time>
      </trkpt>
      <trkpt lat="46.315725613385439" lon="8.248829897493124">
        <ele>1729.71</ele>
        <time>2022-01-30T08:57:15Z</time>
      </trkpt>
      <trkpt lat="46.315720332786441" lon="8.248822186142206">
        <ele>1730.1800000000001</ele>
        <time>2022-01-30T08:57:30Z</time>
      </trkpt>
      <trkpt lat="46.315699042752385" lon="8.248787317425013">
        <ele>1730.9300000000001</ele>
        <time>2022-01-30T08:57:42Z</time>
      </trkpt>
      <trkpt lat="46.315655456855893" lon="8.248758902773261">
        <ele>1733.1199999999999</ele>
        <time>2022-01-30T08:57:55Z</time>
      </trkpt>
      <trkpt lat="46.315597537904978" lon="8.248696960508823">
        <ele>1734.3800000000001</ele>
        <time>2022-01-30T08:58:08Z</time>
      </trkpt>
      <trkpt lat="46.315558226779103" lon="8.248646501451731">
        <ele>1736.23</ele>
        <time>2022-01-30T08:58:21Z</time>
      </trkpt>
      <trkpt lat="46.315502235665917" lon="8.248593611642718">
        <ele>1737.5899999999999</ele>
        <time>2022-01-30T08:58:39Z</time>
      </trkpt>
      <trkpt lat="46.315460242331028" lon="8.24854533188045">
        <ele>1738.03</ele>
        <time>2022-01-30T08:58:51Z</time>
      </trkpt>
      <trkpt lat="46.315422356128693" lon="8.248497806489468">
        <ele>1740.8699999999999</ele>
        <time>2022-01-30T08:59:05Z</time>
      </trkpt>
      <trkpt lat="46.315366867929697" lon="8.248448604717851">
        <ele>1741.29</ele>
        <time>2022-01-30T08:59:22Z</time>
      </trkpt>
      <trkpt lat="46.315312134101987" lon="8.248384902253747">
        <ele>1741.52</ele>
        <time>2022-01-30T08:59:30Z</time>
      </trkpt>
      <trkpt lat="46.315231081098318" lon="8.248337795957923">
        <ele>1742.1700000000001</ele>
        <time>2022-01-30T08:59:43Z</time>
      </trkpt>
      <trkpt lat="46.315170312300324" lon="8.248252552002668">
        <ele>1742</ele>
        <time>2022-01-30T08:59:56Z</time>
      </trkpt>
      <trkpt lat="46.315117841586471" lon="8.248157082125545">
        <ele>1742.8699999999999</ele>
        <time>2022-01-30T09:00:10Z</time>
      </trkpt>
      <trkpt lat="46.315066879615188" lon="8.248100755736232">
        <ele>1744.0899999999999</ele>
        <time>2022-01-30T09:00:22Z</time>
      </trkpt>
      <trkpt lat="46.315014660358429" lon="8.248042166233063">
        <ele>1745.02</ele>
        <time>2022-01-30T09:00:35Z</time>
      </trkpt>
      <trkpt lat="46.314992113038898" lon="8.248016349971294">
        <ele>1745.3699999999999</ele>
        <time>2022-01-30T09:00:50Z</time>
      </trkpt>
      <trkpt lat="46.314974594861269" lon="8.248003190383315">
        <ele>1745.27</ele>
        <time>2022-01-30T09:00:59Z</time>
      </trkpt>
      <trkpt lat="46.314941067248583" lon="8.247929010540247">
        <ele>1746.0699999999999</ele>
        <time>2022-01-30T09:01:11Z</time>
      </trkpt>
      <trkpt lat="46.314913658425212" lon="8.247861033305526">
        <ele>1747.1700000000001</ele>
        <time>2022-01-30T09:01:24Z</time>
      </trkpt>
      <trkpt lat="46.314875520765781" lon="8.247841335833073">
        <ele>1747.79</ele>
        <time>2022-01-30T09:01:35Z</time>
      </trkpt>
      <trkpt lat="46.314828246831894" lon="8.247843263670802">
        <ele>1748.8399999999999</ele>
        <time>2022-01-30T09:01:50Z</time>
      </trkpt>
      <trkpt lat="46.314796898514032" lon="8.247863547876477">
        <ele>1749.8099999999999</ele>
        <time>2022-01-30T09:02:04Z</time>
      </trkpt>
      <trkpt lat="46.314761526882648" lon="8.247838569805026">
        <ele>1750.8</ele>
        <time>2022-01-30T09:02:14Z</time>
      </trkpt>
      <trkpt lat="46.314705535769463" lon="8.247805377468467">
        <ele>1751.97</ele>
        <time>2022-01-30T09:02:27Z</time>
      </trkpt>
      <trkpt lat="46.314668320119381" lon="8.247728515416384">
        <ele>1752.8699999999999</ele>
        <time>2022-01-30T09:02:40Z</time>
      </trkpt>
      <trkpt lat="46.31463160738349" lon="8.247670512646437">
        <ele>1753.49</ele>
        <time>2022-01-30T09:02:51Z</time>
      </trkpt>
      <trkpt lat="46.314596487209201" lon="8.247639248147607">
        <ele>1754.72</ele>
        <time>2022-01-30T09:03:03Z</time>
      </trkpt>
      <trkpt lat="46.314552733674645" lon="8.247614521533251">
        <ele>1755.8699999999999</ele>
        <time>2022-01-30T09:03:14Z</time>
      </trkpt>
      <trkpt lat="46.314512081444263" lon="8.24755777604878">
        <ele>1758.9300000000001</ele>
        <time>2022-01-30T09:03:28Z</time>
      </trkpt>
      <trkpt lat="46.314508393406868" lon="8.247533552348614">
        <ele>1759.96</ele>
        <time>2022-01-30T09:03:39Z</time>
      </trkpt>
      <trkpt lat="46.314494982361794" lon="8.247470017522574">
        <ele>1761.54</ele>
        <time>2022-01-30T09:03:51Z</time>
      </trkpt>
      <trkpt lat="46.314465897157788" lon="8.247389886528254">
        <ele>1762.6400000000001</ele>
        <time>2022-01-30T09:04:04Z</time>
      </trkpt>
      <trkpt lat="46.314459275454283" lon="8.247328363358975">
        <ele>1763</ele>
        <time>2022-01-30T09:04:17Z</time>
      </trkpt>
      <trkpt lat="46.314435638487339" lon="8.247254686430097">
        <ele>1766.1500000000001</ele>
        <time>2022-01-30T09:04:26Z</time>
      </trkpt>
      <trkpt lat="46.314386436715722" lon="8.247282346710563">
        <ele>1769.23</ele>
        <time>2022-01-30T09:04:36Z</time>
      </trkpt>
      <trkpt lat="46.314361458644271" lon="8.247379073873162">
        <ele>1772.0999999999999</ele>
        <time>2022-01-30T09:04:48Z</time>
      </trkpt>
      <trkpt lat="46.314328350126743" lon="8.247368512675166">
        <ele>1773.5699999999999</ele>
        <time>2022-01-30T09:04:58Z</time>
      </trkpt>
      <trkpt lat="46.314279986545444" lon="8.247340517118573">
        <ele>1774.3699999999999</ele>
        <time>2022-01-30T09:05:09Z</time>
      </trkpt>
      <trkpt lat="46.314271688461304" lon="8.247338170185685">
        <ele>1773.9300000000001</ele>
        <time>2022-01-30T09:05:22Z</time>
      </trkpt>
      <trkpt lat="46.314261965453625" lon="8.247311431914568">
        <ele>1773.74</ele>
        <time>2022-01-30T09:05:47Z</time>
      </trkpt>
      <trkpt lat="46.314233299344778" lon="8.24727388098836">
        <ele>1774.5699999999999</ele>
        <time>2022-01-30T09:06:01Z</time>
      </trkpt>
      <trkpt lat="46.31420848891139" lon="8.247261391952634">
        <ele>1775.01</ele>
        <time>2022-01-30T09:06:21Z</time>
      </trkpt>
      <trkpt lat="46.3141786493361" lon="8.247248316183686">
        <ele>1775.8499999999999</ele>
        <time>2022-01-30T09:06:33Z</time>
      </trkpt>
      <trkpt lat="46.314135482534766" lon="8.247245969250798">
        <ele>1777.79</ele>
        <time>2022-01-30T09:06:51Z</time>
      </trkpt>
      <trkpt lat="46.314118802547455" lon="8.247249322012067">
        <ele>1777.78</ele>
        <time>2022-01-30T09:07:07Z</time>
      </trkpt>
      <trkpt lat="46.314111510291696" lon="8.247240521013737">
        <ele>1778.21</ele>
        <time>2022-01-30T09:07:27Z</time>
      </trkpt>
      <trkpt lat="46.314064236357808" lon="8.24726608581841">
        <ele>1780.22</ele>
        <time>2022-01-30T09:07:40Z</time>
      </trkpt>
      <trkpt lat="46.313998019322753" lon="8.247210597619414">
        <ele>1783.1600000000001</ele>
        <time>2022-01-30T09:07:53Z</time>
      </trkpt>
      <trkpt lat="46.313944794237614" lon="8.247161144390702">
        <ele>1784.51</ele>
        <time>2022-01-30T09:08:07Z</time>
      </trkpt>
      <trkpt lat="46.313928700983524" lon="8.247147146612406">
        <ele>1783.95</ele>
        <time>2022-01-30T09:08:22Z</time>
      </trkpt>
      <trkpt lat="46.313930377364159" lon="8.247121749445796">
        <ele>1785.74</ele>
        <time>2022-01-30T09:08:41Z</time>
      </trkpt>
      <trkpt lat="46.313925012946129" lon="8.247104650363326">
        <ele>1786.25</ele>
        <time>2022-01-30T09:09:03Z</time>
      </trkpt>
      <trkpt lat="46.313923168927431" lon="8.247108589857817">
        <ele>1786.52</ele>
        <time>2022-01-30T09:09:30Z</time>
      </trkpt>
      <trkpt lat="46.313934484496713" lon="8.247115714475513">
        <ele>1786.03</ele>
        <time>2022-01-30T09:09:51Z</time>
      </trkpt>
      <trkpt lat="46.313943453133106" lon="8.247130215167999">
        <ele>1785.8499999999999</ele>
        <time>2022-01-30T09:10:07Z</time>
      </trkpt>
      <trkpt lat="46.313942028209567" lon="8.247148068621755">
        <ele>1786.8</ele>
        <time>2022-01-30T09:10:31Z</time>
      </trkpt>
      <trkpt lat="46.313943704590201" lon="8.247159635648131">
        <ele>1786.24</ele>
        <time>2022-01-30T09:10:52Z</time>
      </trkpt>
      <trkpt lat="46.313904477283359" lon="8.247139351442456">
        <ele>1788.28</ele>
        <time>2022-01-30T09:11:07Z</time>
      </trkpt>
      <trkpt lat="46.313830129802227" lon="8.247105069458485">
        <ele>1790.74</ele>
        <time>2022-01-30T09:11:25Z</time>
      </trkpt>
      <trkpt lat="46.313802972435951" lon="8.247090401127935">
        <ele>1791.3599999999999</ele>
        <time>2022-01-30T09:11:37Z</time>
      </trkpt>
      <trkpt lat="46.313797608017921" lon="8.247088473290205">
        <ele>1791.3099999999999</ele>
        <time>2022-01-30T09:11:56Z</time>
      </trkpt>
      <trkpt lat="46.313791153952479" lon="8.247143626213074">
        <ele>1792.3299999999999</ele>
        <time>2022-01-30T09:12:06Z</time>
      </trkpt>
      <trkpt lat="46.313783610239625" lon="8.247143123298883">
        <ele>1792.8699999999999</ele>
        <time>2022-01-30T09:12:27Z</time>
      </trkpt>
      <trkpt lat="46.313768103718758" lon="8.247179752215743">
        <ele>1794.9100000000001</ele>
        <time>2022-01-30T09:12:40Z</time>
      </trkpt>
      <trkpt lat="46.313740275800228" lon="8.247188301756978">
        <ele>1796.3800000000001</ele>
        <time>2022-01-30T09:12:53Z</time>
      </trkpt>
      <trkpt lat="46.313691576942801" lon="8.247194001451135">
        <ele>1798.23</ele>
        <time>2022-01-30T09:13:06Z</time>
      </trkpt>
      <trkpt lat="46.31365243345499" lon="8.247217973694205">
        <ele>1799.71</ele>
        <time>2022-01-30T09:13:18Z</time>
      </trkpt>
      <trkpt lat="46.313618067651987" lon="8.247174303978682">
        <ele>1801.78</ele>
        <time>2022-01-30T09:13:29Z</time>
      </trkpt>
      <trkpt lat="46.313584707677364" lon="8.2471336517483">
        <ele>1802.76</ele>
        <time>2022-01-30T09:13:40Z</time>
      </trkpt>
      <trkpt lat="46.313560316339135" lon="8.247174303978682">
        <ele>1803.79</ele>
        <time>2022-01-30T09:13:54Z</time>
      </trkpt>
      <trkpt lat="46.313545145094395" lon="8.247204143553972">
        <ele>1804.45</ele>
        <time>2022-01-30T09:14:08Z</time>
      </trkpt>
      <trkpt lat="46.313512958586216" lon="8.247197102755308">
        <ele>1805.02</ele>
        <time>2022-01-30T09:14:28Z</time>
      </trkpt>
      <trkpt lat="46.313450010493398" lon="8.247115043923259">
        <ele>1806.99</ele>
        <time>2022-01-30T09:14:40Z</time>
      </trkpt>
      <trkpt lat="46.313411621376872" lon="8.247124515473843">
        <ele>1807.8499999999999</ele>
        <time>2022-01-30T09:14:55Z</time>
      </trkpt>
      <trkpt lat="46.313369879499078" lon="8.247113116085529">
        <ele>1809.1199999999999</ele>
        <time>2022-01-30T09:15:06Z</time>
      </trkpt>
      <trkpt lat="46.313327131792903" lon="8.247123174369335">
        <ele>1809.6800000000001</ele>
        <time>2022-01-30T09:15:22Z</time>
      </trkpt>
      <trkpt lat="46.313271895051003" lon="8.247069781646133">
        <ele>1810.04</ele>
        <time>2022-01-30T09:15:34Z</time>
      </trkpt>
      <trkpt lat="46.313218669965863" lon="8.246987136080861">
        <ele>1810.97</ele>
        <time>2022-01-30T09:15:48Z</time>
      </trkpt>
      <trkpt lat="46.313178269192576" lon="8.246913542971015">
        <ele>1811.71</ele>
        <time>2022-01-30T09:16:01Z</time>
      </trkpt>
      <trkpt lat="46.313144909217954" lon="8.246821174398065">
        <ele>1813.49</ele>
        <time>2022-01-30T09:16:14Z</time>
      </trkpt>
      <trkpt lat="46.313134348019958" lon="8.246787311509252">
        <ele>1814.1099999999999</ele>
        <time>2022-01-30T09:16:31Z</time>
      </trkpt>
      <trkpt lat="46.313092689961195" lon="8.246728889644146">
        <ele>1814.48</ele>
        <time>2022-01-30T09:16:43Z</time>
      </trkpt>
      <trkpt lat="46.313072573393583" lon="8.246695613488555">
        <ele>1815.3900000000001</ele>
        <time>2022-01-30T09:16:53Z</time>
      </trkpt>
      <trkpt lat="46.313044996932149" lon="8.246660828590393">
        <ele>1816.27</ele>
        <time>2022-01-30T09:17:05Z</time>
      </trkpt>
      <trkpt lat="46.313009541481733" lon="8.24665236286819">
        <ele>1817.47</ele>
        <time>2022-01-30T09:17:16Z</time>
      </trkpt>
      <trkpt lat="46.312969392165542" lon="8.246628474444151">
        <ele>1818.9100000000001</ele>
        <time>2022-01-30T09:17:29Z</time>
      </trkpt>
      <trkpt lat="46.31293167360127" lon="8.246622523292899">
        <ele>1819.9200000000001</ele>
        <time>2022-01-30T09:17:46Z</time>
      </trkpt>
      <trkpt lat="46.312887165695429" lon="8.246610285714269">
        <ele>1820.5799999999999</ele>
        <time>2022-01-30T09:17:57Z</time>
      </trkpt>
      <trkpt lat="46.312840394675732" lon="8.246505092829466">
        <ele>1820.5999999999999</ele>
        <time>2022-01-30T09:18:10Z</time>
      </trkpt>
      <trkpt lat="46.312818517908454" lon="8.246462345123291">
        <ele>1820.71</ele>
        <time>2022-01-30T09:18:20Z</time>
      </trkpt>
      <trkpt lat="46.3128178473562" lon="8.246456813067198">
        <ele>1821.02</ele>
        <time>2022-01-30T09:18:39Z</time>
      </trkpt>
      <trkpt lat="46.312822960317135" lon="8.246444826945663">
        <ele>1821.23</ele>
        <time>2022-01-30T09:18:51Z</time>
      </trkpt>
      <trkpt lat="46.312802508473396" lon="8.246459160000086">
        <ele>1819.98</ele>
        <time>2022-01-30T09:19:18Z</time>
      </trkpt>
      <trkpt lat="46.312794294208288" lon="8.246464775875211">
        <ele>1819.8299999999999</ele>
        <time>2022-01-30T09:19:33Z</time>
      </trkpt>
      <trkpt lat="46.312778200954199" lon="8.246456813067198">
        <ele>1819.6199999999999</ele>
        <time>2022-01-30T09:19:46Z</time>
      </trkpt>
      <trkpt lat="46.31278901360929" lon="8.246471984311938">
        <ele>1819.4100000000001</ele>
        <time>2022-01-30T09:20:05Z</time>
      </trkpt>
      <trkpt lat="46.312791779637337" lon="8.246476594358683">
        <ele>1819.8199999999999</ele>
        <time>2022-01-30T09:20:18Z</time>
      </trkpt>
      <trkpt lat="46.312787756323814" lon="8.246509619057179">
        <ele>1819.9100000000001</ele>
        <time>2022-01-30T09:20:34Z</time>
      </trkpt>
      <trkpt lat="46.31279488094151" lon="8.246460082009435">
        <ele>1820.47</ele>
        <time>2022-01-30T09:20:53Z</time>
      </trkpt>
      <trkpt lat="46.312811309471726" lon="8.246431751176715">
        <ele>1820.9300000000001</ele>
        <time>2022-01-30T09:21:09Z</time>
      </trkpt>
      <trkpt lat="46.312796054407954" lon="8.246464189141989">
        <ele>1820.6199999999999</ele>
        <time>2022-01-30T09:21:35Z</time>
      </trkpt>
      <trkpt lat="46.312788762152195" lon="8.246485646814108">
        <ele>1817.49</ele>
        <time>2022-01-30T09:22:02Z</time>
      </trkpt>
      <trkpt lat="46.312788594514132" lon="8.246488496661186">
        <ele>1821.1700000000001</ele>
        <time>2022-01-30T09:22:03Z</time>
      </trkpt>
      <trkpt lat="46.312771495431662" lon="8.246515737846494">
        <ele>1819.5799999999999</ele>
        <time>2022-01-30T09:22:21Z</time>
      </trkpt>
      <trkpt lat="46.312786499038339" lon="8.246490005403757">
        <ele>1820.23</ele>
        <time>2022-01-30T09:22:45Z</time>
      </trkpt>
      <trkpt lat="46.312765711918473" lon="8.246478019282222">
        <ele>1819.74</ele>
        <time>2022-01-30T09:23:01Z</time>
      </trkpt>
      <trkpt lat="46.312665212899446" lon="8.24640266597271">
        <ele>1821.0799999999999</ele>
        <time>2022-01-30T09:23:13Z</time>
      </trkpt>
      <trkpt lat="46.312602767720819" lon="8.2463548053056">
        <ele>1821.8699999999999</ele>
        <time>2022-01-30T09:23:28Z</time>
      </trkpt>
      <trkpt lat="46.31256278604269" lon="8.246275093406439">
        <ele>1823.45</ele>
        <time>2022-01-30T09:23:44Z</time>
      </trkpt>
      <trkpt lat="46.312507214024663" lon="8.246218515560031">
        <ele>1824.3499999999999</ele>
        <time>2022-01-30T09:23:58Z</time>
      </trkpt>
      <trkpt lat="46.312480475753546" lon="8.246178450062871">
        <ele>1825.0799999999999</ele>
        <time>2022-01-30T09:24:10Z</time>
      </trkpt>
      <trkpt lat="46.312431441619992" lon="8.246081974357367">
        <ele>1826.29</ele>
        <time>2022-01-30T09:24:24Z</time>
      </trkpt>
      <trkpt lat="46.312405876815319" lon="8.246022127568722">
        <ele>1827.54</ele>
        <time>2022-01-30T09:24:36Z</time>
      </trkpt>
      <trkpt lat="46.312388610094786" lon="8.245974853634834">
        <ele>1829.3599999999999</ele>
        <time>2022-01-30T09:24:48Z</time>
      </trkpt>
      <trkpt lat="46.31235801614821" lon="8.245978122577071">
        <ele>1831.3099999999999</ele>
        <time>2022-01-30T09:24:59Z</time>
      </trkpt>
      <trkpt lat="46.312316190451384" lon="8.24595607817173">
        <ele>1834.4400000000001</ele>
        <time>2022-01-30T09:25:11Z</time>
      </trkpt>
      <trkpt lat="46.312259780243039" lon="8.24594090692699">
        <ele>1837.5799999999999</ele>
        <time>2022-01-30T09:25:25Z</time>
      </trkpt>
      <trkpt lat="46.312249219045043" lon="8.245938057079911">
        <ele>1838.6500000000001</ele>
        <time>2022-01-30T09:25:40Z</time>
      </trkpt>
      <trkpt lat="46.312206722795963" lon="8.24591257609427">
        <ele>1840.1700000000001</ele>
        <time>2022-01-30T09:25:53Z</time>
      </trkpt>
      <trkpt lat="46.312164980918169" lon="8.245871756225824">
        <ele>1841.6800000000001</ele>
        <time>2022-01-30T09:26:05Z</time>
      </trkpt>
      <trkpt lat="46.312137739732862" lon="8.24583194218576">
        <ele>1842.23</ele>
        <time>2022-01-30T09:26:16Z</time>
      </trkpt>
      <trkpt lat="46.312122065573931" lon="8.245800593867898">
        <ele>1842.74</ele>
        <time>2022-01-30T09:26:29Z</time>
      </trkpt>
      <trkpt lat="46.312099182978272" lon="8.245786763727665">
        <ele>1844.1400000000001</ele>
        <time>2022-01-30T09:26:43Z</time>
      </trkpt>
      <trkpt lat="46.312066074460745" lon="8.245692634955049">
        <ele>1844.96</ele>
        <time>2022-01-30T09:26:59Z</time>
      </trkpt>
      <trkpt lat="46.312046041712165" lon="8.245632955804467">
        <ele>1845.96</ele>
        <time>2022-01-30T09:27:10Z</time>
      </trkpt>
      <trkpt lat="46.31204386241734" lon="8.245593644678593">
        <ele>1846.6400000000001</ele>
        <time>2022-01-30T09:27:23Z</time>
      </trkpt>
      <trkpt lat="46.312031373381615" lon="8.245546789839864">
        <ele>1847.3</ele>
        <time>2022-01-30T09:27:37Z</time>
      </trkpt>
      <trkpt lat="46.31201553158462" lon="8.245501779019833">
        <ele>1847.47</ele>
        <time>2022-01-30T09:27:51Z</time>
      </trkpt>
      <trkpt lat="46.312003629282117" lon="8.245460875332356">
        <ele>1848.3900000000001</ele>
        <time>2022-01-30T09:28:06Z</time>
      </trkpt>
      <trkpt lat="46.311993487179279" lon="8.245397256687284">
        <ele>1849.5699999999999</ele>
        <time>2022-01-30T09:28:21Z</time>
      </trkpt>
      <trkpt lat="46.311983093619347" lon="8.245345707982779">
        <ele>1850.4100000000001</ele>
        <time>2022-01-30T09:28:36Z</time>
      </trkpt>
      <trkpt lat="46.311956020072103" lon="8.245282089337707">
        <ele>1851.4100000000001</ele>
        <time>2022-01-30T09:28:48Z</time>
      </trkpt>
      <trkpt lat="46.31193682551384" lon="8.24518259614706">
        <ele>1851.8499999999999</ele>
        <time>2022-01-30T09:29:02Z</time>
      </trkpt>
      <trkpt lat="46.311916625127196" lon="8.245123336091638">
        <ele>1852.49</ele>
        <time>2022-01-30T09:29:16Z</time>
      </trkpt>
      <trkpt lat="46.311909500509501" lon="8.245085030794144">
        <ele>1852.6900000000001</ele>
        <time>2022-01-30T09:29:27Z</time>
      </trkpt>
      <trkpt lat="46.311893155798316" lon="8.245049994438887">
        <ele>1853.4400000000001</ele>
        <time>2022-01-30T09:29:40Z</time>
      </trkpt>
      <trkpt lat="46.311866082251072" lon="8.245013449341059">
        <ele>1854.8900000000001</ele>
        <time>2022-01-30T09:30:01Z</time>
      </trkpt>
      <trkpt lat="46.311845714226365" lon="8.244967516511679">
        <ele>1856.8299999999999</ele>
        <time>2022-01-30T09:30:16Z</time>
      </trkpt>
      <trkpt lat="46.311843786388636" lon="8.24494756758213">
        <ele>1857.1900000000001</ele>
        <time>2022-01-30T09:30:32Z</time>
      </trkpt>
      <trkpt lat="46.311825262382627" lon="8.244940526783466">
        <ele>1859.55</ele>
        <time>2022-01-30T09:30:47Z</time>
      </trkpt>
      <trkpt lat="46.311785448342562" lon="8.244962319731712">
        <ele>1861.52</ele>
        <time>2022-01-30T09:31:01Z</time>
      </trkpt>
      <trkpt lat="46.311741443350911" lon="8.244995176792145">
        <ele>1862.72</ele>
        <time>2022-01-30T09:31:13Z</time>
      </trkpt>
      <trkpt lat="46.311703724786639" lon="8.245011940598488">
        <ele>1863.3599999999999</ele>
        <time>2022-01-30T09:31:25Z</time>
      </trkpt>
      <trkpt lat="46.311682937666774" lon="8.24497832916677">
        <ele>1864.3499999999999</ele>
        <time>2022-01-30T09:31:37Z</time>
      </trkpt>
      <trkpt lat="46.311667766422033" lon="8.244983525946736">
        <ele>1863.5599999999999</ele>
        <time>2022-01-30T09:31:54Z</time>
      </trkpt>
      <trkpt lat="46.311680004000664" lon="8.244950501248241">
        <ele>1863.6300000000001</ele>
        <time>2022-01-30T09:32:26Z</time>
      </trkpt>
      <trkpt lat="46.311672544106841" lon="8.24494312517345">
        <ele>1863.6400000000001</ele>
        <time>2022-01-30T09:32:49Z</time>
      </trkpt>
      <trkpt lat="46.311685619875789" lon="8.244933653622866">
        <ele>1865.27</ele>
        <time>2022-01-30T09:33:06Z</time>
      </trkpt>
      <trkpt lat="46.311658294871449" lon="8.244945388287306">
        <ele>1865.1199999999999</ele>
        <time>2022-01-30T09:33:23Z</time>
      </trkpt>
      <trkpt lat="46.311654020100832" lon="8.244964582845569">
        <ele>1863.6099999999999</ele>
        <time>2022-01-30T09:33:35Z</time>
      </trkpt>
      <trkpt lat="46.311658881604671" lon="8.244967851787806">
        <ele>1868.02</ele>
        <time>2022-01-30T09:33:39Z</time>
      </trkpt>
      <trkpt lat="46.311661815270782" lon="8.244970785453916">
        <ele>1865.3399999999999</ele>
        <time>2022-01-30T09:33:43Z</time>
      </trkpt>
      <trkpt lat="46.311661899089813" lon="8.244969444349408">
        <ele>1865.76</ele>
        <time>2022-01-30T09:33:55Z</time>
      </trkpt>
      <trkpt lat="46.311656702309847" lon="8.244932312518358">
        <ele>1865.99</ele>
        <time>2022-01-30T09:34:21Z</time>
      </trkpt>
      <trkpt lat="46.311624012887478" lon="8.244874980300665">
        <ele>1867.2</ele>
        <time>2022-01-30T09:34:34Z</time>
      </trkpt>
      <trkpt lat="46.311594592407346" lon="8.244817983359098">
        <ele>1868.1300000000001</ele>
        <time>2022-01-30T09:34:46Z</time>
      </trkpt>
      <trkpt lat="46.311538349837065" lon="8.244771044701338">
        <ele>1869.6099999999999</ele>
        <time>2022-01-30T09:34:59Z</time>
      </trkpt>
      <trkpt lat="46.311514964327216" lon="8.244757549837232">
        <ele>1870.1500000000001</ele>
        <time>2022-01-30T09:35:04Z</time>
      </trkpt>
      <trkpt lat="46.311486549675465" lon="8.244746569544077">
        <ele>1870.8299999999999</ele>
        <time>2022-01-30T09:35:11Z</time>
      </trkpt>
      <trkpt lat="46.311439443379641" lon="8.244737265631557">
        <ele>1871.8099999999999</ele>
        <time>2022-01-30T09:35:21Z</time>
      </trkpt>
      <trkpt lat="46.311409939080477" lon="8.244721172377467">
        <ele>1872.47</ele>
        <time>2022-01-30T09:35:32Z</time>
      </trkpt>
      <trkpt lat="46.311335256323218" lon="8.244675407186151">
        <ele>1874.79</ele>
        <time>2022-01-30T09:35:46Z</time>
      </trkpt>
      <trkpt lat="46.311257220804691" lon="8.244639784097672">
        <ele>1876.9000000000001</ele>
        <time>2022-01-30T09:36:01Z</time>
      </trkpt>
      <trkpt lat="46.311181029304862" lon="8.244614135473967">
        <ele>1878.3</ele>
        <time>2022-01-30T09:36:14Z</time>
      </trkpt>
      <trkpt lat="46.311123194172978" lon="8.244578260928392">
        <ele>1879.4400000000001</ele>
        <time>2022-01-30T09:36:27Z</time>
      </trkpt>
      <trkpt lat="46.311103999614716" lon="8.244489831849933">
        <ele>1881.3699999999999</ele>
        <time>2022-01-30T09:36:40Z</time>
      </trkpt>
      <trkpt lat="46.31109687499702" lon="8.244464602321386">
        <ele>1882.3900000000001</ele>
        <time>2022-01-30T09:36:53Z</time>
      </trkpt>
      <trkpt lat="46.311101736500859" lon="8.244467116892338">
        <ele>1882.04</ele>
        <time>2022-01-30T09:37:03Z</time>
      </trkpt>
      <trkpt lat="46.311108693480492" lon="8.244444401934743">
        <ele>1882.2</ele>
        <time>2022-01-30T09:37:11Z</time>
      </trkpt>
      <trkpt lat="46.311108190566301" lon="8.244453370571137">
        <ele>1882.22</ele>
        <time>2022-01-30T09:37:54Z</time>
      </trkpt>
      <trkpt lat="46.311104418709874" lon="8.2444569747895">
        <ele>1880.0899999999999</ele>
        <time>2022-01-30T09:38:53Z</time>
      </trkpt>
      <trkpt lat="46.311098216101527" lon="8.244470218196511">
        <ele>1881.8099999999999</ele>
        <time>2022-01-30T09:39:40Z</time>
      </trkpt>
      <trkpt lat="46.311101736500859" lon="8.244454879313707">
        <ele>1882.6900000000001</ele>
        <time>2022-01-30T09:40:17Z</time>
      </trkpt>
      <trkpt lat="46.311108358204365" lon="8.244481701403856">
        <ele>1882.23</ele>
        <time>2022-01-30T09:41:02Z</time>
      </trkpt>
      <trkpt lat="46.311118500307202" lon="8.244483796879649">
        <ele>1883.1900000000001</ele>
        <time>2022-01-30T09:41:45Z</time>
      </trkpt>
      <trkpt lat="46.311127888038754" lon="8.244467452168465">
        <ele>1883.25</ele>
        <time>2022-01-30T09:42:27Z</time>
      </trkpt>
      <trkpt lat="46.311136186122894" lon="8.244452280923724">
        <ele>1883.47</ele>
        <time>2022-01-30T09:45:13Z</time>
      </trkpt>
      <trkpt lat="46.311125122010708" lon="8.244437947869301">
        <ele>1881.6800000000001</ele>
        <time>2022-01-30T09:43:59Z</time>
      </trkpt>
      <trkpt lat="46.311109866946936" lon="8.244445407763124">
        <ele>1881.8599999999999</ele>
        <time>2022-01-30T09:44:14Z</time>
      </trkpt>
      <trkpt lat="46.311108274385333" lon="8.244450856000185">
        <ele>1882.3</ele>
        <time>2022-01-30T09:44:25Z</time>
      </trkpt>
      <trkpt lat="46.311101149767637" lon="8.24445940554142">
        <ele>1882.5</ele>
        <time>2022-01-30T09:44:39Z</time>
      </trkpt>
      <trkpt lat="46.3110978808254" lon="8.24445060454309">
        <ele>1882.51</ele>
        <time>2022-01-30T09:44:52Z</time>
      </trkpt>
      <trkpt lat="46.311087822541595" lon="8.244443312287331">
        <ele>1882.49</ele>
        <time>2022-01-30T09:45:02Z</time>
      </trkpt>
      <trkpt lat="46.311069130897522" lon="8.244437780231237">
        <ele>1882.5799999999999</ele>
        <time>2022-01-30T09:45:19Z</time>
      </trkpt>
      <trkpt lat="46.311099892482162" lon="8.244458483532071">
        <ele>1882.9400000000001</ele>
        <time>2022-01-30T09:46:08Z</time>
      </trkpt>
      <trkpt lat="46.311099389567971" lon="8.244459573179483">
        <ele>1882.51</ele>
        <time>2022-01-30T09:46:59Z</time>
      </trkpt>
      <trkpt lat="46.311105592176318" lon="8.244462255388498">
        <ele>1883.8699999999999</ele>
        <time>2022-01-30T09:47:48Z</time>
      </trkpt>
      <trkpt lat="46.311072818934917" lon="8.244443396106362">
        <ele>1883.27</ele>
        <time>2022-01-30T09:48:01Z</time>
      </trkpt>
      <trkpt lat="46.311013642698526" lon="8.244400732219219">
        <ele>1884.3699999999999</ele>
        <time>2022-01-30T09:48:11Z</time>
      </trkpt>
      <trkpt lat="46.31097424775362" lon="8.244358319789171">
        <ele>1885.28</ele>
        <time>2022-01-30T09:48:17Z</time>
      </trkpt>
      <trkpt lat="46.310927141457796" lon="8.244321942329407">
        <ele>1886.76</ele>
        <time>2022-01-30T09:48:24Z</time>
      </trkpt>
      <trkpt lat="46.310845334082842" lon="8.244213899597526">
        <ele>1889.1600000000001</ele>
        <time>2022-01-30T09:48:38Z</time>
      </trkpt>
      <trkpt lat="46.310767214745283" lon="8.24414667673409">
        <ele>1891.2</ele>
        <time>2022-01-30T09:48:50Z</time>
      </trkpt>
      <trkpt lat="46.310671493411064" lon="8.244087416678667">
        <ele>1891.9300000000001</ele>
        <time>2022-01-30T09:49:05Z</time>
      </trkpt>
      <trkpt lat="46.310658417642117" lon="8.244087249040604">
        <ele>1891.6700000000001</ele>
        <time>2022-01-30T09:49:15Z</time>
      </trkpt>
      <trkpt lat="46.310650035738945" lon="8.244088925421238">
        <ele>1892.0799999999999</ele>
        <time>2022-01-30T09:49:26Z</time>
      </trkpt>
      <trkpt lat="46.310641653835773" lon="8.244088506326079">
        <ele>1892.54</ele>
        <time>2022-01-30T09:49:38Z</time>
      </trkpt>
      <trkpt lat="46.31063905544579" lon="8.244082806631923">
        <ele>1892.1900000000001</ele>
        <time>2022-01-30T09:49:55Z</time>
      </trkpt>
      <trkpt lat="46.310636373236775" lon="8.244073670357466">
        <ele>1893</ele>
        <time>2022-01-30T09:50:10Z</time>
      </trkpt>
      <trkpt lat="46.310635870322585" lon="8.244059588760138">
        <ele>1893.0799999999999</ele>
        <time>2022-01-30T09:50:30Z</time>
      </trkpt>
      <trkpt lat="46.31062195636332" lon="8.244054475799203">
        <ele>1893.0899999999999</ele>
        <time>2022-01-30T09:50:54Z</time>
      </trkpt>
      <trkpt lat="46.310604689642787" lon="8.24403720907867">
        <ele>1893.8199999999999</ele>
        <time>2022-01-30T09:51:17Z</time>
      </trkpt>
      <trkpt lat="46.310571162030101" lon="8.244023714214563">
        <ele>1896.01</ele>
        <time>2022-01-30T09:51:34Z</time>
      </trkpt>
      <trkpt lat="46.310531934723258" lon="8.244047099724412">
        <ele>1898.2</ele>
        <time>2022-01-30T09:51:46Z</time>
      </trkpt>
      <trkpt lat="46.310500418767333" lon="8.244065875187516">
        <ele>1900.0799999999999</ele>
        <time>2022-01-30T09:51:58Z</time>
      </trkpt>
      <trkpt lat="46.310475692152977" lon="8.244077442213893">
        <ele>1901.0799999999999</ele>
        <time>2022-01-30T09:52:07Z</time>
      </trkpt>
      <trkpt lat="46.310467310249805" lon="8.244074257090688">
        <ele>1901.9000000000001</ele>
        <time>2022-01-30T09:52:21Z</time>
      </trkpt>
      <trkpt lat="46.310468232259154" lon="8.244061851873994">
        <ele>1901.6800000000001</ele>
        <time>2022-01-30T09:52:35Z</time>
      </trkpt>
      <trkpt lat="46.310479715466499" lon="8.244052296504378">
        <ele>1900.75</ele>
        <time>2022-01-30T09:52:49Z</time>
      </trkpt>
      <trkpt lat="46.310502178966999" lon="8.244041064754129">
        <ele>1899.1700000000001</ele>
        <time>2022-01-30T09:53:02Z</time>
      </trkpt>
      <trkpt lat="46.310533275827765" lon="8.244013236835599">
        <ele>1896.8699999999999</ele>
        <time>2022-01-30T09:53:15Z</time>
      </trkpt>
      <trkpt lat="46.31056965328753" lon="8.244013153016567">
        <ele>1895.51</ele>
        <time>2022-01-30T09:53:28Z</time>
      </trkpt>
      <trkpt lat="46.310627488419414" lon="8.244014494121075">
        <ele>1893.6700000000001</ele>
        <time>2022-01-30T09:53:45Z</time>
      </trkpt>
      <trkpt lat="46.310661938041449" lon="8.24402304366231">
        <ele>1892.73</ele>
        <time>2022-01-30T09:53:56Z</time>
      </trkpt>
      <trkpt lat="46.310675600543618" lon="8.244033018127084">
        <ele>1892.8599999999999</ele>
        <time>2022-01-30T09:54:17Z</time>
      </trkpt>
      <trkpt lat="46.310675516724586" lon="8.244031425565481">
        <ele>1893.04</ele>
        <time>2022-01-30T09:54:31Z</time>
      </trkpt>
      <trkpt lat="46.310672163963318" lon="8.244025222957134">
        <ele>1893.8599999999999</ele>
        <time>2022-01-30T09:54:50Z</time>
      </trkpt>
      <trkpt lat="46.310686413198709" lon="8.244021451100707">
        <ele>1894.9200000000001</ele>
        <time>2022-01-30T09:55:11Z</time>
      </trkpt>
      <trkpt lat="46.310666045174003" lon="8.243982642889023">
        <ele>1895.27</ele>
        <time>2022-01-30T09:55:22Z</time>
      </trkpt>
      <trkpt lat="46.310661351308227" lon="8.243989935144782">
        <ele>1895.1199999999999</ele>
        <time>2022-01-30T09:55:39Z</time>
      </trkpt>
      <trkpt lat="46.310667302459478" lon="8.2439942099154">
        <ele>1895.3900000000001</ele>
        <time>2022-01-30T09:55:54Z</time>
      </trkpt>
      <trkpt lat="46.310671661049128" lon="8.243996137753129">
        <ele>1895.22</ele>
        <time>2022-01-30T09:56:12Z</time>
      </trkpt>
      <trkpt lat="46.310680042952299" lon="8.243999658152461">
        <ele>1894.9200000000001</ele>
        <time>2022-01-30T09:56:33Z</time>
      </trkpt>
      <trkpt lat="46.310678198933601" lon="8.244002256542444">
        <ele>1894.97</ele>
        <time>2022-01-30T09:56:57Z</time>
      </trkpt>
      <trkpt lat="46.310674007982016" lon="8.244006363674998">
        <ele>1895.1700000000001</ele>
        <time>2022-01-30T09:57:22Z</time>
      </trkpt>
      <trkpt lat="46.31066394969821" lon="8.244011392816901">
        <ele>1894.9000000000001</ele>
        <time>2022-01-30T09:57:41Z</time>
      </trkpt>
      <trkpt lat="46.310668056830764" lon="8.244007453322411">
        <ele>1894.9000000000001</ele>
        <time>2022-01-30T09:58:03Z</time>
      </trkpt>
      <trkpt lat="46.310658333823085" lon="8.244010051712394">
        <ele>1895.01</ele>
        <time>2022-01-30T09:58:07Z</time>
      </trkpt>
      <trkpt lat="46.310600582510233" lon="8.244025474414229">
        <ele>1896.9400000000001</ele>
        <time>2022-01-30T09:58:17Z</time>
      </trkpt>
      <trkpt lat="46.310608796775341" lon="8.244004854932427">
        <ele>1897.6099999999999</ele>
        <time>2022-01-30T09:58:28Z</time>
      </trkpt>
      <trkpt lat="46.310601001605392" lon="8.244002256542444">
        <ele>1897.75</ele>
        <time>2022-01-30T09:58:48Z</time>
      </trkpt>
      <trkpt lat="46.310596475377679" lon="8.243998400866985">
        <ele>1897.79</ele>
        <time>2022-01-30T09:59:09Z</time>
      </trkpt>
      <trkpt lat="46.310595972463489" lon="8.244004771113396">
        <ele>1897.77</ele>
        <time>2022-01-30T09:59:29Z</time>
      </trkpt>
      <trkpt lat="46.310599492862821" lon="8.244020864367485">
        <ele>1897.72</ele>
        <time>2022-01-30T09:59:52Z</time>
      </trkpt>
      <trkpt lat="46.310596223920584" lon="8.244039975106716">
        <ele>1898.0799999999999</ele>
        <time>2022-01-30T10:00:09Z</time>
      </trkpt>
      <trkpt lat="46.310601336881518" lon="8.244042322039604">
        <ele>1898.3599999999999</ele>
        <time>2022-01-30T10:00:29Z</time>
      </trkpt>
      <trkpt lat="46.310600079596043" lon="8.244049781933427">
        <ele>1898.3299999999999</ele>
        <time>2022-01-30T10:00:59Z</time>
      </trkpt>
      <trkpt lat="46.310562361031771" lon="8.24402891099453">
        <ele>1899.3699999999999</ele>
        <time>2022-01-30T10:01:19Z</time>
      </trkpt>
      <trkpt lat="46.310535790398717" lon="8.244050703942776">
        <ele>1900.7</ele>
        <time>2022-01-30T10:01:29Z</time>
      </trkpt>
      <trkpt lat="46.310520451515913" lon="8.244075179100037">
        <ele>1900.76</ele>
        <time>2022-01-30T10:01:44Z</time>
      </trkpt>
      <trkpt lat="46.310515087097883" lon="8.244067132472992">
        <ele>1901.6500000000001</ele>
        <time>2022-01-30T10:01:57Z</time>
      </trkpt>
      <trkpt lat="46.310516260564327" lon="8.244062857702375">
        <ele>1901.8399999999999</ele>
        <time>2022-01-30T10:02:10Z</time>
      </trkpt>
      <trkpt lat="46.31051542237401" lon="8.244071826338768">
        <ele>1902.1700000000001</ele>
        <time>2022-01-30T10:02:33Z</time>
      </trkpt>
      <trkpt lat="46.310511650517583" lon="8.244063528254628">
        <ele>1901.8800000000001</ele>
        <time>2022-01-30T10:02:49Z</time>
      </trkpt>
      <trkpt lat="46.310522044077516" lon="8.244096552953124">
        <ele>1900.9300000000001</ele>
        <time>2022-01-30T10:03:00Z</time>
      </trkpt>
      <trkpt lat="46.310514751821756" lon="8.244066294282675">
        <ele>1901.26</ele>
        <time>2022-01-30T10:03:10Z</time>
      </trkpt>
      <trkpt lat="46.310511315241456" lon="8.244052967056632">
        <ele>1901.6400000000001</ele>
        <time>2022-01-30T10:03:23Z</time>
      </trkpt>
      <trkpt lat="46.310522630810738" lon="8.244036370888352">
        <ele>1902.05</ele>
        <time>2022-01-30T10:03:38Z</time>
      </trkpt>
      <trkpt lat="46.310527240857482" lon="8.244030335918069">
        <ele>1901.9000000000001</ele>
        <time>2022-01-30T10:03:54Z</time>
      </trkpt>
      <trkpt lat="46.310531431809068" lon="8.244059504941106">
        <ele>1901.8699999999999</ele>
        <time>2022-01-30T10:04:07Z</time>
      </trkpt>
      <trkpt lat="46.310529420152307" lon="8.244046680629253">
        <ele>1902.3199999999999</ele>
        <time>2022-01-30T10:04:23Z</time>
      </trkpt>
      <trkpt lat="46.310545010492206" lon="8.244041986763477">
        <ele>1901.4300000000001</ele>
        <time>2022-01-30T10:04:37Z</time>
      </trkpt>
      <trkpt lat="46.310552386566997" lon="8.244054643437266">
        <ele>1901.53</ele>
        <time>2022-01-30T10:04:55Z</time>
      </trkpt>
      <trkpt lat="46.31054325029254" lon="8.24406067840755">
        <ele>1901.4400000000001</ele>
        <time>2022-01-30T10:05:16Z</time>
      </trkpt>
      <trkpt lat="46.31057015620172" lon="8.244058415293694">
        <ele>1899.8399999999999</ele>
        <time>2022-01-30T10:05:27Z</time>
      </trkpt>
      <trkpt lat="46.310586081817746" lon="8.24404114857316">
        <ele>1898.74</ele>
        <time>2022-01-30T10:05:41Z</time>
      </trkpt>
      <trkpt lat="46.310617430135608" lon="8.244017092511058">
        <ele>1896.55</ele>
        <time>2022-01-30T10:05:52Z</time>
      </trkpt>
      <trkpt lat="46.310644084587693" lon="8.244001502171159">
        <ele>1895.7</ele>
        <time>2022-01-30T10:06:00Z</time>
      </trkpt>
      <trkpt lat="46.310652298852801" lon="8.244012063369155">
        <ele>1895.6300000000001</ele>
        <time>2022-01-30T10:06:15Z</time>
      </trkpt>
      <trkpt lat="46.310699237510562" lon="8.243953641504049">
        <ele>1894.8199999999999</ele>
        <time>2022-01-30T10:06:25Z</time>
      </trkpt>
      <trkpt lat="46.310685658827424" lon="8.243957161903381">
        <ele>1895.1400000000001</ele>
        <time>2022-01-30T10:06:39Z</time>
      </trkpt>
      <trkpt lat="46.310699824243784" lon="8.243959592655301">
        <ele>1895.6700000000001</ele>
        <time>2022-01-30T10:06:55Z</time>
      </trkpt>
      <trkpt lat="46.310703596100211" lon="8.243965795263648">
        <ele>1895.6700000000001</ele>
        <time>2022-01-30T10:07:05Z</time>
      </trkpt>
      <trkpt lat="46.31072212010622" lon="8.243943247944117">
        <ele>1894.96</ele>
        <time>2022-01-30T10:07:20Z</time>
      </trkpt>
      <trkpt lat="46.310764700174332" lon="8.243879713118076">
        <ele>1892.8099999999999</ele>
        <time>2022-01-30T10:07:31Z</time>
      </trkpt>
      <trkpt lat="46.310761263594031" lon="8.243878707289696">
        <ele>1892.8199999999999</ele>
        <time>2022-01-30T10:07:48Z</time>
      </trkpt>
      <trkpt lat="46.310752127319574" lon="8.243875941261649">
        <ele>1892.9200000000001</ele>
        <time>2022-01-30T10:08:08Z</time>
      </trkpt>
      <trkpt lat="46.310743493959308" lon="8.243853310123086">
        <ele>1893.1400000000001</ele>
        <time>2022-01-30T10:08:19Z</time>
      </trkpt>
      <trkpt lat="46.310735363513231" lon="8.243770245462656">
        <ele>1892.52</ele>
        <time>2022-01-30T10:08:42Z</time>
      </trkpt>
      <trkpt lat="46.310748439282179" lon="8.243685001507402">
        <ele>1894.5799999999999</ele>
        <time>2022-01-30T10:08:54Z</time>
      </trkpt>
      <trkpt lat="46.310774507001042" lon="8.243619874119759">
        <ele>1897.22</ele>
        <time>2022-01-30T10:09:10Z</time>
      </trkpt>
      <trkpt lat="46.310785822570324" lon="8.243621801957488">
        <ele>1896.8699999999999</ele>
        <time>2022-01-30T10:09:27Z</time>
      </trkpt>
      <trkpt lat="46.310793114826083" lon="8.243633955717087">
        <ele>1896.53</ele>
        <time>2022-01-30T10:09:47Z</time>
      </trkpt>
      <trkpt lat="46.310793785378337" lon="8.243634961545467">
        <ele>1896.6700000000001</ele>
        <time>2022-01-30T10:10:02Z</time>
      </trkpt>
      <trkpt lat="46.310805855318904" lon="8.243586765602231">
        <ele>1897.0699999999999</ele>
        <time>2022-01-30T10:10:20Z</time>
      </trkpt>
      <trkpt lat="46.31074994802475" lon="8.243536977097392">
        <ele>1899.8199999999999</ele>
        <time>2022-01-30T10:10:34Z</time>
      </trkpt>
      <trkpt lat="46.310748606920242" lon="8.243536055088043">
        <ele>1900.0599999999999</ele>
        <time>2022-01-30T10:10:47Z</time>
      </trkpt>
      <trkpt lat="46.310748104006052" lon="8.24352758936584">
        <ele>1899.5</ele>
        <time>2022-01-30T10:11:06Z</time>
      </trkpt>
      <trkpt lat="46.310742488130927" lon="8.243534713983536">
        <ele>1899.29</ele>
        <time>2022-01-30T10:11:18Z</time>
      </trkpt>
      <trkpt lat="46.310740057379007" lon="8.24353982694447">
        <ele>1899.0699999999999</ele>
        <time>2022-01-30T10:11:39Z</time>
      </trkpt>
      <trkpt lat="46.310735195875168" lon="8.243549047037959">
        <ele>1899.49</ele>
        <time>2022-01-30T10:12:06Z</time>
      </trkpt>
      <trkpt lat="46.310742236673832" lon="8.243555752560496">
        <ele>1899.4200000000001</ele>
        <time>2022-01-30T10:12:24Z</time>
      </trkpt>
      <trkpt lat="46.310738632455468" lon="8.243559524416924">
        <ele>1899.3199999999999</ele>
        <time>2022-01-30T10:12:43Z</time>
      </trkpt>
      <trkpt lat="46.310730669647455" lon="8.243564888834953">
        <ele>1899.1099999999999</ele>
        <time>2022-01-30T10:13:04Z</time>
      </trkpt>
      <trkpt lat="46.310727065429091" lon="8.24357352219522">
        <ele>1899.9000000000001</ele>
        <time>2022-01-30T10:13:13Z</time>
      </trkpt>
      <trkpt lat="46.310721198096871" lon="8.243554662913084">
        <ele>1899.4400000000001</ele>
        <time>2022-01-30T10:13:27Z</time>
      </trkpt>
      <trkpt lat="46.310727903619409" lon="8.243552567437291">
        <ele>1899.97</ele>
        <time>2022-01-30T10:13:43Z</time>
      </trkpt>
      <trkpt lat="46.310769058763981" lon="8.243570756167173">
        <ele>1899.6300000000001</ele>
        <time>2022-01-30T10:14:01Z</time>
      </trkpt>
      <trkpt lat="46.310799233615398" lon="8.243614342063665">
        <ele>1898.03</ele>
        <time>2022-01-30T10:14:12Z</time>
      </trkpt>
      <trkpt lat="46.31080711260438" lon="8.243646025657654">
        <ele>1897.4000000000001</ele>
        <time>2022-01-30T10:14:27Z</time>
      </trkpt>
      <trkpt lat="46.310805100947618" lon="8.243651138618588">
        <ele>1898.0699999999999</ele>
        <time>2022-01-30T10:14:46Z</time>
      </trkpt>
      <trkpt lat="46.310784230008721" lon="8.243655413389206">
        <ele>1898.1199999999999</ele>
        <time>2022-01-30T10:15:02Z</time>
      </trkpt>
      <trkpt lat="46.310790348798037" lon="8.243666058406234">
        <ele>1898.54</ele>
        <time>2022-01-30T10:15:20Z</time>
      </trkpt>
      <trkpt lat="46.310793869197369" lon="8.243669997900724">
        <ele>1898.3099999999999</ele>
        <time>2022-01-30T10:15:39Z</time>
      </trkpt>
      <trkpt lat="46.310786576941609" lon="8.243732359260321">
        <ele>1895.23</ele>
        <time>2022-01-30T10:15:56Z</time>
      </trkpt>
      <trkpt lat="46.310763359069824" lon="8.243720456957817">
        <ele>1895.75</ele>
        <time>2022-01-30T10:16:16Z</time>
      </trkpt>
      <trkpt lat="46.310758832842112" lon="8.243699250742793">
        <ele>1896.3299999999999</ele>
        <time>2022-01-30T10:16:33Z</time>
      </trkpt>
      <trkpt lat="46.310764783993363" lon="8.243703441694379">
        <ele>1896.6199999999999</ele>
        <time>2022-01-30T10:16:48Z</time>
      </trkpt>
      <trkpt lat="46.310760593041778" lon="8.243700005114079">
        <ele>1896.53</ele>
        <time>2022-01-30T10:17:02Z</time>
      </trkpt>
      <trkpt lat="46.310762101784348" lon="8.243704866617918">
        <ele>1896.6400000000001</ele>
        <time>2022-01-30T10:17:23Z</time>
      </trkpt>
      <trkpt lat="46.310769142583013" lon="8.243701765313745">
        <ele>1897.1800000000001</ele>
        <time>2022-01-30T10:17:37Z</time>
      </trkpt>
      <trkpt lat="46.310773752629757" lon="8.243698999285698">
        <ele>1896.9300000000001</ele>
        <time>2022-01-30T10:17:54Z</time>
      </trkpt>
      <trkpt lat="46.310771657153964" lon="8.243723893538117">
        <ele>1896.3499999999999</ele>
        <time>2022-01-30T10:18:09Z</time>
      </trkpt>
      <trkpt lat="46.310751792043447" lon="8.243853896856308">
        <ele>1895.0599999999999</ele>
        <time>2022-01-30T10:18:21Z</time>
      </trkpt>
      <trkpt lat="46.3107352796942" lon="8.24392237700522">
        <ele>1896.51</ele>
        <time>2022-01-30T10:18:35Z</time>
      </trkpt>
      <trkpt lat="46.31071038544178" lon="8.243987923488021">
        <ele>1897.45</ele>
        <time>2022-01-30T10:18:47Z</time>
      </trkpt>
      <trkpt lat="46.310707284137607" lon="8.244002675637603">
        <ele>1898.1099999999999</ele>
        <time>2022-01-30T10:18:58Z</time>
      </trkpt>
      <trkpt lat="46.310714995488524" lon="8.243963532149792">
        <ele>1898.03</ele>
        <time>2022-01-30T10:19:13Z</time>
      </trkpt>
      <trkpt lat="46.310720192268491" lon="8.243952551856637">
        <ele>1897.9300000000001</ele>
        <time>2022-01-30T10:19:23Z</time>
      </trkpt>
      <trkpt lat="46.310718767344952" lon="8.243958754464984">
        <ele>1898.1300000000001</ele>
        <time>2022-01-30T10:19:44Z</time>
      </trkpt>
      <trkpt lat="46.310717007145286" lon="8.243966717272997">
        <ele>1897.6099999999999</ele>
        <time>2022-01-30T10:20:00Z</time>
      </trkpt>
      <trkpt lat="46.310718012973666" lon="8.244039472192526">
        <ele>1898.21</ele>
        <time>2022-01-30T10:20:10Z</time>
      </trkpt>
      <trkpt lat="46.310723293572664" lon="8.244070904329419">
        <ele>1897.47</ele>
        <time>2022-01-30T10:20:18Z</time>
      </trkpt>
      <trkpt lat="46.310712564736605" lon="8.244063779711723">
        <ele>1897.3800000000001</ele>
        <time>2022-01-30T10:20:27Z</time>
      </trkpt>
      <trkpt lat="46.310716923326254" lon="8.244066797196865">
        <ele>1896.97</ele>
        <time>2022-01-30T10:20:42Z</time>
      </trkpt>
      <trkpt lat="46.310710553079844" lon="8.244059672579169">
        <ele>1895.8499999999999</ele>
        <time>2022-01-30T10:20:58Z</time>
      </trkpt>
      <trkpt lat="46.310713738203049" lon="8.244075430557132">
        <ele>1895.6500000000001</ele>
        <time>2022-01-30T10:21:27Z</time>
      </trkpt>
      <trkpt lat="46.310730166733265" lon="8.244082974269986">
        <ele>1895.8199999999999</ele>
        <time>2022-01-30T10:22:02Z</time>
      </trkpt>
      <trkpt lat="46.310727819800377" lon="8.244087332859635">
        <ele>1896.24</ele>
        <time>2022-01-30T10:22:43Z</time>
      </trkpt>
      <trkpt lat="46.310708960518241" lon="8.244069647043943">
        <ele>1896.4400000000001</ele>
        <time>2022-01-30T10:22:54Z</time>
      </trkpt>
      <trkpt lat="46.310725305229425" lon="8.244056152179837">
        <ele>1894.8699999999999</ele>
        <time>2022-01-30T10:23:43Z</time>
      </trkpt>
      <trkpt lat="46.310718264430761" lon="8.244080040603876">
        <ele>1895.8</ele>
        <time>2022-01-30T10:24:25Z</time>
      </trkpt>
      <trkpt lat="46.31072505377233" lon="8.244082890450954">
        <ele>1896.8199999999999</ele>
        <time>2022-01-30T10:25:15Z</time>
      </trkpt>
      <trkpt lat="46.310723796486855" lon="8.244069227948785">
        <ele>1898.46</ele>
        <time>2022-01-30T10:25:57Z</time>
      </trkpt>
      <trkpt lat="46.310724802315235" lon="8.244072748348117">
        <ele>1898.1900000000001</ele>
        <time>2022-01-30T10:26:42Z</time>
      </trkpt>
      <trkpt lat="46.310717761516571" lon="8.244076520204544">
        <ele>1896.5899999999999</ele>
        <time>2022-01-30T10:27:28Z</time>
      </trkpt>
      <trkpt lat="46.310715582221746" lon="8.244066964834929">
        <ele>1897.3199999999999</ele>
        <time>2022-01-30T10:28:10Z</time>
      </trkpt>
      <trkpt lat="46.310707116499543" lon="8.244079789146781">
        <ele>1897.48</ele>
        <time>2022-01-30T10:28:59Z</time>
      </trkpt>
      <trkpt lat="46.310720611363649" lon="8.244087332859635">
        <ele>1896.47</ele>
        <time>2022-01-30T10:29:47Z</time>
      </trkpt>
      <trkpt lat="46.31072111427784" lon="8.244092362001538">
        <ele>1896.7</ele>
        <time>2022-01-30T10:30:32Z</time>
      </trkpt>
      <trkpt lat="46.310722203925252" lon="8.244088087230921">
        <ele>1896.99</ele>
        <time>2022-01-30T10:31:14Z</time>
      </trkpt>
      <trkpt lat="46.310723461210728" lon="8.244104012846947">
        <ele>1897.54</ele>
        <time>2022-01-30T10:32:04Z</time>
      </trkpt>
      <trkpt lat="46.310726813971996" lon="8.244099235162139">
        <ele>1897.8800000000001</ele>
        <time>2022-01-30T10:32:48Z</time>
      </trkpt>
      <trkpt lat="46.31071868352592" lon="8.244101498275995">
        <ele>1898.5899999999999</ele>
        <time>2022-01-30T10:33:43Z</time>
      </trkpt>
      <trkpt lat="46.310717342421412" lon="8.244099905714393">
        <ele>1898.3199999999999</ele>
        <time>2022-01-30T10:34:31Z</time>
      </trkpt>
      <trkpt lat="46.310723545029759" lon="8.244094708934426">
        <ele>1898.5799999999999</ele>
        <time>2022-01-30T10:35:20Z</time>
      </trkpt>
      <trkpt lat="46.310713905841112" lon="8.24410418048501">
        <ele>1898.0699999999999</ele>
        <time>2022-01-30T10:36:14Z</time>
      </trkpt>
      <trkpt lat="46.310720024630427" lon="8.244123542681336">
        <ele>1897.8399999999999</ele>
        <time>2022-01-30T10:37:01Z</time>
      </trkpt>
      <trkpt lat="46.310720695182681" lon="8.244111556559801">
        <ele>1898.2</ele>
        <time>2022-01-30T10:38:00Z</time>
      </trkpt>
      <trkpt lat="46.310722958296537" lon="8.244096050038934">
        <ele>1898.29</ele>
        <time>2022-01-30T10:38:49Z</time>
      </trkpt>
      <trkpt lat="46.310711391270161" lon="8.244095295667648">
        <ele>1897.8499999999999</ele>
        <time>2022-01-30T10:39:44Z</time>
      </trkpt>
      <trkpt lat="46.310721198096871" lon="8.244102085009217">
        <ele>1898.79</ele>
        <time>2022-01-30T10:39:57Z</time>
      </trkpt>
      <trkpt lat="46.310725640505552" lon="8.24410024099052">
        <ele>1897.8199999999999</ele>
        <time>2022-01-30T10:40:10Z</time>
      </trkpt>
      <trkpt lat="46.310723125934601" lon="8.24408708140254">
        <ele>1898.29</ele>
        <time>2022-01-30T10:40:19Z</time>
      </trkpt>
      <trkpt lat="46.310720359906554" lon="8.244078615680337">
        <ele>1898.8</ele>
        <time>2022-01-30T10:40:29Z</time>
      </trkpt>
      <trkpt lat="46.310722623020411" lon="8.244053637608886">
        <ele>1898.74</ele>
        <time>2022-01-30T10:40:39Z</time>
      </trkpt>
      <trkpt lat="46.310671828687191" lon="8.24398834258318">
        <ele>1899.3099999999999</ele>
        <time>2022-01-30T10:40:50Z</time>
      </trkpt>
      <trkpt lat="46.310652382671833" lon="8.243989935144782">
        <ele>1899.28</ele>
        <time>2022-01-30T10:41:02Z</time>
      </trkpt>
      <trkpt lat="46.310631092637777" lon="8.243972919881344">
        <ele>1899.95</ele>
        <time>2022-01-30T10:41:09Z</time>
      </trkpt>
      <trkpt lat="46.310552805662155" lon="8.24386227875948">
        <ele>1900.1600000000001</ele>
        <time>2022-01-30T10:41:22Z</time>
      </trkpt>
      <trkpt lat="46.310492120683193" lon="8.243776867166162">
        <ele>1902.74</ele>
        <time>2022-01-30T10:41:35Z</time>
      </trkpt>
      <trkpt lat="46.310489354655147" lon="8.243655161932111">
        <ele>1904.46</ele>
        <time>2022-01-30T10:41:46Z</time>
      </trkpt>
      <trkpt lat="46.310444595292211" lon="8.243578132241964">
        <ele>1906.04</ele>
        <time>2022-01-30T10:41:57Z</time>
      </trkpt>
      <trkpt lat="46.310401177033782" lon="8.243535049259663">
        <ele>1907.6900000000001</ele>
        <time>2022-01-30T10:42:05Z</time>
      </trkpt>
      <trkpt lat="46.310349879786372" lon="8.24349825270474">
        <ele>1909.3499999999999</ele>
        <time>2022-01-30T10:42:15Z</time>
      </trkpt>
      <trkpt lat="46.310299169272184" lon="8.243463970720768">
        <ele>1911.22</ele>
        <time>2022-01-30T10:42:26Z</time>
      </trkpt>
      <trkpt lat="46.310246614739299" lon="8.243441255763173">
        <ele>1912.55</ele>
        <time>2022-01-30T10:42:35Z</time>
      </trkpt>
      <trkpt lat="46.310214009135962" lon="8.243434466421604">
        <ele>1913.5599999999999</ele>
        <time>2022-01-30T10:42:42Z</time>
      </trkpt>
      <trkpt lat="46.310169249773026" lon="8.243435388430953">
        <ele>1914.73</ele>
        <time>2022-01-30T10:42:51Z</time>
      </trkpt>
      <trkpt lat="46.310120718553662" lon="8.243451733142138">
        <ele>1916.6800000000001</ele>
        <time>2022-01-30T10:43:01Z</time>
      </trkpt>
      <trkpt lat="46.310101021081209" lon="8.243457684293389">
        <ele>1916.8399999999999</ele>
        <time>2022-01-30T10:43:12Z</time>
      </trkpt>
      <trkpt lat="46.310071432963014" lon="8.243504287675023">
        <ele>1917.3099999999999</ele>
        <time>2022-01-30T10:43:24Z</time>
      </trkpt>
      <trkpt lat="46.310068247839808" lon="8.243508813902736">
        <ele>1915.8699999999999</ele>
        <time>2022-01-30T10:43:37Z</time>
      </trkpt>
      <trkpt lat="46.310085263103247" lon="8.243503281846643">
        <ele>1916.75</ele>
        <time>2022-01-30T10:44:10Z</time>
      </trkpt>
      <trkpt lat="46.310114096850157" lon="8.24355541728437">
        <ele>1917.75</ele>
        <time>2022-01-30T10:44:15Z</time>
      </trkpt>
      <trkpt lat="46.310158604755998" lon="8.243694473057985">
        <ele>1917.4300000000001</ele>
        <time>2022-01-30T10:44:27Z</time>
      </trkpt>
      <trkpt lat="46.310175200924277" lon="8.243779968470335">
        <ele>1917.6300000000001</ele>
        <time>2022-01-30T10:44:34Z</time>
      </trkpt>
      <trkpt lat="46.310216523706913" lon="8.243999490514398">
        <ele>1915.4400000000001</ele>
        <time>2022-01-30T10:45:01Z</time>
      </trkpt>
      <trkpt lat="46.310219625011086" lon="8.244067970663309">
        <ele>1914.25</ele>
        <time>2022-01-30T10:45:04Z</time>
      </trkpt>
      <trkpt lat="46.31023203022778" lon="8.24413888156414">
        <ele>1913.1900000000001</ele>
        <time>2022-01-30T10:45:08Z</time>
      </trkpt>
      <trkpt lat="46.310279471799731" lon="8.24425857514143">
        <ele>1912.8199999999999</ele>
        <time>2022-01-30T10:45:17Z</time>
      </trkpt>
      <trkpt lat="46.310356836766005" lon="8.244365612044931">
        <ele>1912.9400000000001</ele>
        <time>2022-01-30T10:45:27Z</time>
      </trkpt>
      <trkpt lat="46.310385167598724" lon="8.244422106072307">
        <ele>1912.1199999999999</ele>
        <time>2022-01-30T10:45:33Z</time>
      </trkpt>
      <trkpt lat="46.310425065457821" lon="8.244374161586165">
        <ele>1910.8099999999999</ele>
        <time>2022-01-30T10:45:44Z</time>
      </trkpt>
      <trkpt lat="46.310424646362662" lon="8.244352368637919">
        <ele>1910.27</ele>
        <time>2022-01-30T10:45:49Z</time>
      </trkpt>
      <trkpt lat="46.310509638860822" lon="8.244495112448931">
        <ele>1907.0899999999999</ele>
        <time>2022-01-30T10:46:07Z</time>
      </trkpt>
      <trkpt lat="46.310520200058818" lon="8.244514055550098">
        <ele>1906.2</ele>
        <time>2022-01-30T10:46:09Z</time>
      </trkpt>
      <trkpt lat="46.31056621670723" lon="8.244616147130728">
        <ele>1905.03</ele>
        <time>2022-01-30T10:46:38Z</time>
      </trkpt>
      <trkpt lat="46.310522127896547" lon="8.244494944810867">
        <ele>1908.0799999999999</ele>
        <time>2022-01-30T10:46:58Z</time>
      </trkpt>
      <trkpt lat="46.310478374361992" lon="8.244396289810538">
        <ele>1910.0899999999999</ele>
        <time>2022-01-30T10:47:16Z</time>
      </trkpt>
      <trkpt lat="46.310464879497886" lon="8.24436460621655">
        <ele>1910.1500000000001</ele>
        <time>2022-01-30T10:47:19Z</time>
      </trkpt>
      <trkpt lat="46.310375444591045" lon="8.244360415264964">
        <ele>1912.6300000000001</ele>
        <time>2022-01-30T10:47:42Z</time>
      </trkpt>
      <trkpt lat="46.310354070737958" lon="8.244345914572477">
        <ele>1912.53</ele>
        <time>2022-01-30T10:47:47Z</time>
      </trkpt>
      <trkpt lat="46.310333115980029" lon="8.244263771921396">
        <ele>1913.3099999999999</ele>
        <time>2022-01-30T10:47:59Z</time>
      </trkpt>
      <trkpt lat="46.310247201472521" lon="8.244124548509717">
        <ele>1914.53</ele>
        <time>2022-01-30T10:48:11Z</time>
      </trkpt>
      <trkpt lat="46.310243681073189" lon="8.244116920977831">
        <ele>1914.46</ele>
        <time>2022-01-30T10:48:12Z</time>
      </trkpt>
      <trkpt lat="46.310195568948984" lon="8.243904188275337">
        <ele>1915.8699999999999</ele>
        <time>2022-01-30T10:48:36Z</time>
      </trkpt>
      <trkpt lat="46.310164304450154" lon="8.243833445012569">
        <ele>1915.8399999999999</ele>
        <time>2022-01-30T10:48:41Z</time>
      </trkpt>
      <trkpt lat="46.310099679976702" lon="8.243565391749144">
        <ele>1914.4400000000001</ele>
        <time>2022-01-30T10:49:03Z</time>
      </trkpt>
      <trkpt lat="46.310129184275866" lon="8.243548627942801">
        <ele>1913.22</ele>
        <time>2022-01-30T10:49:12Z</time>
      </trkpt>
      <trkpt lat="46.310133459046483" lon="8.243514765053988">
        <ele>1913.54</ele>
        <time>2022-01-30T10:49:16Z</time>
      </trkpt>
      <trkpt lat="46.310103451833129" lon="8.243496911600232">
        <ele>1914.1900000000001</ele>
        <time>2022-01-30T10:49:32Z</time>
      </trkpt>
      <trkpt lat="46.310072690248489" lon="8.243499007076025">
        <ele>1914.5799999999999</ele>
        <time>2022-01-30T10:49:48Z</time>
      </trkpt>
      <trkpt lat="46.310064140707254" lon="8.243524823337793">
        <ele>1914.5699999999999</ele>
        <time>2022-01-30T10:49:56Z</time>
      </trkpt>
      <trkpt lat="46.310065314173698" lon="8.243535719811916">
        <ele>1915.6099999999999</ele>
        <time>2022-01-30T10:50:27Z</time>
      </trkpt>
      <trkpt lat="46.310069002211094" lon="8.243531361222267">
        <ele>1916.79</ele>
        <time>2022-01-30T10:51:34Z</time>
      </trkpt>
      <trkpt lat="46.310058441013098" lon="8.24353052303195">
        <ele>1917.22</ele>
        <time>2022-01-30T10:52:35Z</time>
      </trkpt>
      <trkpt lat="46.310064224526286" lon="8.243539491668344">
        <ele>1917.01</ele>
        <time>2022-01-30T10:53:33Z</time>
      </trkpt>
      <trkpt lat="46.310067493468523" lon="8.243537563830614">
        <ele>1918.01</ele>
        <time>2022-01-30T10:53:47Z</time>
      </trkpt>
      <trkpt lat="46.310066487640142" lon="8.243547203019261">
        <ele>1917.73</ele>
        <time>2022-01-30T10:54:02Z</time>
      </trkpt>
      <trkpt lat="46.310072438791394" lon="8.243552399799228">
        <ele>1918.4100000000001</ele>
        <time>2022-01-30T10:54:21Z</time>
      </trkpt>
      <trkpt lat="46.310069672763348" lon="8.24355105869472">
        <ele>1919.3499999999999</ele>
        <time>2022-01-30T10:54:40Z</time>
      </trkpt>
      <trkpt lat="46.31007126532495" lon="8.243558937683702">
        <ele>1919.6099999999999</ele>
        <time>2022-01-30T10:54:59Z</time>
      </trkpt>
      <trkpt lat="46.310076545923948" lon="8.243561200797558">
        <ele>1917.72</ele>
        <time>2022-01-30T10:55:24Z</time>
      </trkpt>
      <trkpt lat="46.310075875371695" lon="8.243567403405905">
        <ele>1917.01</ele>
        <time>2022-01-30T10:55:53Z</time>
      </trkpt>
      <trkpt lat="46.3100790604949" lon="8.243575701490045">
        <ele>1917.23</ele>
        <time>2022-01-30T10:56:28Z</time>
      </trkpt>
      <trkpt lat="46.310079731047153" lon="8.243574528023601">
        <ele>1917.76</ele>
        <time>2022-01-30T10:57:09Z</time>
      </trkpt>
      <trkpt lat="46.310073276981711" lon="8.243570839986205">
        <ele>1917.6500000000001</ele>
        <time>2022-01-30T10:58:03Z</time>
      </trkpt>
      <trkpt lat="46.310085514560342" lon="8.243564553558826">
        <ele>1917.54</ele>
        <time>2022-01-30T10:58:29Z</time>
      </trkpt>
      <trkpt lat="46.310088951140642" lon="8.243565643206239">
        <ele>1916.72</ele>
        <time>2022-01-30T10:58:51Z</time>
      </trkpt>
      <trkpt lat="46.310086352750659" lon="8.243579640984535">
        <ele>1917.6800000000001</ele>
        <time>2022-01-30T10:59:16Z</time>
      </trkpt>
      <trkpt lat="46.31008543074131" lon="8.24357838369906">
        <ele>1917.7</ele>
        <time>2022-01-30T10:59:34Z</time>
      </trkpt>
      <trkpt lat="46.310084005817771" lon="8.243572432547808">
        <ele>1917.4000000000001</ele>
        <time>2022-01-30T10:59:51Z</time>
      </trkpt>
      <trkpt lat="46.310083586722612" lon="8.243569750338793">
        <ele>1917.4200000000001</ele>
        <time>2022-01-30T11:00:13Z</time>
      </trkpt>
      <trkpt lat="46.310090878978372" lon="8.243566313758493">
        <ele>1917.2</ele>
        <time>2022-01-30T11:00:35Z</time>
      </trkpt>
      <trkpt lat="46.310088196769357" lon="8.243563044816256">
        <ele>1917.95</ele>
        <time>2022-01-30T11:01:06Z</time>
      </trkpt>
      <trkpt lat="46.310088699683547" lon="8.243571929633617">
        <ele>1918.0999999999999</ele>
        <time>2022-01-30T11:01:52Z</time>
      </trkpt>
      <trkpt lat="46.310087777674198" lon="8.243568576872349">
        <ele>1918.3599999999999</ele>
        <time>2022-01-30T11:02:35Z</time>
      </trkpt>
      <trkpt lat="46.310090124607086" lon="8.243571678176522">
        <ele>1918.5699999999999</ele>
        <time>2022-01-30T11:02:56Z</time>
      </trkpt>
      <trkpt lat="46.310084005817771" lon="8.243574611842632">
        <ele>1918.52</ele>
        <time>2022-01-30T11:03:14Z</time>
      </trkpt>
      <trkpt lat="46.31008735857904" lon="8.243570923805237">
        <ele>1918.0799999999999</ele>
        <time>2022-01-30T11:03:35Z</time>
      </trkpt>
      <trkpt lat="46.310085682198405" lon="8.243568325415254">
        <ele>1917.3800000000001</ele>
        <time>2022-01-30T11:03:54Z</time>
      </trkpt>
      <trkpt lat="46.310094315558672" lon="8.243567990139127">
        <ele>1916.73</ele>
        <time>2022-01-30T11:04:17Z</time>
      </trkpt>
      <trkpt lat="46.31009079515934" lon="8.243581149727106">
        <ele>1915.53</ele>
        <time>2022-01-30T11:04:54Z</time>
      </trkpt>
      <trkpt lat="46.310090208426118" lon="8.243574276566505">
        <ele>1914.3900000000001</ele>
        <time>2022-01-30T11:05:22Z</time>
      </trkpt>
      <trkpt lat="46.310089873149991" lon="8.243581904098392">
        <ele>1915.3199999999999</ele>
        <time>2022-01-30T11:05:42Z</time>
      </trkpt>
      <trkpt lat="46.31009180098772" lon="8.243584670126438">
        <ele>1917.6400000000001</ele>
        <time>2022-01-30T11:06:03Z</time>
      </trkpt>
      <trkpt lat="46.310091549530625" lon="8.243584334850311">
        <ele>1916.6800000000001</ele>
        <time>2022-01-30T11:06:23Z</time>
      </trkpt>
      <trkpt lat="46.310088699683547" lon="8.243587100878358">
        <ele>1919.3699999999999</ele>
        <time>2022-01-30T11:06:56Z</time>
      </trkpt>
      <trkpt lat="46.310090376064181" lon="8.243595398962498">
        <ele>1918.6600000000001</ele>
        <time>2022-01-30T11:07:18Z</time>
      </trkpt>
      <trkpt lat="46.310096830129623" lon="8.243594812229276">
        <ele>1915.47</ele>
        <time>2022-01-30T11:07:30Z</time>
      </trkpt>
      <trkpt lat="46.310098674148321" lon="8.243592046201229">
        <ele>1918.0999999999999</ele>
        <time>2022-01-30T11:07:45Z</time>
      </trkpt>
      <trkpt lat="46.310094650834799" lon="8.24358425103128">
        <ele>1916.25</ele>
        <time>2022-01-30T11:08:05Z</time>
      </trkpt>
      <trkpt lat="46.310097249224782" lon="8.243577545508742">
        <ele>1915.54</ele>
        <time>2022-01-30T11:08:26Z</time>
      </trkpt>
      <trkpt lat="46.310099931433797" lon="8.243576036766172">
        <ele>1917.76</ele>
        <time>2022-01-30T11:08:49Z</time>
      </trkpt>
      <trkpt lat="46.310094734653831" lon="8.243567906320095">
        <ele>1919.6600000000001</ele>
        <time>2022-01-30T11:09:09Z</time>
      </trkpt>
      <trkpt lat="46.310092890635133" lon="8.24355885386467">
        <ele>1919.2</ele>
        <time>2022-01-30T11:09:29Z</time>
      </trkpt>
      <trkpt lat="46.31009615957737" lon="8.243564888834953">
        <ele>1918.53</ele>
        <time>2022-01-30T11:09:49Z</time>
      </trkpt>
      <trkpt lat="46.310094902291894" lon="8.243565894663334">
        <ele>1918.76</ele>
        <time>2022-01-30T11:10:18Z</time>
      </trkpt>
      <trkpt lat="46.310094399377704" lon="8.243561871349812">
        <ele>1918.5699999999999</ele>
        <time>2022-01-30T11:11:06Z</time>
      </trkpt>
      <trkpt lat="46.31009322591126" lon="8.243556506931782">
        <ele>1918.45</ele>
        <time>2022-01-30T11:11:49Z</time>
      </trkpt>
      <trkpt lat="46.310094315558672" lon="8.243562206625938">
        <ele>1918.4300000000001</ele>
        <time>2022-01-30T11:12:37Z</time>
      </trkpt>
      <trkpt lat="46.310094147920609" lon="8.243564637377858">
        <ele>1917.8299999999999</ele>
        <time>2022-01-30T11:13:07Z</time>
      </trkpt>
      <trkpt lat="46.310092220082879" lon="8.243567990139127">
        <ele>1917.02</ele>
        <time>2022-01-30T11:13:29Z</time>
      </trkpt>
      <trkpt lat="46.310091884806752" lon="8.243569415062666">
        <ele>1917.22</ele>
        <time>2022-01-30T11:13:51Z</time>
      </trkpt>
      <trkpt lat="46.310095405206084" lon="8.243569247424603">
        <ele>1917.6700000000001</ele>
        <time>2022-01-30T11:14:11Z</time>
      </trkpt>
      <trkpt lat="46.310093393549323" lon="8.243574695661664">
        <ele>1918.25</ele>
        <time>2022-01-30T11:14:31Z</time>
      </trkpt>
      <trkpt lat="46.310095656663179" lon="8.243568660691381">
        <ele>1918.46</ele>
        <time>2022-01-30T11:14:53Z</time>
      </trkpt>
      <trkpt lat="46.310094986110926" lon="8.243569498881698">
        <ele>1919.6800000000001</ele>
        <time>2022-01-30T11:15:13Z</time>
      </trkpt>
      <trkpt lat="46.310097752138972" lon="8.243567487224937">
        <ele>1919.5799999999999</ele>
        <time>2022-01-30T11:15:34Z</time>
      </trkpt>
      <trkpt lat="46.310096830129623" lon="8.243573438376188">
        <ele>1918.47</ele>
        <time>2022-01-30T11:15:55Z</time>
      </trkpt>
      <trkpt lat="46.310097752138972" lon="8.243569834157825">
        <ele>1919.8900000000001</ele>
        <time>2022-01-30T11:16:15Z</time>
      </trkpt>
      <trkpt lat="46.310100266709924" lon="8.243563547730446">
        <ele>1919.9300000000001</ele>
        <time>2022-01-30T11:16:35Z</time>
      </trkpt>
      <trkpt lat="46.310101775452495" lon="8.243560027331114">
        <ele>1919.9300000000001</ele>
        <time>2022-01-30T11:16:55Z</time>
      </trkpt>
      <trkpt lat="46.310104709118605" lon="8.243560781702399">
        <ele>1919.45</ele>
        <time>2022-01-30T11:17:14Z</time>
      </trkpt>
      <trkpt lat="46.310104541480541" lon="8.243565727025271">
        <ele>1918.8599999999999</ele>
        <time>2022-01-30T11:17:34Z</time>
      </trkpt>
      <trkpt lat="46.310101523995399" lon="8.243567487224937">
        <ele>1918.5699999999999</ele>
        <time>2022-01-30T11:17:57Z</time>
      </trkpt>
      <trkpt lat="46.310099428519607" lon="8.243559272959828">
        <ele>1918.97</ele>
        <time>2022-01-30T11:18:40Z</time>
      </trkpt>
      <trkpt lat="46.310090208426118" lon="8.243553657084703">
        <ele>1918.6199999999999</ele>
        <time>2022-01-30T11:19:25Z</time>
      </trkpt>
      <trkpt lat="46.310087526217103" lon="8.243561619892716">
        <ele>1919.05</ele>
        <time>2022-01-30T11:20:07Z</time>
      </trkpt>
      <trkpt lat="46.31009322591126" lon="8.243577210232616">
        <ele>1920.51</ele>
        <time>2022-01-30T11:20:42Z</time>
      </trkpt>
      <trkpt lat="46.310098003596067" lon="8.24358182027936">
        <ele>1920.28</ele>
        <time>2022-01-30T11:21:02Z</time>
      </trkpt>
      <trkpt lat="46.31009959615767" lon="8.243584586307406">
        <ele>1919.9300000000001</ele>
        <time>2022-01-30T11:21:22Z</time>
      </trkpt>
      <trkpt lat="46.310099931433797" lon="8.243585424497724">
        <ele>1919.8900000000001</ele>
        <time>2022-01-30T11:21:43Z</time>
      </trkpt>
      <trkpt lat="46.31009666249156" lon="8.24358232319355">
        <ele>1919.3499999999999</ele>
        <time>2022-01-30T11:22:03Z</time>
      </trkpt>
      <trkpt lat="46.310099679976702" lon="8.243583412840962">
        <ele>1918.8699999999999</ele>
        <time>2022-01-30T11:22:22Z</time>
      </trkpt>
      <trkpt lat="46.31010009907186" lon="8.243582071736455">
        <ele>1918.1199999999999</ele>
        <time>2022-01-30T11:22:43Z</time>
      </trkpt>
      <trkpt lat="46.310095489025116" lon="8.243581233546138">
        <ele>1918.3599999999999</ele>
        <time>2022-01-30T11:23:03Z</time>
      </trkpt>
      <trkpt lat="46.310092974454165" lon="8.243583915755153">
        <ele>1918.49</ele>
        <time>2022-01-30T11:23:33Z</time>
      </trkpt>
      <trkpt lat="46.310096327215433" lon="8.243585173040628">
        <ele>1920.3599999999999</ele>
        <time>2022-01-30T11:24:15Z</time>
      </trkpt>
      <trkpt lat="46.310096075758338" lon="8.243587017059326">
        <ele>1921.27</ele>
        <time>2022-01-30T11:24:59Z</time>
      </trkpt>
      <trkpt lat="46.310096830129623" lon="8.243583496659994">
        <ele>1921.3699999999999</ele>
        <time>2022-01-30T11:25:44Z</time>
      </trkpt>
      <trkpt lat="46.310096997767687" lon="8.243585089221597">
        <ele>1921.8699999999999</ele>
        <time>2022-01-30T11:26:29Z</time>
      </trkpt>
      <trkpt lat="46.310089454054832" lon="8.24358425103128">
        <ele>1923.25</ele>
        <time>2022-01-30T11:27:12Z</time>
      </trkpt>
      <trkpt lat="46.31008836440742" lon="8.243585424497724">
        <ele>1923.5799999999999</ele>
        <time>2022-01-30T11:27:58Z</time>
      </trkpt>
      <trkpt lat="46.310091381892562" lon="8.24358282610774">
        <ele>1923.3499999999999</ele>
        <time>2022-01-30T11:28:16Z</time>
      </trkpt>
      <trkpt lat="46.31009423173964" lon="8.243579473346472">
        <ele>1922.53</ele>
        <time>2022-01-30T11:28:36Z</time>
      </trkpt>
      <trkpt lat="46.310097752138972" lon="8.243573270738125">
        <ele>1921</ele>
        <time>2022-01-30T11:28:57Z</time>
      </trkpt>
      <trkpt lat="46.310097500681877" lon="8.243569415062666">
        <ele>1921.1900000000001</ele>
        <time>2022-01-30T11:29:18Z</time>
      </trkpt>
      <trkpt lat="46.310095489025116" lon="8.243570756167173">
        <ele>1922</ele>
        <time>2022-01-30T11:29:36Z</time>
      </trkpt>
      <trkpt lat="46.310098087415099" lon="8.243571678176522">
        <ele>1922.8699999999999</ele>
        <time>2022-01-30T11:29:56Z</time>
      </trkpt>
      <trkpt lat="46.310099763795733" lon="8.243571678176522">
        <ele>1922.5999999999999</ele>
        <time>2022-01-30T11:30:16Z</time>
      </trkpt>
      <trkpt lat="46.310095572844148" lon="8.243575785309076">
        <ele>1921.74</ele>
        <time>2022-01-30T11:30:35Z</time>
      </trkpt>
      <trkpt lat="46.310097752138972" lon="8.243576539680362">
        <ele>1921.48</ele>
        <time>2022-01-30T11:30:55Z</time>
      </trkpt>
      <trkpt lat="46.310094399377704" lon="8.24357595294714">
        <ele>1921.05</ele>
        <time>2022-01-30T11:31:18Z</time>
      </trkpt>
      <trkpt lat="46.310093142092228" lon="8.243578718975186">
        <ele>1920.3800000000001</ele>
        <time>2022-01-30T11:31:39Z</time>
      </trkpt>
      <trkpt lat="46.310091465711594" lon="8.243577796965838">
        <ele>1920.8900000000001</ele>
        <time>2022-01-30T11:32:01Z</time>
      </trkpt>
      <trkpt lat="46.31009322591126" lon="8.243597745895386">
        <ele>1922.96</ele>
        <time>2022-01-30T11:32:44Z</time>
      </trkpt>
      <trkpt lat="46.310086771845818" lon="8.243594225496054">
        <ele>1922.3800000000001</ele>
        <time>2022-01-30T11:33:32Z</time>
      </trkpt>
      <trkpt lat="46.310083167627454" lon="8.243589866906405">
        <ele>1923.4200000000001</ele>
        <time>2022-01-30T11:34:16Z</time>
      </trkpt>
      <trkpt lat="46.310084676370025" lon="8.243591543287039">
        <ele>1922.8299999999999</ele>
        <time>2022-01-30T11:35:02Z</time>
      </trkpt>
      <trkpt lat="46.310081575065851" lon="8.243594225496054">
        <ele>1922.6199999999999</ele>
        <time>2022-01-30T11:35:51Z</time>
      </trkpt>
      <trkpt lat="46.310088196769357" lon="8.243592968210578">
        <ele>1922.9300000000001</ele>
        <time>2022-01-30T11:36:17Z</time>
      </trkpt>
      <trkpt lat="46.310090962797403" lon="8.243586178869009">
        <ele>1923.5599999999999</ele>
        <time>2022-01-30T11:36:35Z</time>
      </trkpt>
      <trkpt lat="46.310090040788054" lon="8.243591040372849">
        <ele>1922.6800000000001</ele>
        <time>2022-01-30T11:36:53Z</time>
      </trkpt>
      <trkpt lat="46.310092387720942" lon="8.243583077564836">
        <ele>1922.4400000000001</ele>
        <time>2022-01-30T11:37:14Z</time>
      </trkpt>
      <trkpt lat="46.310087945312262" lon="8.24358718469739">
        <ele>1922.2</ele>
        <time>2022-01-30T11:37:33Z</time>
      </trkpt>
      <trkpt lat="46.310091046616435" lon="8.243589447811246">
        <ele>1922.1199999999999</ele>
        <time>2022-01-30T11:37:53Z</time>
      </trkpt>
      <trkpt lat="46.31009372882545" lon="8.243589363992214">
        <ele>1921.99</ele>
        <time>2022-01-30T11:38:14Z</time>
      </trkpt>
      <trkpt lat="46.310091465711594" lon="8.243587268516421">
        <ele>1921.79</ele>
        <time>2022-01-30T11:38:33Z</time>
      </trkpt>
      <trkpt lat="46.310086604207754" lon="8.24358282610774">
        <ele>1922.6500000000001</ele>
        <time>2022-01-30T11:39:02Z</time>
      </trkpt>
      <trkpt lat="46.310080820694566" lon="8.243582993745804">
        <ele>1922.47</ele>
        <time>2022-01-30T11:39:44Z</time>
      </trkpt>
      <trkpt lat="46.310077216476202" lon="8.243588693439961">
        <ele>1922.79</ele>
        <time>2022-01-30T11:40:14Z</time>
      </trkpt>
      <trkpt lat="46.31007662974298" lon="8.243582742288709">
        <ele>1923.0999999999999</ele>
        <time>2022-01-30T11:40:40Z</time>
      </trkpt>
      <trkpt lat="46.310081575065851" lon="8.243579808622599">
        <ele>1921.71</ele>
        <time>2022-01-30T11:41:26Z</time>
      </trkpt>
      <trkpt lat="46.310082580894232" lon="8.243580143898726">
        <ele>1921.8099999999999</ele>
        <time>2022-01-30T11:41:46Z</time>
      </trkpt>
      <trkpt lat="46.310089956969023" lon="8.243571929633617">
        <ele>1921.95</ele>
        <time>2022-01-30T11:42:05Z</time>
      </trkpt>
      <trkpt lat="46.310083335265517" lon="8.243576707318425">
        <ele>1922.8199999999999</ele>
        <time>2022-01-30T11:42:27Z</time>
      </trkpt>
      <trkpt lat="46.310075037181377" lon="8.24357695877552">
        <ele>1923.49</ele>
        <time>2022-01-30T11:42:46Z</time>
      </trkpt>
      <trkpt lat="46.310057938098907" lon="8.243560614064336">
        <ele>1922.3199999999999</ele>
        <time>2022-01-30T11:42:57Z</time>
      </trkpt>
      <trkpt lat="46.310051484033465" lon="8.243560278788209">
        <ele>1921.28</ele>
        <time>2022-01-30T11:43:08Z</time>
      </trkpt>
      <trkpt lat="46.310056932270527" lon="8.243566565215588">
        <ele>1921.5</ele>
        <time>2022-01-30T11:43:21Z</time>
      </trkpt>
      <trkpt lat="46.310069505125284" lon="8.243567571043968">
        <ele>1921.9400000000001</ele>
        <time>2022-01-30T11:43:40Z</time>
      </trkpt>
      <trkpt lat="46.310061374679208" lon="8.243547203019261">
        <ele>1921.51</ele>
        <time>2022-01-30T11:43:58Z</time>
      </trkpt>
      <trkpt lat="46.310066320002079" lon="8.243557931855321">
        <ele>1920.8800000000001</ele>
        <time>2022-01-30T11:44:13Z</time>
      </trkpt>
      <trkpt lat="46.310077887028456" lon="8.24355642311275">
        <ele>1922.3900000000001</ele>
        <time>2022-01-30T11:45:24Z</time>
      </trkpt>
      <trkpt lat="46.310071349143982" lon="8.243560865521431">
        <ele>1920.8800000000001</ele>
        <time>2022-01-30T11:46:30Z</time>
      </trkpt>
      <trkpt lat="46.310068918392062" lon="8.243562541902065">
        <ele>1921.28</ele>
        <time>2022-01-30T11:47:36Z</time>
      </trkpt>
      <trkpt lat="46.310073779895902" lon="8.243574779480696">
        <ele>1921.73</ele>
        <time>2022-01-30T11:48:45Z</time>
      </trkpt>
      <trkpt lat="46.310078892856836" lon="8.24355541728437">
        <ele>1923.6700000000001</ele>
        <time>2022-01-30T11:49:57Z</time>
      </trkpt>
      <trkpt lat="46.310079731047153" lon="8.243554243817926">
        <ele>1923.3299999999999</ele>
        <time>2022-01-30T11:50:58Z</time>
      </trkpt>
      <trkpt lat="46.310083838179708" lon="8.243556339293718">
        <ele>1922.6400000000001</ele>
        <time>2022-01-30T11:52:03Z</time>
      </trkpt>
      <trkpt lat="46.310076462104917" lon="8.243569079786539">
        <ele>1921.74</ele>
        <time>2022-01-30T11:53:09Z</time>
      </trkpt>
      <trkpt lat="46.310085263103247" lon="8.243564050644636">
        <ele>1921.78</ele>
        <time>2022-01-30T11:54:18Z</time>
      </trkpt>
      <trkpt lat="46.31008836440742" lon="8.2435642182827">
        <ele>1921.5</ele>
        <time>2022-01-30T11:55:00Z</time>
      </trkpt>
      <trkpt lat="46.310082832351327" lon="8.243562541902065">
        <ele>1921.22</ele>
        <time>2022-01-30T11:55:41Z</time>
      </trkpt>
      <trkpt lat="46.31006833165884" lon="8.243568493053317">
        <ele>1920.6800000000001</ele>
        <time>2022-01-30T11:56:23Z</time>
      </trkpt>
      <trkpt lat="46.310076462104917" lon="8.243563380092382">
        <ele>1920.46</ele>
        <time>2022-01-30T11:56:49Z</time>
      </trkpt>
      <trkpt lat="46.310076294466853" lon="8.243563212454319">
        <ele>1920.4200000000001</ele>
        <time>2022-01-30T11:56:50Z</time>
      </trkpt>
      <trkpt lat="46.310085598379374" lon="8.243557345122099">
        <ele>1920.24</ele>
        <time>2022-01-30T11:57:02Z</time>
      </trkpt>
      <trkpt lat="46.310068247839808" lon="8.243563883006573">
        <ele>1920.1900000000001</ele>
        <time>2022-01-30T11:57:29Z</time>
      </trkpt>
      <trkpt lat="46.310062799602747" lon="8.243568912148476">
        <ele>1919.8800000000001</ele>
        <time>2022-01-30T11:57:43Z</time>
      </trkpt>
      <trkpt lat="46.310057602822781" lon="8.243568744510412">
        <ele>1919.3599999999999</ele>
        <time>2022-01-30T11:57:59Z</time>
      </trkpt>
      <trkpt lat="46.31004880182445" lon="8.243576874956489">
        <ele>1920.6800000000001</ele>
        <time>2022-01-30T11:58:16Z</time>
      </trkpt>
      <trkpt lat="46.310045616701245" lon="8.243578970432282">
        <ele>1921.0699999999999</ele>
        <time>2022-01-30T11:58:29Z</time>
      </trkpt>
      <trkpt lat="46.310044778510928" lon="8.243583245202899">
        <ele>1920.26</ele>
        <time>2022-01-30T11:58:47Z</time>
      </trkpt>
      <trkpt lat="46.310054669156671" lon="8.243581736460328">
        <ele>1920.74</ele>
        <time>2022-01-30T11:59:14Z</time>
      </trkpt>
      <trkpt lat="46.310051567852497" lon="8.243579808622599">
        <ele>1921.3</ele>
        <time>2022-01-30T11:59:42Z</time>
      </trkpt>
      <trkpt lat="46.310077803209424" lon="8.243568241596222">
        <ele>1920.8399999999999</ele>
        <time>2022-01-30T12:00:07Z</time>
      </trkpt>
      <trkpt lat="46.310076043009758" lon="8.243560111150146">
        <ele>1920.47</ele>
        <time>2022-01-30T12:00:46Z</time>
      </trkpt>
      <trkpt lat="46.310072438791394" lon="8.243560530245304">
        <ele>1920.0899999999999</ele>
        <time>2022-01-30T12:01:22Z</time>
      </trkpt>
      <trkpt lat="46.310075959190726" lon="8.243550807237625">
        <ele>1918.28</ele>
        <time>2022-01-30T12:01:58Z</time>
      </trkpt>
      <trkpt lat="46.310072774067521" lon="8.243548544123769">
        <ele>1920.1700000000001</ele>
        <time>2022-01-30T12:02:36Z</time>
      </trkpt>
      <trkpt lat="46.310071600601077" lon="8.243551142513752">
        <ele>1920.53</ele>
        <time>2022-01-30T12:02:55Z</time>
      </trkpt>
      <trkpt lat="46.310070594772696" lon="8.243555082008243">
        <ele>1920.5699999999999</ele>
        <time>2022-01-30T12:03:10Z</time>
      </trkpt>
      <trkpt lat="46.310061877593398" lon="8.243560781702399">
        <ele>1921.3599999999999</ele>
        <time>2022-01-30T12:03:26Z</time>
      </trkpt>
      <trkpt lat="46.310063470155001" lon="8.243563044816256">
        <ele>1922.54</ele>
        <time>2022-01-30T12:03:41Z</time>
      </trkpt>
      <trkpt lat="46.310059865936637" lon="8.243565056473017">
        <ele>1921.5</ele>
        <time>2022-01-30T12:03:56Z</time>
      </trkpt>
      <trkpt lat="46.310059614479542" lon="8.243566062301397">
        <ele>1920.3599999999999</ele>
        <time>2022-01-30T12:04:14Z</time>
      </trkpt>
      <trkpt lat="46.310065230354667" lon="8.243573186919093">
        <ele>1922.0799999999999</ele>
        <time>2022-01-30T12:04:40Z</time>
      </trkpt>
      <trkpt lat="46.310066236183047" lon="8.243572097271681">
        <ele>1919.1199999999999</ele>
        <time>2022-01-30T12:04:53Z</time>
      </trkpt>
      <trkpt lat="46.310069924220443" lon="8.243564888834953">
        <ele>1921.53</ele>
        <time>2022-01-30T12:05:15Z</time>
      </trkpt>
      <trkpt lat="46.310072438791394" lon="8.24356178753078">
        <ele>1923.24</ele>
        <time>2022-01-30T12:05:27Z</time>
      </trkpt>
      <trkpt lat="46.310079479590058" lon="8.243574779480696">
        <ele>1922.8800000000001</ele>
        <time>2022-01-30T12:05:40Z</time>
      </trkpt>
      <trkpt lat="46.310079898685217" lon="8.243584586307406">
        <ele>1922.6600000000001</ele>
        <time>2022-01-30T12:05:58Z</time>
      </trkpt>
      <trkpt lat="46.31007369607687" lon="8.243565810844302">
        <ele>1922.23</ele>
        <time>2022-01-30T12:06:16Z</time>
      </trkpt>
      <trkpt lat="46.310065984725952" lon="8.243578048422933">
        <ele>1922.1199999999999</ele>
        <time>2022-01-30T12:06:23Z</time>
      </trkpt>
      <trkpt lat="46.310075372457504" lon="8.243585424497724">
        <ele>1921.27</ele>
        <time>2022-01-30T12:06:37Z</time>
      </trkpt>
      <trkpt lat="46.31007419899106" lon="8.243589699268341">
        <ele>1921.1500000000001</ele>
        <time>2022-01-30T12:06:50Z</time>
      </trkpt>
      <trkpt lat="46.310071432963014" lon="8.24358232319355">
        <ele>1920.8699999999999</ele>
        <time>2022-01-30T12:07:09Z</time>
      </trkpt>
      <trkpt lat="46.310059782117605" lon="8.243585675954819">
        <ele>1918.48</ele>
        <time>2022-01-30T12:07:19Z</time>
      </trkpt>
      <trkpt lat="46.310064559802413" lon="8.243592213839293">
        <ele>1919.8699999999999</ele>
        <time>2022-01-30T12:07:29Z</time>
      </trkpt>
      <trkpt lat="46.310072354972363" lon="8.243585340678692">
        <ele>1919.5899999999999</ele>
        <time>2022-01-30T12:07:36Z</time>
      </trkpt>
      <trkpt lat="46.310064643621445" lon="8.243582993745804">
        <ele>1920.21</ele>
        <time>2022-01-30T12:07:43Z</time>
      </trkpt>
      <trkpt lat="46.310050897300243" lon="8.243589447811246">
        <ele>1920</ele>
        <time>2022-01-30T12:07:57Z</time>
      </trkpt>
      <trkpt lat="46.31005072966218" lon="8.243586430326104">
        <ele>1919.99</ele>
        <time>2022-01-30T12:08:05Z</time>
      </trkpt>
      <trkpt lat="46.310040671378374" lon="8.243588693439961">
        <ele>1920.53</ele>
        <time>2022-01-30T12:08:15Z</time>
      </trkpt>
      <trkpt lat="46.310049304738641" lon="8.24358282610774">
        <ele>1920.71</ele>
        <time>2022-01-30T12:08:24Z</time>
      </trkpt>
      <trkpt lat="46.310062045231462" lon="8.243553154170513">
        <ele>1920.71</ele>
        <time>2022-01-30T12:08:32Z</time>
      </trkpt>
      <trkpt lat="46.310065649449825" lon="8.24355005286634">
        <ele>1920.8099999999999</ele>
        <time>2022-01-30T12:08:41Z</time>
      </trkpt>
      <trkpt lat="46.310065649449825" lon="8.243563296273351">
        <ele>1920.97</ele>
        <time>2022-01-30T12:08:47Z</time>
      </trkpt>
      <trkpt lat="46.310055591166019" lon="8.243572348728776">
        <ele>1920.8399999999999</ele>
        <time>2022-01-30T12:08:57Z</time>
      </trkpt>
      <trkpt lat="46.310054417699575" lon="8.243563380092382">
        <ele>1921.0799999999999</ele>
        <time>2022-01-30T12:09:09Z</time>
      </trkpt>
      <trkpt lat="46.310056513175368" lon="8.243567990139127">
        <ele>1919.9200000000001</ele>
        <time>2022-01-30T12:09:17Z</time>
      </trkpt>
      <trkpt lat="46.310067577287555" lon="8.243575114756823">
        <ele>1920.1400000000001</ele>
        <time>2022-01-30T12:09:23Z</time>
      </trkpt>
      <trkpt lat="46.310061626136303" lon="8.243561452254653">
        <ele>1919.8399999999999</ele>
        <time>2022-01-30T12:09:33Z</time>
      </trkpt>
      <trkpt lat="46.310071349143982" lon="8.243571426719427">
        <ele>1920.5599999999999</ele>
        <time>2022-01-30T12:09:42Z</time>
      </trkpt>
      <trkpt lat="46.310072438791394" lon="8.243577042594552">
        <ele>1920.6400000000001</ele>
        <time>2022-01-30T12:10:00Z</time>
      </trkpt>
      <trkpt lat="46.310074366629124" lon="8.243560362607241">
        <ele>1921.1199999999999</ele>
        <time>2022-01-30T12:10:12Z</time>
      </trkpt>
      <trkpt lat="46.310084676370025" lon="8.243556842207909">
        <ele>1921.1500000000001</ele>
        <time>2022-01-30T12:10:19Z</time>
      </trkpt>
      <trkpt lat="46.310068499296904" lon="8.243561871349812">
        <ele>1920.96</ele>
        <time>2022-01-30T12:10:46Z</time>
      </trkpt>
      <trkpt lat="46.310089873149991" lon="8.24355835095048">
        <ele>1920.8800000000001</ele>
        <time>2022-01-30T12:10:55Z</time>
      </trkpt>
      <trkpt lat="46.310076462104917" lon="8.243558602407575">
        <ele>1920.71</ele>
        <time>2022-01-30T12:11:26Z</time>
      </trkpt>
      <trkpt lat="46.310070594772696" lon="8.243549047037959">
        <ele>1921.28</ele>
        <time>2022-01-30T12:11:42Z</time>
      </trkpt>
      <trkpt lat="46.310070008039474" lon="8.243552567437291">
        <ele>1920.96</ele>
        <time>2022-01-30T12:11:56Z</time>
      </trkpt>
      <trkpt lat="46.310076965019107" lon="8.243550723418593">
        <ele>1921.8800000000001</ele>
        <time>2022-01-30T12:12:04Z</time>
      </trkpt>
      <trkpt lat="46.310074701905251" lon="8.243571175262332">
        <ele>1922.3</ele>
        <time>2022-01-30T12:12:22Z</time>
      </trkpt>
      <trkpt lat="46.31007126532495" lon="8.243573186919093">
        <ele>1921.8</ele>
        <time>2022-01-30T12:12:35Z</time>
      </trkpt>
      <trkpt lat="46.310069505125284" lon="8.243549214676023">
        <ele>1922.03</ele>
        <time>2022-01-30T12:12:45Z</time>
      </trkpt>
      <trkpt lat="46.310069421306252" lon="8.243557680398226">
        <ele>1920.6500000000001</ele>
        <time>2022-01-30T12:12:56Z</time>
      </trkpt>
      <trkpt lat="46.310069924220443" lon="8.243553405627608">
        <ele>1919.7</ele>
        <time>2022-01-30T12:12:58Z</time>
      </trkpt>
      <trkpt lat="46.310072857886553" lon="8.243554998189211">
        <ele>1921.05</ele>
        <time>2022-01-30T12:13:01Z</time>
      </trkpt>
      <trkpt lat="46.310073444619775" lon="8.243553657084703">
        <ele>1920.99</ele>
        <time>2022-01-30T12:13:10Z</time>
      </trkpt>
      <trkpt lat="46.310073947533965" lon="8.243546867743135">
        <ele>1919.98</ele>
        <time>2022-01-30T12:13:23Z</time>
      </trkpt>
      <trkpt lat="46.310074115172029" lon="8.243557512760162">
        <ele>1920.0599999999999</ele>
        <time>2022-01-30T12:13:34Z</time>
      </trkpt>
      <trkpt lat="46.310064811259508" lon="8.243559440597892">
        <ele>1920.77</ele>
        <time>2022-01-30T12:13:45Z</time>
      </trkpt>
      <trkpt lat="46.310058943927288" lon="8.243555333465338">
        <ele>1920.54</ele>
        <time>2022-01-30T12:13:57Z</time>
      </trkpt>
      <trkpt lat="46.310053328052163" lon="8.243564050644636">
        <ele>1920.3399999999999</ele>
        <time>2022-01-30T12:14:07Z</time>
      </trkpt>
      <trkpt lat="46.310060285031796" lon="8.243559775874019">
        <ele>1920.24</ele>
        <time>2022-01-30T12:14:23Z</time>
      </trkpt>
      <trkpt lat="46.310062883421779" lon="8.243563799187541">
        <ele>1920.1400000000001</ele>
        <time>2022-01-30T12:14:35Z</time>
      </trkpt>
      <trkpt lat="46.310061290860176" lon="8.243557009845972">
        <ele>1920.5899999999999</ele>
        <time>2022-01-30T12:14:43Z</time>
      </trkpt>
      <trkpt lat="46.310061709955335" lon="8.243562206625938">
        <ele>1921.05</ele>
        <time>2022-01-30T12:14:52Z</time>
      </trkpt>
      <trkpt lat="46.310062296688557" lon="8.243545107543469">
        <ele>1920.8</ele>
        <time>2022-01-30T12:15:04Z</time>
      </trkpt>
      <trkpt lat="46.310061290860176" lon="8.243543934077025">
        <ele>1921.6300000000001</ele>
        <time>2022-01-30T12:15:18Z</time>
      </trkpt>
      <trkpt lat="46.310065062716603" lon="8.243556506931782">
        <ele>1921.3</ele>
        <time>2022-01-30T12:15:34Z</time>
      </trkpt>
      <trkpt lat="46.310061123222113" lon="8.243554914370179">
        <ele>1921.3399999999999</ele>
        <time>2022-01-30T12:15:44Z</time>
      </trkpt>
      <trkpt lat="46.310064056888223" lon="8.243556255474687">
        <ele>1920.96</ele>
        <time>2022-01-30T12:15:56Z</time>
      </trkpt>
      <trkpt lat="46.310071768239141" lon="8.243553657084703">
        <ele>1920.8399999999999</ele>
        <time>2022-01-30T12:16:06Z</time>
      </trkpt>
      <trkpt lat="46.310069672763348" lon="8.243548208847642">
        <ele>1920.8</ele>
        <time>2022-01-30T12:16:21Z</time>
      </trkpt>
      <trkpt lat="46.310069253668189" lon="8.243558937683702">
        <ele>1920.8099999999999</ele>
        <time>2022-01-30T12:16:37Z</time>
      </trkpt>
      <trkpt lat="46.310071684420109" lon="8.243551310151815">
        <ele>1921.01</ele>
        <time>2022-01-30T12:16:46Z</time>
      </trkpt>
      <trkpt lat="46.310072187334299" lon="8.243551310151815">
        <ele>1920.9300000000001</ele>
        <time>2022-01-30T12:16:57Z</time>
      </trkpt>
      <trkpt lat="46.310071852058172" lon="8.243549717590213">
        <ele>1920.3900000000001</ele>
        <time>2022-01-30T12:17:08Z</time>
      </trkpt>
      <trkpt lat="46.310067158192396" lon="8.243558267131448">
        <ele>1920.05</ele>
        <time>2022-01-30T12:17:24Z</time>
      </trkpt>
      <trkpt lat="46.310065230354667" lon="8.24355642311275">
        <ele>1919.99</ele>
        <time>2022-01-30T12:17:31Z</time>
      </trkpt>
      <trkpt lat="46.310065146535635" lon="8.243551561608911">
        <ele>1919.8199999999999</ele>
        <time>2022-01-30T12:17:43Z</time>
      </trkpt>
      <trkpt lat="46.310071852058172" lon="8.243553908541799">
        <ele>1919.52</ele>
        <time>2022-01-30T12:17:54Z</time>
      </trkpt>
      <trkpt lat="46.310067409649491" lon="8.243550136685371">
        <ele>1919.05</ele>
        <time>2022-01-30T12:18:08Z</time>
      </trkpt>
      <trkpt lat="46.310070678591728" lon="8.243526834994555">
        <ele>1918.71</ele>
        <time>2022-01-30T12:18:18Z</time>
      </trkpt>
      <trkpt lat="46.310065565630794" lon="8.243544017896056">
        <ele>1918.72</ele>
        <time>2022-01-30T12:18:32Z</time>
      </trkpt>
      <trkpt lat="46.310070008039474" lon="8.243550639599562">
        <ele>1919.3299999999999</ele>
        <time>2022-01-30T12:18:43Z</time>
      </trkpt>
      <trkpt lat="46.310075204819441" lon="8.243551477789879">
        <ele>1919.5899999999999</ele>
        <time>2022-01-30T12:18:55Z</time>
      </trkpt>
      <trkpt lat="46.310076210647821" lon="8.243537731468678">
        <ele>1919.8399999999999</ele>
        <time>2022-01-30T12:19:05Z</time>
      </trkpt>
      <trkpt lat="46.310071852058172" lon="8.243556255474687">
        <ele>1918.3</ele>
        <time>2022-01-30T12:19:17Z</time>
      </trkpt>
      <trkpt lat="46.310071768239141" lon="8.243556506931782">
        <ele>1918.03</ele>
        <time>2022-01-30T12:19:18Z</time>
      </trkpt>
      <trkpt lat="46.310068080201745" lon="8.243548292666674">
        <ele>1919.46</ele>
        <time>2022-01-30T12:19:23Z</time>
      </trkpt>
      <trkpt lat="46.310069169849157" lon="8.24355105869472">
        <ele>1921.1300000000001</ele>
        <time>2022-01-30T12:19:39Z</time>
      </trkpt>
      <trkpt lat="46.31006883457303" lon="8.24355642311275">
        <ele>1920.5999999999999</ele>
        <time>2022-01-30T12:19:53Z</time>
      </trkpt>
      <trkpt lat="46.31007076241076" lon="8.243567990139127">
        <ele>1920.0799999999999</ele>
        <time>2022-01-30T12:20:04Z</time>
      </trkpt>
      <trkpt lat="46.310073779895902" lon="8.243566816672683">
        <ele>1920.1700000000001</ele>
        <time>2022-01-30T12:20:17Z</time>
      </trkpt>
      <trkpt lat="46.310068666934967" lon="8.243549801409245">
        <ele>1919.8099999999999</ele>
        <time>2022-01-30T12:20:26Z</time>
      </trkpt>
      <trkpt lat="46.310073528438807" lon="8.243538485839963">
        <ele>1920.1400000000001</ele>
        <time>2022-01-30T12:20:38Z</time>
      </trkpt>
      <trkpt lat="46.31007319316268" lon="8.24353345669806">
        <ele>1919.6199999999999</ele>
        <time>2022-01-30T12:20:49Z</time>
      </trkpt>
      <trkpt lat="46.310077551752329" lon="8.243537312373519">
        <ele>1919.8</ele>
        <time>2022-01-30T12:20:58Z</time>
      </trkpt>
      <trkpt lat="46.310075121000409" lon="8.243546113371849">
        <ele>1919.95</ele>
        <time>2022-01-30T12:21:09Z</time>
      </trkpt>
      <trkpt lat="46.310066739097238" lon="8.243548627942801">
        <ele>1920.5799999999999</ele>
        <time>2022-01-30T12:21:33Z</time>
      </trkpt>
      <trkpt lat="46.310065314173698" lon="8.243548879399896">
        <ele>1920.78</ele>
        <time>2022-01-30T12:21:49Z</time>
      </trkpt>
      <trkpt lat="46.31006489507854" lon="8.243534043431282">
        <ele>1920.47</ele>
        <time>2022-01-30T12:22:03Z</time>
      </trkpt>
      <trkpt lat="46.310052741318941" lon="8.24355985969305">
        <ele>1921.4400000000001</ele>
        <time>2022-01-30T12:22:20Z</time>
      </trkpt>
      <trkpt lat="46.310055674985051" lon="8.243555501103401">
        <ele>1920.6099999999999</ele>
        <time>2022-01-30T12:22:33Z</time>
      </trkpt>
      <trkpt lat="46.310056010261178" lon="8.243568576872349">
        <ele>1920.29</ele>
        <time>2022-01-30T12:22:44Z</time>
      </trkpt>
      <trkpt lat="46.310059698298573" lon="8.243566565215588">
        <ele>1919.6500000000001</ele>
        <time>2022-01-30T12:22:54Z</time>
      </trkpt>
      <trkpt lat="46.310053495690227" lon="8.243563799187541">
        <ele>1919.8399999999999</ele>
        <time>2022-01-30T12:23:10Z</time>
      </trkpt>
      <trkpt lat="46.310053747147322" lon="8.243564888834953">
        <ele>1920.8900000000001</ele>
        <time>2022-01-30T12:23:27Z</time>
      </trkpt>
      <trkpt lat="46.310055004432797" lon="8.243570839986205">
        <ele>1917.6500000000001</ele>
        <time>2022-01-30T12:23:37Z</time>
      </trkpt>
      <trkpt lat="46.310063889250159" lon="8.243552651256323">
        <ele>1917.24</ele>
        <time>2022-01-30T12:23:48Z</time>
      </trkpt>
      <trkpt lat="46.310069840401411" lon="8.243560027331114">
        <ele>1918.77</ele>
        <time>2022-01-30T12:24:08Z</time>
      </trkpt>
      <trkpt lat="46.310070678591728" lon="8.24356128461659">
        <ele>1920.5699999999999</ele>
        <time>2022-01-30T12:24:26Z</time>
      </trkpt>
      <trkpt lat="46.310070175677538" lon="8.243563212454319">
        <ele>1921.53</ele>
        <time>2022-01-30T12:24:46Z</time>
      </trkpt>
      <trkpt lat="46.310072354972363" lon="8.243551477789879">
        <ele>1921.46</ele>
        <time>2022-01-30T12:25:05Z</time>
      </trkpt>
      <trkpt lat="46.310071600601077" lon="8.243552483618259">
        <ele>1917.8699999999999</ele>
        <time>2022-01-30T12:25:18Z</time>
      </trkpt>
      <trkpt lat="46.310078473761678" lon="8.243556506931782">
        <ele>1918.3800000000001</ele>
        <time>2022-01-30T12:25:39Z</time>
      </trkpt>
      <trkpt lat="46.310078892856836" lon="8.24354418553412">
        <ele>1918.5899999999999</ele>
        <time>2022-01-30T12:26:02Z</time>
      </trkpt>
      <trkpt lat="46.310081491246819" lon="8.243542341515422">
        <ele>1918.96</ele>
        <time>2022-01-30T12:26:22Z</time>
      </trkpt>
      <trkpt lat="46.310076210647821" lon="8.243551813066006">
        <ele>1919.5999999999999</ele>
        <time>2022-01-30T12:26:45Z</time>
      </trkpt>
      <trkpt lat="46.310075540095568" lon="8.243549382314086">
        <ele>1919.4000000000001</ele>
        <time>2022-01-30T12:27:09Z</time>
      </trkpt>
      <trkpt lat="46.310072019696236" lon="8.24354418553412">
        <ele>1919.46</ele>
        <time>2022-01-30T12:27:42Z</time>
      </trkpt>
      <trkpt lat="46.310080653056502" lon="8.243549717590213">
        <ele>1918.8499999999999</ele>
        <time>2022-01-30T12:28:14Z</time>
      </trkpt>
      <trkpt lat="46.310070594772696" lon="8.243555501103401">
        <ele>1918.48</ele>
        <time>2022-01-30T12:28:42Z</time>
      </trkpt>
      <trkpt lat="46.310072941705585" lon="8.243545275181532">
        <ele>1918.8499999999999</ele>
        <time>2022-01-30T12:29:06Z</time>
      </trkpt>
      <trkpt lat="46.310077384114265" lon="8.243533372879028">
        <ele>1918.8499999999999</ele>
        <time>2022-01-30T12:29:25Z</time>
      </trkpt>
      <trkpt lat="46.310083167627454" lon="8.243519710376859">
        <ele>1918.8599999999999</ele>
        <time>2022-01-30T12:29:47Z</time>
      </trkpt>
      <trkpt lat="46.310087023302913" lon="8.243521805852652">
        <ele>1919.27</ele>
        <time>2022-01-30T12:30:16Z</time>
      </trkpt>
      <trkpt lat="46.310089873149991" lon="8.243513843044639">
        <ele>1917.7</ele>
        <time>2022-01-30T12:30:44Z</time>
      </trkpt>
      <trkpt lat="46.310094147920609" lon="8.243508730083704">
        <ele>1917.53</ele>
        <time>2022-01-30T12:31:17Z</time>
      </trkpt>
      <trkpt lat="46.310080233961344" lon="8.243511579930782">
        <ele>1917.05</ele>
        <time>2022-01-30T12:31:42Z</time>
      </trkpt>
      <trkpt lat="46.310079898685217" lon="8.243517279624939">
        <ele>1916.8699999999999</ele>
        <time>2022-01-30T12:32:05Z</time>
      </trkpt>
      <trkpt lat="46.310089621692896" lon="8.243507724255323">
        <ele>1915.9200000000001</ele>
        <time>2022-01-30T12:32:27Z</time>
      </trkpt>
      <trkpt lat="46.31007662974298" lon="8.243524320423603">
        <ele>1915.8599999999999</ele>
        <time>2022-01-30T12:32:51Z</time>
      </trkpt>
      <trkpt lat="46.31008006632328" lon="8.243524823337793">
        <ele>1917</ele>
        <time>2022-01-30T12:33:15Z</time>
      </trkpt>
      <trkpt lat="46.310088029131293" lon="8.243515938520432">
        <ele>1918.8399999999999</ele>
        <time>2022-01-30T12:33:48Z</time>
      </trkpt>
      <trkpt lat="46.310083921998739" lon="8.243516609072685">
        <ele>1918.3699999999999</ele>
        <time>2022-01-30T12:34:11Z</time>
      </trkpt>
      <trkpt lat="46.310084760189056" lon="8.243516609072685">
        <ele>1917.6500000000001</ele>
        <time>2022-01-30T12:34:44Z</time>
      </trkpt>
      <trkpt lat="46.310087442398071" lon="8.243508897721767">
        <ele>1918.55</ele>
        <time>2022-01-30T12:35:10Z</time>
      </trkpt>
      <trkpt lat="46.310092806816101" lon="8.243504958227277">
        <ele>1917.74</ele>
        <time>2022-01-30T12:35:39Z</time>
      </trkpt>
      <trkpt lat="46.310090878978372" lon="8.243492133915424">
        <ele>1918.3399999999999</ele>
        <time>2022-01-30T12:36:13Z</time>
      </trkpt>
      <trkpt lat="46.310101021081209" lon="8.243494313210249">
        <ele>1918.1099999999999</ele>
        <time>2022-01-30T12:36:54Z</time>
      </trkpt>
      <trkpt lat="46.310104709118605" lon="8.24349582195282">
        <ele>1917.6099999999999</ele>
        <time>2022-01-30T12:37:36Z</time>
      </trkpt>
      <trkpt lat="46.310096746310592" lon="8.243496492505074">
        <ele>1916.3</ele>
        <time>2022-01-30T12:38:05Z</time>
      </trkpt>
      <trkpt lat="46.310094315558672" lon="8.243494229391217">
        <ele>1916.49</ele>
        <time>2022-01-30T12:38:31Z</time>
      </trkpt>
      <trkpt lat="46.310097249224782" lon="8.243490792810917">
        <ele>1916.5</ele>
        <time>2022-01-30T12:38:57Z</time>
      </trkpt>
      <trkpt lat="46.310097752138972" lon="8.243489032611251">
        <ele>1916</ele>
        <time>2022-01-30T12:39:20Z</time>
      </trkpt>
      <trkpt lat="46.310104373842478" lon="8.24348165653646">
        <ele>1916.03</ele>
        <time>2022-01-30T12:39:42Z</time>
      </trkpt>
      <trkpt lat="46.310105882585049" lon="8.243477549403906">
        <ele>1915.5</ele>
        <time>2022-01-30T12:40:02Z</time>
      </trkpt>
      <trkpt lat="46.310104876756668" lon="8.24348509311676">
        <ele>1914.96</ele>
        <time>2022-01-30T12:40:21Z</time>
      </trkpt>
      <trkpt lat="46.310094986110926" lon="8.24348165653646">
        <ele>1914.7</ele>
        <time>2022-01-30T12:40:49Z</time>
      </trkpt>
      <trkpt lat="46.310095572844148" lon="8.243478555232287">
        <ele>1915.6099999999999</ele>
        <time>2022-01-30T12:41:31Z</time>
      </trkpt>
      <trkpt lat="46.310099847614765" lon="8.243472184985876">
        <ele>1915.4000000000001</ele>
        <time>2022-01-30T12:42:11Z</time>
      </trkpt>
      <trkpt lat="46.310097081586719" lon="8.243475453928113">
        <ele>1915.03</ele>
        <time>2022-01-30T12:42:52Z</time>
      </trkpt>
      <trkpt lat="46.310103619471192" lon="8.243482327088714">
        <ele>1914.27</ele>
        <time>2022-01-30T12:43:31Z</time>
      </trkpt>
      <trkpt lat="46.310105882585049" lon="8.243480902165175">
        <ele>1913.9300000000001</ele>
        <time>2022-01-30T12:44:08Z</time>
      </trkpt>
      <trkpt lat="46.310095824301243" lon="8.243472017347813">
        <ele>1913.7</ele>
        <time>2022-01-30T12:44:47Z</time>
      </trkpt>
      <trkpt lat="46.310098590329289" lon="8.243468999862671">
        <ele>1913.4200000000001</ele>
        <time>2022-01-30T12:45:26Z</time>
      </trkpt>
      <trkpt lat="46.310090711340308" lon="8.243476459756494">
        <ele>1914.6400000000001</ele>
        <time>2022-01-30T12:46:06Z</time>
      </trkpt>
      <trkpt lat="46.31009615957737" lon="8.24348165653646">
        <ele>1914.3399999999999</ele>
        <time>2022-01-30T12:46:45Z</time>
      </trkpt>
      <trkpt lat="46.310091214254498" lon="8.24347578920424">
        <ele>1914.6900000000001</ele>
        <time>2022-01-30T12:47:17Z</time>
      </trkpt>
      <trkpt lat="46.31009372882545" lon="8.243484757840633">
        <ele>1914.76</ele>
        <time>2022-01-30T12:47:58Z</time>
      </trkpt>
      <trkpt lat="46.310092052444816" lon="8.243489619344473">
        <ele>1914.5</ele>
        <time>2022-01-30T12:48:27Z</time>
      </trkpt>
      <trkpt lat="46.310092052444816" lon="8.24348215945065">
        <ele>1912.9000000000001</ele>
        <time>2022-01-30T12:49:09Z</time>
      </trkpt>
      <trkpt lat="46.310093561187387" lon="8.243489032611251">
        <ele>1913.47</ele>
        <time>2022-01-30T12:49:43Z</time>
      </trkpt>
      <trkpt lat="46.310096997767687" lon="8.243491295725107">
        <ele>1914.22</ele>
        <time>2022-01-30T12:50:12Z</time>
      </trkpt>
      <trkpt lat="46.310096997767687" lon="8.243496241047978">
        <ele>1915.28</ele>
        <time>2022-01-30T12:50:42Z</time>
      </trkpt>
      <trkpt lat="46.310090124607086" lon="8.243497079238296">
        <ele>1915.6300000000001</ele>
        <time>2022-01-30T12:51:13Z</time>
      </trkpt>
      <trkpt lat="46.310092220082879" lon="8.243485847488046">
        <ele>1915.03</ele>
        <time>2022-01-30T12:51:45Z</time>
      </trkpt>
      <trkpt lat="46.310085598379374" lon="8.243482243269682">
        <ele>1913.5</ele>
        <time>2022-01-30T12:52:13Z</time>
      </trkpt>
      <trkpt lat="46.310084089636803" lon="8.243482913821936">
        <ele>1912.3900000000001</ele>
        <time>2022-01-30T12:52:40Z</time>
      </trkpt>
      <trkpt lat="46.31008492782712" lon="8.243474951013923">
        <ele>1912.28</ele>
        <time>2022-01-30T12:53:07Z</time>
      </trkpt>
      <trkpt lat="46.310094399377704" lon="8.243473023176193">
        <ele>1912.6199999999999</ele>
        <time>2022-01-30T12:53:38Z</time>
      </trkpt>
      <trkpt lat="46.310088783502579" lon="8.24347679503262">
        <ele>1912.3299999999999</ele>
        <time>2022-01-30T12:54:04Z</time>
      </trkpt>
      <trkpt lat="46.310091884806752" lon="8.243471430614591">
        <ele>1911.8099999999999</ele>
        <time>2022-01-30T12:54:36Z</time>
      </trkpt>
      <trkpt lat="46.310099344700575" lon="8.243469335138798">
        <ele>1911.25</ele>
        <time>2022-01-30T12:55:18Z</time>
      </trkpt>
      <trkpt lat="46.310093561187387" lon="8.243487356230617">
        <ele>1911.52</ele>
        <time>2022-01-30T12:55:53Z</time>
      </trkpt>
      <trkpt lat="46.310087610036135" lon="8.243482410907745">
        <ele>1911.48</ele>
        <time>2022-01-30T12:56:22Z</time>
      </trkpt>
      <trkpt lat="46.310088029131293" lon="8.243499090895057">
        <ele>1911.52</ele>
        <time>2022-01-30T12:56:46Z</time>
      </trkpt>
      <trkpt lat="46.310096411034465" lon="8.243484422564507">
        <ele>1911.2</ele>
        <time>2022-01-30T12:57:15Z</time>
      </trkpt>
      <trkpt lat="46.310088783502579" lon="8.243456929922104">
        <ele>1911.96</ele>
        <time>2022-01-30T12:57:37Z</time>
      </trkpt>
      <trkpt lat="46.31009180098772" lon="8.243455588817596">
        <ele>1911.8199999999999</ele>
        <time>2022-01-30T12:57:50Z</time>
      </trkpt>
      <trkpt lat="46.310092303901911" lon="8.243412338197231">
        <ele>1912.26</ele>
        <time>2022-01-30T12:57:59Z</time>
      </trkpt>
      <trkpt lat="46.31011133082211" lon="8.243421809747815">
        <ele>1912.73</ele>
        <time>2022-01-30T12:58:11Z</time>
      </trkpt>
      <trkpt lat="46.310119209811091" lon="8.24342105537653">
        <ele>1913.26</ele>
        <time>2022-01-30T12:58:27Z</time>
      </trkpt>
      <trkpt lat="46.310125412419438" lon="8.2434191275388">
        <ele>1913.5599999999999</ele>
        <time>2022-01-30T12:58:41Z</time>
      </trkpt>
      <trkpt lat="46.310123233124614" lon="8.243419714272022">
        <ele>1914.3299999999999</ele>
        <time>2022-01-30T12:58:57Z</time>
      </trkpt>
      <trkpt lat="46.310109319165349" lon="8.243440166115761">
        <ele>1913.6600000000001</ele>
        <time>2022-01-30T12:59:10Z</time>
      </trkpt>
      <trkpt lat="46.310096411034465" lon="8.243434466421604">
        <ele>1913</ele>
        <time>2022-01-30T12:59:20Z</time>
      </trkpt>
      <trkpt lat="46.310110157355666" lon="8.243434885516763">
        <ele>1912.96</ele>
        <time>2022-01-30T12:59:32Z</time>
      </trkpt>
      <trkpt lat="46.310098674148321" lon="8.243437483906746">
        <ele>1912.26</ele>
        <time>2022-01-30T12:59:43Z</time>
      </trkpt>
      <trkpt lat="46.310088615864515" lon="8.243442596867681">
        <ele>1912.6199999999999</ele>
        <time>2022-01-30T13:00:01Z</time>
      </trkpt>
      <trkpt lat="46.310091465711594" lon="8.24342499487102">
        <ele>1912.54</ele>
        <time>2022-01-30T13:00:20Z</time>
      </trkpt>
      <trkpt lat="46.310089621692896" lon="8.243434550240636">
        <ele>1912.74</ele>
        <time>2022-01-30T13:00:33Z</time>
      </trkpt>
      <trkpt lat="46.310090459883213" lon="8.243418037891388">
        <ele>1913.1199999999999</ele>
        <time>2022-01-30T13:00:44Z</time>
      </trkpt>
      <trkpt lat="46.310109067708254" lon="8.243419378995895">
        <ele>1913.8299999999999</ele>
        <time>2022-01-30T13:00:56Z</time>
      </trkpt>
      <trkpt lat="46.310103619471192" lon="8.24343329295516">
        <ele>1913.47</ele>
        <time>2022-01-30T13:01:10Z</time>
      </trkpt>
      <trkpt lat="46.310113342478871" lon="8.243427677080035">
        <ele>1913.0899999999999</ele>
        <time>2022-01-30T13:01:21Z</time>
      </trkpt>
      <trkpt lat="46.310102194547653" lon="8.243445279076695">
        <ele>1912.23</ele>
        <time>2022-01-30T13:01:30Z</time>
      </trkpt>
      <trkpt lat="46.310102278366685" lon="8.2434415910393">
        <ele>1911.8399999999999</ele>
        <time>2022-01-30T13:01:31Z</time>
      </trkpt>
      <trkpt lat="46.310106217861176" lon="8.243437567725778">
        <ele>1911.23</ele>
        <time>2022-01-30T13:01:39Z</time>
      </trkpt>
      <trkpt lat="46.310106720775366" lon="8.243444273248315">
        <ele>1911.5599999999999</ele>
        <time>2022-01-30T13:01:44Z</time>
      </trkpt>
      <trkpt lat="46.310110911726952" lon="8.243442848324776">
        <ele>1911.8</ele>
        <time>2022-01-30T13:01:51Z</time>
      </trkpt>
      <trkpt lat="46.310122730210423" lon="8.24350705370307">
        <ele>1912.72</ele>
        <time>2022-01-30T13:01:58Z</time>
      </trkpt>
      <trkpt lat="46.310134967789054" lon="8.24354276061058">
        <ele>1913.48</ele>
        <time>2022-01-30T13:02:06Z</time>
      </trkpt>
      <trkpt lat="46.310133459046483" lon="8.243533372879028">
        <ele>1912</ele>
        <time>2022-01-30T13:02:12Z</time>
      </trkpt>
      <trkpt lat="46.310121724382043" lon="8.243532283231616">
        <ele>1912.21</ele>
        <time>2022-01-30T13:02:30Z</time>
      </trkpt>
      <trkpt lat="46.310116862878203" lon="8.243530690670013">
        <ele>1911.96</ele>
        <time>2022-01-30T13:02:41Z</time>
      </trkpt>
      <trkpt lat="46.310101021081209" lon="8.24354812502861">
        <ele>1912.1199999999999</ele>
        <time>2022-01-30T13:03:19Z</time>
      </trkpt>
      <trkpt lat="46.310106050223112" lon="8.243568744510412">
        <ele>1912.97</ele>
        <time>2022-01-30T13:04:00Z</time>
      </trkpt>
      <trkpt lat="46.310109905898571" lon="8.243577545508742">
        <ele>1912.6900000000001</ele>
        <time>2022-01-30T13:04:42Z</time>
      </trkpt>
      <trkpt lat="46.310098087415099" lon="8.243594896048307">
        <ele>1912.6300000000001</ele>
        <time>2022-01-30T13:05:05Z</time>
      </trkpt>
      <trkpt lat="46.310095321387053" lon="8.243593638762832">
        <ele>1912.53</ele>
        <time>2022-01-30T13:05:32Z</time>
      </trkpt>
      <trkpt lat="46.310087190940976" lon="8.24358232319355">
        <ele>1912.0899999999999</ele>
        <time>2022-01-30T13:06:19Z</time>
      </trkpt>
      <trkpt lat="46.310086185112596" lon="8.243584418669343">
        <ele>1912.1199999999999</ele>
        <time>2022-01-30T13:06:33Z</time>
      </trkpt>
      <trkpt lat="46.310085849836469" lon="8.243578970432282">
        <ele>1911.98</ele>
        <time>2022-01-30T13:06:53Z</time>
      </trkpt>
      <trkpt lat="46.310080233961344" lon="8.243580479174852">
        <ele>1912.3099999999999</ele>
        <time>2022-01-30T13:07:06Z</time>
      </trkpt>
      <trkpt lat="46.310080485418439" lon="8.243581568822265">
        <ele>1912.3299999999999</ele>
        <time>2022-01-30T13:07:19Z</time>
      </trkpt>
      <trkpt lat="46.310083921998739" lon="8.243579640984535">
        <ele>1912.0999999999999</ele>
        <time>2022-01-30T13:07:46Z</time>
      </trkpt>
      <trkpt lat="46.310095656663179" lon="8.243596320971847">
        <ele>1912.8399999999999</ele>
        <time>2022-01-30T13:08:25Z</time>
      </trkpt>
      <trkpt lat="46.31011325865984" lon="8.243593303486705">
        <ele>1912.78</ele>
        <time>2022-01-30T13:09:05Z</time>
      </trkpt>
      <trkpt lat="46.310106134042144" lon="8.243582490831614">
        <ele>1913.9300000000001</ele>
        <time>2022-01-30T13:09:32Z</time>
      </trkpt>
      <trkpt lat="46.310141254216433" lon="8.243587017059326">
        <ele>1914.3599999999999</ele>
        <time>2022-01-30T13:09:43Z</time>
      </trkpt>
      <trkpt lat="46.31013723090291" lon="8.243581568822265">
        <ele>1914.6300000000001</ele>
        <time>2022-01-30T13:09:53Z</time>
      </trkpt>
      <trkpt lat="46.310142846778035" lon="8.243585005402565">
        <ele>1914.47</ele>
        <time>2022-01-30T13:10:11Z</time>
      </trkpt>
      <trkpt lat="46.310152318328619" lon="8.243613252416253">
        <ele>1913.9300000000001</ele>
        <time>2022-01-30T13:10:28Z</time>
      </trkpt>
      <trkpt lat="46.310175536200404" lon="8.243683325126767">
        <ele>1914.4200000000001</ele>
        <time>2022-01-30T13:10:39Z</time>
      </trkpt>
      <trkpt lat="46.310200765728951" lon="8.243799163028598">
        <ele>1914.5799999999999</ele>
        <time>2022-01-30T13:10:48Z</time>
      </trkpt>
      <trkpt lat="46.31022565998137" lon="8.243934530764818">
        <ele>1913.7</ele>
        <time>2022-01-30T13:11:01Z</time>
      </trkpt>
      <trkpt lat="46.310229934751987" lon="8.243958335369825">
        <ele>1912.8800000000001</ele>
        <time>2022-01-30T13:11:12Z</time>
      </trkpt>
      <trkpt lat="46.310228258371353" lon="8.243949031457305">
        <ele>1911.73</ele>
        <time>2022-01-30T13:11:32Z</time>
      </trkpt>
      <trkpt lat="46.310224570333958" lon="8.243950959295034">
        <ele>1911.97</ele>
        <time>2022-01-30T13:11:43Z</time>
      </trkpt>
      <trkpt lat="46.310235299170017" lon="8.243988174945116">
        <ele>1912.23</ele>
        <time>2022-01-30T13:11:53Z</time>
      </trkpt>
      <trkpt lat="46.310249883681536" lon="8.244008542969823">
        <ele>1912.02</ele>
        <time>2022-01-30T13:11:57Z</time>
      </trkpt>
      <trkpt lat="46.310343760997057" lon="8.244131254032254">
        <ele>1909.46</ele>
        <time>2022-01-30T13:12:09Z</time>
      </trkpt>
      <trkpt lat="46.310385502874851" lon="8.244198728352785">
        <ele>1907.5799999999999</ele>
        <time>2022-01-30T13:12:15Z</time>
      </trkpt>
      <trkpt lat="46.31045239046216" lon="8.244259245693684">
        <ele>1906.4000000000001</ele>
        <time>2022-01-30T13:12:23Z</time>
      </trkpt>
      <trkpt lat="46.310481308028102" lon="8.244289085268974">
        <ele>1905.8399999999999</ele>
        <time>2022-01-30T13:12:35Z</time>
      </trkpt>
      <trkpt lat="46.310492036864161" lon="8.244294449687004">
        <ele>1905.9000000000001</ele>
        <time>2022-01-30T13:12:53Z</time>
      </trkpt>
      <trkpt lat="46.310492372140288" lon="8.24429914355278">
        <ele>1905.99</ele>
        <time>2022-01-30T13:12:59Z</time>
      </trkpt>
      <trkpt lat="46.31056621670723" lon="8.24448773637414">
        <ele>1903.26</ele>
        <time>2022-01-30T13:13:13Z</time>
      </trkpt>
      <trkpt lat="46.3105901889503" lon="8.244600305333734">
        <ele>1901.0699999999999</ele>
        <time>2022-01-30T13:13:26Z</time>
      </trkpt>
      <trkpt lat="46.310596140101552" lon="8.244598293676972">
        <ele>1901.1300000000001</ele>
        <time>2022-01-30T13:13:41Z</time>
      </trkpt>
      <trkpt lat="46.310648694634438" lon="8.244569711387157">
        <ele>1900.52</ele>
        <time>2022-01-30T13:13:56Z</time>
      </trkpt>
      <trkpt lat="46.310628661885858" lon="8.244590498507023">
        <ele>1900.77</ele>
        <time>2022-01-30T13:14:06Z</time>
      </trkpt>
      <trkpt lat="46.310604019090533" lon="8.244650010019541">
        <ele>1900.51</ele>
        <time>2022-01-30T13:14:17Z</time>
      </trkpt>
      <trkpt lat="46.310628242790699" lon="8.2447056658566">
        <ele>1899.1700000000001</ele>
        <time>2022-01-30T13:14:24Z</time>
      </trkpt>
      <trkpt lat="46.310692531988025" lon="8.244737014174461">
        <ele>1897.22</ele>
        <time>2022-01-30T13:14:37Z</time>
      </trkpt>
      <trkpt lat="46.310729999095201" lon="8.244710192084312">
        <ele>1895.8199999999999</ele>
        <time>2022-01-30T13:14:52Z</time>
      </trkpt>
      <trkpt lat="46.310734609141946" lon="8.244709521532059">
        <ele>1896.05</ele>
        <time>2022-01-30T13:15:05Z</time>
      </trkpt>
      <trkpt lat="46.310735614970326" lon="8.244696278125048">
        <ele>1896.1400000000001</ele>
        <time>2022-01-30T13:15:21Z</time>
      </trkpt>
      <trkpt lat="46.310736117884517" lon="8.244689153507352">
        <ele>1896.03</ele>
        <time>2022-01-30T13:15:35Z</time>
      </trkpt>
      <trkpt lat="46.310738297179341" lon="8.244684375822544">
        <ele>1896.4200000000001</ele>
        <time>2022-01-30T13:15:49Z</time>
      </trkpt>
      <trkpt lat="46.310755060985684" lon="8.244674820452929">
        <ele>1896.6300000000001</ele>
        <time>2022-01-30T13:16:10Z</time>
      </trkpt>
      <trkpt lat="46.310806442052126" lon="8.244640873745084">
        <ele>1894.3199999999999</ele>
        <time>2022-01-30T13:16:21Z</time>
      </trkpt>
      <trkpt lat="46.310849608853459" lon="8.244614554569125">
        <ele>1892.72</ele>
        <time>2022-01-30T13:16:27Z</time>
      </trkpt>
      <trkpt lat="46.310919178649783" lon="8.244591671973467">
        <ele>1890.5899999999999</ele>
        <time>2022-01-30T13:16:37Z</time>
      </trkpt>
      <trkpt lat="46.310981456190348" lon="8.244566945359111">
        <ele>1890.0999999999999</ele>
        <time>2022-01-30T13:16:47Z</time>
      </trkpt>
      <trkpt lat="46.311005596071482" lon="8.24453710578382">
        <ele>1890.45</ele>
        <time>2022-01-30T13:16:59Z</time>
      </trkpt>
      <trkpt lat="46.311072818934917" lon="8.244506428018212">
        <ele>1889.9400000000001</ele>
        <time>2022-01-30T13:17:14Z</time>
      </trkpt>
      <trkpt lat="46.311061587184668" lon="8.244518246501684">
        <ele>1890.22</ele>
        <time>2022-01-30T13:17:25Z</time>
      </trkpt>
      <trkpt lat="46.311025796458125" lon="8.244514055550098">
        <ele>1890.22</ele>
        <time>2022-01-30T13:17:49Z</time>
      </trkpt>
      <trkpt lat="46.311039626598358" lon="8.244519839063287">
        <ele>1889.6600000000001</ele>
        <time>2022-01-30T13:18:09Z</time>
      </trkpt>
      <trkpt lat="46.311041135340929" lon="8.244518581777811">
        <ele>1889.5999999999999</ele>
        <time>2022-01-30T13:18:35Z</time>
      </trkpt>
      <trkpt lat="46.311046164482832" lon="8.244514726102352">
        <ele>1889.5</ele>
        <time>2022-01-30T13:18:55Z</time>
      </trkpt>
      <trkpt lat="46.311044739559293" lon="8.244517995044589">
        <ele>1889.6199999999999</ele>
        <time>2022-01-30T13:19:10Z</time>
      </trkpt>
      <trkpt lat="46.311092264950275" lon="8.244471056386828">
        <ele>1889.6199999999999</ele>
        <time>2022-01-30T13:19:24Z</time>
      </trkpt>
      <trkpt lat="46.311104251071811" lon="8.244406096637249">
        <ele>1890.1199999999999</ele>
        <time>2022-01-30T13:19:36Z</time>
      </trkpt>
      <trkpt lat="46.311119589954615" lon="8.244426799938083">
        <ele>1889.3099999999999</ele>
        <time>2022-01-30T13:19:53Z</time>
      </trkpt>
      <trkpt lat="46.311154793947935" lon="8.244474576786161">
        <ele>1888.77</ele>
        <time>2022-01-30T13:20:04Z</time>
      </trkpt>
      <trkpt lat="46.311220927163959" lon="8.244575830176473">
        <ele>1886.6600000000001</ele>
        <time>2022-01-30T13:20:17Z</time>
      </trkpt>
      <trkpt lat="46.311330646276474" lon="8.244616314768791">
        <ele>1885.1300000000001</ele>
        <time>2022-01-30T13:20:30Z</time>
      </trkpt>
      <trkpt lat="46.311403820291162" lon="8.244646992534399">
        <ele>1884.4200000000001</ele>
        <time>2022-01-30T13:20:41Z</time>
      </trkpt>
      <trkpt lat="46.311489483341575" lon="8.244692925363779">
        <ele>1882.8</ele>
        <time>2022-01-30T13:20:54Z</time>
      </trkpt>
      <trkpt lat="46.311559472233057" lon="8.244729554280639">
        <ele>1880.1900000000001</ele>
        <time>2022-01-30T13:21:07Z</time>
      </trkpt>
      <trkpt lat="46.311629377305508" lon="8.244751514866948">
        <ele>1877.8800000000001</ele>
        <time>2022-01-30T13:21:18Z</time>
      </trkpt>
      <trkpt lat="46.31169299595058" lon="8.244804739952087">
        <ele>1876.5899999999999</ele>
        <time>2022-01-30T13:21:28Z</time>
      </trkpt>
      <trkpt lat="46.311755105853081" lon="8.244891157373786">
        <ele>1874.5599999999999</ele>
        <time>2022-01-30T13:21:40Z</time>
      </trkpt>
      <trkpt lat="46.311837835237384" lon="8.244909178465605">
        <ele>1873.0999999999999</ele>
        <time>2022-01-30T13:21:51Z</time>
      </trkpt>
      <trkpt lat="46.311912434175611" lon="8.244959218427539">
        <ele>1870.7</ele>
        <time>2022-01-30T13:22:03Z</time>
      </trkpt>
      <trkpt lat="46.311960630118847" lon="8.245062483474612">
        <ele>1867.8299999999999</ele>
        <time>2022-01-30T13:22:15Z</time>
      </trkpt>
      <trkpt lat="46.311996839940548" lon="8.245131298899651">
        <ele>1866.9300000000001</ele>
        <time>2022-01-30T13:22:23Z</time>
      </trkpt>
      <trkpt lat="46.312012765556574" lon="8.245183769613504">
        <ele>1865.8699999999999</ele>
        <time>2022-01-30T13:22:34Z</time>
      </trkpt>
      <trkpt lat="46.312027350068092" lon="8.245197264477611">
        <ele>1865.1099999999999</ele>
        <time>2022-01-30T13:22:45Z</time>
      </trkpt>
      <trkpt lat="46.312036402523518" lon="8.245196342468262">
        <ele>1864.8599999999999</ele>
        <time>2022-01-30T13:22:58Z</time>
      </trkpt>
      <trkpt lat="46.312055177986622" lon="8.245203299447894">
        <ele>1864.0999999999999</ele>
        <time>2022-01-30T13:23:04Z</time>
      </trkpt>
      <trkpt lat="46.312087448313832" lon="8.245310839265585">
        <ele>1862.3099999999999</ele>
        <time>2022-01-30T13:23:16Z</time>
      </trkpt>
      <trkpt lat="46.312100775539875" lon="8.245390215888619">
        <ele>1860.98</ele>
        <time>2022-01-30T13:23:28Z</time>
      </trkpt>
      <trkpt lat="46.312119048088789" lon="8.245479399338365">
        <ele>1858.46</ele>
        <time>2022-01-30T13:23:40Z</time>
      </trkpt>
      <trkpt lat="46.312138242647052" lon="8.245540419593453">
        <ele>1856.6500000000001</ele>
        <time>2022-01-30T13:23:50Z</time>
      </trkpt>
      <trkpt lat="46.312165819108486" lon="8.245637146756053">
        <ele>1853.8</ele>
        <time>2022-01-30T13:24:01Z</time>
      </trkpt>
      <trkpt lat="46.312200855463743" lon="8.245750470086932">
        <ele>1851.6900000000001</ele>
        <time>2022-01-30T13:24:14Z</time>
      </trkpt>
      <trkpt lat="46.312250308692455" lon="8.245836468413472">
        <ele>1849.24</ele>
        <time>2022-01-30T13:24:28Z</time>
      </trkpt>
      <trkpt lat="46.312319375574589" lon="8.245899835601449">
        <ele>1847.55</ele>
        <time>2022-01-30T13:24:42Z</time>
      </trkpt>
      <trkpt lat="46.312370840460062" lon="8.245923388749361">
        <ele>1845.6800000000001</ele>
        <time>2022-01-30T13:24:54Z</time>
      </trkpt>
      <trkpt lat="46.312423478811979" lon="8.245937637984753">
        <ele>1844.5</ele>
        <time>2022-01-30T13:25:04Z</time>
      </trkpt>
      <trkpt lat="46.312437811866403" lon="8.245943756774068">
        <ele>1844.3399999999999</ele>
        <time>2022-01-30T13:25:15Z</time>
      </trkpt>
      <trkpt lat="46.312465891242027" lon="8.24600100517273">
        <ele>1843.4300000000001</ele>
        <time>2022-01-30T13:25:25Z</time>
      </trkpt>
      <trkpt lat="46.312531270086765" lon="8.246059007942677">
        <ele>1841.9100000000001</ele>
        <time>2022-01-30T13:25:35Z</time>
      </trkpt>
      <trkpt lat="46.312596229836345" lon="8.2461217045784">
        <ele>1840.04</ele>
        <time>2022-01-30T13:25:46Z</time>
      </trkpt>
      <trkpt lat="46.312660435214639" lon="8.24615154415369">
        <ele>1838.97</ele>
        <time>2022-01-30T13:25:57Z</time>
      </trkpt>
      <trkpt lat="46.312754563987255" lon="8.246212899684906">
        <ele>1838.4200000000001</ele>
        <time>2022-01-30T13:26:09Z</time>
      </trkpt>
      <trkpt lat="46.312794545665383" lon="8.246307279914618">
        <ele>1835.75</ele>
        <time>2022-01-30T13:26:19Z</time>
      </trkpt>
      <trkpt lat="46.312806950882077" lon="8.246347680687904">
        <ele>1835.0999999999999</ele>
        <time>2022-01-30T13:26:30Z</time>
      </trkpt>
      <trkpt lat="46.312805106863379" lon="8.246384728699923">
        <ele>1835</ele>
        <time>2022-01-30T13:26:47Z</time>
      </trkpt>
      <trkpt lat="46.312844166532159" lon="8.246414819732308">
        <ele>1834.7</ele>
        <time>2022-01-30T13:26:52Z</time>
      </trkpt>
      <trkpt lat="46.31294977851212" lon="8.246459662914276">
        <ele>1833.5799999999999</ele>
        <time>2022-01-30T13:27:06Z</time>
      </trkpt>
      <trkpt lat="46.312974002212286" lon="8.246555551886559">
        <ele>1833.6800000000001</ele>
        <time>2022-01-30T13:27:16Z</time>
      </trkpt>
      <trkpt lat="46.313056480139494" lon="8.246602490544319">
        <ele>1832.8900000000001</ele>
        <time>2022-01-30T13:27:28Z</time>
      </trkpt>
      <trkpt lat="46.313118673861027" lon="8.246648758649826">
        <ele>1830.51</ele>
        <time>2022-01-30T13:27:39Z</time>
      </trkpt>
      <trkpt lat="46.313192434608936" lon="8.246728302910924">
        <ele>1828.54</ele>
        <time>2022-01-30T13:27:53Z</time>
      </trkpt>
      <trkpt lat="46.313244989141822" lon="8.246800806373358">
        <ele>1828.05</ele>
        <time>2022-01-30T13:28:02Z</time>
      </trkpt>
      <trkpt lat="46.313257813453674" lon="8.246857468038797">
        <ele>1827.6400000000001</ele>
        <time>2022-01-30T13:28:06Z</time>
      </trkpt>
      <trkpt lat="46.313324952498078" lon="8.247000630944967">
        <ele>1825.0899999999999</ele>
        <time>2022-01-30T13:28:19Z</time>
      </trkpt>
      <trkpt lat="46.313401479274035" lon="8.247113283723593">
        <ele>1823.6300000000001</ele>
        <time>2022-01-30T13:28:32Z</time>
      </trkpt>
      <trkpt lat="46.313514802604914" lon="8.247129712253809">
        <ele>1821.1099999999999</ele>
        <time>2022-01-30T13:28:47Z</time>
      </trkpt>
      <trkpt lat="46.31357372738421" lon="8.247191654518247">
        <ele>1819.21</ele>
        <time>2022-01-30T13:28:57Z</time>
      </trkpt>
      <trkpt lat="46.313616558909416" lon="8.247197102755308">
        <ele>1817.1800000000001</ele>
        <time>2022-01-30T13:29:08Z</time>
      </trkpt>
      <trkpt lat="46.313682440668344" lon="8.24714002199471">
        <ele>1814.3099999999999</ele>
        <time>2022-01-30T13:29:23Z</time>
      </trkpt>
      <trkpt lat="46.313745975494385" lon="8.247205400839448">
        <ele>1812.3099999999999</ele>
        <time>2022-01-30T13:29:36Z</time>
      </trkpt>
      <trkpt lat="46.31379802711308" lon="8.247161228209734">
        <ele>1810.7</ele>
        <time>2022-01-30T13:29:46Z</time>
      </trkpt>
      <trkpt lat="46.313831470906734" lon="8.247222332283855">
        <ele>1809.0899999999999</ele>
        <time>2022-01-30T13:29:57Z</time>
      </trkpt>
      <trkpt lat="46.313874386250973" lon="8.247247729450464">
        <ele>1807.3599999999999</ele>
        <time>2022-01-30T13:30:13Z</time>
      </trkpt>
      <trkpt lat="46.313940519466996" lon="8.24723188765347">
        <ele>1804.8299999999999</ele>
        <time>2022-01-30T13:30:24Z</time>
      </trkpt>
      <trkpt lat="46.31401645950973" lon="8.247255776077509">
        <ele>1802.1900000000001</ele>
        <time>2022-01-30T13:30:35Z</time>
      </trkpt>
      <trkpt lat="46.314084772020578" lon="8.247316209599376">
        <ele>1799.0799999999999</ele>
        <time>2022-01-30T13:30:46Z</time>
      </trkpt>
      <trkpt lat="46.314130872488022" lon="8.247254602611065">
        <ele>1797.6600000000001</ele>
        <time>2022-01-30T13:30:58Z</time>
      </trkpt>
      <trkpt lat="46.314178816974163" lon="8.247186206281185">
        <ele>1795.5999999999999</ele>
        <time>2022-01-30T13:31:09Z</time>
      </trkpt>
      <trkpt lat="46.314228940755129" lon="8.247227529063821">
        <ele>1792.46</ele>
        <time>2022-01-30T13:31:18Z</time>
      </trkpt>
      <trkpt lat="46.314298007637262" lon="8.247283520177007">
        <ele>1789.8699999999999</ele>
        <time>2022-01-30T13:31:29Z</time>
      </trkpt>
      <trkpt lat="46.314376462250948" lon="8.247276395559311">
        <ele>1787.1800000000001</ele>
        <time>2022-01-30T13:31:41Z</time>
      </trkpt>
      <trkpt lat="46.314417533576488" lon="8.247307073324919">
        <ele>1785.45</ele>
        <time>2022-01-30T13:31:52Z</time>
      </trkpt>
      <trkpt lat="46.314441254362464" lon="8.247307995334268">
        <ele>1785.1099999999999</ele>
        <time>2022-01-30T13:32:07Z</time>
      </trkpt>
      <trkpt lat="46.314475368708372" lon="8.247359208762646">
        <ele>1783.9200000000001</ele>
        <time>2022-01-30T13:32:17Z</time>
      </trkpt>
      <trkpt lat="46.314516020938754" lon="8.247336996719241">
        <ele>1782.46</ele>
        <time>2022-01-30T13:32:27Z</time>
      </trkpt>
      <trkpt lat="46.314532700926065" lon="8.247286453843117">
        <ele>1780.71</ele>
        <time>2022-01-30T13:32:36Z</time>
      </trkpt>
      <trkpt lat="46.31454854272306" lon="8.247276144102216">
        <ele>1779.7</ele>
        <time>2022-01-30T13:32:41Z</time>
      </trkpt>
      <trkpt lat="46.31457787938416" lon="8.247252674773336">
        <ele>1778.8099999999999</ele>
        <time>2022-01-30T13:32:46Z</time>
      </trkpt>
      <trkpt lat="46.314587434753776" lon="8.247270863503218">
        <ele>1778.8900000000001</ele>
        <time>2022-01-30T13:32:58Z</time>
      </trkpt>
      <trkpt lat="46.314589865505695" lon="8.247298942878842">
        <ele>1779.1300000000001</ele>
        <time>2022-01-30T13:33:18Z</time>
      </trkpt>
      <trkpt lat="46.314566982910037" lon="8.247307660058141">
        <ele>1779.46</ele>
        <time>2022-01-30T13:33:41Z</time>
      </trkpt>
      <trkpt lat="46.314556505531073" lon="8.247303636744618">
        <ele>1779.47</ele>
        <time>2022-01-30T13:33:56Z</time>
      </trkpt>
      <trkpt lat="46.314588105306029" lon="8.247296428307891">
        <ele>1779.45</ele>
        <time>2022-01-30T13:34:10Z</time>
      </trkpt>
      <trkpt lat="46.314612999558449" lon="8.24733984656632">
        <ele>1777.99</ele>
        <time>2022-01-30T13:34:15Z</time>
      </trkpt>
      <trkpt lat="46.314630266278982" lon="8.247409919276834">
        <ele>1776.5899999999999</ele>
        <time>2022-01-30T13:34:20Z</time>
      </trkpt>
      <trkpt lat="46.314671169966459" lon="8.24756758287549">
        <ele>1775.72</ele>
        <time>2022-01-30T13:34:33Z</time>
      </trkpt>
      <trkpt lat="46.314681647345424" lon="8.247608486562967">
        <ele>1775.7</ele>
        <time>2022-01-30T13:34:42Z</time>
      </trkpt>
      <trkpt lat="46.314722299575806" lon="8.247643271461129">
        <ele>1774.6800000000001</ele>
        <time>2022-01-30T13:34:53Z</time>
      </trkpt>
      <trkpt lat="46.314749624580145" lon="8.247655844315887">
        <ele>1774.03</ele>
        <time>2022-01-30T13:34:59Z</time>
      </trkpt>
      <trkpt lat="46.314776027575135" lon="8.247674284502864">
        <ele>1773.6500000000001</ele>
        <time>2022-01-30T13:35:02Z</time>
      </trkpt>
      <trkpt lat="46.31485003978014" lon="8.247756930068135">
        <ele>1773.1400000000001</ele>
        <time>2022-01-30T13:35:13Z</time>
      </trkpt>
      <trkpt lat="46.314890272915363" lon="8.247819961979985">
        <ele>1772.55</ele>
        <time>2022-01-30T13:35:22Z</time>
      </trkpt>
      <trkpt lat="46.314979624003172" lon="8.247877713292837">
        <ele>1770.1300000000001</ele>
        <time>2022-01-30T13:35:36Z</time>
      </trkpt>
      <trkpt lat="46.315027987584472" lon="8.247857596725225">
        <ele>1768.49</ele>
        <time>2022-01-30T13:35:48Z</time>
      </trkpt>
      <trkpt lat="46.315079117193818" lon="8.24785441160202">
        <ele>1766.9000000000001</ele>
        <time>2022-01-30T13:35:59Z</time>
      </trkpt>
      <trkpt lat="46.315097138285637" lon="8.247876036912203">
        <ele>1766.47</ele>
        <time>2022-01-30T13:36:05Z</time>
      </trkpt>
      <trkpt lat="46.315111806616187" lon="8.24793110601604">
        <ele>1765.51</ele>
        <time>2022-01-30T13:36:12Z</time>
      </trkpt>
      <trkpt lat="46.315117841586471" lon="8.247970920056105">
        <ele>1764.95</ele>
        <time>2022-01-30T13:36:22Z</time>
      </trkpt>
      <trkpt lat="46.315176347270608" lon="8.248062282800674">
        <ele>1763.72</ele>
        <time>2022-01-30T13:36:33Z</time>
      </trkpt>
      <trkpt lat="46.315244073048234" lon="8.248140653595328">
        <ele>1762.46</ele>
        <time>2022-01-30T13:36:43Z</time>
      </trkpt>
      <trkpt lat="46.315341051667929" lon="8.248297143727541">
        <ele>1761.1800000000001</ele>
        <time>2022-01-30T13:36:58Z</time>
      </trkpt>
      <trkpt lat="46.315391846001148" lon="8.248354727402329">
        <ele>1761.5899999999999</ele>
        <time>2022-01-30T13:37:07Z</time>
      </trkpt>
      <trkpt lat="46.315451106056571" lon="8.248404767364264">
        <ele>1760.55</ele>
        <time>2022-01-30T13:37:17Z</time>
      </trkpt>
      <trkpt lat="46.315514389425516" lon="8.248473415151238">
        <ele>1760.23</ele>
        <time>2022-01-30T13:37:27Z</time>
      </trkpt>
      <trkpt lat="46.315559903159738" lon="8.248522114008665">
        <ele>1758.74</ele>
        <time>2022-01-30T13:37:38Z</time>
      </trkpt>
      <trkpt lat="46.315606087446213" lon="8.24857709929347">
        <ele>1756.5599999999999</ele>
        <time>2022-01-30T13:37:49Z</time>
      </trkpt>
      <trkpt lat="46.315675405785441" lon="8.248618338257074">
        <ele>1755.02</ele>
        <time>2022-01-30T13:38:01Z</time>
      </trkpt>
      <trkpt lat="46.31574229337275" lon="8.248681118711829">
        <ele>1752.8499999999999</ele>
        <time>2022-01-30T13:38:13Z</time>
      </trkpt>
      <trkpt lat="46.315792920067906" lon="8.248755466192961">
        <ele>1751.29</ele>
        <time>2022-01-30T13:38:25Z</time>
      </trkpt>
      <trkpt lat="46.315839271992445" lon="8.248824113979936">
        <ele>1749.8</ele>
        <time>2022-01-30T13:38:37Z</time>
      </trkpt>
      <trkpt lat="46.31589668802917" lon="8.248817408457398">
        <ele>1747.8299999999999</ele>
        <time>2022-01-30T13:38:49Z</time>
      </trkpt>
      <trkpt lat="46.31591621786356" lon="8.248842721804977">
        <ele>1746.72</ele>
        <time>2022-01-30T13:38:59Z</time>
      </trkpt>
      <trkpt lat="46.315935663878918" lon="8.248844398185611">
        <ele>1745.4000000000001</ele>
        <time>2022-01-30T13:39:10Z</time>
      </trkpt>
      <trkpt lat="46.315974304452538" lon="8.248833920806646">
        <ele>1743.5799999999999</ele>
        <time>2022-01-30T13:39:20Z</time>
      </trkpt>
      <trkpt lat="46.315940441563725" lon="8.248743396252394">
        <ele>1742.22</ele>
        <time>2022-01-30T13:39:31Z</time>
      </trkpt>
      <trkpt lat="46.315903477370739" lon="8.248667204752564">
        <ele>1740.8900000000001</ele>
        <time>2022-01-30T13:39:41Z</time>
      </trkpt>
      <trkpt lat="46.31589132361114" lon="8.248609788715839">
        <ele>1740.45</ele>
        <time>2022-01-30T13:39:50Z</time>
      </trkpt>
      <trkpt lat="46.315900543704629" lon="8.248591516166925">
        <ele>1739.4000000000001</ele>
        <time>2022-01-30T13:39:57Z</time>
      </trkpt>
      <trkpt lat="46.315924348309636" lon="8.248619511723518">
        <ele>1738.24</ele>
        <time>2022-01-30T13:40:09Z</time>
      </trkpt>
      <trkpt lat="46.315925857052207" lon="8.248623535037041">
        <ele>1738.23</ele>
        <time>2022-01-30T13:40:22Z</time>
      </trkpt>
      <trkpt lat="46.315925354138017" lon="8.24862839654088">
        <ele>1738.73</ele>
        <time>2022-01-30T13:40:35Z</time>
      </trkpt>
      <trkpt lat="46.315938597545028" lon="8.248641639947891">
        <ele>1738.22</ele>
        <time>2022-01-30T13:40:48Z</time>
      </trkpt>
      <trkpt lat="46.315993834286928" lon="8.248671563342214">
        <ele>1736.6400000000001</ele>
        <time>2022-01-30T13:40:59Z</time>
      </trkpt>
      <trkpt lat="46.316050831228495" lon="8.248701319098473">
        <ele>1735.02</ele>
        <time>2022-01-30T13:41:09Z</time>
      </trkpt>
      <trkpt lat="46.31611947901547" lon="8.248772397637367">
        <ele>1733.3499999999999</ele>
        <time>2022-01-30T13:41:22Z</time>
      </trkpt>
      <trkpt lat="46.316125011071563" lon="8.24877985753119">
        <ele>1733.3299999999999</ele>
        <time>2022-01-30T13:41:23Z</time>
      </trkpt>
      <trkpt lat="46.316191395744681" lon="8.24885755777359">
        <ele>1731.4300000000001</ele>
        <time>2022-01-30T13:41:34Z</time>
      </trkpt>
      <trkpt lat="46.316229533404112" lon="8.248902065679431">
        <ele>1730.6800000000001</ele>
        <time>2022-01-30T13:41:43Z</time>
      </trkpt>
      <trkpt lat="46.316270520910621" lon="8.249017400667071">
        <ele>1730.21</ele>
        <time>2022-01-30T13:41:55Z</time>
      </trkpt>
      <trkpt lat="46.316272784024477" lon="8.249027794227004">
        <ele>1730.1199999999999</ele>
        <time>2022-01-30T13:41:56Z</time>
      </trkpt>
      <trkpt lat="46.316280076280236" lon="8.249126616865397">
        <ele>1728.77</ele>
        <time>2022-01-30T13:42:10Z</time>
      </trkpt>
      <trkpt lat="46.316266246140003" lon="8.249250585213304">
        <ele>1726.6800000000001</ele>
        <time>2022-01-30T13:42:23Z</time>
      </trkpt>
      <trkpt lat="46.316167507320642" lon="8.249309258535504">
        <ele>1725.1199999999999</ele>
        <time>2022-01-30T13:42:36Z</time>
      </trkpt>
      <trkpt lat="46.316137751564384" lon="8.249326776713133">
        <ele>1724.1700000000001</ele>
        <time>2022-01-30T13:42:47Z</time>
      </trkpt>
      <trkpt lat="46.316149989143014" lon="8.249283442273736">
        <ele>1723.9400000000001</ele>
        <time>2022-01-30T13:43:14Z</time>
      </trkpt>
      <trkpt lat="46.316108582541347" lon="8.249299451708794">
        <ele>1723.55</ele>
        <time>2022-01-30T13:43:28Z</time>
      </trkpt>
      <trkpt lat="46.316076647490263" lon="8.249328704550862">
        <ele>1722.9100000000001</ele>
        <time>2022-01-30T13:43:42Z</time>
      </trkpt>
      <trkpt lat="46.316060973331332" lon="8.249342618510127">
        <ele>1722.0999999999999</ele>
        <time>2022-01-30T13:43:44Z</time>
      </trkpt>
      <trkpt lat="46.316002635285258" lon="8.249416127800942">
        <ele>1719.6300000000001</ele>
        <time>2022-01-30T13:43:55Z</time>
      </trkpt>
      <trkpt lat="46.315971873700619" lon="8.24947421438992">
        <ele>1717.02</ele>
        <time>2022-01-30T13:44:05Z</time>
      </trkpt>
      <trkpt lat="46.315938765183091" lon="8.249550154432654">
        <ele>1714.27</ele>
        <time>2022-01-30T13:44:16Z</time>
      </trkpt>
      <trkpt lat="46.315933233126998" lon="8.24954554438591">
        <ele>1714.1700000000001</ele>
        <time>2022-01-30T13:44:26Z</time>
      </trkpt>
      <trkpt lat="46.315900878980756" lon="8.249602792784572">
        <ele>1712.3699999999999</ele>
        <time>2022-01-30T13:44:39Z</time>
      </trkpt>
      <trkpt lat="46.315902220085263" lon="8.24959927238524">
        <ele>1712.1600000000001</ele>
        <time>2022-01-30T13:44:57Z</time>
      </trkpt>
      <trkpt lat="46.315908674150705" lon="8.249611090868712">
        <ele>1711.8699999999999</ele>
        <time>2022-01-30T13:45:16Z</time>
      </trkpt>
      <trkpt lat="46.315895179286599" lon="8.249645456671715">
        <ele>1711.53</ele>
        <time>2022-01-30T13:45:33Z</time>
      </trkpt>
      <trkpt lat="46.315831728279591" lon="8.249738998711109">
        <ele>1709.74</ele>
        <time>2022-01-30T13:45:44Z</time>
      </trkpt>
      <trkpt lat="46.315769115462899" lon="8.249810999259353">
        <ele>1708.28</ele>
        <time>2022-01-30T13:45:57Z</time>
      </trkpt>
      <trkpt lat="46.315816892310977" lon="8.249835725873709">
        <ele>1706.8900000000001</ele>
        <time>2022-01-30T13:46:12Z</time>
      </trkpt>
      <trkpt lat="46.315881768241525" lon="8.249803371727467">
        <ele>1705.1300000000001</ele>
        <time>2022-01-30T13:46:21Z</time>
      </trkpt>
      <trkpt lat="46.315892916172743" lon="8.249870594590902">
        <ele>1703.22</ele>
        <time>2022-01-30T13:46:30Z</time>
      </trkpt>
      <trkpt lat="46.31588545627892" lon="8.249880066141486">
        <ele>1703.4100000000001</ele>
        <time>2022-01-30T13:46:36Z</time>
      </trkpt>
      <trkpt lat="46.315838433802128" lon="8.249904708936811">
        <ele>1702.6099999999999</ele>
        <time>2022-01-30T13:46:41Z</time>
      </trkpt>
      <trkpt lat="46.315747406333685" lon="8.249946115538478">
        <ele>1701.6099999999999</ele>
        <time>2022-01-30T13:46:54Z</time>
      </trkpt>
      <trkpt lat="46.315722176805139" lon="8.249945361167193">
        <ele>1701.1400000000001</ele>
        <time>2022-01-30T13:47:06Z</time>
      </trkpt>
      <trkpt lat="46.31570415571332" lon="8.249954581260681">
        <ele>1700.8</ele>
        <time>2022-01-30T13:47:17Z</time>
      </trkpt>
      <trkpt lat="46.315675908699632" lon="8.24996329843998">
        <ele>1700.22</ele>
        <time>2022-01-30T13:47:21Z</time>
      </trkpt>
      <trkpt lat="46.315642716363072" lon="8.249988276511431">
        <ele>1699.5999999999999</ele>
        <time>2022-01-30T13:47:35Z</time>
      </trkpt>
      <trkpt lat="46.315617319196463" lon="8.250003950670362">
        <ele>1699.52</ele>
        <time>2022-01-30T13:47:38Z</time>
      </trkpt>
      <trkpt lat="46.315537272021174" lon="8.250053487718105">
        <ele>1698.79</ele>
        <time>2022-01-30T13:47:51Z</time>
      </trkpt>
      <trkpt lat="46.31547742523253" lon="8.250069748610258">
        <ele>1698.8199999999999</ele>
        <time>2022-01-30T13:48:02Z</time>
      </trkpt>
      <trkpt lat="46.315456889569759" lon="8.250116351991892">
        <ele>1698.9400000000001</ele>
        <time>2022-01-30T13:48:13Z</time>
      </trkpt>
      <trkpt lat="46.315469378605485" lon="8.250148538500071">
        <ele>1698.5599999999999</ele>
        <time>2022-01-30T13:48:29Z</time>
      </trkpt>
      <trkpt lat="46.315465858206153" lon="8.250167481601238">
        <ele>1698.52</ele>
        <time>2022-01-30T13:48:46Z</time>
      </trkpt>
      <trkpt lat="46.315415482968092" lon="8.250288013368845">
        <ele>1697.3</ele>
        <time>2022-01-30T13:48:58Z</time>
      </trkpt>
      <trkpt lat="46.315328646451235" lon="8.250360935926437">
        <ele>1696.8</ele>
        <time>2022-01-30T13:49:10Z</time>
      </trkpt>
      <trkpt lat="46.315271984785795" lon="8.250467134639621">
        <ele>1694.28</ele>
        <time>2022-01-30T13:49:22Z</time>
      </trkpt>
      <trkpt lat="46.3152199331671" lon="8.250552713871002">
        <ele>1691.8900000000001</ele>
        <time>2022-01-30T13:49:31Z</time>
      </trkpt>
      <trkpt lat="46.315160589292645" lon="8.250660840421915">
        <ele>1689.6400000000001</ele>
        <time>2022-01-30T13:49:43Z</time>
      </trkpt>
      <trkpt lat="46.315088840201497" lon="8.250801237300038">
        <ele>1687.6300000000001</ele>
        <time>2022-01-30T13:49:57Z</time>
      </trkpt>
      <trkpt lat="46.315041733905673" lon="8.250904083251953">
        <ele>1685.5599999999999</ele>
        <time>2022-01-30T13:50:08Z</time>
      </trkpt>
      <trkpt lat="46.314981384202838" lon="8.250949345529079">
        <ele>1684.47</ele>
        <time>2022-01-30T13:50:14Z</time>
      </trkpt>
      <trkpt lat="46.314864456653595" lon="8.251022435724735">
        <ele>1683.46</ele>
        <time>2022-01-30T13:50:26Z</time>
      </trkpt>
      <trkpt lat="46.314838556572795" lon="8.251054789870977">
        <ele>1683.1500000000001</ele>
        <time>2022-01-30T13:50:29Z</time>
      </trkpt>
      <trkpt lat="46.314740236848593" lon="8.251139866188169">
        <ele>1682.53</ele>
        <time>2022-01-30T13:50:43Z</time>
      </trkpt>
      <trkpt lat="46.314715929329395" lon="8.251168616116047">
        <ele>1681.99</ele>
        <time>2022-01-30T13:50:47Z</time>
      </trkpt>
      <trkpt lat="46.31471810862422" lon="8.251283699646592">
        <ele>1681.73</ele>
        <time>2022-01-30T13:50:57Z</time>
      </trkpt>
      <trkpt lat="46.314711319282651" lon="8.251334829255939">
        <ele>1681.1500000000001</ele>
        <time>2022-01-30T13:51:01Z</time>
      </trkpt>
      <trkpt lat="46.314624818041921" lon="8.25141211040318">
        <ele>1678.8900000000001</ele>
        <time>2022-01-30T13:51:15Z</time>
      </trkpt>
      <trkpt lat="46.314581818878651" lon="8.251502467319369">
        <ele>1676.9300000000001</ele>
        <time>2022-01-30T13:51:27Z</time>
      </trkpt>
      <trkpt lat="46.314564887434244" lon="8.251608330756426">
        <ele>1674.74</ele>
        <time>2022-01-30T13:51:40Z</time>
      </trkpt>
      <trkpt lat="46.314557511359453" lon="8.251746464520693">
        <ele>1671.76</ele>
        <time>2022-01-30T13:51:53Z</time>
      </trkpt>
      <trkpt lat="46.314555080607533" lon="8.251856518909335">
        <ele>1670.1300000000001</ele>
        <time>2022-01-30T13:52:06Z</time>
      </trkpt>
      <trkpt lat="46.31454854272306" lon="8.251870013773441">
        <ele>1669.9400000000001</ele>
        <time>2022-01-30T13:52:17Z</time>
      </trkpt>
      <trkpt lat="46.314580980688334" lon="8.251980151981115">
        <ele>1669.01</ele>
        <time>2022-01-30T13:52:31Z</time>
      </trkpt>
      <trkpt lat="46.314578801393509" lon="8.252016110345721">
        <ele>1668.5999999999999</ele>
        <time>2022-01-30T13:52:34Z</time>
      </trkpt>
      <trkpt lat="46.314588272944093" lon="8.252204786986113">
        <ele>1666.3499999999999</ele>
        <time>2022-01-30T13:52:49Z</time>
      </trkpt>
      <trkpt lat="46.314609311521053" lon="8.252326659858227">
        <ele>1664.97</ele>
        <time>2022-01-30T13:53:01Z</time>
      </trkpt>
      <trkpt lat="46.314650466665626" lon="8.252437133342028">
        <ele>1662.4000000000001</ele>
        <time>2022-01-30T13:53:13Z</time>
      </trkpt>
      <trkpt lat="46.314679300412536" lon="8.252495639026165">
        <ele>1661.1300000000001</ele>
        <time>2022-01-30T13:53:19Z</time>
      </trkpt>
      <trkpt lat="46.314771333709359" lon="8.252612482756376">
        <ele>1659.1099999999999</ele>
        <time>2022-01-30T13:53:32Z</time>
      </trkpt>
      <trkpt lat="46.31479044444859" lon="8.25261315330863">
        <ele>1658.8900000000001</ele>
        <time>2022-01-30T13:53:43Z</time>
      </trkpt>
      <trkpt lat="46.314848195761442" lon="8.252651039510965">
        <ele>1658.9000000000001</ele>
        <time>2022-01-30T13:53:49Z</time>
      </trkpt>
      <trkpt lat="46.31485884077847" lon="8.252676101401448">
        <ele>1658.0699999999999</ele>
        <time>2022-01-30T13:53:51Z</time>
      </trkpt>
      <trkpt lat="46.314846184104681" lon="8.252850444987416">
        <ele>1658.8</ele>
        <time>2022-01-30T13:54:03Z</time>
      </trkpt>
      <trkpt lat="46.314854063093662" lon="8.253035014495254">
        <ele>1658.0799999999999</ele>
        <time>2022-01-30T13:54:16Z</time>
      </trkpt>
      <trkpt lat="46.314876694232225" lon="8.253237940371037">
        <ele>1657.6199999999999</ele>
        <time>2022-01-30T13:54:30Z</time>
      </trkpt>
      <trkpt lat="46.314907874912024" lon="8.253434747457504">
        <ele>1655.5699999999999</ele>
        <time>2022-01-30T13:54:44Z</time>
      </trkpt>
      <trkpt lat="46.314910892397165" lon="8.253446985036135">
        <ele>1655.5899999999999</ele>
        <time>2022-01-30T13:54:45Z</time>
      </trkpt>
      <trkpt lat="46.31499127484858" lon="8.253631638363004">
        <ele>1655.54</ele>
        <time>2022-01-30T13:54:59Z</time>
      </trkpt>
      <trkpt lat="46.31505380384624" lon="8.253761138767004">
        <ele>1655.54</ele>
        <time>2022-01-30T13:55:13Z</time>
      </trkpt>
      <trkpt lat="46.315076434984803" lon="8.253810675814748">
        <ele>1653.8399999999999</ele>
        <time>2022-01-30T13:55:29Z</time>
      </trkpt>
      <trkpt lat="46.315117422491312" lon="8.253894159570336">
        <ele>1654.25</ele>
        <time>2022-01-30T13:55:42Z</time>
      </trkpt>
      <trkpt lat="46.315154973417521" lon="8.253995832055807">
        <ele>1654.8699999999999</ele>
        <time>2022-01-30T13:55:53Z</time>
      </trkpt>
      <trkpt lat="46.315185902640224" lon="8.254122482612729">
        <ele>1653.79</ele>
        <time>2022-01-30T13:56:05Z</time>
      </trkpt>
      <trkpt lat="46.315215406939387" lon="8.254263382405043">
        <ele>1653.27</ele>
        <time>2022-01-30T13:56:18Z</time>
      </trkpt>
      <trkpt lat="46.315237199887633" lon="8.254450298845768">
        <ele>1653.0799999999999</ele>
        <time>2022-01-30T13:56:32Z</time>
      </trkpt>
      <trkpt lat="46.315259579569101" lon="8.254626821726561">
        <ele>1652.8599999999999</ele>
        <time>2022-01-30T13:56:45Z</time>
      </trkpt>
      <trkpt lat="46.31529226899147" lon="8.254767637699843">
        <ele>1653.48</ele>
        <time>2022-01-30T13:56:58Z</time>
      </trkpt>
      <trkpt lat="46.315294029191136" lon="8.254804685711861">
        <ele>1652.23</ele>
        <time>2022-01-30T13:57:01Z</time>
      </trkpt>
      <trkpt lat="46.315290676429868" lon="8.254879955202341">
        <ele>1652.76</ele>
        <time>2022-01-30T13:57:12Z</time>
      </trkpt>
      <trkpt lat="46.315289922058582" lon="8.255008952692151">
        <ele>1651.8599999999999</ele>
        <time>2022-01-30T13:57:25Z</time>
      </trkpt>
      <trkpt lat="46.315292939543724" lon="8.255168125033379">
        <ele>1652.5599999999999</ele>
        <time>2022-01-30T13:57:38Z</time>
      </trkpt>
      <trkpt lat="46.315291514620185" lon="8.255159910768271">
        <ele>1651.01</ele>
        <time>2022-01-30T13:57:50Z</time>
      </trkpt>
      <trkpt lat="46.315292101353407" lon="8.255160246044397">
        <ele>1652.6099999999999</ele>
        <time>2022-01-30T13:57:52Z</time>
      </trkpt>
      <trkpt lat="46.315296376124024" lon="8.255194779485464">
        <ele>1650.74</ele>
        <time>2022-01-30T13:57:58Z</time>
      </trkpt>
      <trkpt lat="46.315292352810502" lon="8.255242891609669">
        <ele>1651.5599999999999</ele>
        <time>2022-01-30T13:58:02Z</time>
      </trkpt>
      <trkpt lat="46.315296124666929" lon="8.255315311253071">
        <ele>1650.01</ele>
        <time>2022-01-30T13:58:08Z</time>
      </trkpt>
      <trkpt lat="46.315304674208164" lon="8.255364093929529">
        <ele>1651.3</ele>
        <time>2022-01-30T13:58:16Z</time>
      </trkpt>
      <trkpt lat="46.315287994220853" lon="8.255414133891463">
        <ele>1651.6300000000001</ele>
        <time>2022-01-30T13:58:25Z</time>
      </trkpt>
      <trkpt lat="46.315278941765428" lon="8.255531564354897">
        <ele>1651.8499999999999</ele>
        <time>2022-01-30T13:58:34Z</time>
      </trkpt>
      <trkpt lat="46.315282294526696" lon="8.255719905719161">
        <ele>1649.96</ele>
        <time>2022-01-30T13:58:48Z</time>
      </trkpt>
      <trkpt lat="46.31528883241117" lon="8.255948396399617">
        <ele>1650.21</ele>
        <time>2022-01-30T13:59:04Z</time>
      </trkpt>
      <trkpt lat="46.315295705571771" lon="8.256151909008622">
        <ele>1648.1900000000001</ele>
        <time>2022-01-30T13:59:19Z</time>
      </trkpt>
      <trkpt lat="46.31531473249197" lon="8.256368497386575">
        <ele>1647.8199999999999</ele>
        <time>2022-01-30T13:59:35Z</time>
      </trkpt>
      <trkpt lat="46.315343650057912" lon="8.256574859842658">
        <ele>1647.9200000000001</ele>
        <time>2022-01-30T13:59:50Z</time>
      </trkpt>
      <trkpt lat="46.315376590937376" lon="8.256769739091396">
        <ele>1647.0799999999999</ele>
        <time>2022-01-30T14:00:05Z</time>
      </trkpt>
      <trkpt lat="46.315404754132032" lon="8.25694827362895">
        <ele>1647.25</ele>
        <time>2022-01-30T14:00:19Z</time>
      </trkpt>
      <trkpt lat="46.315427217632532" lon="8.257161090150476">
        <ele>1647.1900000000001</ele>
        <time>2022-01-30T14:00:35Z</time>
      </trkpt>
      <trkpt lat="46.315435264259577" lon="8.257360495626926">
        <ele>1646.6900000000001</ele>
        <time>2022-01-30T14:00:50Z</time>
      </trkpt>
      <trkpt lat="46.315424116328359" lon="8.257532073184848">
        <ele>1646.5799999999999</ele>
        <time>2022-01-30T14:01:03Z</time>
      </trkpt>
      <trkpt lat="46.315418835729361" lon="8.257694095373154">
        <ele>1646.7</ele>
        <time>2022-01-30T14:01:16Z</time>
      </trkpt>
      <trkpt lat="46.315388744696975" lon="8.257793923839927">
        <ele>1646.5699999999999</ele>
        <time>2022-01-30T14:01:28Z</time>
      </trkpt>
      <trkpt lat="46.315389582887292" lon="8.257803730666637">
        <ele>1646.78</ele>
        <time>2022-01-30T14:01:47Z</time>
      </trkpt>
      <trkpt lat="46.315413303673267" lon="8.257806077599526">
        <ele>1646.9000000000001</ele>
        <time>2022-01-30T14:01:57Z</time>
      </trkpt>
      <trkpt lat="46.31541782990098" lon="8.257794175297022">
        <ele>1646.1099999999999</ele>
        <time>2022-01-30T14:02:14Z</time>
      </trkpt>
      <trkpt lat="46.315395701676607" lon="8.257789397612214">
        <ele>1646.54</ele>
        <time>2022-01-30T14:02:36Z</time>
      </trkpt>
      <trkpt lat="46.315382709726691" lon="8.257791576907039">
        <ele>1646.8599999999999</ele>
        <time>2022-01-30T14:02:51Z</time>
      </trkpt>
      <trkpt lat="46.31538262590766" lon="8.257792079821229">
        <ele>1646.3499999999999</ele>
        <time>2022-01-30T14:03:15Z</time>
      </trkpt>
      <trkpt lat="46.315381703898311" lon="8.257789649069309">
        <ele>1646.03</ele>
        <time>2022-01-30T14:03:41Z</time>
      </trkpt>
      <trkpt lat="46.315388074144721" lon="8.257809346541762">
        <ele>1645.3199999999999</ele>
        <time>2022-01-30T14:03:57Z</time>
      </trkpt>
      <trkpt lat="46.315388660877943" lon="8.257825272157788">
        <ele>1645.8399999999999</ele>
        <time>2022-01-30T14:04:11Z</time>
      </trkpt>
      <trkpt lat="46.315380781888962" lon="8.257825272157788">
        <ele>1646.1500000000001</ele>
        <time>2022-01-30T14:04:25Z</time>
      </trkpt>
      <trkpt lat="46.315379273146391" lon="8.257806831970811">
        <ele>1646.1600000000001</ele>
        <time>2022-01-30T14:04:56Z</time>
      </trkpt>
      <trkpt lat="46.315382039174438" lon="8.257819069549441">
        <ele>1646.4100000000001</ele>
        <time>2022-01-30T14:05:12Z</time>
      </trkpt>
      <trkpt lat="46.315368711948395" lon="8.25790498405695">
        <ele>1645.95</ele>
        <time>2022-01-30T14:05:23Z</time>
      </trkpt>
      <trkpt lat="46.315331747755408" lon="8.258009674027562">
        <ele>1645.52</ele>
        <time>2022-01-30T14:05:35Z</time>
      </trkpt>
      <trkpt lat="46.315337950363755" lon="8.258018894121051">
        <ele>1645.49</ele>
        <time>2022-01-30T14:05:44Z</time>
      </trkpt>
      <trkpt lat="46.315305093303323" lon="8.258093073964119">
        <ele>1644.95</ele>
        <time>2022-01-30T14:05:53Z</time>
      </trkpt>
      <trkpt lat="46.315289922058582" lon="8.258125092834234">
        <ele>1645.28</ele>
        <time>2022-01-30T14:05:56Z</time>
      </trkpt>
      <trkpt lat="46.315186908468604" lon="8.258257526904345">
        <ele>1645.2</ele>
        <time>2022-01-30T14:06:12Z</time>
      </trkpt>
      <trkpt lat="46.315075010061264" lon="8.258338831365109">
        <ele>1645.3900000000001</ele>
        <time>2022-01-30T14:06:27Z</time>
      </trkpt>
      <trkpt lat="46.315008457750082" lon="8.258437318727374">
        <ele>1643.9400000000001</ele>
        <time>2022-01-30T14:06:39Z</time>
      </trkpt>
      <trkpt lat="46.315008122473955" lon="8.258449304848909">
        <ele>1643.8499999999999</ele>
        <time>2022-01-30T14:06:40Z</time>
      </trkpt>
      <trkpt lat="46.315040895715356" lon="8.258612668141723">
        <ele>1642.0799999999999</ele>
        <time>2022-01-30T14:06:54Z</time>
      </trkpt>
      <trkpt lat="46.315070651471615" lon="8.258695565164089">
        <ele>1642.6600000000001</ele>
        <time>2022-01-30T14:07:01Z</time>
      </trkpt>
      <trkpt lat="46.315086660906672" lon="8.258734624832869">
        <ele>1640.6500000000001</ele>
        <time>2022-01-30T14:07:04Z</time>
      </trkpt>
      <trkpt lat="46.315092863515019" lon="8.258777372539043">
        <ele>1642.6199999999999</ele>
        <time>2022-01-30T14:07:07Z</time>
      </trkpt>
      <trkpt lat="46.315110381692648" lon="8.258984573185444">
        <ele>1642.4000000000001</ele>
        <time>2022-01-30T14:07:22Z</time>
      </trkpt>
      <trkpt lat="46.315089343115687" lon="8.259192695841193">
        <ele>1642.74</ele>
        <time>2022-01-30T14:07:37Z</time>
      </trkpt>
      <trkpt lat="46.315059838816524" lon="8.25940702110529">
        <ele>1643.53</ele>
        <time>2022-01-30T14:07:53Z</time>
      </trkpt>
      <trkpt lat="46.315044919028878" lon="8.259611371904612">
        <ele>1643.79</ele>
        <time>2022-01-30T14:08:09Z</time>
      </trkpt>
      <trkpt lat="46.315061850473285" lon="8.259699800983071">
        <ele>1644.01</ele>
        <time>2022-01-30T14:08:16Z</time>
      </trkpt>
      <trkpt lat="46.315121026709676" lon="8.259894009679556">
        <ele>1643.8</ele>
        <time>2022-01-30T14:08:32Z</time>
      </trkpt>
      <trkpt lat="46.315161008387804" lon="8.260087044909596">
        <ele>1643.5</ele>
        <time>2022-01-30T14:08:47Z</time>
      </trkpt>
      <trkpt lat="46.315193362534046" lon="8.260336155071855">
        <ele>1642.6400000000001</ele>
        <time>2022-01-30T14:09:05Z</time>
      </trkpt>
      <trkpt lat="46.315185483545065" lon="8.260550815612078">
        <ele>1642.9000000000001</ele>
        <time>2022-01-30T14:09:20Z</time>
      </trkpt>
      <trkpt lat="46.315183052793145" lon="8.260743180289865">
        <ele>1644.79</ele>
        <time>2022-01-30T14:09:35Z</time>
      </trkpt>
      <trkpt lat="46.315170899033546" lon="8.260758016258478">
        <ele>1643.75</ele>
        <time>2022-01-30T14:09:43Z</time>
      </trkpt>
      <trkpt lat="46.315182046964765" lon="8.26075273565948">
        <ele>1645.1199999999999</ele>
        <time>2022-01-30T14:09:57Z</time>
      </trkpt>
      <trkpt lat="46.315181963145733" lon="8.260752065107226">
        <ele>1643.3699999999999</ele>
        <time>2022-01-30T14:10:05Z</time>
      </trkpt>
      <trkpt lat="46.315183052793145" lon="8.260749047622085">
        <ele>1643.96</ele>
        <time>2022-01-30T14:10:22Z</time>
      </trkpt>
      <trkpt lat="46.315188333392143" lon="8.260753490030766">
        <ele>1644.05</ele>
        <time>2022-01-30T14:10:31Z</time>
      </trkpt>
      <trkpt lat="46.315196547657251" lon="8.26074393466115">
        <ele>1643.4100000000001</ele>
        <time>2022-01-30T14:10:36Z</time>
      </trkpt>
      <trkpt lat="46.315201157703996" lon="8.260742928832769">
        <ele>1643.23</ele>
        <time>2022-01-30T14:10:39Z</time>
      </trkpt>
      <trkpt lat="46.315219849348068" lon="8.260736307129264">
        <ele>1643.79</ele>
        <time>2022-01-30T14:10:44Z</time>
      </trkpt>
      <trkpt lat="46.315206186845899" lon="8.260741923004389">
        <ele>1643.28</ele>
        <time>2022-01-30T14:10:56Z</time>
      </trkpt>
      <trkpt lat="46.315214484930038" lon="8.260749969631434">
        <ele>1643.5599999999999</ele>
        <time>2022-01-30T14:11:09Z</time>
      </trkpt>
      <trkpt lat="46.315205851569772" lon="8.260788861662149">
        <ele>1643.3299999999999</ele>
        <time>2022-01-30T14:11:23Z</time>
      </trkpt>
      <trkpt lat="46.315194619819522" lon="8.260814175009728">
        <ele>1643.03</ele>
        <time>2022-01-30T14:11:33Z</time>
      </trkpt>
      <trkpt lat="46.315179197117686" lon="8.260828088968992">
        <ele>1642.8099999999999</ele>
        <time>2022-01-30T14:11:42Z</time>
      </trkpt>
      <trkpt lat="46.315130917355418" lon="8.26082113198936">
        <ele>1643.0699999999999</ele>
        <time>2022-01-30T14:11:54Z</time>
      </trkpt>
      <trkpt lat="46.315140975639224" lon="8.260815348476172">
        <ele>1643.4400000000001</ele>
        <time>2022-01-30T14:12:10Z</time>
      </trkpt>
      <trkpt lat="46.315121110528708" lon="8.260812079533935">
        <ele>1644.71</ele>
        <time>2022-01-30T14:12:21Z</time>
      </trkpt>
      <trkpt lat="46.315127816051245" lon="8.260838314890862">
        <ele>1644.95</ele>
        <time>2022-01-30T14:12:35Z</time>
      </trkpt>
      <trkpt lat="46.315090768039227" lon="8.260853234678507">
        <ele>1644.51</ele>
        <time>2022-01-30T14:12:54Z</time>
      </trkpt>
      <trkpt lat="46.315091606229544" lon="8.260858515277505">
        <ele>1644.8299999999999</ele>
        <time>2022-01-30T14:13:10Z</time>
      </trkpt>
      <trkpt lat="46.315118344500661" lon="8.260869244113565">
        <ele>1643.22</ele>
        <time>2022-01-30T14:13:15Z</time>
      </trkpt>
      <trkpt lat="46.31513393484056" lon="8.260871171951294">
        <ele>1644.8599999999999</ele>
        <time>2022-01-30T14:13:18Z</time>
      </trkpt>
      <trkpt lat="46.315135695040226" lon="8.260873351246119">
        <ele>1644.3099999999999</ele>
        <time>2022-01-30T14:13:35Z</time>
      </trkpt>
      <trkpt lat="46.315138461068273" lon="8.260871088132262">
        <ele>1643.75</ele>
        <time>2022-01-30T14:13:50Z</time>
      </trkpt>
      <trkpt lat="46.315140556544065" lon="8.260871926322579">
        <ele>1643.51</ele>
        <time>2022-01-30T14:14:08Z</time>
      </trkpt>
      <trkpt lat="46.315139550715685" lon="8.260869411751628">
        <ele>1643.7</ele>
        <time>2022-01-30T14:14:23Z</time>
      </trkpt>
      <trkpt lat="46.315141059458256" lon="8.26087293215096">
        <ele>1645.6900000000001</ele>
        <time>2022-01-30T14:14:31Z</time>
      </trkpt>
      <trkpt lat="46.315142484381795" lon="8.260875698179007">
        <ele>1643.6700000000001</ele>
        <time>2022-01-30T14:14:48Z</time>
      </trkpt>
      <trkpt lat="46.315138209611177" lon="8.260863460600376">
        <ele>1643.48</ele>
        <time>2022-01-30T14:15:15Z</time>
      </trkpt>
      <trkpt lat="46.315138125792146" lon="8.260861448943615">
        <ele>1643.3499999999999</ele>
        <time>2022-01-30T14:15:36Z</time>
      </trkpt>
      <trkpt lat="46.315136114135385" lon="8.260858599096537">
        <ele>1643.45</ele>
        <time>2022-01-30T14:15:57Z</time>
      </trkpt>
      <trkpt lat="46.31514030508697" lon="8.260868070647121">
        <ele>1643.8699999999999</ele>
        <time>2022-01-30T14:16:24Z</time>
      </trkpt>
      <trkpt lat="46.315138125792146" lon="8.260871171951294">
        <ele>1644.6800000000001</ele>
        <time>2022-01-30T14:16:40Z</time>
      </trkpt>
      <trkpt lat="46.315145418047905" lon="8.260868405923247">
        <ele>1643.1199999999999</ele>
        <time>2022-01-30T14:17:12Z</time>
      </trkpt>
      <trkpt lat="46.315143154934049" lon="8.260871423408389">
        <ele>1643.22</ele>
        <time>2022-01-30T14:17:37Z</time>
      </trkpt>
      <trkpt lat="46.3151422329247" lon="8.260873602703214">
        <ele>1643.77</ele>
        <time>2022-01-30T14:17:56Z</time>
      </trkpt>
      <trkpt lat="46.315141813829541" lon="8.260877374559641">
        <ele>1643.0599999999999</ele>
        <time>2022-01-30T14:18:18Z</time>
      </trkpt>
      <trkpt lat="46.315137539058924" lon="8.260875111445785">
        <ele>1641.6199999999999</ele>
        <time>2022-01-30T14:18:32Z</time>
      </trkpt>
      <trkpt lat="46.315143741667271" lon="8.260855665430427">
        <ele>1642.22</ele>
        <time>2022-01-30T14:18:59Z</time>
      </trkpt>
      <trkpt lat="46.315154135227203" lon="8.260854491963983">
        <ele>1642.4000000000001</ele>
        <time>2022-01-30T14:19:29Z</time>
      </trkpt>
      <trkpt lat="46.315121613442898" lon="8.260859856382012">
        <ele>1641.6900000000001</ele>
        <time>2022-01-30T14:19:54Z</time>
      </trkpt>
      <trkpt lat="46.315047685056925" lon="8.260849881917238">
        <ele>1641.26</ele>
        <time>2022-01-30T14:20:06Z</time>
      </trkpt>
      <trkpt lat="46.315041063353419" lon="8.260862538591027">
        <ele>1640.98</ele>
        <time>2022-01-30T14:20:26Z</time>
      </trkpt>
      <trkpt lat="46.314990017563105" lon="8.260864550247788">
        <ele>1640.8499999999999</ele>
        <time>2022-01-30T14:20:44Z</time>
      </trkpt>
      <trkpt lat="46.314959842711687" lon="8.260856922715902">
        <ele>1640.71</ele>
        <time>2022-01-30T14:20:47Z</time>
      </trkpt>
      <trkpt lat="46.314820786938071" lon="8.260832196101546">
        <ele>1639.1700000000001</ele>
        <time>2022-01-30T14:21:02Z</time>
      </trkpt>
      <trkpt lat="46.314675696194172" lon="8.260835465043783">
        <ele>1638.6300000000001</ele>
        <time>2022-01-30T14:21:17Z</time>
      </trkpt>
      <trkpt lat="46.314624398946762" lon="8.260858682915568">
        <ele>1638.51</ele>
        <time>2022-01-30T14:21:23Z</time>
      </trkpt>
      <trkpt lat="46.31449188105762" lon="8.260963708162308">
        <ele>1636.8499999999999</ele>
        <time>2022-01-30T14:21:38Z</time>
      </trkpt>
      <trkpt lat="46.314386185258627" lon="8.260819874703884">
        <ele>1634.8199999999999</ele>
        <time>2022-01-30T14:21:51Z</time>
      </trkpt>
      <trkpt lat="46.314265821129084" lon="8.26065743342042">
        <ele>1632.79</ele>
        <time>2022-01-30T14:22:06Z</time>
      </trkpt>
      <trkpt lat="46.314164064824581" lon="8.26061443425715">
        <ele>1632.4200000000001</ele>
        <time>2022-01-30T14:22:16Z</time>
      </trkpt>
      <trkpt lat="46.314024506136775" lon="8.260661540552974">
        <ele>1631.3099999999999</ele>
        <time>2022-01-30T14:22:30Z</time>
      </trkpt>
      <trkpt lat="46.314017800614238" lon="8.260776456445456">
        <ele>1632.53</ele>
        <time>2022-01-30T14:22:42Z</time>
      </trkpt>
      <trkpt lat="46.313974717631936" lon="8.260922972112894">
        <ele>1632.79</ele>
        <time>2022-01-30T14:22:55Z</time>
      </trkpt>
      <trkpt lat="46.313948985189199" lon="8.261093460023403">
        <ele>1632.1700000000001</ele>
        <time>2022-01-30T14:23:09Z</time>
      </trkpt>
      <trkpt lat="46.313941776752472" lon="8.261086838319898">
        <ele>1632</ele>
        <time>2022-01-30T14:23:26Z</time>
      </trkpt>
      <trkpt lat="46.313930545002222" lon="8.26107912696898">
        <ele>1630.98</ele>
        <time>2022-01-30T14:23:57Z</time>
      </trkpt>
      <trkpt lat="46.313925180584192" lon="8.261078456416726">
        <ele>1631.6500000000001</ele>
        <time>2022-01-30T14:24:29Z</time>
      </trkpt>
    </trkseg>
  </trk>

</gpx>